ECMWFFLT1_sfc_temp_000.txt.gz
Temp
98 96 96 95 94 94 94 93 93 93 92 92 92 93 94 93 92 92 92 91 90 89 90 90 90 90 90 90 90 90 90 89 89 89 89 89 89 89 88 89 88 87 88 88 88 87 88 88 88 87 87 86 86 85 85 85 84 85 84 84 83 83 83
97 96 96 96 95 94 94 93 93 93 93 92 92 92 94 92 91 92 91 91 90 90 90 91 90 90 90 90 90 90 89 89 89 88 89 89 89 89 89 88 88 88 87 88 89 88 88 88 88 87 86 86 86 85 85 85 84 84 85 84 83 83 83
98 98 97 96 95 95 93 94 93 93 93 94 94 94 93 91 91 91 91 91 90 90 91 91 90 90 90 90 90 90 90 90 89 89 89 90 89 91 90 89 89 89 88 88 87 88 88 88 87 87 86 85 86 85 85 85 84 84 84 84 83 83 82
95 97 97 96 95 95 95 94 93 95 96 96 95 95 93 91 92 92 92 92 90 90 89 91 91 91 91 90 89 89 89 89 89 90 90 90 90 90 89 89 88 89 88 87 87 87 88 88 87 86 85 85 84 85 85 85 85 84 84 83 83 83 83
96 98 98 96 96 95 94 95 95 94 97 99 96 94 94 93 93 93 93 93 94 91 92 92 94 92 91 90 90 90 89 89 89 90 91 91 90 90 89 89 89 89 88 87 85 84 85 86 87 86 85 84 85 85 84 84 84 84 84 83 83 83 83
96 95 95 97 97 96 95 97 98 99 99 99 97 95 96 97 97 97 95 92 93 94 93 92 92 91 90 91 91 90 90 89 90 89 90 90 89 89 89 89 89 89 88 86 86 85 85 86 86 85 85 86 86 85 85 84 84 84 84 83 82 83 83
97 96 95 96 96 96 96 98 101 101 100 100 100 98 98 99 98 98 99 97 96 93 94 94 93 93 90 91 90 89 88 89 89 89 90 90 89 88 88 88 87 87 87 85 83 84 83 84 83 83 83 84 85 84 83 82 82 83 83 82 81 82 82
98 96 96 96 98 98 98 98 100 102 100 99 101 100 98 99 99 100 99 100 99 99 97 98 94 92 90 90 90 89 89 89 89 89 89 89 89 88 88 87 85 84 83 82 82 82 81 80 81 82 82 82 82 82 82 82 81 83 82 81 81 81 82
99 97 97 98 98 99 99 98 98 99 97 96 97 96 97 98 100 99 100 100 100 98 98 99 99 95 91 90 89 89 89 89 89 88 88 88 88 88 88 85 83 83 81 79 80 80 80 79 80 80 80 80 80 80 81 80 81 81 82 81 81 81 81
97 95 95 98 99 100 98 99 98 96 95 94 94 94 95 97 97 99 100 100 101 100 99 99 100 98 92 91 91 91 89 89 88 89 90 89 89 88 85 83 84 82 75 71 74 77 76 76 77 77 77 77 78 78 79 80 80 81 81 81 81 81 80
95 93 93 96 96 96 97 98 96 93 93 91 91 94 94 95 95 98 98 100 100 100 101 100 100 99 96 94 94 92 88 88 89 89 88 88 88 87 86 85 82 78 74 73 73 73 73 73 74 74 74 74 75 76 77 79 80 80 80 80 81 81 81
92 92 90 92 93 95 95 94 94 92 92 91 92 93 92 93 95 97 97 97 100 101 100 100 101 101 98 96 94 91 89 88 88 86 85 84 84 83 83 83 79 77 72 71 72 72 72 72 71 71 71 72 74 75 77 78 79 79 80 81 81 81 81
92 90 89 92 91 93 92 91 91 91 91 92 93 93 93 94 94 96 93 94 98 99 99 98 99 97 97 97 97 91 89 87 82 78 77 82 81 78 77 78 77 75 71 70 70 70 71 73 72 71 71 72 73 74 76 77 79 79 80 81 81 81 80
89 91 91 90 90 90 90 90 90 90 90 91 92 92 93 94 95 94 93 93 95 98 99 98 96 96 94 93 93 90 87 84 81 79 78 81 81 77 74 73 72 74 74 72 71 72 73 73 72 71 71 72 74 75 77 77 79 79 80 80 81 81 80
93 93 91 90 89 88 89 89 89 89 90 91 93 92 92 93 93 92 92 94 93 98 97 96 95 93 93 92 91 86 84 82 81 81 78 75 74 72 72 73 72 73 74 74 74 74 74 73 72 71 72 74 74 75 77 78 79 80 79 78 78 79 79
96 95 93 91 89 90 89 89 89 89 89 90 91 91 92 91 91 92 92 93 95 93 97 95 93 91 91 90 86 83 82 81 80 77 75 73 72 73 73 73 72 73 73 74 74 74 72 72 72 73 73 74 75 76 77 78 79 74 70 73 77 77 77
95 95 94 92 90 90 89 89 90 89 89 89 90 90 90 91 91 92 96 96 96 93 95 96 91 91 90 87 84 82 80 79 78 77 76 77 77 76 76 75 73 73 73 73 73 73 73 72 73 74 75 76 77 77 78 78 78 69 65 67 69 75 77
95 93 94 94 91 90 89 90 89 89 89 91 91 90 91 90 91 92 94 95 95 96 96 94 92 92 89 88 81 80 80 79 77 77 77 77 77 77 77 77 77 76 76 76 75 75 76 76 75 76 77 78 79 80 79 79 70 65 65 65 65 67 74
92 93 92 91 90 89 91 92 91 89 91 93 93 91 92 92 93 90 92 92 93 94 94 94 94 91 89 85 82 82 80 78 77 77 77 77 77 77 78 78 78 78 78 77 77 78 77 77 77 77 78 79 79 80 81 82 69 64 64 64 63 63 66
92 92 92 92 92 91 90 91 91 91 93 92 93 96 95 93 93 92 94 94 93 92 92 91 92 90 86 83 82 81 80 78 77 76 76 77 77 77 78 78 78 78 79 79 78 77 78 78 77 78 77 78 79 79 81 82 67 62 61 62 62 63 66
89 90 90 90 90 92 89 90 90 90 90 93 95 94 93 93 94 93 94 92 91 91 89 89 89 87 84 82 81 81 80 78 77 76 76 77 78 78 78 78 78 78 78 80 80 78 78 78 77 78 78 79 80 79 79 81 63 63 61 60 60 61 67
92 92 91 92 90 88 87 90 89 91 90 92 92 93 96 95 97 96 95 95 91 89 89 88 87 86 83 82 81 80 80 79 78 77 77 77 78 78 78 79 79 79 80 80 81 81 82 80 80 79 79 80 80 80 78 80 61 62 61 60 60 61 69
96 95 95 93 94 91 90 90 91 92 91 92 94 94 95 97 98 97 95 94 91 88 88 87 86 85 83 81 81 81 80 79 77 77 77 78 78 78 79 79 79 80 81 80 81 81 81 80 81 80 80 78 78 78 78 78 65 60 59 59 59 64 75
92 93 95 95 92 91 89 90 93 92 93 92 94 96 97 98 96 92 90 89 89 88 87 85 85 85 82 81 81 80 79 78 77 76 77 78 78 78 80 81 81 81 81 80 81 82 82 83 80 80 79 78 77 79 79 80 67 58 57 57 57 67 76
93 94 93 92 90 90 92 91 91 92 92 93 95 94 94 93 91 90 88 87 87 87 85 85 85 85 84 82 81 79 78 78 77 77 77 77 78 79 79 80 80 81 81 82 82 82 82 81 80 78 77 80 80 74 78 81 72 55 57 56 57 67 75
90 90 91 92 94 92 89 88 89 91 93 93 90 92 91 91 89 87 87 86 87 87 86 86 85 86 86 84 81 80 80 80 78 78 78 78 78 78 78 80 81 81 81 82 83 83 82 81 81 79 80 81 81 80 81 82 81 69 55 55 55 61 74
90 91 91 92 90 86 89 90 92 93 94 90 89 90 90 90 89 86 86 86 87 86 88 87 86 86 85 83 82 81 80 81 81 80 79 79 77 79 80 81 80 80 79 83 83 83 81 82 82 80 80 82 82 82 80 82 83 72 54 54 56 56 62
91 92 92 89 88 91 94 96 92 92 91 88 90 89 90 89 86 85 86 87 87 87 89 86 85 85 84 83 83 82 80 81 81 81 79 78 78 78 78 79 79 79 81 84 82 80 80 79 80 81 80 81 82 80 80 76 69 75 57 56 54 54 56
88 89 89 89 90 93 94 92 91 89 88 89 91 93 92 91 85 85 86 86 87 89 87 86 85 83 82 82 82 81 81 81 79 80 80 79 79 79 78 78 78 79 80 80 80 79 78 78 79 79 79 79 78 79 79 76 71 65 68 54 53 51 53
90 91 93 96 96 94 92 87 85 84 86 87 88 90 89 85 83 84 85 85 88 87 86 85 83 82 81 80 80 81 81 81 80 80 80 79 79 79 77 78 79 79 79 79 79 78 77 78 78 78 78 78 79 79 78 77 77 65 63 62 53 52 50
91 92 93 92 94 91 92 88 84 83 82 82 83 85 87 87 83 81 82 83 84 84 84 83 82 81 80 81 80 80 81 80 80 79 79 79 80 78 78 78 79 78 78 79 78 78 77 78 78 78 78 79 78 79 79 78 78 78 63 58 55 52 50
87 89 90 89 87 89 90 90 89 87 84 83 85 85 85 87 87 81 79 81 82 83 83 82 81 80 80 80 80 80 80 79 79 78 79 79 81 80 79 79 79 79 78 79 79 78 78 78 79 79 78 78 79 79 78 76 78 76 73 63 58 56 52
83 83 83 83 83 86 88 88 88 86 85 82 85 88 87 84 83 81 80 80 82 83 82 81 79 79 79 79 78 79 79 78 80 81 81 79 81 81 80 80 80 79 77 79 80 79 78 78 78 78 79 78 79 79 78 77 76 75 76 72 69 65 60
80 81 82 83 83 84 86 86 85 84 82 81 83 85 87 86 84 82 82 83 83 83 81 79 79 80 79 79 79 78 78 78 76 77 81 81 80 80 82 80 81 81 78 79 79 79 78 77 77 77 78 77 78 77 76 74 75 76 75 74 74 74 76
79 80 81 81 81 82 82 83 82 82 82 81 82 83 81 80 80 82 81 83 85 81 80 79 78 79 80 81 81 79 77 78 78 80 80 79 78 74 73 76 79 78 80 80 77 77 79 79 80 80 83 82 78 77 74 74 73 77 67 70 61 72 79
80 81 81 81 80 80 81 82 82 81 81 81 82 81 81 81 81 83 86 87 84 80 78 77 79 80 81 81 81 79 79 79 82 81 79 78 76 71 64 49 45 58 74 76 59 48 43 50 73 75 81 84 83 74 80 84 80 52 45 46 44 42 44
78 79 80 80 78 78 79 81 81 81 80 81 81 81 81 81 83 82 83 84 82 81 78 79 79 81 83 79 81 78 78 81 81 79 78 79 79 76 73 70 59 41 40 49 50 45 40 40 40 43 48 64 80 62 46 47 45 45 45 42 42 42 43
79 80 82 81 79 78 79 80 80 80 80 81 81 81 81 82 81 80 83 83 84 82 80 81 82 83 84 83 83 78 79 83 80 79 79 79 79 77 77 77 73 66 45 39 43 43 40 39 39 40 44 44 52 65 66 47 42 42 42 41 40 41 40

ECMWFFLT1_sfc_temp_003.txt.gz
Temp
97 97 97 95 95 96 97 95 95 95 94 93 93 94 95 94 93 93 92 91 90 89 89 90 90 90 90 90 90 90 91 90 90 89 89 89 90 89 89 90 89 89 90 89 88 88 87 89 90 89 88 88 87 87 86 86 85 85 85 84 84 84 84
102 100 101 100 97 95 97 96 95 96 95 94 94 93 94 93 93 93 92 91 91 90 90 90 90 90 90 90 90 90 90 90 90 89 90 89 90 89 90 89 89 88 89 89 87 89 88 90 89 88 88 87 87 86 86 85 84 84 85 84 84 83 83
99 99 98 97 97 97 96 97 96 96 95 96 96 95 94 92 92 92 92 92 90 90 91 91 90 91 91 91 91 90 90 91 90 90 90 90 90 92 90 90 89 89 89 89 89 89 90 89 88 89 88 87 87 86 85 85 84 84 84 85 84 83 82
100 99 100 99 97 97 98 97 97 98 98 98 97 96 94 92 94 93 94 93 91 91 90 91 92 92 92 91 91 90 90 90 91 91 91 91 90 91 90 89 88 89 88 88 89 89 89 88 89 88 87 86 86 86 86 85 85 84 84 84 83 83 83
100 102 101 99 99 98 98 98 98 96 99 100 98 95 95 95 96 96 95 95 96 92 93 94 95 94 92 92 92 92 91 91 91 91 91 91 90 90 89 89 89 88 88 89 88 87 87 87 87 86 85 84 85 85 85 85 84 84 83 83 82 83 83
101 100 98 100 100 99 99 100 100 101 100 101 99 97 98 99 99 99 97 95 96 96 94 93 93 93 92 93 93 92 92 91 91 90 91 91 90 90 90 88 85 88 90 88 88 88 87 86 85 84 84 85 86 85 86 85 85 84 83 82 82 82 83
102 99 97 97 98 100 100 100 102 102 101 101 101 100 100 100 100 100 99 98 98 95 95 96 95 95 93 93 92 92 91 92 91 91 92 92 91 89 89 88 87 88 87 86 86 86 85 84 83 82 81 83 83 84 83 83 83 83 83 81 80 80 81
103 99 96 97 98 104 102 101 101 102 101 101 101 100 100 101 101 101 100 100 99 100 98 97 96 93 93 93 93 92 92 92 93 92 92 91 90 89 89 88 86 87 84 85 83 83 82 81 83 82 81 81 80 81 82 82 82 84 82 81 80 81 82
104 100 98 101 98 98 103 101 101 101 98 98 99 98 100 100 101 101 101 101 100 99 99 100 98 96 93 92 92 91 92 92 92 91 91 89 90 92 91 90 87 84 83 81 81 82 82 81 82 81 80 80 79 81 82 82 81 82 82 81 80 80 81
98 99 99 102 100 99 103 103 101 98 97 96 96 96 97 99 99 101 101 102 102 101 101 101 102 99 95 93 92 92 92 91 91 92 94 93 92 91 91 88 85 83 84 84 83 80 80 81 81 81 80 80 80 80 81 81 81 81 81 80 80 80 80
99 97 97 100 98 98 100 102 98 96 95 93 94 99 97 98 99 101 100 102 103 103 103 102 100 98 97 95 94 93 90 92 93 92 92 92 93 92 91 87 85 85 87 85 81 80 79 79 80 80 80 80 79 79 79 80 80 80 81 81 81 81 81
97 98 98 98 98 99 100 97 97 95 95 93 96 98 95 95 99 101 101 101 104 104 103 103 102 101 98 96 94 91 91 91 93 92 92 93 93 92 89 88 86 87 86 83 79 78 78 79 79 80 79 79 79 79 79 80 80 80 80 82 83 82 82
100 98 97 99 97 98 97 96 96 95 95 97 99 98 98 99 99 101 98 99 104 104 103 101 99 97 99 98 96 90 90 91 91 90 92 91 91 89 88 88 89 89 88 87 84 82 80 80 80 80 80 79 79 79 79 80 80 80 80 80 81 81 81
94 97 97 97 97 96 95 95 95 94 95 97 98 98 99 99 100 99 98 99 101 105 105 102 98 97 95 92 90 88 91 91 90 90 90 90 89 87 87 87 87 87 86 85 84 84 83 82 81 81 81 81 81 80 80 80 80 80 80 80 81 81 81
98 98 96 95 94 94 94 95 94 94 95 96 98 97 98 98 98 97 98 100 99 105 103 101 98 96 96 93 90 88 89 90 90 90 89 87 87 85 84 84 84 85 84 82 83 84 84 84 83 81 80 81 81 80 81 80 80 81 80 80 80 81 81
102 98 95 95 95 95 94 95 95 94 94 94 96 95 98 96 96 98 99 100 102 100 103 100 97 94 94 92 90 90 90 89 88 87 86 86 85 84 84 84 84 84 83 82 83 83 83 83 83 84 81 80 80 80 81 81 82 76 70 73 81 81 81
102 103 103 101 98 96 94 94 95 94 93 93 93 94 94 95 96 98 102 102 102 99 101 103 95 95 93 92 91 90 88 86 85 86 84 83 83 83 83 84 84 83 82 82 82 83 83 84 84 85 84 82 81 81 81 81 81 70 67 68 70 79 80
100 99 100 102 100 96 93 93 93 93 93 95 95 94 95 94 96 98 99 100 100 102 103 100 97 96 92 92 90 87 85 84 84 83 82 82 82 83 83 84 84 83 82 82 82 82 84 83 83 83 83 82 83 82 82 83 72 66 66 67 67 71 80
100 100 100 97 95 95 97 96 95 93 95 97 96 96 97 96 97 95 97 96 98 98 100 101 100 94 88 88 87 85 86 84 84 83 82 82 82 83 83 83 84 83 83 83 84 84 82 82 82 81 82 82 81 82 83 85 69 64 65 66 66 67 75
102 102 103 101 98 100 97 95 97 96 97 96 97 101 100 98 97 96 98 99 98 97 96 95 95 93 88 86 86 86 85 85 85 85 83 83 83 83 83 83 83 83 84 85 84 82 82 82 81 80 80 81 81 81 83 84 68 64 63 65 64 66 69
99 100 98 97 97 100 95 96 96 96 95 98 100 99 98 98 98 98 99 98 97 95 93 93 92 90 85 85 85 85 85 84 84 83 83 83 83 83 83 83 82 83 83 85 84 82 81 81 80 80 81 81 81 81 82 85 64 64 63 63 62 63 68
102 101 99 100 97 96 95 97 96 99 96 98 99 100 100 98 100 100 101 101 97 94 93 92 91 90 85 85 85 84 85 85 84 83 83 83 82 82 82 82 82 82 82 84 85 85 84 83 83 81 81 80 80 80 80 83 60 63 61 61 61 61 72
104 103 103 100 102 99 97 97 98 99 96 98 100 100 99 100 101 100 100 98 96 93 92 92 91 91 86 85 85 84 83 84 83 83 82 82 82 83 83 82 81 82 83 83 84 85 84 83 85 83 82 80 79 79 78 82 64 60 59 60 59 63 75
105 105 105 104 101 101 97 97 98 98 98 98 98 99 100 100 98 96 94 93 93 92 91 91 90 89 87 87 87 86 84 83 83 82 82 82 82 82 83 84 84 84 84 83 84 86 87 86 84 83 81 80 81 83 81 83 67 57 58 58 57 65 76
103 105 104 103 101 99 98 96 96 98 97 97 98 98 97 96 95 94 92 92 91 91 90 90 90 89 88 87 86 84 83 84 83 83 82 82 82 83 82 83 83 85 85 86 86 85 86 86 83 82 80 83 84 76 80 83 68 56 58 57 56 65 77
99 101 101 103 103 101 96 94 94 94 96 95 94 96 96 96 95 92 91 90 91 92 91 90 89 89 89 88 86 84 84 84 83 83 82 82 82 82 83 84 84 84 83 84 85 85 85 84 83 82 83 84 82 80 80 80 76 66 57 56 55 59 75
99 99 100 102 101 92 95 94 94 95 97 95 95 97 96 95 94 91 90 90 90 89 91 90 89 87 87 86 87 86 85 85 86 84 83 83 82 84 85 86 85 85 84 86 87 84 82 82 81 81 83 84 82 83 81 82 81 71 56 55 55 57 63
99 100 100 97 93 93 94 96 93 95 97 95 96 96 95 93 90 88 88 89 89 90 92 89 88 87 86 85 85 86 85 85 84 84 83 83 83 83 84 85 85 84 83 86 84 82 81 81 81 81 82 83 83 82 81 80 76 78 58 56 54 56 56
94 96 96 93 92 94 95 93 94 95 93 96 96 96 95 93 88 88 89 88 89 91 90 89 88 86 85 84 84 84 84 83 82 81 82 82 83 83 83 83 83 82 81 82 81 80 80 80 80 81 80 80 80 81 80 79 74 66 66 55 53 53 55
94 94 93 95 96 95 97 93 91 91 93 96 95 96 94 90 88 88 88 88 90 89 87 87 86 84 83 83 83 83 83 82 81 81 81 82 82 82 81 81 81 80 80 82 80 80 79 79 80 80 80 80 79 80 82 80 77 66 63 60 54 54 54
92 93 95 95 96 93 92 91 89 91 92 94 93 93 92 92 88 87 86 88 88 86 86 85 84 83 82 81 82 81 81 80 80 81 81 81 82 81 79 80 80 79 80 81 81 80 79 78 79 79 79 80 80 81 81 79 76 75 65 59 54 52 50
93 94 95 94 90 91 90 91 90 89 88 88 90 89 89 90 90 85 85 87 86 86 85 84 82 81 81 80 80 80 81 79 80 80 81 81 81 80 80 80 81 80 80 81 81 80 79 78 80 79 79 79 81 81 80 79 78 75 68 62 58 57 52
87 90 90 90 90 91 91 91 90 89 90 89 91 92 93 90 89 87 86 85 85 83 81 80 79 79 81 80 81 81 80 79 80 80 80 80 82 83 82 82 82 82 80 81 81 80 79 79 80 80 81 80 81 82 81 80 79 77 71 72 71 69 61
84 85 86 88 88 88 89 89 88 87 87 87 89 90 90 89 87 85 84 84 83 83 82 81 81 81 81 82 82 81 81 80 77 78 80 81 84 83 84 83 84 84 80 80 80 80 79 80 80 80 80 81 83 82 80 79 79 79 79 78 78 76 74
83 83 85 85 85 85 85 85 85 84 84 84 86 86 85 85 85 87 86 87 88 85 83 82 81 80 82 83 82 81 79 79 78 80 80 81 82 79 76 78 84 84 82 77 76 79 84 83 82 82 85 85 82 81 79 80 77 80 72 78 66 74 77
84 85 85 85 85 84 83 84 83 82 82 83 84 84 84 85 87 88 91 91 89 86 82 80 82 82 82 82 82 81 80 80 80 81 81 81 78 73 66 50 43 53 75 77 57 47 44 54 74 75 80 82 77 73 80 78 81 58 53 55 56 54 55
83 84 84 85 84 83 82 82 82 82 81 82 83 84 85 86 88 88 90 87 86 86 82 82 82 83 83 81 82 79 79 80 80 80 80 81 80 79 76 76 65 45 40 47 49 44 40 40 41 44 50 66 80 63 47 47 46 45 46 47 46 44 45
83 84 85 85 84 82 82 82 82 82 81 83 83 84 84 86 86 85 85 83 82 82 81 82 81 81 81 81 80 77 78 81 80 80 81 80 80 79 78 78 75 68 47 40 42 43 41 40 39 40 43 42 54 67 68 50 43 43 43 43 42 42 41

ECMWFFLT1_sfc_temp_006.txt.gz
Temp
98 97 95 94 93 93 92 90 89 90 89 90 91 92 93 92 90 89 88 87 86 85 86 86 86 86 86 86 86 86 86 86 86 86 85 85 86 85 84 85 85 83 84 84 84 83 84 86 84 84 83 82 82 82 82 81 82 82 81 80 80 79 80
98 96 95 95 94 93 92 91 90 90 90 92 92 90 92 91 90 89 88 87 87 86 86 86 86 86 86 86 87 86 86 86 86 85 86 85 86 85 86 85 84 84 84 84 84 84 84 85 85 84 84 83 83 82 83 81 81 80 80 79 79 78 79
98 95 93 93 93 92 91 93 92 91 92 94 94 93 91 89 89 89 88 88 87 86 87 86 86 87 87 86 86 86 86 87 86 86 86 87 87 89 87 85 85 85 85 84 84 84 85 84 84 83 83 82 83 82 81 81 80 80 80 79 79 79 78
96 94 94 95 94 93 93 93 93 94 95 96 96 94 91 89 90 90 90 90 87 87 86 87 87 87 87 86 86 86 86 86 87 87 88 88 87 87 86 85 85 86 84 83 85 86 86 85 84 83 84 82 82 82 82 81 81 80 80 80 79 79 78
94 96 96 95 96 94 94 94 94 93 96 99 97 93 92 92 92 92 92 92 92 89 89 89 90 89 88 88 88 87 87 87 87 87 88 87 87 86 86 87 85 86 85 85 84 83 83 83 84 83 82 82 82 81 81 81 81 80 79 79 78 79 79
94 94 94 95 96 96 95 97 99 98 98 98 97 95 95 95 95 95 94 92 92 92 90 89 88 88 87 89 89 88 87 87 87 87 87 87 86 86 86 85 86 86 86 84 85 85 84 83 83 83 83 83 83 82 82 81 82 81 79 79 78 79 79
93 94 95 96 97 97 96 97 99 100 100 100 99 97 97 97 95 96 96 94 94 90 91 91 90 90 88 89 88 87 86 88 87 87 88 88 87 85 85 85 85 86 85 84 84 84 83 82 82 82 82 82 82 82 80 80 80 80 79 78 77 78 78
96 95 95 96 99 101 100 98 98 99 99 98 99 99 97 97 96 96 95 96 95 94 93 92 91 89 88 88 89 88 88 88 89 88 88 88 86 86 86 86 84 85 84 84 84 84 84 82 83 82 82 82 80 80 80 80 79 81 80 78 77 78 79
100 96 97 100 101 103 101 98 98 97 94 93 95 95 96 96 96 96 96 96 95 94 93 94 93 92 89 89 88 88 88 89 88 88 87 88 87 88 88 86 85 85 84 85 85 84 84 83 83 81 81 81 80 80 80 79 80 80 79 78 78 77 78
96 95 96 101 101 102 97 97 95 93 91 91 91 92 94 95 95 96 96 97 96 95 95 95 95 94 91 89 90 90 89 88 88 90 90 90 89 89 89 88 87 86 85 85 86 84 83 83 82 81 80 80 80 79 79 79 80 79 79 79 78 77 77
94 92 93 97 95 94 93 94 91 89 90 88 89 93 93 94 95 96 96 97 97 96 97 96 95 95 93 92 92 91 89 89 90 90 89 90 91 90 91 90 89 87 86 86 85 85 83 82 82 80 80 80 79 79 79 80 79 79 79 79 79 78 78
91 91 90 92 92 92 92 90 89 88 88 88 90 93 91 91 95 97 96 96 98 97 97 97 97 96 93 93 92 90 90 89 91 90 90 90 90 91 91 91 89 88 87 87 85 84 83 82 81 80 79 79 79 79 79 79 79 78 79 80 79 78 78
92 91 91 93 91 91 89 88 87 87 87 91 94 94 94 94 95 96 93 95 98 98 98 96 96 93 94 93 93 89 89 90 89 88 90 89 89 88 89 90 91 90 87 87 86 85 82 81 81 80 80 79 79 79 79 79 79 78 78 78 78 77 77
92 94 95 92 92 90 89 88 88 87 88 91 93 94 95 95 96 95 94 95 97 99 99 98 94 93 91 91 90 88 90 90 88 88 88 88 87 87 88 88 88 88 86 85 85 85 82 81 80 80 80 79 79 79 79 79 79 78 78 77 77 77 77
95 97 95 95 91 89 89 89 87 88 90 91 94 93 94 95 95 94 93 96 95 100 99 96 93 92 92 90 89 88 88 88 88 88 87 87 86 86 86 86 86 86 85 84 85 84 83 82 81 80 79 80 80 79 80 79 79 78 78 76 77 77 78
101 100 99 95 94 94 92 92 91 91 91 91 92 91 95 93 92 95 95 96 98 96 99 95 93 90 91 90 89 88 88 87 87 87 87 86 86 85 85 85 85 84 84 84 84 83 82 81 81 81 80 79 79 79 79 79 79 74 70 73 77 77 78
99 99 99 95 91 93 92 93 93 92 91 90 91 91 92 92 93 95 99 99 100 96 99 98 91 91 90 89 89 88 88 87 87 87 86 86 86 85 85 85 85 83 83 83 83 83 81 81 81 80 80 80 79 79 79 79 78 68 67 69 72 76 77
96 94 96 94 92 93 92 93 92 92 92 94 93 92 93 91 93 95 97 98 99 101 101 97 94 92 89 90 88 88 87 87 87 86 86 86 85 85 85 85 84 83 83 83 83 82 82 80 78 76 79 80 80 80 79 79 71 65 66 68 68 71 77
96 97 94 93 92 91 95 96 95 93 95 97 95 95 96 94 95 93 95 95 96 97 100 98 96 91 89 89 88 87 87 87 86 86 86 85 86 85 85 83 83 83 83 83 82 82 80 78 78 78 80 79 78 79 79 80 67 64 65 67 66 68 73
98 99 100 98 96 96 95 94 95 96 96 95 96 100 99 97 97 95 97 98 95 95 94 93 93 90 89 88 87 87 87 87 86 86 85 85 85 84 83 82 82 83 84 84 82 81 81 81 80 80 79 78 78 77 79 80 65 64 64 65 65 67 70
94 95 96 96 94 97 93 93 94 94 94 98 100 98 98 98 98 97 98 97 96 94 91 91 90 89 89 87 87 87 86 86 85 85 84 83 83 82 82 82 82 83 83 84 82 81 80 81 80 79 80 80 80 80 79 81 62 63 63 64 64 65 68
99 100 99 100 94 93 91 95 95 98 95 97 97 99 100 100 101 101 100 101 97 94 92 91 89 89 88 88 86 85 85 84 84 82 82 82 82 82 82 82 82 82 82 82 83 82 82 82 81 79 79 80 79 80 79 78 60 63 62 62 63 64 70
104 103 103 100 101 96 94 96 96 98 95 96 99 98 99 101 101 99 99 99 98 92 93 92 89 88 86 85 85 85 85 85 84 83 82 82 82 82 82 81 82 82 82 82 82 83 82 81 82 79 80 79 79 78 78 75 63 61 61 61 61 64 72
107 104 104 103 100 99 95 96 97 97 98 97 97 99 99 100 98 95 93 94 95 93 92 91 86 87 86 86 86 85 85 85 84 84 83 82 82 81 82 83 83 82 82 82 82 83 84 82 81 80 80 79 79 80 78 78 64 59 59 60 59 65 73
106 107 106 103 103 101 99 95 95 99 96 96 97 97 96 96 95 93 92 92 92 91 91 89 86 87 86 86 86 85 84 84 84 83 83 82 82 82 82 83 82 83 83 83 83 83 82 82 82 81 81 82 80 75 78 81 67 56 58 57 57 66 74
100 102 103 103 105 104 96 92 92 95 97 96 94 97 96 95 94 92 91 91 93 93 92 89 86 87 88 87 86 85 85 85 83 83 83 82 82 82 83 83 83 82 82 82 83 83 84 83 83 81 80 81 80 80 81 79 69 61 56 56 56 61 74
98 101 101 104 103 96 95 93 94 95 98 96 94 96 96 94 94 91 90 90 90 90 93 91 87 87 86 85 85 85 84 84 84 83 83 83 82 84 84 84 82 82 81 83 84 82 81 82 82 81 80 82 81 82 81 79 71 64 54 54 55 58 64
94 96 100 98 93 93 95 97 93 94 97 93 94 95 95 93 90 89 89 90 89 90 92 88 87 87 86 84 84 85 84 83 84 84 83 82 82 81 80 81 82 81 82 83 80 78 78 77 78 80 79 80 81 80 78 78 73 70 56 55 54 55 57
90 93 91 88 93 97 96 94 93 95 95 97 98 98 96 95 89 88 88 88 87 90 89 87 87 86 85 84 84 82 83 83 82 82 82 81 81 80 79 80 80 79 77 78 78 78 77 77 78 78 78 77 77 78 78 78 73 65 64 55 53 53 54
91 92 92 93 94 92 96 91 90 91 94 97 96 96 95 91 86 86 85 85 88 87 87 86 85 84 83 82 82 82 83 82 82 81 80 79 80 79 79 79 79 78 78 78 78 77 77 77 78 78 78 77 76 78 78 76 75 66 64 61 54 53 53
85 85 86 85 90 89 90 90 89 91 92 94 92 91 89 88 86 83 82 84 85 85 85 84 83 82 82 82 82 82 82 81 80 80 79 79 79 78 78 78 78 77 78 77 77 76 76 76 78 77 77 76 76 76 76 75 74 72 65 61 56 54 52
78 77 78 76 74 74 82 90 91 92 88 86 87 87 87 86 85 82 82 84 83 84 83 82 81 81 81 81 81 80 80 79 80 79 79 79 79 79 79 78 78 77 77 76 77 76 75 75 76 76 77 76 77 76 76 74 74 70 66 61 59 57 53
74 73 73 72 73 77 80 77 81 80 85 85 85 86 87 87 86 84 83 82 82 83 82 81 80 79 79 79 78 78 79 78 78 79 79 78 78 79 79 78 77 77 75 77 78 77 76 76 76 76 77 76 77 77 76 74 73 70 67 67 65 65 59
70 70 70 70 73 72 71 72 72 71 72 73 78 79 78 80 84 85 84 85 85 84 82 79 79 79 79 79 78 78 78 78 77 77 78 79 80 80 80 78 79 79 76 77 78 76 76 77 76 76 77 77 78 78 75 75 74 72 71 70 70 69 67
71 72 72 71 72 75 79 78 79 79 80 78 78 81 80 82 85 86 85 85 85 82 81 79 78 79 80 80 79 78 77 78 78 79 78 78 75 68 66 73 80 80 71 65 66 75 82 79 79 79 82 82 79 77 74 75 74 74 66 72 63 69 71
70 70 72 73 74 74 73 72 73 74 74 76 81 82 83 84 85 87 88 86 85 83 79 79 80 80 80 81 80 80 78 78 79 79 78 74 69 67 62 50 43 57 73 68 56 48 50 60 74 73 78 79 70 68 76 78 78 61 57 56 54 55 58
73 75 75 78 77 75 77 77 79 80 81 81 83 84 84 85 86 86 86 84 84 83 81 81 80 81 82 80 81 78 79 80 80 78 77 76 74 71 69 66 58 43 43 50 48 43 41 41 42 45 49 67 78 63 48 56 54 51 52 51 50 49 50
79 79 80 81 80 78 79 79 80 80 81 83 83 84 84 86 86 84 85 84 84 83 81 81 80 80 80 80 78 76 77 81 79 79 78 76 75 74 72 70 66 61 46 41 44 43 41 41 40 41 43 48 60 66 62 50 47 48 47 47 46 45 44

ECMWFFLT1_sfc_temp_009.txt.gz
Temp
91 91 90 90 89 89 87 86 87 87 86 85 85 86 87 86 85 84 83 82 82 81 81 82 82 82 81 82 82 82 82 82 81 81 81 81 80 80 79 79 79 79 79 79 79 79 80 80 80 79 77 77 78 77 76 75 75 76 75 75 75 74 73
90 90 90 90 88 88 87 87 87 87 87 87 86 86 87 86 85 84 83 83 82 82 82 82 82 82 82 82 82 82 81 82 82 82 82 81 80 80 81 80 80 79 79 79 79 79 80 80 80 78 77 78 78 77 76 75 74 74 74 74 74 73 73
90 91 90 89 88 87 85 86 86 87 87 88 87 86 86 85 85 85 84 83 82 82 82 82 82 82 82 82 82 81 82 82 81 81 81 81 81 81 81 81 80 80 80 80 79 79 81 79 80 78 78 77 77 76 76 75 74 74 73 73 74 73 71
89 90 90 89 88 88 87 86 86 88 89 89 88 87 86 86 86 85 85 84 83 82 82 82 83 83 83 82 81 81 82 82 82 82 82 82 81 82 81 81 80 81 80 80 80 81 81 79 79 78 79 77 76 76 76 75 74 74 74 73 72 72 71
89 91 90 89 89 88 87 87 87 87 89 90 89 87 87 87 87 86 86 85 85 83 84 83 84 84 83 83 82 82 82 82 82 83 83 83 82 82 81 81 81 81 81 81 80 80 79 77 79 78 78 76 76 76 75 75 74 74 73 73 72 71 72
90 90 89 90 90 89 88 89 89 89 89 89 89 88 88 88 89 88 87 85 85 85 84 84 84 83 83 83 83 83 83 83 83 83 82 82 82 82 81 81 81 81 81 80 81 80 80 78 78 77 77 77 77 76 76 75 75 74 73 73 73 72 72
90 90 90 90 90 89 89 90 91 90 90 90 90 89 89 90 89 89 89 87 86 84 84 84 84 84 83 83 83 82 82 82 82 83 83 83 83 82 81 82 82 82 81 80 80 79 79 78 78 77 77 77 77 76 75 74 74 74 73 72 71 72 72
91 90 89 90 90 91 90 90 91 91 90 90 90 90 89 90 90 90 89 88 88 87 86 85 85 84 83 83 84 83 83 83 83 83 83 83 82 82 82 82 81 82 80 80 79 79 79 78 78 78 77 77 76 76 75 74 74 75 74 73 72 71 73
91 90 89 90 91 91 91 90 90 90 89 88 89 89 89 89 90 90 90 89 89 87 86 87 86 85 84 83 83 83 83 83 83 83 83 83 83 83 83 82 82 82 81 80 80 79 79 78 78 77 77 77 76 75 75 75 74 75 74 74 73 72 72
89 88 89 91 92 93 92 91 89 88 87 87 88 87 88 89 90 90 90 90 90 88 88 88 87 86 85 84 84 84 83 83 83 83 83 83 83 83 83 83 83 82 81 80 80 79 79 79 78 77 77 76 75 75 75 75 75 74 74 74 74 73 72
89 88 88 90 90 90 90 89 87 85 86 86 87 88 88 88 89 90 90 91 90 90 89 89 88 87 85 85 84 84 83 83 84 83 83 83 84 84 84 84 84 82 82 81 80 80 79 78 78 77 76 76 76 75 75 75 75 74 74 74 74 74 73
87 87 87 88 88 88 87 86 86 85 85 85 87 88 87 87 89 90 90 91 92 91 90 89 89 88 86 85 85 83 83 83 84 84 84 84 84 84 84 85 83 83 82 81 80 79 79 78 78 77 76 77 76 76 76 75 75 75 75 75 74 74 74
86 86 86 87 86 87 87 84 85 85 85 86 88 88 88 88 89 90 89 90 92 92 91 90 89 87 86 86 85 84 83 84 84 84 84 84 84 84 84 84 85 84 82 82 82 80 79 78 77 77 77 76 76 76 76 75 75 74 74 74 74 73 73
87 87 87 87 87 86 86 85 85 84 85 86 87 88 88 89 90 89 89 90 91 92 91 91 89 88 86 85 85 84 84 84 84 84 84 84 84 84 84 84 83 83 82 82 81 81 79 79 78 77 77 77 76 76 76 75 75 74 74 74 74 73 73
85 86 84 83 82 83 84 83 83 83 83 84 86 86 87 87 88 88 88 90 90 92 91 90 88 87 86 85 84 84 84 84 84 84 84 84 83 83 83 83 83 82 81 81 81 81 81 80 78 77 76 76 76 76 76 76 75 75 75 74 73 73 73
87 87 86 85 83 84 84 83 82 82 82 83 85 85 87 87 87 88 89 90 91 91 92 90 88 87 86 85 84 85 85 84 84 84 83 83 83 83 83 83 82 81 81 80 81 80 80 79 78 77 76 76 75 75 75 75 76 72 68 70 74 73 73
86 86 85 82 81 82 82 82 83 82 81 82 84 85 87 87 88 89 91 91 92 91 92 91 88 87 86 85 85 85 85 84 84 84 83 83 83 82 82 82 82 81 80 79 80 80 79 78 77 77 77 76 75 75 75 75 76 67 65 68 70 73 72
86 86 86 86 84 84 83 83 83 82 82 84 85 86 87 87 88 89 90 91 92 93 92 91 89 88 86 86 85 85 84 84 83 83 83 82 82 82 82 81 81 80 80 78 78 78 78 77 77 77 77 76 76 75 75 75 70 65 64 66 67 70 73
85 85 88 86 85 85 87 86 85 84 85 87 88 88 89 89 89 88 89 90 91 92 92 91 90 88 86 86 85 85 84 84 83 83 83 82 82 82 81 81 80 80 80 79 79 77 76 76 76 76 76 76 75 75 74 75 68 63 64 64 64 66 70
85 85 87 89 88 88 88 87 87 87 87 88 88 90 91 90 90 90 91 92 91 91 91 90 90 88 86 85 85 85 84 84 84 83 83 82 82 82 81 80 80 81 81 79 77 76 76 75 75 75 75 75 75 75 75 75 63 62 62 63 63 65 68
81 81 86 89 88 89 87 88 88 88 88 89 90 90 90 90 91 91 92 91 90 90 89 89 88 87 86 85 85 85 84 84 83 83 82 82 82 81 81 80 80 80 79 79 78 76 75 74 74 74 75 75 74 74 73 76 61 60 60 60 61 63 66
87 86 84 86 85 86 88 89 88 89 89 90 90 90 91 91 92 92 92 93 90 89 89 89 87 86 85 85 85 84 85 84 83 83 82 82 82 81 81 80 79 78 78 77 77 75 73 75 76 75 74 75 75 75 73 76 60 61 60 60 61 62 68
86 85 87 83 87 87 85 88 88 90 89 89 91 90 92 93 93 92 91 91 91 88 88 88 87 86 85 85 85 85 85 85 84 82 82 82 81 81 81 79 78 78 77 75 73 73 73 75 77 76 76 75 75 75 74 73 61 60 59 59 60 63 69
90 89 88 90 85 87 86 88 90 90 90 90 91 92 93 93 92 90 88 89 89 88 87 87 87 87 86 85 86 86 85 85 84 82 82 82 81 81 80 80 79 78 76 75 75 75 76 77 76 76 77 76 75 76 74 72 61 58 58 59 60 64 70
91 93 92 91 94 91 90 89 90 91 90 91 91 91 91 91 91 89 87 88 88 88 87 87 88 88 87 86 86 85 85 84 84 83 82 81 81 81 79 79 78 77 77 77 77 77 77 77 76 75 76 77 76 74 74 72 62 56 59 59 59 64 70
80 81 82 84 87 90 92 90 89 89 90 90 90 92 91 91 90 88 87 87 89 89 88 88 89 89 89 88 86 85 84 84 83 82 81 80 80 80 79 79 78 77 77 77 78 77 77 76 76 75 75 75 74 74 76 73 67 61 57 59 58 61 70
83 83 82 84 84 83 86 89 89 88 90 89 89 90 91 89 89 87 87 87 87 88 90 91 91 89 88 86 85 84 83 83 82 81 81 81 80 80 80 80 78 78 78 78 78 77 76 76 76 75 74 75 75 75 74 73 69 64 56 56 56 58 64
82 83 84 82 82 82 85 88 88 89 91 90 90 90 90 89 87 86 86 86 87 89 92 91 89 87 85 84 83 83 82 82 82 81 81 80 80 79 78 78 79 78 78 78 76 75 75 74 73 74 74 74 74 74 72 71 68 66 56 55 54 55 59
74 77 77 77 78 79 83 81 83 84 84 87 89 91 91 90 86 86 85 86 87 90 90 87 86 84 83 82 82 81 81 81 80 80 80 79 79 79 77 77 77 76 76 75 74 74 72 71 72 73 72 72 71 71 71 69 66 61 60 54 53 53 56
72 72 73 76 77 76 79 75 73 72 70 69 74 77 80 84 85 84 84 85 88 87 84 83 83 82 81 80 80 80 80 80 79 79 79 79 78 77 76 75 75 75 74 73 72 71 71 71 72 72 71 71 71 71 70 68 66 60 59 58 54 54 54
70 69 70 69 71 73 73 71 70 71 71 72 72 71 70 70 71 76 83 84 83 82 83 82 81 80 79 79 79 79 79 79 78 78 78 78 77 76 75 74 74 72 72 73 72 72 72 71 72 72 71 71 70 70 69 68 67 65 61 59 56 54 53
69 69 69 69 69 70 71 71 70 70 70 69 71 72 72 71 70 68 69 73 73 72 71 70 69 69 70 71 72 73 74 74 74 74 74 74 75 75 75 74 73 72 72 73 73 72 71 70 70 69 70 71 70 69 68 67 67 65 63 61 59 56 53
67 68 67 67 67 68 69 69 69 68 68 67 69 71 72 71 70 70 70 71 73 73 72 71 70 70 70 71 71 71 72 72 72 72 74 74 74 75 75 74 73 72 71 71 72 71 71 71 70 69 69 69 69 68 67 66 65 63 60 60 58 58 56
67 67 68 68 68 69 68 67 67 68 67 67 68 70 71 70 70 70 71 71 71 72 72 70 70 70 70 71 72 72 72 71 73 73 74 75 76 75 74 72 73 72 70 70 71 69 70 70 69 69 69 68 69 67 67 66 64 63 62 61 60 59 57
66 66 67 67 66 68 68 69 68 68 68 68 70 71 71 71 71 71 71 71 72 72 71 69 70 73 73 75 76 74 73 74 73 74 71 64 56 54 57 67 73 67 61 57 61 71 74 70 70 70 71 70 69 68 66 66 64 65 60 64 58 61 60
66 66 67 68 68 67 68 68 68 68 68 68 70 71 71 71 71 72 73 73 72 72 70 71 72 75 76 76 76 75 74 74 73 71 67 64 61 58 56 49 46 56 67 63 55 51 57 60 69 69 71 70 63 67 71 68 69 58 54 52 51 52 54
67 69 68 69 68 68 68 68 69 69 69 69 70 71 72 71 71 71 72 71 71 72 72 73 73 74 76 76 75 74 74 74 71 68 66 65 64 63 58 57 53 43 43 48 48 46 43 42 43 47 58 69 66 55 54 62 56 51 51 50 50 49 50
69 69 68 68 68 67 68 67 67 68 68 70 71 71 71 73 74 75 75 75 74 75 75 74 73 74 75 75 73 72 73 73 71 69 68 67 67 64 62 61 58 55 45 42 45 44 42 41 42 43 46 54 59 60 59 55 51 50 49 49 49 49 49

ECMWFFLT1_sfc_temp_012.txt.gz
Temp
86 86 85 85 85 84 83 83 84 84 84 83 83 84 84 83 82 81 81 80 79 79 79 79 79 80 79 80 80 80 80 80 80 79 79 79 79 78 77 77 77 77 77 76 76 76 77 78 78 78 77 75 75 75 75 74 74 74 73 72 72 71 71
85 86 86 86 85 85 84 84 84 85 84 84 84 84 84 83 83 82 81 80 80 80 79 80 80 79 80 80 80 80 79 80 80 80 80 79 79 78 79 78 78 77 77 77 77 77 77 78 78 77 76 76 75 75 75 74 73 73 73 72 71 70 71
84 85 86 86 85 85 84 84 84 85 85 85 85 84 84 83 83 82 81 81 80 80 80 80 80 80 80 80 79 79 80 80 80 79 79 79 78 79 79 78 78 78 78 77 77 77 78 77 78 77 76 76 76 75 75 73 72 73 73 72 72 71 70
84 85 85 86 86 86 85 85 84 86 86 86 86 85 84 84 84 83 83 82 80 80 79 80 80 80 80 80 79 79 79 80 80 80 80 80 79 79 78 78 78 78 77 77 78 78 78 78 77 76 77 76 75 76 74 73 73 72 72 72 71 71 70
85 86 86 85 86 85 85 85 85 85 86 87 86 85 85 85 85 84 83 83 83 81 81 81 82 82 81 81 80 80 80 80 80 80 80 80 80 79 78 78 78 78 78 78 78 78 77 77 77 76 76 75 75 75 74 73 73 72 71 72 71 70 70
85 85 85 86 86 86 86 86 86 87 87 87 86 85 85 86 86 85 84 83 83 83 82 82 81 81 81 81 81 81 81 80 80 80 80 80 80 79 79 79 79 78 78 78 78 78 78 77 77 76 76 76 76 75 75 73 73 72 72 71 71 71 70
86 86 87 87 86 86 87 87 88 88 88 88 88 86 86 86 86 85 85 83 83 82 82 81 82 82 81 81 81 81 80 80 80 80 81 80 80 80 79 79 79 79 79 78 78 78 78 77 77 77 76 76 76 75 74 73 72 72 72 71 70 70 70
88 87 87 88 88 88 88 88 88 88 88 87 87 86 86 86 86 86 85 84 84 84 83 82 82 81 81 81 81 81 80 81 81 81 81 80 80 80 79 79 79 79 79 78 78 78 78 77 78 77 77 76 75 75 74 73 73 73 72 71 70 70 71
89 88 89 90 89 89 89 88 88 87 86 86 86 85 85 85 86 86 85 85 84 84 83 84 83 83 82 81 81 81 81 81 81 80 80 80 80 80 80 80 80 80 79 79 79 78 78 77 77 77 76 76 75 75 74 73 73 73 72 72 71 70 70
87 87 88 90 91 90 89 89 87 85 84 84 84 84 84 85 86 86 86 86 85 84 84 84 84 83 82 81 81 81 81 80 81 81 81 80 81 81 81 81 81 80 79 79 79 78 78 78 77 76 76 76 75 75 74 73 73 73 73 72 71 71 70
87 87 88 89 88 88 88 88 84 83 83 83 83 84 84 84 85 86 86 86 85 85 85 85 85 84 83 82 82 81 81 80 81 80 80 80 81 81 82 82 81 81 80 79 79 78 78 77 77 76 75 75 75 74 74 74 73 73 73 72 72 72 71
86 86 85 86 86 86 86 85 84 82 82 82 83 84 83 84 85 86 86 86 87 86 85 85 85 85 83 83 82 81 81 81 81 81 81 81 81 81 82 82 81 81 80 80 79 78 78 77 77 76 75 76 75 75 74 74 74 73 73 73 73 72 71
85 85 85 86 85 86 85 81 82 82 82 83 84 84 84 85 85 86 85 86 87 87 86 85 85 84 83 83 82 81 81 81 81 81 81 81 81 82 82 82 82 82 81 80 80 78 77 77 77 77 76 76 75 75 74 74 74 73 73 73 72 72 72
84 85 86 86 85 84 82 81 82 81 81 83 83 84 85 85 86 86 85 86 87 87 86 86 85 84 83 82 81 81 81 81 81 81 81 81 81 81 81 81 81 81 81 80 79 78 78 77 77 77 77 76 76 75 75 74 73 73 73 73 73 72 72
80 82 84 85 84 83 82 81 80 81 82 82 84 84 84 85 85 85 86 87 87 88 87 86 85 84 83 82 81 81 81 81 81 81 81 81 81 80 80 81 81 80 80 79 79 79 78 78 77 76 75 76 75 75 75 74 74 74 74 73 72 72 72
82 84 84 83 83 83 82 82 82 81 81 81 83 83 84 84 84 85 85 86 87 87 88 86 85 83 83 82 81 82 82 81 81 81 81 80 80 80 80 80 80 80 79 79 79 78 78 77 77 77 75 75 75 75 74 74 74 71 66 69 73 73 72
79 80 81 80 81 83 83 83 82 81 81 81 82 83 84 84 85 86 87 87 88 87 88 87 84 84 83 82 82 82 82 81 81 81 80 80 80 80 80 80 80 79 78 78 78 77 77 77 76 76 76 75 75 74 74 74 74 66 64 67 69 72 72
78 78 77 79 78 79 78 79 79 79 80 82 83 84 84 83 85 85 86 87 88 89 88 87 85 84 83 83 82 82 81 81 81 80 80 80 80 80 80 80 79 78 78 77 77 77 77 76 76 76 76 75 75 74 74 74 68 64 64 66 67 69 72
78 79 80 79 78 78 80 81 80 80 82 83 84 85 85 85 85 84 86 86 87 88 88 87 86 85 83 83 82 82 82 81 81 80 80 80 80 80 79 79 78 78 77 77 77 77 76 76 76 75 75 75 74 74 74 74 67 63 63 65 66 67 70
80 81 82 82 82 82 83 83 83 83 84 84 85 87 88 87 87 87 88 88 88 87 87 86 86 85 83 83 82 82 82 81 81 80 80 80 80 79 79 78 78 78 78 77 77 76 76 76 75 75 75 75 75 74 74 75 65 62 62 63 64 65 69
78 80 81 81 81 83 82 82 83 82 82 84 86 87 87 87 87 88 88 87 86 86 85 85 85 84 83 82 82 82 82 81 80 80 80 80 79 79 79 78 78 78 78 78 77 76 76 76 75 75 75 75 75 74 74 76 62 60 61 61 62 64 67
76 77 81 83 82 83 82 84 83 84 83 85 85 86 88 88 89 88 88 88 87 86 85 85 84 84 83 82 82 82 82 82 81 80 80 79 79 79 78 78 78 78 78 77 77 77 75 76 77 76 75 75 75 74 73 74 59 60 60 60 61 63 68
81 80 80 82 86 85 86 87 85 86 84 84 85 86 87 89 89 88 88 87 87 85 85 85 84 84 83 82 83 83 83 82 81 80 80 79 79 78 78 78 78 78 78 77 75 74 75 76 77 76 76 75 74 74 74 69 59 59 58 59 60 63 68
79 79 78 82 82 84 86 86 87 87 88 87 86 87 88 89 88 86 85 85 86 85 84 84 84 84 83 83 84 83 83 83 82 81 80 79 79 79 79 80 80 79 79 78 75 75 76 77 76 76 76 75 74 75 73 70 59 57 57 58 59 63 68
76 77 77 77 79 84 83 83 85 87 85 85 85 86 86 86 86 85 84 84 85 84 84 84 85 85 84 84 84 84 83 83 82 82 81 80 80 80 79 80 79 80 78 79 77 76 77 76 75 74 74 75 75 73 73 69 59 55 57 57 57 63 70
70 72 74 76 76 75 78 82 81 82 84 84 84 86 85 85 84 84 83 84 85 85 84 85 86 87 87 86 85 84 84 84 82 82 81 81 80 81 81 81 80 78 78 78 78 77 77 76 75 74 74 74 74 73 74 69 63 59 56 57 57 60 70
69 70 71 73 74 75 73 78 82 84 86 86 86 86 87 86 85 84 83 84 84 84 86 87 88 87 87 86 85 84 83 83 83 82 82 82 81 82 82 81 79 78 77 78 78 77 75 75 75 74 73 73 73 74 73 71 66 61 55 56 56 57 63
69 70 72 70 72 73 73 73 73 73 72 71 75 77 78 80 82 83 84 83 83 85 88 88 87 87 87 85 85 84 83 83 83 83 82 82 82 81 80 80 79 78 78 78 77 75 74 73 73 73 72 72 73 73 73 72 66 67 56 56 55 55 58
66 66 66 67 69 70 73 71 70 70 70 72 74 75 76 79 80 76 73 74 75 78 80 82 84 85 85 84 83 82 82 82 82 82 82 81 82 81 80 78 78 77 77 76 75 74 73 72 71 71 71 71 72 73 72 71 69 63 62 55 54 53 55
66 66 67 68 69 68 70 68 68 69 70 71 72 72 72 72 69 70 71 70 73 76 78 79 80 80 79 78 78 78 80 80 81 81 81 81 81 80 78 77 76 75 73 72 70 68 68 67 70 69 71 71 70 70 70 69 68 61 59 58 54 53 54
66 66 66 65 66 67 67 66 66 68 69 70 70 72 71 71 70 68 68 69 72 75 76 77 78 78 77 76 76 76 76 77 77 77 77 78 79 78 76 72 71 69 70 70 69 69 69 69 69 69 71 71 69 69 68 67 66 65 61 58 55 54 53
66 67 66 66 66 66 66 66 66 68 68 69 69 69 70 71 71 68 68 70 70 72 74 75 74 73 73 73 73 73 73 72 72 73 73 72 71 71 70 70 69 68 68 68 68 69 70 68 68 69 70 70 70 69 68 66 64 62 61 60 57 57 54
64 64 64 64 66 66 66 66 66 67 68 67 68 69 68 68 69 69 69 69 70 70 70 71 72 72 72 72 71 72 72 71 71 70 70 70 70 70 69 69 68 68 67 68 68 68 67 69 69 69 70 69 69 69 68 65 63 61 59 58 57 58 58
63 64 65 65 65 66 66 67 67 67 67 67 68 68 68 68 68 69 70 70 71 71 71 70 70 70 71 71 71 71 72 70 71 70 68 68 68 67 68 68 69 68 68 69 68 67 67 68 68 70 70 69 68 67 66 64 62 61 59 58 58 58 58
64 64 64 65 65 66 66 67 67 68 68 67 68 68 68 68 68 69 69 70 71 71 70 69 69 70 69 69 70 70 71 71 70 68 68 67 66 65 65 69 71 69 66 64 69 71 71 70 70 71 71 70 68 67 65 64 62 63 58 62 56 58 58
64 65 65 66 67 67 67 68 68 67 68 68 67 67 68 68 68 69 70 70 70 70 69 69 69 70 69 69 69 69 69 69 68 67 64 62 59 56 52 49 47 55 66 65 63 65 62 62 68 71 71 71 70 70 68 66 68 59 53 51 50 51 53
64 64 65 66 66 67 67 68 69 69 68 68 68 67 68 67 68 68 70 70 70 70 70 70 68 69 69 69 68 67 66 65 64 64 63 62 60 58 57 57 54 44 44 50 50 50 51 54 57 59 63 70 70 65 62 62 56 50 49 48 48 48 48
65 65 65 65 65 65 66 66 67 67 67 68 69 68 68 67 68 67 70 70 70 70 70 70 68 68 68 68 67 66 66 65 64 63 63 61 61 61 61 61 59 54 45 42 46 46 44 43 49 53 55 58 62 62 61 54 49 49 47 47 47 47 47

ECMWFFLT1_sfc_temp_015.txt.gz
Temp
82 82 82 82 82 82 81 81 81 81 81 81 81 82 82 82 81 80 79 79 78 78 78 78 78 78 78 78 78 79 79 79 78 78 77 77 77 77 76 76 76 76 76 75 75 75 76 76 76 76 76 75 75 74 73 73 72 73 71 71 70 70 69
81 82 82 82 82 82 82 82 82 82 82 82 82 82 82 81 81 80 79 79 79 79 79 79 79 78 78 78 79 79 78 78 79 78 78 77 77 77 77 77 76 76 76 76 76 76 76 76 76 76 75 75 75 75 74 72 72 71 71 70 69 68 69
81 82 82 82 82 82 82 82 82 83 83 83 83 82 82 81 81 81 80 79 78 79 79 79 79 79 79 79 78 78 78 79 78 78 77 77 77 78 77 77 77 77 77 77 76 76 76 76 76 76 75 75 75 74 74 72 72 71 71 70 70 69 68
81 82 83 83 83 83 83 83 82 83 84 84 84 83 82 82 82 82 81 81 79 79 78 79 79 79 79 79 78 78 78 78 79 79 78 78 78 78 77 76 77 77 75 76 77 77 77 76 76 75 76 74 74 74 74 73 72 71 71 70 69 69 69
81 83 83 83 83 82 82 83 83 83 84 85 85 84 84 83 83 82 82 82 81 80 80 80 80 80 80 80 79 79 79 78 79 79 79 79 78 78 77 77 77 77 77 77 76 76 76 75 75 75 75 74 74 74 73 72 71 71 70 70 69 69 69
81 81 82 83 84 84 84 84 84 84 85 85 85 84 84 84 84 83 83 82 81 82 81 80 80 80 79 80 80 79 79 79 79 79 79 78 78 78 77 77 77 77 76 76 77 76 76 75 75 75 75 74 74 74 73 72 71 71 71 70 70 69 69
82 82 82 83 84 84 84 85 85 85 86 86 86 86 85 85 84 84 84 82 82 80 80 80 80 80 80 80 79 79 78 79 78 78 79 78 78 78 78 78 78 77 78 76 76 76 76 75 75 75 75 74 74 74 72 71 71 70 70 70 69 69 69
84 83 83 84 85 86 86 86 86 86 86 86 86 85 84 85 85 84 83 83 83 82 81 81 80 80 80 80 80 79 79 79 79 79 79 78 78 78 78 78 78 77 77 76 76 76 76 75 75 75 75 74 74 74 73 72 71 71 70 70 69 69 70
85 85 84 85 86 87 87 86 86 85 84 84 84 84 84 84 84 84 84 84 83 82 82 82 82 81 80 80 79 79 79 79 79 79 78 78 78 78 78 78 78 78 77 76 76 76 76 76 75 75 74 74 74 73 73 72 71 71 71 70 70 70 69
84 83 84 86 87 87 87 87 86 84 83 82 83 83 83 84 84 85 84 84 84 83 83 83 83 82 81 80 80 80 79 79 79 79 78 78 79 78 79 79 78 78 77 77 77 76 76 76 75 75 74 74 73 73 73 72 72 71 71 71 71 70 70
82 82 83 84 84 85 85 85 83 82 82 82 82 83 83 83 84 84 84 84 84 84 84 84 83 83 81 81 80 80 79 79 79 79 78 78 79 79 79 79 79 78 78 77 77 76 75 75 75 75 74 74 74 73 73 73 72 72 71 71 72 71 71
81 81 81 82 83 84 83 83 83 81 81 81 82 83 82 82 84 84 84 84 85 84 84 84 84 83 82 81 80 79 79 79 79 79 78 79 79 79 80 80 79 79 78 78 77 76 76 75 75 75 74 74 74 74 74 73 73 72 72 72 72 71 71
81 81 82 83 83 85 83 80 80 81 81 82 83 83 83 83 83 84 83 84 85 85 84 84 83 82 82 81 80 79 79 79 79 79 79 79 79 79 79 79 80 79 78 78 78 77 75 75 75 75 75 75 75 74 74 74 73 73 72 72 72 71 71
79 80 82 83 84 83 81 80 80 80 81 82 82 83 83 83 84 83 83 83 84 85 84 84 83 82 81 81 80 79 79 80 80 79 79 79 79 79 79 79 79 79 79 78 77 77 76 75 75 75 75 75 75 75 74 74 73 73 73 72 72 72 71
76 79 81 82 82 82 81 80 79 80 81 81 82 82 82 82 83 83 83 84 84 85 84 84 83 82 81 80 79 79 80 80 80 80 79 79 79 78 78 78 78 78 78 77 77 77 77 77 76 74 74 74 75 74 74 74 73 73 73 72 72 72 71
78 80 81 81 81 82 80 81 81 80 81 80 81 81 82 82 82 83 83 84 84 84 85 83 82 81 81 80 80 80 80 80 79 79 79 78 78 78 78 78 78 78 77 77 77 77 77 76 76 75 74 74 74 74 74 74 74 71 66 68 73 72 72
76 78 80 81 81 81 81 81 81 80 79 79 80 81 82 82 82 83 84 84 85 84 85 84 82 81 81 80 81 80 80 79 79 79 78 78 78 78 77 77 78 77 77 76 76 76 76 76 75 75 75 74 74 73 73 74 74 67 64 65 68 72 72
75 76 78 80 80 80 79 80 80 79 79 81 81 82 82 82 82 82 83 84 84 85 85 83 82 81 81 81 80 80 79 79 79 78 78 78 78 78 78 77 77 77 76 76 76 76 76 75 75 75 75 75 74 74 73 74 68 65 64 65 65 68 71
72 75 77 79 80 79 80 81 81 81 82 82 82 82 83 84 83 82 83 83 84 85 84 83 83 82 81 81 80 80 79 79 79 78 78 78 78 78 77 77 77 76 76 76 76 76 75 75 75 75 75 75 74 73 74 74 68 64 63 64 64 66 68
70 72 73 75 77 80 80 80 81 82 83 83 83 84 85 85 84 84 85 85 84 84 83 83 83 82 81 80 80 80 79 79 79 78 78 78 78 77 77 77 77 77 77 77 76 75 75 75 75 75 74 74 74 74 74 74 66 63 62 62 63 64 66
67 68 70 70 71 76 78 79 80 80 80 82 83 84 84 84 85 84 84 84 83 83 82 83 82 81 81 80 80 80 79 79 79 78 78 78 78 77 77 77 77 77 77 77 76 75 75 75 74 74 74 75 74 74 74 75 65 61 61 60 61 62 65
69 70 74 73 72 72 72 77 80 80 81 83 83 83 85 85 86 85 85 85 84 83 83 82 81 81 81 80 80 80 80 79 79 78 78 78 77 77 77 77 77 77 77 77 77 77 76 75 76 75 74 74 74 74 74 75 64 61 60 59 59 61 68
70 71 70 70 74 76 73 75 75 78 80 81 82 83 84 86 86 85 85 84 83 82 82 81 81 81 80 80 80 80 80 80 79 78 78 78 77 77 77 77 77 77 78 77 76 75 75 75 75 76 75 74 74 74 74 75 65 60 59 58 57 62 68
70 69 69 70 69 72 74 76 76 77 77 79 81 84 85 85 84 83 81 82 82 81 81 81 81 81 81 81 81 81 81 80 80 79 78 78 77 77 78 78 78 78 78 77 76 76 76 76 76 76 76 75 74 75 74 75 66 57 57 56 57 63 67
68 69 69 69 70 68 69 72 76 77 76 77 79 82 83 83 83 81 81 81 81 81 80 81 82 82 81 82 82 82 81 81 80 80 79 78 78 78 78 78 78 78 78 78 78 77 77 76 76 76 76 76 76 71 73 75 64 55 57 55 56 64 67
65 66 67 68 69 69 69 69 73 75 78 78 79 78 78 80 82 81 81 80 81 81 81 81 82 83 84 84 83 82 81 81 80 80 80 79 79 79 79 79 79 78 78 78 78 77 77 76 76 75 75 76 75 75 74 74 66 59 55 54 56 61 67
65 66 65 67 68 70 69 68 71 75 78 79 77 77 78 77 77 78 79 80 79 80 82 84 84 83 83 84 84 83 82 82 81 81 81 81 80 80 80 80 79 78 78 78 78 77 76 75 75 75 74 74 74 74 74 73 66 61 54 54 55 58 61
66 67 67 67 69 68 68 68 67 68 68 68 69 76 78 78 77 77 76 77 79 82 85 84 84 84 83 83 83 83 82 81 82 82 81 81 80 79 79 79 79 79 78 79 77 75 74 73 72 72 70 70 71 72 72 71 64 64 54 54 54 56 59
65 65 64 65 66 67 68 66 67 67 67 69 69 72 77 79 78 76 75 76 79 80 79 78 79 80 81 80 81 81 81 81 80 80 80 80 80 79 78 78 78 78 77 77 75 74 72 71 71 69 69 68 68 71 71 67 64 59 59 54 53 54 56
65 65 65 67 66 65 66 66 67 68 68 68 68 69 73 78 76 76 75 77 75 71 74 76 77 78 78 78 78 80 81 81 81 81 80 80 80 79 78 77 77 77 76 76 73 71 69 68 68 67 67 69 69 69 67 65 64 59 57 57 53 53 54
65 64 65 65 65 66 66 66 67 68 68 68 67 67 68 71 74 73 74 73 68 71 74 77 77 77 77 77 77 77 77 77 77 79 79 79 79 78 77 77 76 73 73 73 71 70 69 67 68 68 68 67 66 65 65 65 65 64 60 57 55 54 53
63 64 65 66 66 66 66 67 67 67 67 67 67 67 67 67 68 70 72 71 71 74 75 75 74 74 74 74 74 73 74 75 75 75 76 76 76 76 75 75 74 73 71 70 70 69 68 67 68 68 68 66 66 64 64 64 65 63 62 61 59 57 54
63 64 65 65 66 66 66 66 67 67 66 67 67 67 68 66 67 67 69 70 72 74 75 75 74 73 72 72 72 72 73 73 72 72 73 74 74 75 75 74 73 72 70 70 69 69 68 68 68 68 66 66 65 65 64 64 63 62 60 59 58 58 57
62 63 65 66 67 67 67 67 67 67 67 66 67 68 67 67 67 67 67 68 69 70 73 74 74 74 74 74 73 72 74 73 75 74 73 74 74 73 73 73 73 71 70 70 71 69 68 69 68 67 66 65 65 64 64 63 61 60 59 57 58 58 58
61 62 63 65 66 67 67 67 67 67 67 67 68 68 67 67 67 67 67 68 69 69 69 69 70 73 74 73 72 73 73 72 71 72 73 73 74 73 73 74 73 72 71 73 75 73 72 69 67 66 67 66 65 65 63 63 61 61 57 60 56 59 60
62 63 63 64 66 66 67 68 68 67 67 67 67 67 68 68 68 68 69 68 68 68 68 69 68 68 68 69 69 69 69 69 68 67 67 68 67 64 58 53 50 59 71 70 64 63 62 63 67 67 67 66 66 67 66 65 65 56 52 51 50 50 53
62 63 63 64 65 65 66 66 67 67 66 66 67 67 68 68 68 68 69 69 69 68 68 68 68 68 67 67 67 67 68 66 65 65 65 65 66 66 62 60 57 45 42 54 62 59 56 56 57 59 61 67 67 65 62 59 53 49 49 48 48 48 49
63 62 63 64 64 65 65 66 66 66 65 66 66 66 67 68 69 68 70 70 69 69 68 68 66 65 65 65 66 65 65 65 64 64 63 62 64 64 63 63 58 54 47 43 49 53 53 52 53 54 56 59 62 62 61 52 49 47 47 47 47 48 47

ECMWFFLT1_sfc_temp_018.txt.gz
Temp
80 79 79 80 79 79 79 79 79 79 79 79 79 79 80 79 79 78 78 77 76 76 76 77 77 77 77 77 77 77 78 78 77 77 77 77 77 76 76 76 76 76 76 76 76 76 76 77 77 77 77 77 77 76 76 76 75 74 73 73 73 72 72
79 79 80 80 80 80 80 80 80 80 80 80 80 79 80 80 79 79 78 78 77 77 77 77 77 77 77 77 78 77 77 77 78 78 78 77 77 77 77 77 76 76 76 76 76 76 77 77 77 77 77 77 77 76 76 75 75 74 73 72 72 71 71
79 80 80 80 80 80 80 80 80 81 81 81 81 81 80 79 79 79 79 78 77 77 78 77 77 77 77 77 77 77 78 78 78 78 77 77 77 78 77 77 77 77 77 77 77 77 77 77 77 77 77 77 77 76 76 75 74 74 73 72 72 72 71
78 79 80 81 81 81 81 81 81 82 83 83 82 82 81 80 81 80 80 80 78 78 77 78 78 78 78 77 77 77 77 78 78 78 78 78 78 78 77 77 77 77 76 77 77 77 77 77 77 77 77 76 76 76 76 75 74 74 73 72 72 72 71
79 80 80 80 80 80 80 81 81 81 83 84 83 82 82 82 82 81 81 81 81 79 80 80 80 79 78 78 78 78 78 78 78 78 79 79 78 78 77 77 77 77 77 77 77 77 76 76 76 76 76 76 76 76 75 75 74 74 73 72 72 72 72
80 78 79 81 81 82 82 82 83 83 83 83 83 83 83 83 84 83 82 81 81 82 80 80 79 79 78 79 79 78 78 78 78 78 78 78 78 77 77 77 77 77 78 77 77 77 77 76 76 76 76 76 76 76 75 74 74 74 73 72 72 72 71
81 79 79 81 82 82 82 83 84 84 84 85 85 84 85 84 83 83 84 82 82 80 80 81 81 80 79 79 78 78 78 78 78 78 79 79 78 78 77 77 77 78 78 77 77 77 77 76 76 76 76 76 76 76 75 74 74 73 73 72 71 71 71
81 79 80 81 82 84 84 83 84 85 85 84 84 84 84 84 84 84 83 84 83 83 82 82 81 80 79 79 79 79 79 79 79 79 79 79 78 78 78 78 77 78 77 77 77 77 77 76 77 76 76 76 76 75 75 74 74 74 73 72 71 71 71
81 81 81 82 83 84 84 84 83 84 83 82 83 83 84 84 84 84 84 84 83 83 82 83 83 82 80 79 79 78 79 79 79 79 78 78 79 79 79 79 78 78 77 77 78 77 77 77 77 76 76 76 76 75 75 74 74 74 73 73 72 72 71
79 78 79 82 83 84 84 84 83 81 80 80 81 81 82 83 84 84 84 84 84 83 83 83 83 83 81 80 80 80 79 79 79 79 79 79 79 79 79 80 79 78 78 78 78 77 77 77 77 76 75 75 75 75 75 74 74 73 73 73 73 72 71
76 77 78 79 78 80 81 82 80 79 80 79 80 82 82 83 83 84 83 84 84 84 85 84 84 83 82 81 80 80 79 79 80 79 79 79 80 80 80 80 80 79 79 78 78 77 77 76 77 76 75 75 75 75 75 75 74 73 73 73 73 73 73
74 75 75 76 77 77 79 79 80 79 79 79 81 82 81 81 83 84 84 84 85 85 84 84 84 84 82 81 80 79 79 79 80 80 79 79 79 80 80 80 80 79 79 79 78 77 77 76 76 76 75 76 76 75 75 75 74 74 73 74 74 73 73
73 74 75 77 77 78 77 76 77 78 78 81 82 82 82 83 83 84 82 83 85 85 84 84 83 82 82 81 81 79 79 80 79 79 79 79 79 79 80 80 80 80 79 79 79 78 77 77 76 76 76 76 76 76 75 75 75 74 73 73 73 72 72
71 71 72 73 74 74 75 76 77 77 78 80 81 81 82 83 84 83 83 83 84 85 85 84 83 82 81 80 79 79 79 80 79 79 79 79 79 79 79 79 79 79 79 78 78 78 77 77 76 76 77 76 76 76 76 75 75 74 74 73 73 73 72
70 72 73 74 73 74 75 76 76 77 78 79 81 81 81 82 82 82 82 84 83 85 85 84 82 81 81 80 79 78 79 79 79 79 79 79 78 78 78 78 78 78 78 78 78 78 78 78 77 76 76 76 76 76 76 75 75 75 74 73 73 73 73
72 73 73 74 75 76 75 77 78 78 78 77 79 80 81 81 81 82 83 83 84 83 85 83 82 80 80 80 79 79 79 79 79 79 78 78 77 77 78 78 78 78 77 77 78 78 78 77 77 77 76 76 76 76 75 75 75 70 65 68 73 73 73
71 72 74 73 73 75 76 77 78 77 76 76 78 79 80 81 81 83 84 84 85 83 85 84 81 81 80 79 80 79 79 78 78 78 78 78 78 78 77 77 78 77 77 77 77 77 77 77 76 77 77 76 76 75 75 75 75 65 63 65 67 72 73
69 70 71 73 73 72 73 75 77 77 77 78 80 80 81 80 82 82 83 84 84 85 85 84 82 81 80 80 79 79 78 78 78 78 78 78 77 78 78 78 77 77 77 77 77 77 77 77 76 76 77 76 76 76 76 76 68 64 63 64 65 68 73
70 71 71 69 69 71 74 77 79 78 80 81 81 81 83 83 83 81 83 83 84 84 84 84 83 81 80 80 79 79 79 78 78 78 78 78 78 78 78 77 77 77 77 77 77 77 76 76 76 76 76 76 75 76 76 77 67 63 62 63 64 66 70
67 68 68 69 70 72 73 75 78 80 81 80 81 84 85 84 84 83 85 85 84 83 82 82 82 81 80 79 79 79 79 78 78 78 78 78 78 78 77 77 77 77 78 78 77 76 76 76 76 76 75 76 75 75 76 76 67 62 60 61 62 65 68
62 64 65 67 67 70 71 72 74 75 77 80 82 82 82 83 84 84 84 83 82 82 80 80 80 80 80 79 79 79 79 78 78 78 78 78 78 77 77 77 77 77 78 78 77 76 76 76 76 76 76 76 76 76 76 77 64 60 59 60 61 63 67
64 65 65 66 66 67 68 72 74 77 77 79 79 81 82 83 85 84 84 84 83 81 81 80 80 80 79 79 79 79 79 79 78 78 78 78 78 77 77 77 77 77 77 78 78 78 77 77 77 77 76 76 76 76 75 78 62 59 58 59 60 62 70
66 65 66 66 67 67 68 70 73 75 75 76 78 80 82 84 85 84 83 83 82 80 80 80 79 79 79 79 79 80 80 79 79 78 78 78 77 77 77 77 77 77 78 77 77 77 77 77 78 77 77 76 76 75 75 77 64 57 57 58 58 62 70
66 66 66 67 67 68 68 68 71 74 78 76 77 80 81 83 82 80 80 80 81 80 80 79 79 80 79 80 80 80 80 79 79 78 78 78 77 77 78 78 78 78 78 78 77 77 78 78 77 78 77 77 76 77 76 78 64 55 56 57 57 64 70
66 66 66 66 67 67 68 68 68 73 75 76 77 77 78 79 80 79 79 79 79 79 79 79 80 80 80 80 81 80 80 80 79 79 78 78 78 79 78 78 78 79 79 79 79 78 78 78 77 77 77 78 78 70 74 77 62 55 55 56 57 65 70
64 65 66 67 69 68 68 68 70 72 74 75 75 76 77 78 78 78 78 78 80 80 80 80 81 81 82 82 81 80 80 80 79 79 79 78 79 79 79 79 79 79 79 79 79 78 79 78 78 77 77 77 77 77 76 76 66 59 54 55 56 61 70
65 65 66 67 67 69 68 68 68 68 68 69 72 76 77 77 78 77 77 77 78 78 81 82 82 81 81 80 81 81 80 80 80 79 80 80 79 80 80 80 79 79 78 79 79 78 77 77 77 77 77 78 77 78 77 77 70 60 54 54 56 59 63
65 65 66 67 67 67 68 68 68 68 69 68 68 72 76 76 76 76 75 75 77 79 82 82 81 80 79 79 80 81 80 80 80 80 80 80 80 78 78 79 79 79 79 79 78 76 76 76 76 76 76 76 77 76 76 75 65 62 54 55 55 57 60
64 64 64 65 65 66 67 67 67 68 68 68 69 69 71 76 75 74 74 75 77 79 79 79 79 78 78 78 79 79 80 80 79 79 80 80 80 79 78 78 78 78 77 77 76 76 75 75 75 75 75 74 73 75 75 75 66 58 58 54 55 56 58
65 65 65 66 66 66 66 66 67 67 67 67 67 68 68 69 71 73 73 75 76 78 77 78 78 77 77 77 78 78 79 80 80 80 80 79 79 79 78 77 78 77 76 76 75 74 73 73 73 72 72 73 74 74 74 71 66 58 56 57 55 55 56
64 65 65 65 65 66 66 66 66 66 66 67 67 68 67 67 68 68 69 69 70 72 74 77 77 76 77 77 78 78 79 79 79 79 79 80 79 78 78 77 77 75 75 75 74 73 73 73 73 71 71 71 71 70 69 68 65 61 58 56 55 55 56
65 66 66 66 66 66 67 67 67 66 66 66 67 67 67 67 67 66 67 68 70 71 71 72 74 74 75 76 76 76 77 77 77 78 78 78 79 78 78 77 76 75 74 74 73 74 73 73 72 72 71 70 70 69 68 68 65 61 60 59 58 58 57
64 65 65 66 66 67 67 67 66 66 66 66 67 68 68 68 68 68 68 68 69 70 70 71 71 72 73 73 73 74 76 76 75 75 76 77 77 78 78 77 76 76 73 73 73 74 73 73 72 71 71 70 70 69 67 67 65 61 60 61 61 62 62
63 64 65 66 67 68 68 68 67 66 66 66 67 68 68 69 68 69 69 69 70 70 70 69 69 70 71 72 72 73 74 75 75 75 74 75 77 76 76 77 77 76 74 74 75 74 73 73 72 71 71 70 69 67 66 66 64 62 61 60 60 61 62
63 64 64 65 66 67 67 67 67 67 67 67 68 68 68 68 69 69 69 69 70 70 69 69 69 70 70 70 70 71 71 72 73 74 74 74 75 76 76 77 78 77 76 78 80 78 77 75 73 72 72 72 69 66 65 64 63 63 58 61 56 60 61
63 64 64 65 66 67 67 67 67 66 66 66 66 67 67 68 68 69 70 70 70 70 69 69 69 69 69 69 69 70 70 70 71 71 71 72 73 74 74 66 52 59 72 76 70 67 66 65 74 74 73 71 70 69 66 65 66 57 54 51 50 51 53
63 63 64 65 65 65 66 66 67 67 66 66 66 66 66 67 68 68 70 69 70 70 70 70 69 68 67 67 66 66 67 68 68 68 69 70 70 72 71 71 66 49 44 50 63 61 57 54 59 60 62 69 68 65 60 60 55 51 50 49 49 49 50
63 64 65 65 65 65 65 65 66 65 65 66 66 66 66 66 67 68 70 70 70 70 70 69 68 67 66 66 66 65 66 66 66 66 67 67 68 69 69 69 67 63 50 44 49 56 53 52 51 52 55 57 62 62 63 56 51 50 48 48 48 48 48

ECMWFFLT1_sfc_temp_021.txt.gz
Temp
87 86 85 85 85 85 85 84 84 84 83 83 83 84 85 85 83 84 83 82 81 81 81 81 81 81 81 81 82 82 82 82 82 82 82 82 83 83 82 83 83 83 84 84 84 84 84 85 84 84 84 84 84 84 83 83 83 83 83 82 82 82 81
86 86 86 87 86 85 85 85 84 85 84 84 84 84 85 84 84 83 83 82 82 81 82 81 81 81 81 81 82 82 82 82 82 82 83 82 83 83 83 83 83 82 83 84 85 85 84 85 85 84 84 84 84 84 84 83 83 83 83 82 81 81 81
87 87 87 86 86 86 85 86 85 85 85 86 86 85 85 83 84 83 83 83 82 82 83 82 81 82 82 82 82 81 82 82 82 82 82 83 83 85 84 83 83 84 84 84 84 85 85 85 84 84 85 84 85 84 84 84 83 83 83 82 81 82 80
86 87 87 87 86 86 86 86 86 87 88 88 87 87 85 83 85 84 84 84 83 82 81 82 82 82 82 81 81 81 82 82 82 83 84 84 84 84 83 83 83 84 84 84 85 85 85 85 84 84 83 84 84 84 84 84 84 83 82 81 81 82 81
87 88 88 87 87 86 86 87 87 86 88 90 89 86 86 86 86 87 86 86 87 84 85 84 85 84 83 83 83 83 82 82 82 83 84 84 84 84 83 84 84 84 84 85 85 84 83 83 84 84 83 83 84 84 83 84 84 83 82 81 81 81 81
88 86 86 87 88 88 88 88 89 90 89 90 89 88 89 89 89 89 88 86 86 87 85 85 84 83 82 84 84 83 83 83 83 83 83 83 83 83 84 84 84 84 86 84 85 85 84 84 84 84 84 85 85 85 85 84 84 83 82 81 81 81 82
89 87 86 87 88 88 89 89 91 91 91 91 92 91 91 91 90 90 90 89 88 86 86 86 86 85 83 84 83 83 82 83 83 83 84 84 84 83 83 84 84 85 85 85 84 85 84 83 83 83 84 84 84 85 83 83 83 83 82 81 80 81 81
90 88 87 88 90 91 91 90 90 92 91 91 91 91 91 91 91 91 90 90 90 89 88 88 86 84 83 84 84 83 83 84 85 84 84 84 84 83 84 84 84 84 84 84 84 84 85 84 84 84 84 84 83 83 84 83 82 83 82 81 80 80 81
91 89 89 90 90 92 92 90 90 90 89 88 89 89 91 91 91 91 91 91 91 90 89 90 89 87 84 84 83 83 84 84 84 84 84 84 85 86 86 85 85 85 84 84 86 85 85 84 85 83 83 83 83 83 83 82 82 82 82 81 80 80 80
87 87 87 89 90 92 91 91 89 88 87 86 86 87 89 90 90 91 91 91 92 91 91 91 91 89 85 84 84 85 84 83 84 85 86 85 86 86 87 87 86 85 85 85 86 85 84 84 84 83 82 82 82 82 82 82 82 82 82 81 81 80 79
86 85 85 87 87 88 88 90 87 85 86 84 85 88 88 89 89 91 90 91 92 92 92 91 91 90 88 87 86 86 84 85 85 85 85 86 87 87 88 88 88 87 86 86 86 85 84 83 84 83 82 82 82 82 82 82 82 81 82 82 82 81 81
82 82 82 84 85 86 86 85 85 84 84 84 86 88 86 86 89 91 91 91 93 92 92 92 92 91 88 88 87 85 85 84 86 86 86 86 86 87 88 88 88 88 87 87 86 85 85 83 83 83 82 82 83 83 82 82 82 82 82 83 83 82 82
82 82 82 85 84 85 84 84 83 84 84 86 89 88 88 89 89 90 88 89 92 93 92 91 90 89 89 89 88 85 85 86 85 84 86 85 86 86 87 88 89 88 87 87 86 86 85 84 83 83 83 82 83 83 82 82 82 82 81 82 81 81 81
79 82 83 82 82 82 82 82 83 83 83 86 87 88 89 90 90 89 88 89 91 93 92 91 89 88 87 86 86 85 85 85 84 84 84 85 84 85 86 86 86 86 86 86 85 86 85 85 83 83 83 83 83 83 83 83 82 82 81 81 81 81 81
83 86 86 85 82 81 82 82 82 83 84 85 87 87 88 89 89 88 88 90 90 92 92 90 88 87 87 86 85 84 84 84 85 84 84 84 83 83 84 84 85 85 85 84 84 85 86 86 85 83 83 83 83 83 83 83 83 83 82 81 81 81 81
86 88 88 86 84 84 82 82 83 82 83 83 85 85 88 88 87 89 89 90 91 90 92 90 88 86 87 86 85 84 84 84 84 83 83 83 82 82 83 83 84 84 83 83 84 84 84 84 84 85 83 83 83 83 83 83 83 75 67 70 81 81 81
87 86 87 86 84 84 83 83 83 83 83 83 83 85 86 87 88 89 92 92 92 90 91 91 87 87 87 85 86 85 84 83 83 83 82 82 83 82 82 83 83 83 82 83 83 83 83 83 83 85 85 84 83 83 83 83 82 67 64 66 69 78 81
85 84 85 86 84 83 82 83 83 83 83 86 86 86 87 86 88 89 90 92 92 92 93 91 89 88 85 86 85 84 83 83 83 83 82 82 82 82 82 83 83 82 82 82 82 82 83 83 82 82 84 83 84 84 83 84 72 64 64 65 65 68 80
85 86 86 82 80 80 83 86 86 83 86 88 88 87 89 88 89 87 89 89 90 91 92 91 91 87 85 86 85 84 84 83 83 82 82 82 82 83 82 82 82 82 82 82 82 83 82 82 82 82 83 83 83 84 84 85 69 63 62 64 64 64 72
84 85 84 83 82 83 83 83 85 87 88 87 88 91 91 90 90 89 91 91 90 90 88 88 88 87 86 85 84 84 84 83 83 82 82 83 82 82 82 82 81 82 83 83 83 82 82 82 82 82 82 82 82 82 84 85 67 62 61 63 63 63 68
78 78 78 79 78 81 81 80 81 82 84 89 91 90 90 90 91 91 91 90 90 88 86 86 86 86 86 85 85 84 84 83 83 82 82 82 82 82 82 81 82 82 83 84 83 82 81 82 82 82 82 83 83 83 83 87 64 61 60 61 61 62 66
82 80 80 81 78 77 76 79 80 83 84 87 89 91 91 91 93 93 93 93 91 88 87 86 85 86 85 84 84 84 84 84 83 82 82 82 82 82 81 81 81 81 82 83 84 84 84 83 84 83 82 83 83 83 82 86 61 61 60 60 59 60 72
79 78 78 77 78 78 77 77 78 80 81 84 89 90 91 93 94 93 93 92 91 87 87 86 85 85 84 84 85 85 85 84 83 82 82 82 82 81 82 81 81 82 83 82 83 84 84 83 84 84 84 83 83 82 82 85 66 59 58 59 58 62 75
77 77 77 77 77 78 78 78 79 81 81 85 87 90 91 93 92 89 88 88 89 88 87 86 86 86 85 86 86 86 85 84 84 83 82 82 82 82 82 83 83 83 83 83 83 84 85 86 84 84 84 84 84 84 83 85 68 57 57 57 56 64 75
77 78 77 76 76 77 78 78 77 81 83 84 87 89 89 89 89 87 86 86 87 86 86 85 86 86 86 86 87 86 85 85 85 84 83 82 83 83 83 83 83 84 84 85 85 84 85 85 84 84 84 86 86 74 80 86 72 55 57 56 55 66 76
74 75 76 77 78 78 76 77 80 82 84 84 83 86 87 88 87 86 85 86 88 88 87 86 87 87 88 88 87 86 86 86 84 84 83 83 83 84 84 85 85 84 84 85 85 85 86 85 85 84 84 86 85 84 84 84 81 63 55 56 55 60 76
74 73 73 74 75 76 77 78 78 78 78 77 79 83 86 86 87 85 84 85 85 86 88 88 88 87 87 87 88 88 86 86 85 84 84 85 84 85 86 86 85 84 84 85 86 85 84 84 85 84 84 86 86 86 85 85 83 67 54 54 55 57 65
72 73 74 74 72 75 77 77 75 76 77 77 80 82 84 84 84 83 84 84 84 86 89 88 87 87 87 86 87 88 87 86 85 85 85 85 85 84 84 85 85 85 85 86 85 83 82 82 82 83 84 85 86 84 84 80 72 74 55 55 54 56 60
68 69 70 72 74 76 77 73 72 72 74 76 78 81 84 86 82 82 83 82 79 83 86 88 88 87 86 85 86 85 86 85 85 84 85 85 85 84 83 84 84 84 83 82 82 82 81 81 81 82 82 82 82 83 83 83 76 62 63 54 54 54 57
70 70 71 73 74 74 75 72 71 71 72 73 74 76 78 81 79 78 78 75 77 80 83 86 86 86 85 85 85 85 85 86 85 85 85 85 84 84 83 83 83 83 83 82 82 81 80 81 81 80 80 80 81 81 82 82 78 62 58 58 54 55 56
69 69 70 70 71 72 72 71 70 71 71 73 72 73 74 76 75 73 71 72 76 78 81 82 84 84 84 84 85 84 85 85 85 85 85 85 85 83 83 83 83 81 82 82 81 81 80 80 81 80 80 79 79 80 80 81 74 68 61 56 54 55 55
68 69 71 72 71 71 72 73 73 72 70 71 72 72 72 73 73 71 71 74 76 78 79 81 81 81 82 83 83 84 84 84 85 85 85 84 85 84 83 83 82 82 82 81 81 81 80 80 81 80 80 79 80 79 78 77 70 67 64 59 57 57 56
67 68 69 69 71 72 72 73 72 71 71 70 72 73 73 73 73 73 74 75 77 78 79 79 79 79 79 80 80 81 82 82 83 83 84 83 84 84 84 84 83 82 80 81 81 81 81 81 80 80 80 78 79 78 77 75 68 65 64 63 63 63 62
66 68 69 71 72 73 73 72 71 71 71 70 72 73 73 73 73 74 75 76 77 77 77 77 78 79 78 79 80 80 81 82 79 79 82 83 84 84 84 85 85 84 82 82 82 82 81 81 80 80 80 80 79 78 76 74 68 66 66 65 64 64 65
66 67 68 70 71 73 72 71 70 69 70 71 72 73 73 73 74 75 76 77 79 78 76 74 75 77 78 78 79 79 79 81 81 82 82 82 82 83 84 84 84 84 84 86 86 85 85 83 82 82 83 83 80 77 74 73 70 68 63 66 59 62 64
67 67 68 70 72 72 71 70 69 69 69 70 72 72 72 73 75 76 77 78 78 78 77 76 76 76 76 77 77 78 78 78 79 80 79 81 81 81 81 76 65 71 80 83 72 63 58 58 78 83 85 83 82 81 77 74 75 60 54 53 53 54 56
67 67 67 69 71 71 70 69 70 70 70 70 71 72 73 73 74 76 77 77 77 77 77 77 75 75 75 75 74 72 75 76 76 76 76 77 78 79 79 81 76 53 52 59 59 55 51 48 48 50 55 73 82 77 65 65 56 49 52 51 52 52 52
68 68 69 69 68 68 68 70 71 71 71 73 73 72 72 72 74 75 78 77 78 78 77 76 75 74 74 75 74 72 73 74 74 74 73 73 74 75 75 75 75 76 54 49 54 53 52 51 49 50 53 55 63 70 77 59 49 51 50 51 50 51 50

ECMWFFLT1_sfc_temp_024.txt.gz
Temp
98 97 95 94 93 93 93 92 91 91 90 90 90 91 91 91 90 89 89 87 86 85 85 85 86 87 86 86 87 87 87 87 87 87 87 87 88 88 88 89 89 88 90 90 90 90 90 91 91 91 90 89 90 90 89 89 88 89 89 88 87 87 87
98 98 97 96 94 93 93 93 92 92 91 91 90 90 92 91 90 90 88 88 87 86 86 86 85 86 86 86 87 87 87 87 87 87 88 87 88 88 89 88 88 88 88 90 91 91 91 91 91 90 90 90 90 90 90 89 88 88 89 88 87 87 87
99 99 98 96 95 95 92 94 92 93 92 93 92 92 91 89 89 89 88 88 87 86 87 87 86 86 87 87 87 87 87 87 87 87 88 88 88 90 89 89 89 89 90 90 90 91 92 91 90 90 90 90 91 90 90 89 88 88 88 88 88 88 86
98 99 99 97 96 94 94 94 93 94 95 95 94 93 91 89 90 90 90 90 88 87 86 87 87 87 87 86 86 86 86 87 87 89 89 89 89 89 89 88 88 90 90 90 91 92 92 91 91 90 89 90 90 90 90 90 90 89 88 88 88 88 87
98 99 99 97 97 95 94 94 94 93 95 97 95 92 92 92 92 92 92 92 93 89 90 90 91 89 88 88 88 88 87 87 88 89 89 89 89 89 88 90 90 90 90 91 90 90 89 90 91 90 89 89 90 89 89 89 90 89 88 87 87 88 88
99 97 97 98 98 97 96 96 97 98 97 98 96 95 95 95 95 95 94 92 92 93 91 90 90 89 88 89 89 89 88 88 88 87 88 89 88 89 89 89 90 90 92 90 91 91 90 90 90 90 90 91 91 91 91 90 90 90 88 87 87 88 89
100 98 97 98 98 98 98 97 99 100 99 99 100 98 98 97 96 96 96 95 95 91 92 92 92 91 89 89 88 88 87 88 88 88 89 89 89 88 88 89 89 91 91 91 90 91 90 89 89 89 90 90 89 91 89 89 89 89 88 87 86 87 87
101 99 98 98 100 101 101 99 99 100 100 99 100 100 98 98 98 98 97 97 96 96 95 95 93 90 89 89 90 89 89 89 90 89 89 89 89 88 89 90 89 90 90 91 90 90 92 89 90 90 90 90 89 89 90 89 88 91 89 87 86 87 88
103 100 99 100 99 101 102 100 98 99 97 96 97 97 99 98 99 98 98 98 97 96 96 97 96 94 90 89 89 88 89 90 90 89 89 90 90 92 92 91 90 90 90 91 92 91 91 91 91 89 89 89 89 88 89 88 88 89 89 87 86 86 88
100 96 96 99 99 101 100 101 98 96 95 94 94 95 97 98 98 99 99 99 99 98 98 98 98 96 92 90 90 91 90 89 90 92 92 91 92 92 93 94 93 91 91 91 93 92 90 91 90 89 88 88 88 88 88 88 88 88 89 88 87 87 86
97 94 94 96 97 97 98 99 96 93 94 92 92 96 96 96 97 99 98 99 100 99 100 98 98 97 95 93 92 92 89 91 91 91 91 92 93 94 94 95 95 93 92 92 92 92 91 89 90 89 88 88 88 88 88 88 88 88 89 89 88 88 88
92 92 91 93 94 95 95 94 94 92 92 91 94 95 93 94 97 99 99 99 101 101 99 99 99 98 95 94 93 91 91 90 92 92 92 92 93 94 95 96 95 95 93 93 92 91 92 90 89 89 88 88 88 88 88 88 88 88 88 90 90 89 89
94 92 91 93 92 93 92 92 92 92 91 94 96 96 96 96 96 98 96 97 100 101 100 98 97 95 96 95 95 91 91 92 91 90 93 91 92 93 94 95 96 96 95 94 93 93 92 91 89 89 89 88 88 89 88 88 88 88 87 88 89 88 88
91 97 94 92 93 91 90 90 91 91 91 93 95 95 96 97 97 96 96 96 98 101 101 100 97 95 94 93 92 91 92 92 90 90 90 91 90 91 92 93 93 93 93 93 92 93 92 92 90 89 90 89 89 89 89 88 88 88 87 88 88 88 88
97 100 100 96 90 90 90 90 89 90 92 92 95 95 95 96 96 95 95 97 97 101 100 98 96 94 95 93 91 90 90 90 91 90 90 90 89 89 90 91 91 91 92 91 91 91 93 93 92 90 89 90 89 89 89 89 88 89 88 87 87 88 88
100 101 102 101 97 93 90 91 90 90 91 91 93 93 96 95 94 96 96 97 98 97 99 98 95 93 93 93 91 91 90 89 89 89 89 88 88 88 89 89 90 90 90 90 91 90 90 91 91 92 90 89 89 89 89 89 89 80 71 74 87 88 88
98 99 100 100 97 96 94 92 92 91 90 90 91 92 93 94 95 96 99 99 99 97 98 100 94 94 93 92 92 91 90 89 88 88 87 87 88 88 88 88 89 89 89 89 89 89 88 89 90 92 91 90 90 89 89 89 88 71 67 67 70 84 87
96 96 98 99 99 97 94 94 92 91 91 93 94 93 93 92 95 96 97 99 99 100 100 98 96 95 91 93 91 90 89 89 88 87 87 87 87 87 87 88 88 88 88 88 89 88 89 89 89 89 91 91 91 91 90 90 75 68 66 66 66 71 87
95 97 97 97 97 95 98 99 97 93 95 97 96 96 96 95 96 94 96 96 97 98 99 99 99 94 91 92 91 89 89 88 88 87 87 87 87 87 87 87 87 87 88 88 88 89 87 87 88 88 89 90 89 90 91 92 73 67 65 65 65 66 76
97 98 99 100 100 99 97 95 96 98 98 96 98 102 100 98 97 96 98 98 98 97 95 95 96 94 91 90 90 89 88 88 88 87 87 87 87 87 86 86 86 87 88 89 88 87 87 87 87 87 87 88 88 88 90 91 73 65 63 63 63 65 70
93 94 94 94 95 98 96 93 92 92 93 97 100 99 99 99 99 99 99 98 98 96 93 93 92 92 91 89 90 89 88 88 88 87 87 87 87 86 86 86 86 87 88 90 89 87 86 87 87 87 88 89 89 89 90 92 71 63 61 61 61 63 67
96 97 97 97 94 90 88 91 91 94 94 95 97 99 100 100 102 101 100 101 98 96 94 93 91 92 91 90 90 89 89 89 88 87 87 87 87 86 86 86 86 86 87 88 90 90 89 89 90 89 88 88 89 88 88 93 70 62 61 60 61 62 75
98 96 93 91 93 92 89 88 88 91 91 91 95 98 99 102 102 101 101 99 99 94 94 93 91 91 90 90 90 91 90 90 89 88 88 87 87 86 86 86 86 87 88 87 88 90 90 89 91 89 90 89 88 87 87 92 76 60 59 59 59 64 79
94 92 92 91 89 89 89 89 90 90 91 92 92 95 98 100 100 97 95 96 97 96 93 92 92 92 91 91 92 91 91 90 89 88 88 87 87 86 87 88 88 88 88 88 89 90 92 92 90 90 91 91 89 89 88 90 77 57 58 57 57 66 79
91 91 90 88 88 89 89 87 86 89 91 91 93 95 95 96 97 95 93 94 95 94 92 92 93 93 92 92 93 92 91 91 90 89 88 87 88 88 88 88 88 89 89 90 90 90 91 90 90 90 90 94 93 78 86 92 80 56 59 56 56 67 80
84 85 87 87 89 87 85 84 85 87 91 93 91 93 94 94 94 93 92 93 96 96 94 92 93 94 94 94 93 92 91 91 89 88 89 88 88 89 89 90 90 90 90 90 91 91 91 91 91 91 92 93 92 92 91 90 91 70 56 56 56 60 79
84 84 84 86 85 81 86 87 87 88 90 88 87 91 93 93 93 91 91 92 92 93 95 95 94 93 93 93 94 94 91 91 91 89 89 90 89 91 91 91 90 90 90 91 92 91 90 90 91 90 90 93 93 94 92 92 91 79 54 55 55 56 66
83 85 86 84 81 82 86 87 84 86 88 86 89 89 92 91 90 89 90 90 91 92 97 96 94 93 92 91 92 94 92 91 91 90 90 90 89 88 88 90 90 90 91 92 90 88 87 88 88 90 90 91 93 91 90 86 75 90 57 56 53 56 58
79 81 81 80 83 85 86 84 83 83 84 88 90 93 93 93 89 89 89 89 90 94 95 95 95 93 92 91 92 91 92 91 90 89 90 89 90 89 88 89 89 89 88 87 88 87 87 86 87 87 88 89 90 91 90 90 84 70 69 55 53 54 56
80 81 82 83 82 80 81 79 79 81 83 84 85 87 91 91 87 88 88 85 86 90 91 92 92 91 91 90 90 91 91 91 91 90 90 89 89 88 87 88 88 88 88 87 87 86 85 86 86 86 86 88 88 89 90 89 90 72 63 61 53 54 55
78 78 80 78 78 78 79 79 78 80 81 83 82 83 84 86 85 83 82 82 86 87 88 89 90 89 89 90 90 89 91 91 90 90 89 90 89 88 87 87 88 87 87 86 86 85 85 86 86 85 86 86 85 88 89 89 88 88 70 58 55 55 54
76 78 79 79 78 79 80 81 79 78 77 78 80 81 82 83 83 80 80 83 84 86 87 88 88 88 88 88 89 89 89 89 90 90 89 89 90 88 88 87 87 87 87 87 86 85 85 85 86 86 85 84 86 86 87 87 88 87 80 64 59 58 55
75 76 76 77 77 78 79 79 78 77 77 76 78 80 80 80 81 81 82 83 85 85 86 86 87 86 87 87 88 88 88 88 89 89 89 88 89 90 89 89 89 88 86 87 87 86 86 84 84 85 85 84 85 86 86 87 87 87 82 75 72 71 67
74 75 76 77 77 77 77 76 77 77 76 76 78 79 80 80 81 82 83 83 84 85 86 84 85 86 86 86 87 87 88 88 87 87 89 89 89 90 90 90 90 88 86 86 86 86 86 86 85 85 85 85 86 86 86 86 87 87 85 79 77 75 74
73 74 76 76 76 76 75 75 75 76 76 77 78 78 79 79 81 82 83 84 84 84 83 83 82 84 85 87 89 89 88 89 87 87 88 89 89 90 90 90 91 89 89 91 91 90 89 87 87 86 88 89 88 86 86 86 86 87 73 80 65 73 75
73 74 75 76 76 76 75 75 75 75 75 76 77 78 78 80 82 83 84 84 85 85 84 84 84 85 85 87 87 87 87 88 89 89 88 89 89 88 88 80 70 78 90 93 80 70 66 68 86 89 90 90 90 89 87 88 89 72 62 58 57 57 60
71 73 74 76 76 76 76 76 76 76 75 76 77 78 80 81 82 83 85 84 84 84 83 84 83 83 84 83 83 80 85 86 87 86 86 87 87 87 88 90 86 60 57 61 65 61 55 52 51 51 54 71 83 83 68 65 62 60 55 55 54 54 53
71 71 72 74 75 75 76 76 77 77 75 77 77 77 78 80 81 82 86 85 85 85 83 83 83 82 84 84 82 79 81 83 81 82 82 83 84 84 83 84 84 85 64 52 55 56 51 49 48 48 49 51 57 66 82 70 58 54 51 53 53 52 52

ECMWFFLT1_sfc_temp_027.txt.gz
Temp
100 102 101 99 98 98 97 95 95 95 94 94 93 95 95 94 93 92 91 88 87 86 87 87 87 88 87 87 88 88 89 89 89 89 89 89 90 89 90 91 90 89 92 92 91 91 92 92 93 93 92 91 91 91 90 90 90 91 90 89 88 88 88
98 101 102 102 99 98 98 96 95 96 95 95 94 93 95 94 93 92 91 89 88 87 87 87 87 88 88 88 88 88 88 88 89 89 90 89 90 90 91 90 90 90 90 92 93 92 92 93 93 93 92 91 91 91 91 90 89 89 89 89 88 87 88
100 102 103 101 100 99 96 98 96 96 95 96 96 95 95 92 93 91 91 90 88 88 88 88 87 88 88 88 88 88 88 89 89 89 89 90 90 93 91 91 91 91 92 92 92 94 94 93 92 92 92 91 92 90 90 90 89 90 89 89 88 88 87
99 101 102 102 99 99 98 98 97 97 98 98 97 96 95 93 94 93 93 92 89 89 87 89 89 89 89 88 88 88 88 88 89 90 91 91 91 91 91 91 91 92 92 92 93 94 95 93 93 92 91 91 91 91 91 91 91 90 89 89 89 88 87
100 102 103 102 99 99 99 99 98 96 98 100 98 95 96 96 96 96 95 94 94 91 92 91 93 92 90 90 90 90 89 89 89 91 91 92 91 91 91 92 92 92 92 93 92 92 92 92 93 92 91 91 91 91 91 91 91 90 89 89 88 88 88
102 101 101 103 104 103 100 100 101 100 100 100 99 97 98 98 98 98 97 95 94 95 93 92 92 91 90 91 92 91 90 90 89 89 90 91 90 91 92 91 92 92 94 92 93 93 93 92 93 92 92 92 93 93 93 91 92 92 89 88 88 88 89
102 102 102 103 103 101 101 101 102 102 101 102 102 100 100 100 99 99 99 97 97 94 94 94 94 93 91 91 91 90 90 91 90 91 91 92 92 91 91 91 91 93 93 93 92 93 93 91 91 92 92 92 91 93 91 90 90 91 90 88 88 88 88
102 101 101 103 105 104 104 102 102 103 102 102 102 101 100 100 100 100 99 99 98 98 97 97 95 92 91 92 92 92 92 92 92 91 91 92 92 91 92 92 91 92 92 93 92 93 94 92 93 92 92 93 91 91 92 91 89 92 91 88 88 88 89
104 102 102 103 104 106 104 102 102 102 100 99 100 99 100 100 100 100 100 100 100 99 98 99 98 96 92 92 91 91 92 93 92 91 91 92 93 94 94 93 92 92 92 93 95 93 93 93 93 91 91 91 91 90 91 90 90 91 90 89 88 87 89
102 101 102 105 105 107 104 105 102 100 98 97 97 98 99 99 99 100 101 101 101 100 100 100 100 99 94 93 93 94 93 91 92 94 94 94 94 94 95 95 95 93 93 94 95 94 92 93 92 91 90 90 90 90 90 90 90 90 91 90 89 88 88
102 100 100 102 102 103 103 101 100 97 97 95 95 100 99 99 99 101 100 101 102 102 103 101 101 100 97 96 95 95 93 94 94 94 94 94 96 96 97 97 97 95 94 95 95 95 93 91 92 91 90 90 90 90 89 90 90 90 91 91 90 89 89
96 97 96 99 100 101 101 99 98 96 96 95 98 100 97 97 100 101 101 101 103 103 102 102 103 102 98 97 96 94 94 93 95 95 95 95 96 97 97 98 98 97 96 96 94 94 96 92 91 91 90 89 90 90 90 90 90 89 90 92 92 90 90
98 95 95 98 97 99 97 97 97 96 95 99 101 100 100 101 100 101 99 100 103 104 103 101 101 99 99 98 98 94 94 95 94 93 95 94 95 96 97 98 100 99 98 96 96 95 95 95 91 91 91 90 90 91 90 90 90 89 89 90 91 90 89
95 98 98 97 97 96 95 95 96 95 95 98 99 100 100 101 102 100 99 100 101 104 104 103 100 99 97 96 95 93 95 95 93 93 93 94 93 94 96 97 97 97 97 96 94 96 95 95 93 92 92 91 91 91 90 90 90 89 89 89 90 90 90
100 102 99 99 95 94 94 94 94 94 96 96 99 99 99 100 100 99 99 100 100 104 104 102 100 98 98 96 94 93 93 93 93 93 93 93 92 92 93 94 94 95 95 94 94 94 95 96 96 93 91 92 91 91 91 91 90 91 90 89 89 90 91
100 103 104 99 97 97 94 95 94 93 94 94 96 97 99 99 98 100 100 101 102 100 104 102 99 97 97 97 94 94 93 92 92 92 91 91 91 90 91 93 93 93 93 94 94 93 93 93 94 95 93 91 91 91 91 91 91 83 73 77 89 90 91
98 100 101 102 99 98 96 96 95 94 93 93 94 96 97 98 98 100 103 102 103 100 102 104 98 98 97 95 95 94 92 91 91 91 90 90 90 90 90 91 92 92 92 92 93 92 91 92 93 95 94 93 92 91 91 92 91 73 69 70 74 87 90
97 96 98 100 101 101 97 97 96 95 95 97 97 97 97 96 99 100 101 102 102 103 104 102 101 99 95 96 94 93 92 91 91 90 90 90 89 90 90 91 91 91 91 91 92 91 93 92 91 92 94 93 93 93 92 92 77 69 68 69 69 74 89
96 98 99 98 99 99 103 103 99 96 99 101 100 99 100 99 100 98 99 99 101 101 103 103 103 98 94 95 94 92 91 91 90 90 89 89 89 90 90 89 89 90 91 91 91 93 90 90 91 91 92 93 91 92 93 94 75 67 66 67 68 69 79
98 99 99 100 100 101 101 101 102 102 103 101 103 107 105 102 101 100 101 102 101 101 99 98 99 98 95 93 93 92 91 91 90 89 89 89 89 89 89 89 88 90 91 92 91 90 90 91 90 90 90 91 91 90 93 93 75 65 64 65 66 67 73
97 97 98 98 98 100 96 96 97 98 98 102 105 104 104 105 104 102 102 101 101 99 96 96 95 95 95 93 93 92 91 90 90 89 89 89 89 88 88 88 88 89 90 93 92 90 89 90 90 90 90 91 92 92 93 95 72 63 63 63 63 65 70
99 101 100 101 97 95 94 97 95 97 97 98 100 104 105 105 107 106 104 104 102 100 97 96 94 95 95 93 93 93 92 91 90 89 89 89 89 88 88 88 88 88 90 91 93 92 91 91 92 91 90 90 91 91 91 95 71 62 62 62 62 64 77
102 102 101 99 100 97 94 94 95 96 95 96 98 101 104 106 108 107 106 103 102 97 98 97 94 94 94 93 93 94 93 92 91 89 89 89 88 88 88 88 88 89 90 90 91 93 92 91 92 91 92 91 90 90 90 93 77 61 61 61 61 65 81
99 99 98 97 95 96 96 96 95 96 96 96 96 99 101 104 104 102 100 100 101 100 98 96 95 95 94 95 95 94 93 92 91 90 89 89 88 88 89 90 90 90 90 90 91 93 94 93 92 92 92 93 91 92 91 92 80 59 60 59 59 67 81
95 95 95 95 95 95 94 91 90 92 93 94 96 98 99 99 99 100 98 98 99 98 97 96 96 96 95 96 95 93 93 93 92 91 90 89 90 90 90 90 90 91 91 93 92 92 93 93 93 93 93 95 94 80 88 93 83 59 60 57 58 68 82
89 90 92 94 96 93 89 89 90 91 94 97 94 97 98 98 96 97 97 97 100 100 98 96 96 97 97 97 96 95 93 93 91 91 91 90 90 91 91 92 92 92 92 92 93 93 94 94 93 93 93 95 94 95 93 92 93 75 57 57 57 60 81
90 90 90 93 91 86 90 92 92 91 93 92 90 93 95 95 96 94 95 95 95 97 100 99 98 96 96 95 97 97 94 93 93 92 91 92 91 93 93 93 92 92 91 93 94 93 91 92 93 93 93 95 95 95 95 95 93 83 56 57 56 57 67
89 90 92 91 87 88 89 92 90 90 92 91 93 94 94 93 92 92 93 94 94 96 100 99 97 96 95 94 95 97 95 94 93 93 92 92 92 90 91 92 92 92 93 94 92 90 89 90 90 92 92 93 95 93 93 89 78 94 59 57 54 56 58
85 85 86 87 88 89 88 88 87 87 88 92 92 93 95 96 91 91 92 92 93 97 98 99 98 96 95 94 94 94 95 94 93 92 93 92 92 91 90 91 91 91 90 89 90 89 89 89 89 89 90 91 92 93 92 92 86 72 73 56 55 54 56
85 85 86 90 90 88 87 85 85 85 87 88 88 89 89 92 91 90 91 91 94 95 96 97 97 95 94 93 93 93 94 95 94 93 92 92 91 91 90 90 90 90 90 89 89 89 88 88 88 88 88 90 90 93 94 93 93 74 66 64 53 55 55
83 83 85 85 87 85 86 86 84 85 85 87 86 86 87 90 90 90 89 88 90 91 93 95 95 94 93 92 93 92 93 94 93 92 92 92 92 90 90 89 90 89 89 89 88 87 87 88 88 86 87 87 88 91 93 94 92 93 73 60 56 55 54
82 83 84 85 86 85 85 88 85 84 83 85 86 85 85 87 88 86 84 88 88 90 91 91 91 90 91 91 91 91 92 92 93 92 92 92 92 90 90 90 89 89 89 89 88 87 86 87 88 88 87 87 88 88 90 91 93 92 89 66 62 58 55
80 80 80 80 81 81 82 82 82 80 81 81 84 87 87 86 86 86 87 87 89 89 89 89 89 89 89 90 90 91 91 91 91 91 91 91 92 92 92 91 90 89 88 89 89 88 88 87 87 87 88 88 88 89 88 89 91 91 92 85 77 74 68
79 79 81 81 81 81 81 81 80 79 80 80 81 83 84 84 85 86 87 88 89 89 88 88 88 89 89 90 90 91 91 91 90 90 92 92 92 92 92 92 92 92 89 89 89 89 89 89 88 87 88 88 89 88 89 89 90 91 90 90 83 80 78
78 79 79 79 79 80 79 79 79 79 80 79 80 81 83 83 85 86 86 87 87 88 89 88 86 88 90 91 92 93 91 92 91 91 91 92 91 93 93 92 93 92 93 95 94 94 94 91 90 90 91 91 88 87 87 87 88 90 77 89 70 77 80
77 79 79 80 81 80 79 79 79 78 78 79 80 82 83 84 85 86 88 88 88 88 86 86 87 88 88 90 91 91 90 91 93 93 91 93 93 92 92 85 71 78 89 93 76 64 55 61 80 81 82 85 88 90 88 89 88 61 53 54 55 57 62
75 77 78 80 80 79 78 78 79 79 78 80 84 86 86 86 87 88 89 87 87 87 87 88 87 87 88 85 83 83 88 90 91 89 89 89 90 91 90 92 89 66 61 63 68 62 56 53 52 52 58 72 81 79 65 62 58 55 53 52 52 49 52
75 77 78 79 78 78 79 79 79 79 78 80 81 82 84 86 87 88 91 89 89 88 87 88 87 86 88 88 86 84 86 86 85 86 85 86 86 87 86 88 87 87 68 56 59 59 56 54 52 52 50 51 57 66 78 68 57 49 48 48 47 47 46

ECMWFFLT1_sfc_temp_030.txt.gz
Temp
98 95 94 93 93 93 91 90 88 89 90 90 90 92 92 91 89 88 87 85 84 83 84 85 85 85 85 85 85 85 86 85 85 85 85 85 86 85 86 87 87 85 87 87 87 86 87 88 87 88 87 87 87 87 86 86 86 87 86 86 85 85 85
96 94 92 94 92 92 89 87 87 90 91 92 91 91 92 91 89 88 87 85 85 84 84 85 85 85 85 85 85 85 85 85 86 85 86 85 85 85 87 86 86 86 86 87 87 87 88 89 88 88 88 87 87 87 88 87 86 86 86 85 85 84 85
96 98 93 92 92 91 87 87 82 84 88 91 93 93 92 89 89 88 87 86 85 85 85 85 85 85 85 85 85 85 85 86 86 86 86 87 87 89 88 87 87 87 88 88 88 89 89 89 88 88 88 87 88 87 87 87 86 86 86 85 85 85 83
95 98 99 95 94 92 90 88 86 86 88 92 94 93 92 89 91 90 89 88 86 85 84 85 86 86 86 85 85 85 85 85 86 87 88 88 87 88 87 87 87 88 88 88 90 91 91 89 89 88 88 87 87 88 88 87 88 86 86 85 84 85 84
96 98 99 96 94 93 93 94 93 92 96 97 95 93 93 93 93 92 91 90 89 87 87 87 89 88 87 87 87 87 86 86 86 87 88 88 87 87 87 89 88 89 88 90 89 88 87 88 89 88 88 87 88 87 87 87 87 86 85 85 84 85 84
95 96 97 96 96 95 96 96 97 97 97 97 96 95 96 96 96 95 93 90 89 89 88 88 88 87 86 88 88 87 87 86 86 86 87 87 87 88 88 88 89 89 90 89 90 89 89 89 89 89 89 89 89 89 89 88 88 87 86 85 84 85 85
97 97 98 97 97 98 98 98 99 97 98 99 99 98 97 97 96 95 95 93 91 89 89 89 89 89 87 88 87 87 86 87 87 87 88 89 88 88 87 88 88 90 90 89 89 89 89 88 88 88 88 89 88 89 87 86 86 87 86 84 84 84 84
96 97 97 98 100 101 100 98 99 100 98 96 98 97 97 97 97 96 95 94 93 92 91 90 90 88 87 88 88 88 88 88 89 88 88 89 89 88 89 89 88 89 89 89 89 89 90 88 90 89 89 89 88 87 88 86 85 88 87 85 84 84 86
97 96 98 101 101 101 101 98 97 96 93 92 93 97 97 97 97 96 96 95 94 93 92 93 92 91 88 88 88 88 88 89 88 88 88 89 90 91 91 91 90 89 89 90 91 90 90 89 90 88 88 88 87 86 87 86 87 87 86 85 84 84 85
98 95 97 102 100 102 98 97 96 91 90 91 92 94 96 96 96 97 97 96 96 94 94 94 94 93 90 89 90 90 89 88 88 90 90 90 90 91 92 92 92 91 90 91 92 91 89 89 89 88 87 87 87 87 87 87 87 87 87 86 85 84 84
97 95 95 100 98 94 95 95 92 88 89 89 92 97 96 96 96 97 97 97 97 96 96 95 95 94 92 91 91 91 89 90 90 89 89 90 92 92 93 93 93 92 91 92 92 92 90 88 89 87 87 87 87 87 87 87 87 86 88 87 87 86 86
93 94 92 95 95 93 94 91 90 88 88 89 94 97 94 93 97 98 98 98 99 98 97 97 97 96 93 92 91 90 90 90 91 91 90 91 92 93 93 94 94 93 92 92 91 91 91 89 89 88 87 87 87 87 87 87 87 86 87 89 88 87 86
94 92 93 96 94 93 90 89 89 89 89 94 98 98 98 97 97 98 95 96 99 99 99 97 96 95 95 93 93 90 90 91 91 90 92 91 92 92 93 94 95 94 93 92 92 92 92 90 88 88 88 87 87 88 87 87 87 86 86 87 87 86 86
94 98 97 95 93 90 90 88 89 90 91 95 97 97 98 99 98 97 96 97 98 100 100 100 97 95 93 92 91 90 92 92 90 89 90 90 89 90 92 93 93 93 92 91 91 92 92 92 89 89 89 88 88 88 87 87 87 86 86 86 87 87 86
97 97 96 96 92 91 89 89 88 90 93 94 97 97 98 99 98 96 96 98 97 101 101 98 96 95 95 92 90 89 90 90 90 90 89 89 89 89 89 90 90 90 91 90 90 91 92 93 92 89 89 89 88 88 88 88 88 88 87 86 86 87 87
99 99 98 97 94 95 93 93 92 90 91 92 95 95 98 97 95 97 98 98 100 97 100 98 96 93 94 94 91 90 90 89 89 89 88 88 87 87 88 89 89 90 89 90 90 90 90 90 91 92 90 89 88 88 88 88 89 81 74 77 86 87 87
100 99 98 96 92 95 92 92 92 92 91 91 92 94 95 95 96 99 101 100 101 98 100 101 95 95 94 93 92 91 89 88 88 88 87 87 88 87 88 88 89 89 88 89 89 89 88 89 90 92 92 90 90 89 88 89 88 74 69 71 74 84 86
95 94 97 97 95 94 92 93 92 92 93 95 96 95 96 93 97 99 100 101 101 102 102 100 98 96 92 94 91 90 89 89 88 88 87 87 87 87 87 88 88 88 88 89 90 88 90 90 89 89 91 90 90 90 89 89 77 70 68 69 70 75 86
95 96 97 95 93 92 96 96 94 92 95 97 96 97 99 97 99 95 97 97 98 99 101 101 101 96 92 93 92 90 89 89 88 88 87 87 87 88 88 87 87 88 89 89 89 90 88 87 89 88 90 90 88 89 90 90 75 68 67 68 68 69 78
98 99 100 100 100 100 96 95 95 96 98 96 97 101 101 99 99 97 99 100 98 98 96 96 97 96 92 91 91 90 89 89 88 88 87 88 87 87 87 87 87 88 90 90 89 88 88 89 88 88 87 89 88 88 90 90 76 67 65 65 66 67 72
95 95 97 96 95 97 93 93 94 95 95 102 102 101 100 99 101 100 100 99 99 96 92 93 92 92 92 90 91 90 89 89 88 88 88 88 87 87 87 87 87 88 89 91 90 88 87 88 88 88 88 90 90 89 90 92 73 65 63 63 64 66 69
97 98 99 98 91 89 90 93 93 96 92 92 97 102 103 103 104 103 102 103 100 97 94 93 91 92 91 90 90 90 90 90 88 88 88 88 87 87 86 87 86 86 87 89 92 91 90 90 90 89 88 88 89 90 89 93 72 64 63 62 62 64 73
93 92 93 93 96 93 92 93 94 94 93 95 96 98 100 104 106 104 103 101 101 94 96 94 91 91 91 90 92 92 91 91 89 88 88 88 87 86 87 86 86 87 88 88 89 90 90 89 91 89 90 89 88 88 88 91 77 63 61 61 61 64 76
94 93 94 95 94 93 90 90 92 94 94 93 94 96 98 100 100 97 96 97 98 97 95 94 93 92 91 92 93 92 91 90 89 88 88 87 87 87 87 89 88 88 88 88 89 91 92 92 90 90 90 90 89 90 89 90 79 61 60 59 60 66 77
91 92 93 94 91 90 91 90 89 91 93 93 93 95 96 97 96 94 94 95 96 95 94 94 94 94 93 93 93 91 91 91 90 89 88 87 88 88 88 88 88 89 89 90 90 90 90 90 90 90 90 93 92 80 86 90 83 62 59 57 58 65 78
88 89 90 93 92 90 90 90 91 91 93 93 89 93 94 95 94 93 92 92 98 99 96 94 94 94 95 95 93 92 91 92 89 89 88 88 88 88 88 89 90 89 89 90 90 90 91 91 91 90 91 91 91 91 89 89 89 78 58 57 57 59 77
89 89 89 91 89 86 89 91 90 89 92 89 89 93 94 92 92 91 91 91 92 94 98 97 95 93 93 92 95 94 91 91 91 89 89 90 89 90 90 91 89 90 89 90 91 90 88 90 91 91 90 92 91 92 92 92 90 84 57 56 56 56 65
88 89 91 89 88 88 88 89 88 88 90 90 91 91 91 91 89 88 89 91 92 94 98 97 94 93 92 91 93 95 93 92 91 91 90 90 89 88 88 89 90 90 90 91 89 87 87 87 87 89 90 90 92 91 90 88 78 92 62 56 54 55 56
83 85 85 86 89 89 88 87 86 87 88 90 90 90 91 90 88 90 90 89 92 95 96 96 96 93 92 91 92 91 92 91 90 90 91 90 90 89 88 89 89 89 88 87 87 86 86 86 86 87 88 87 88 89 89 89 85 71 76 56 55 54 55
83 83 85 88 89 88 87 86 85 85 87 87 87 87 87 87 87 90 90 89 91 93 94 94 96 92 92 91 91 91 92 92 91 91 91 90 89 88 88 88 88 87 87 86 86 85 85 85 85 85 85 87 87 89 90 88 89 73 67 65 53 55 54
82 83 84 84 86 86 86 86 85 85 85 86 86 86 85 86 87 86 84 86 89 88 90 92 95 92 91 91 91 90 92 91 91 90 90 90 90 88 87 88 88 86 86 86 86 85 85 84 86 84 85 84 84 86 87 88 86 89 73 62 56 55 54
80 81 83 83 84 82 83 86 86 84 83 84 86 86 86 85 86 84 85 87 87 89 89 88 91 91 90 90 90 90 91 91 92 91 90 90 89 88 87 87 87 86 86 86 86 85 84 84 85 85 85 84 86 85 86 86 87 87 84 66 61 57 55
78 79 80 81 81 82 82 82 83 82 82 81 82 84 86 86 86 86 87 87 88 88 88 88 89 89 89 89 89 90 90 90 89 89 89 89 89 89 88 88 87 87 84 85 86 85 85 85 85 85 85 85 85 85 85 86 87 86 87 81 74 72 67
77 77 80 81 81 81 81 81 81 81 81 80 81 83 84 84 85 86 87 88 89 89 89 88 89 89 89 90 89 89 89 89 90 88 89 88 90 89 89 89 89 88 86 86 86 85 85 86 85 85 85 86 86 86 85 86 86 85 76 74 75 78 76
76 77 79 80 80 80 79 80 80 80 80 80 82 83 83 84 85 87 87 87 88 89 87 87 87 88 89 90 91 91 89 90 89 89 89 88 88 89 88 88 89 87 89 91 87 88 90 89 87 86 87 87 85 84 84 85 81 64 54 58 52 59 71
76 77 79 81 81 81 80 80 80 79 79 80 81 83 83 84 85 87 88 88 88 88 87 86 86 87 88 89 90 90 88 88 90 90 89 90 88 87 88 80 69 79 87 80 63 58 59 65 77 76 80 82 82 80 78 74 64 49 45 44 46 46 47
75 77 78 81 81 80 79 79 80 80 80 80 81 83 84 86 87 87 88 87 87 88 87 86 85 86 84 83 82 81 85 84 86 87 87 87 87 87 86 88 72 49 55 62 63 54 48 48 48 50 56 70 77 66 51 51 46 44 44 44 44 44 44
77 78 79 80 79 79 79 79 79 79 79 81 82 83 84 87 87 86 92 87 87 85 81 83 86 84 85 85 84 83 84 85 84 84 83 83 84 83 84 83 82 76 55 53 57 53 49 47 45 46 48 52 57 67 69 55 47 44 45 44 44 43 43

ECMWFFLT1_sfc_temp_033.txt.gz
Temp
88 87 86 86 86 86 85 85 85 86 86 85 86 86 86 86 85 84 83 82 81 80 81 81 81 81 81 81 81 81 82 81 81 81 81 81 81 81 81 82 82 80 81 81 81 81 82 83 83 83 82 82 82 81 81 82 81 82 81 80 80 80 79
87 87 87 87 86 85 85 85 85 86 86 85 86 86 87 86 85 83 82 82 81 81 81 81 81 81 81 81 82 81 81 81 81 82 82 81 81 81 82 82 82 81 81 81 81 81 82 83 84 82 82 82 82 82 81 81 81 81 81 80 80 79 79
87 87 87 87 86 85 84 85 85 86 86 86 86 86 86 85 85 84 83 82 81 81 81 81 81 81 82 81 81 81 81 82 81 81 81 82 81 83 82 82 82 82 83 82 82 82 83 83 83 83 82 82 83 82 81 81 81 81 81 80 80 79 78
87 87 87 87 87 86 85 85 85 87 87 87 87 87 87 85 86 85 84 83 82 81 80 81 82 82 82 81 81 81 81 81 82 82 82 83 82 83 82 81 81 83 82 83 83 84 85 83 83 83 83 82 82 82 82 82 82 81 81 80 79 80 79
87 88 88 87 87 86 85 85 85 86 87 88 88 87 88 87 87 86 85 85 84 82 83 83 83 83 83 82 82 82 82 82 82 82 83 83 83 83 82 82 82 82 83 84 83 83 83 83 83 83 83 82 82 82 82 82 82 81 81 81 80 80 79
87 87 87 87 87 87 87 86 86 87 87 88 88 87 89 89 89 88 87 85 84 85 84 83 83 83 82 83 83 82 82 82 82 82 83 83 82 82 82 83 83 83 83 83 84 84 83 84 84 83 83 83 83 83 83 82 82 82 81 81 80 80 80
87 88 87 88 88 88 88 87 88 88 89 90 90 89 90 90 89 89 88 86 86 84 84 83 84 84 83 83 83 82 81 82 82 82 83 83 83 82 83 83 83 84 84 83 84 85 83 83 84 84 84 83 83 83 82 82 82 82 81 80 80 80 80
88 88 88 88 89 89 89 88 88 88 88 89 90 89 90 91 90 89 88 88 87 86 85 84 84 83 83 83 83 83 83 83 83 83 83 83 83 83 83 83 83 84 84 83 84 84 85 83 83 84 84 84 83 83 83 82 82 82 82 81 80 80 81
90 89 89 90 90 90 89 88 88 87 87 87 88 88 90 90 90 90 89 89 87 86 85 86 85 85 84 83 83 83 83 83 83 83 83 83 83 83 84 84 84 84 83 84 85 84 85 85 84 83 83 84 83 82 82 82 82 82 82 81 80 80 80
90 88 89 91 92 91 90 89 87 86 85 86 87 87 89 90 91 91 90 90 89 87 87 87 87 86 85 84 83 84 83 83 83 83 83 83 84 84 85 85 85 85 84 85 85 84 84 85 85 83 82 83 83 82 82 82 82 82 82 81 81 80 80
91 87 88 90 90 89 89 89 87 85 86 86 86 88 88 89 90 91 91 90 89 88 88 87 87 87 86 85 84 84 83 83 84 83 83 84 85 85 86 86 86 86 85 85 85 85 84 84 84 84 82 82 83 82 83 83 82 82 82 82 82 81 81
90 88 86 89 89 88 88 88 87 86 86 86 88 88 87 88 90 92 92 91 91 89 89 88 88 87 86 86 84 83 83 83 84 84 84 84 85 85 86 87 86 86 86 86 85 85 85 84 84 84 83 83 83 83 83 83 83 82 83 83 83 82 82
89 87 87 89 88 89 88 86 86 86 86 87 89 89 89 90 91 92 91 91 92 91 90 89 88 87 87 86 85 84 84 84 84 84 84 84 85 86 86 87 88 88 86 87 87 86 85 85 84 84 84 83 84 83 83 83 83 82 82 83 83 82 81
88 88 88 89 88 87 85 85 84 85 85 86 88 89 90 91 92 92 91 91 92 92 91 91 89 88 87 86 85 84 84 85 85 84 84 85 85 85 86 86 87 87 86 86 86 86 86 85 84 84 84 84 84 84 84 83 83 83 82 83 83 82 82
88 88 86 88 86 85 85 84 83 82 84 86 88 88 90 91 91 91 91 92 92 93 92 91 89 88 88 86 85 84 85 85 85 85 84 84 84 84 85 85 85 86 86 85 86 86 87 87 86 84 84 84 84 84 84 83 83 83 83 82 82 83 82
88 87 87 87 86 85 84 84 83 82 83 84 87 88 90 90 90 91 91 92 93 93 94 92 90 88 88 87 86 86 85 85 85 84 84 84 83 83 84 85 85 85 85 85 85 86 86 86 86 86 84 84 84 84 84 83 84 79 72 74 83 83 83
88 87 87 86 83 85 83 83 83 83 83 84 86 88 90 90 91 92 93 93 94 93 94 93 90 89 88 87 87 86 85 85 84 84 83 83 83 83 83 84 85 85 84 84 85 85 84 85 85 86 86 85 84 84 84 84 84 72 68 69 72 81 83
84 84 86 86 84 84 83 84 83 84 85 87 88 88 90 88 91 92 93 94 94 95 95 94 91 90 88 88 87 86 85 85 84 84 83 83 83 83 83 84 84 84 84 84 84 84 85 85 85 85 86 85 85 85 84 84 75 70 67 68 68 72 83
84 85 83 81 81 82 85 86 84 85 88 90 90 90 92 90 91 90 92 92 93 94 95 95 94 90 88 89 87 86 85 85 84 84 83 83 83 83 83 83 83 83 84 84 85 85 84 84 84 85 85 85 84 85 85 85 74 69 67 67 67 67 74
84 84 85 85 85 85 83 83 84 86 87 86 87 91 90 90 90 89 92 94 93 93 93 93 94 91 88 88 87 86 86 85 85 84 84 83 83 83 83 83 83 84 85 85 85 84 84 84 84 84 84 85 85 84 86 85 75 67 65 65 65 66 70
81 81 81 82 83 83 82 82 82 83 84 86 89 87 87 89 90 89 90 90 90 91 89 90 90 89 86 87 87 86 86 85 85 84 84 84 83 83 83 83 83 84 85 86 85 84 84 84 84 84 84 85 85 85 85 87 73 66 64 63 63 65 67
83 83 82 81 79 79 81 83 83 84 83 85 87 89 91 90 92 92 92 93 90 87 87 87 87 89 85 86 87 86 86 86 85 84 84 84 83 83 83 83 83 83 84 85 86 86 86 85 86 85 84 85 85 85 84 87 71 65 63 62 62 64 72
85 84 83 83 84 82 80 82 83 84 83 83 84 86 87 90 92 92 93 92 92 86 86 86 85 87 85 85 87 87 87 86 85 85 84 84 83 83 83 83 83 83 84 84 85 85 85 85 86 86 85 85 85 84 85 86 73 63 62 61 61 63 75
86 85 84 84 83 83 82 81 82 84 84 84 84 85 85 87 86 86 85 84 88 89 87 85 85 85 84 85 87 87 87 86 86 85 84 84 83 83 84 84 84 84 84 84 85 85 86 87 86 86 86 85 85 85 85 86 77 61 60 59 59 65 76
84 85 84 83 83 82 82 81 80 84 84 83 83 84 85 84 83 82 82 85 83 85 87 87 87 85 85 84 86 86 87 87 86 86 85 84 84 85 84 84 84 84 85 85 85 85 86 85 86 86 86 87 86 78 83 86 79 61 58 57 58 64 77
80 81 83 84 84 83 81 81 82 82 83 83 81 83 85 84 83 82 82 81 83 85 85 87 87 86 87 86 86 86 86 87 85 85 85 84 84 85 85 85 85 84 84 85 86 85 86 86 85 85 86 86 86 86 84 85 85 76 56 56 56 59 74
81 81 81 83 81 82 81 82 81 81 82 79 80 82 83 82 83 81 79 80 80 80 83 86 86 85 86 85 87 87 86 86 86 85 85 85 85 86 86 85 85 84 84 85 86 85 84 85 86 85 85 86 86 87 86 87 85 82 58 55 55 56 62
80 81 83 82 82 82 81 82 79 80 81 80 82 82 82 81 80 80 79 78 79 81 86 85 85 87 85 85 86 87 86 86 85 86 85 85 85 84 83 84 85 85 85 85 84 83 82 82 83 84 84 85 85 85 86 84 77 87 63 55 54 55 55
76 77 78 79 80 81 82 78 78 79 79 81 81 82 82 82 79 78 80 78 78 81 82 84 84 84 85 85 85 85 85 85 84 84 85 84 85 84 83 83 84 84 83 82 82 82 81 81 81 82 83 82 81 83 84 85 82 69 75 56 55 53 54
75 76 78 80 81 79 80 77 76 77 78 80 79 79 79 79 77 79 78 77 80 80 81 81 82 82 83 83 83 83 85 85 85 85 85 84 84 83 82 82 82 82 82 82 81 81 80 80 80 81 81 82 81 81 80 82 83 71 67 66 55 55 54
73 74 76 76 77 78 78 77 76 76 77 77 77 78 78 78 77 77 77 78 79 80 81 81 81 81 81 82 82 83 84 84 84 84 84 84 84 82 82 82 82 81 80 81 81 80 80 79 80 80 80 80 80 81 79 81 79 81 70 62 57 55 55
72 73 74 76 75 76 76 78 77 75 74 75 76 77 78 78 77 76 77 78 80 79 80 80 80 80 80 80 81 82 83 83 83 84 84 84 84 83 82 82 81 80 80 80 80 81 79 78 78 79 79 79 80 79 80 80 80 80 74 64 61 57 54
70 71 72 72 73 75 74 73 74 74 74 73 75 76 78 77 78 77 78 79 80 80 80 80 80 80 80 80 80 81 82 82 82 81 82 83 83 83 82 83 82 81 79 80 81 80 80 79 77 78 77 78 78 79 78 80 78 73 70 71 68 66 64
69 70 72 73 74 74 72 72 72 73 73 72 74 75 76 76 77 78 78 78 80 80 80 80 80 80 80 81 81 81 81 81 86 83 81 82 84 82 82 82 83 82 79 80 80 79 79 79 78 77 78 77 77 78 78 76 67 64 67 65 66 68 67
70 70 71 72 73 75 72 72 72 73 73 72 74 75 75 76 76 78 79 79 79 79 78 78 80 79 80 80 82 81 81 82 81 81 82 82 82 81 81 81 84 81 78 76 74 81 83 81 78 77 78 76 74 75 73 68 65 63 53 56 52 61 67
70 71 72 74 75 74 74 74 73 72 72 72 74 75 75 76 77 79 81 81 80 79 77 79 78 78 78 78 79 80 80 81 80 81 81 82 80 78 72 63 53 65 77 72 61 56 56 61 71 72 73 66 64 67 71 69 65 51 45 46 45 44 46
70 71 71 73 73 73 73 73 74 74 73 72 74 75 76 76 78 79 80 79 79 78 76 75 76 76 76 76 75 75 77 77 78 78 78 79 79 77 73 71 65 48 47 56 56 51 48 48 50 54 60 66 62 56 52 52 46 43 44 43 44 45 45
72 72 72 73 72 72 72 73 72 73 72 73 73 74 75 77 77 77 81 79 79 78 77 76 77 77 77 77 76 76 77 77 77 77 78 78 78 77 75 72 67 63 50 45 49 49 48 48 49 50 51 54 58 59 54 46 43 42 42 42 42 44 44

ECMWFFLT1_sfc_temp_036.txt.gz
Temp
84 83 83 84 83 83 83 83 83 83 83 83 83 83 83 83 82 81 81 80 79 79 79 79 79 79 79 79 80 80 80 80 79 79 79 78 78 79 78 79 79 78 78 78 78 78 79 79 79 79 79 79 80 79 79 79 78 79 78 78 78 77 77
83 83 83 84 83 83 83 83 84 84 83 84 84 83 84 83 82 81 81 80 80 79 79 80 79 79 79 79 80 80 79 80 80 80 79 78 78 78 79 79 79 78 78 79 78 78 79 79 80 79 79 79 80 80 79 79 79 78 78 78 77 76 77
83 83 84 83 83 83 82 83 84 84 84 84 84 84 83 82 82 81 81 80 79 80 80 80 80 80 80 80 79 79 79 80 80 79 79 79 79 79 79 79 79 79 79 79 78 79 80 79 80 80 79 79 80 79 79 79 79 79 79 78 77 77 76
83 83 83 84 84 83 83 84 84 85 85 85 85 85 84 83 83 82 82 81 80 80 79 80 80 80 80 79 79 79 79 79 80 80 80 80 80 80 79 78 79 79 78 78 80 80 81 80 80 80 80 79 79 79 79 80 80 79 79 78 77 77 77
83 84 84 83 83 83 83 83 84 84 85 86 86 85 85 84 84 83 83 83 82 81 81 81 82 81 81 81 80 80 80 80 80 80 80 81 80 80 79 79 79 80 80 80 79 79 79 79 80 80 79 79 79 79 79 79 79 79 79 79 78 77 77
83 83 83 83 83 83 83 84 85 85 86 86 85 85 86 85 85 84 84 83 82 83 82 81 81 81 80 81 81 80 80 80 80 80 80 80 80 80 80 80 80 80 81 80 80 80 80 80 80 80 80 80 80 80 80 79 80 79 79 78 78 78 77
83 83 83 84 84 84 84 84 85 86 86 87 87 86 87 86 85 85 85 83 83 82 81 81 82 82 81 81 80 80 79 80 80 80 80 80 80 80 80 80 80 81 82 81 80 80 80 79 80 80 80 80 79 80 79 79 79 79 79 78 78 78 77
84 84 84 84 85 85 85 84 85 86 86 86 86 86 86 87 86 85 84 84 84 83 83 82 82 81 81 81 81 80 80 80 80 80 80 80 80 80 80 80 80 80 81 80 81 81 81 80 81 80 80 80 80 79 80 79 79 80 79 78 78 78 79
85 85 85 85 85 85 85 85 85 85 85 84 85 85 86 86 86 85 85 85 84 83 83 83 83 83 82 81 80 80 81 81 80 80 80 80 80 80 81 81 81 80 80 81 81 81 82 81 82 81 80 80 80 79 80 79 79 80 79 79 78 78 78
85 84 85 86 87 86 85 85 85 84 83 83 83 83 85 86 86 86 86 85 84 83 83 84 84 83 82 81 81 81 81 80 80 80 80 80 81 81 81 82 82 81 80 81 81 81 81 82 81 81 80 80 80 79 80 80 80 80 80 79 79 78 78
85 84 84 85 85 84 84 84 82 82 83 82 83 84 84 85 86 86 86 86 85 84 85 84 84 84 83 82 81 81 80 80 81 80 80 80 81 81 82 82 83 82 81 82 81 81 81 81 81 80 80 80 80 80 80 80 80 79 80 80 80 79 79
84 83 82 83 84 83 83 82 82 81 81 82 83 84 84 85 86 87 87 86 86 85 85 85 85 84 83 82 81 80 80 80 81 81 80 81 81 82 82 83 83 82 82 82 82 81 81 81 81 81 80 80 81 81 80 80 80 80 80 80 80 80 80
84 83 83 84 83 84 82 80 80 81 81 83 84 85 85 85 86 87 86 86 87 87 86 85 85 84 83 83 82 80 80 81 81 81 81 81 81 82 82 83 83 83 83 83 83 82 82 81 81 81 81 81 81 81 81 80 80 80 80 80 80 80 79
84 84 84 84 84 82 80 80 80 80 81 82 84 84 85 86 87 87 86 86 87 87 86 86 85 84 83 82 81 81 81 81 81 81 81 81 81 81 82 82 82 83 83 83 82 82 82 82 81 81 82 82 81 81 81 81 80 80 80 80 80 80 79
83 84 84 84 83 82 81 80 79 80 81 82 83 84 84 86 86 87 87 88 87 88 87 86 85 84 83 82 81 81 81 81 82 82 81 81 81 81 81 81 82 82 82 82 82 82 83 83 83 82 81 82 82 82 82 81 81 81 81 80 80 81 80
84 84 84 84 83 83 81 81 81 80 81 81 83 83 84 85 85 87 87 87 88 87 88 87 85 83 83 83 82 82 82 81 81 81 81 81 80 80 81 81 81 81 81 81 82 82 82 82 82 83 82 81 81 82 81 81 82 77 70 72 81 80 81
84 84 84 84 83 83 82 81 81 81 80 81 82 83 84 85 86 87 88 88 89 88 88 87 85 84 83 83 83 83 82 81 81 81 80 80 80 80 80 80 81 81 81 81 81 81 81 82 82 83 83 82 82 81 81 82 82 71 68 68 70 79 81
84 83 84 84 83 83 82 81 80 80 81 83 84 84 85 85 86 87 88 89 89 89 89 88 86 84 83 84 83 83 82 81 81 81 80 80 80 80 80 80 80 80 80 81 81 81 82 82 81 82 83 82 82 82 82 82 73 69 67 67 66 69 80
83 83 84 83 82 82 83 83 82 82 83 84 85 85 86 86 87 86 88 88 89 90 89 88 87 85 84 84 83 83 82 82 81 81 81 80 80 81 80 80 80 80 80 81 81 82 80 81 81 82 82 82 81 82 82 82 73 68 66 66 66 66 71
77 78 78 79 79 80 78 78 79 81 83 84 85 88 88 88 88 88 89 90 89 89 89 88 87 86 84 84 83 83 83 82 82 81 81 81 81 80 80 80 80 80 81 82 81 81 81 81 81 81 81 82 82 81 83 82 73 67 65 64 64 65 67
75 76 76 77 77 77 76 77 77 78 80 82 85 84 85 87 88 88 89 89 89 88 87 87 87 85 84 83 84 83 83 82 82 81 81 81 81 80 80 80 80 80 81 82 82 81 81 81 81 81 81 82 83 82 82 84 72 66 63 63 62 63 65
77 77 76 76 76 76 77 79 80 81 79 80 82 83 84 85 88 89 90 91 89 88 87 86 86 86 84 84 84 84 83 83 82 81 81 81 81 80 80 80 80 80 81 82 83 83 83 82 83 82 81 82 82 82 82 84 70 65 63 62 61 62 69
78 78 78 78 78 77 77 78 79 80 80 80 82 82 82 84 87 89 90 89 90 87 87 86 85 85 84 84 84 85 84 84 83 82 81 81 81 80 80 80 80 81 82 81 82 82 82 82 83 83 82 82 82 81 82 83 73 63 61 60 60 62 72
80 80 79 79 78 79 78 79 80 80 80 79 79 80 80 82 81 79 80 82 84 85 85 85 85 86 84 84 85 85 85 84 84 83 82 82 81 81 81 82 82 82 82 82 82 82 83 84 83 83 84 83 82 83 82 83 75 61 59 59 59 64 74
78 79 79 79 78 77 78 77 78 79 79 78 78 78 79 79 78 79 77 77 77 79 81 82 85 85 84 84 85 85 85 85 84 84 83 82 82 82 82 82 82 83 83 83 83 83 84 83 83 84 84 84 84 78 81 83 76 60 59 58 58 64 75
75 76 77 78 79 78 77 77 77 77 77 77 76 77 78 78 77 78 77 76 76 78 78 80 82 83 85 86 85 85 85 85 84 84 84 83 83 83 83 83 83 83 83 83 84 83 83 84 83 83 84 84 83 84 83 82 83 70 58 57 57 59 74
75 76 76 77 77 78 77 77 76 76 76 75 76 77 77 77 77 76 76 76 74 75 77 78 79 81 82 81 84 84 84 85 84 84 84 84 84 84 84 84 83 83 82 83 84 83 82 83 83 83 83 84 84 84 83 84 82 75 56 56 56 57 62
73 74 77 77 78 77 76 76 75 76 76 75 77 77 76 76 75 75 75 73 74 76 79 78 77 78 80 81 82 84 84 84 84 85 84 84 84 83 83 83 84 83 83 84 82 81 81 81 81 82 82 83 83 82 82 81 76 82 58 56 54 56 55
70 71 72 73 74 76 77 74 73 74 74 75 76 77 76 76 75 76 75 74 75 77 77 78 78 76 79 80 81 81 82 83 83 83 83 83 84 83 82 83 82 82 82 81 80 80 80 80 80 80 80 80 78 78 79 79 78 69 69 56 54 54 54
70 70 72 73 75 74 75 73 72 72 73 74 75 75 75 74 74 76 75 74 76 76 77 78 77 75 77 79 79 80 81 82 83 83 83 83 83 82 82 81 81 81 81 81 80 79 79 78 78 78 78 79 78 78 76 77 79 69 65 64 54 54 53
68 69 70 70 71 73 74 72 71 72 73 73 73 74 74 74 73 74 74 75 76 76 77 77 77 76 76 77 78 79 80 80 81 82 82 82 82 81 81 80 81 80 79 79 79 79 78 77 77 77 77 77 77 76 75 78 77 79 70 62 57 55 54
68 69 70 71 71 71 72 72 72 71 71 72 73 73 74 74 73 73 74 75 76 76 76 76 77 77 75 76 77 78 79 79 79 80 81 81 82 82 81 81 80 79 78 78 79 78 77 76 76 76 76 76 77 76 77 76 77 72 67 63 62 59 54
66 67 68 68 70 71 70 70 70 70 71 71 72 72 73 73 73 74 74 76 76 76 76 77 78 77 75 75 76 77 79 79 78 78 79 80 80 80 81 81 80 79 77 78 78 77 77 77 75 75 75 76 76 77 76 78 72 68 69 67 65 65 63
66 67 68 69 70 71 68 69 69 69 69 70 71 71 72 72 73 74 74 75 75 75 76 77 77 77 75 75 76 77 78 79 82 80 78 79 80 79 80 80 80 79 78 78 78 77 77 77 76 76 76 76 76 76 76 71 66 67 66 66 67 65 63
66 66 67 68 69 71 68 68 69 69 69 70 70 71 71 72 72 74 74 74 74 74 74 75 77 77 74 76 77 77 79 79 80 78 78 76 67 59 57 61 69 76 74 68 67 75 81 79 78 78 78 77 76 76 72 69 68 66 58 58 53 62 68
65 66 67 68 70 70 70 69 69 69 69 69 71 72 72 72 72 73 75 75 74 73 73 72 74 73 74 73 75 76 78 78 78 78 78 74 69 66 63 57 48 53 65 65 61 52 53 66 74 75 72 66 61 64 72 72 68 52 46 46 45 43 44
65 65 66 68 68 68 70 69 70 70 69 69 71 71 71 71 72 72 74 74 74 73 72 72 73 73 72 73 72 73 76 76 76 77 77 74 71 68 65 64 60 47 46 53 54 50 47 46 48 54 61 67 63 56 50 51 46 43 44 43 43 43 43
66 66 67 68 68 68 69 69 68 69 68 68 69 69 70 71 72 71 74 73 74 75 74 73 73 72 72 73 72 73 73 74 75 76 74 72 71 70 68 66 64 62 52 46 49 49 46 46 47 47 49 53 58 59 57 49 44 43 43 43 43 43 43

ECMWFFLT1_sfc_temp_039.txt.gz
Temp
82 82 81 82 81 81 81 81 81 81 81 81 81 81 81 81 80 80 79 79 78 77 78 78 78 78 78 78 79 79 79 79 78 78 77 77 77 77 76 76 76 75 75 75 75 76 77 77 77 77 77 77 77 77 76 77 76 77 76 76 76 75 75
81 82 82 82 81 81 81 82 81 82 82 82 81 81 82 81 80 80 79 79 79 78 78 78 78 78 78 78 79 78 78 78 78 78 78 77 77 77 77 77 77 76 75 76 76 76 76 77 77 77 77 77 77 77 77 76 76 76 76 76 75 75 75
81 82 82 82 82 81 81 82 82 82 82 82 82 82 81 80 81 80 80 79 78 79 79 78 78 78 79 79 78 78 78 78 78 78 77 77 77 78 77 77 77 77 77 76 75 76 77 77 77 77 77 77 77 77 77 77 77 76 76 76 76 75 75
81 82 82 82 82 82 82 82 82 83 83 83 83 83 82 81 82 81 81 80 79 79 78 78 79 79 79 78 78 78 78 78 78 78 78 78 77 78 77 76 77 77 76 76 77 77 78 77 77 77 78 77 77 77 77 77 77 77 76 76 75 76 75
82 82 83 82 82 82 82 82 82 82 83 84 84 83 83 82 82 82 81 81 81 80 80 79 80 80 79 79 79 79 78 78 78 78 79 79 78 77 77 77 77 77 78 78 77 77 76 76 77 77 77 77 77 77 77 77 77 77 76 76 75 75 75
81 81 82 82 82 83 83 83 83 84 84 83 83 83 83 83 83 82 82 81 81 81 81 80 80 79 79 79 79 79 79 78 78 78 78 78 78 77 77 77 77 78 78 77 78 77 77 77 77 77 77 77 77 77 77 77 77 77 77 76 76 76 75
82 82 82 83 83 83 83 83 84 84 85 85 85 84 84 84 83 82 82 81 81 80 80 80 80 80 79 79 79 79 78 78 78 78 79 79 78 78 78 78 78 78 78 77 76 77 77 77 77 77 77 77 77 77 77 76 77 77 77 76 76 76 76
83 82 83 83 84 84 84 83 84 85 85 84 84 84 83 84 83 83 82 82 82 81 81 80 80 79 79 79 79 79 79 79 79 79 79 79 78 78 78 78 78 78 77 77 77 77 77 77 78 78 77 77 77 77 77 77 77 77 77 76 75 76 77
84 84 84 84 84 85 84 84 84 84 83 83 83 83 83 83 83 83 82 82 82 81 81 82 81 81 80 79 79 79 79 79 79 78 78 78 79 78 79 79 78 78 77 78 78 77 78 78 78 78 77 77 77 77 77 77 77 77 77 76 76 76 76
83 83 83 85 85 85 84 84 83 82 82 82 82 82 83 83 83 83 83 83 82 81 82 82 82 82 80 79 79 79 79 79 79 79 79 78 79 79 79 80 79 79 78 79 79 78 78 78 78 78 77 77 77 77 77 77 77 77 77 77 77 76 76
83 82 83 83 83 83 83 83 81 80 81 81 81 83 83 83 83 83 83 83 82 82 83 82 83 82 81 80 80 79 79 79 79 79 78 79 79 79 80 80 80 80 79 79 79 79 78 78 78 77 77 77 77 77 77 77 77 77 77 77 77 77 77
81 81 81 81 82 81 81 81 81 80 80 81 82 83 82 82 83 84 84 83 84 83 83 83 83 82 81 81 80 79 79 79 79 79 79 79 79 79 80 80 80 80 80 79 79 79 79 78 78 78 77 77 78 78 78 78 77 77 77 78 78 77 77
81 81 80 81 81 81 81 79 79 80 80 81 82 83 83 83 83 84 83 83 84 84 83 83 83 82 81 81 80 79 79 79 79 79 79 79 79 80 80 80 81 81 80 80 80 79 79 79 78 79 78 78 78 78 78 78 78 77 77 78 77 77 77
81 80 80 81 80 79 79 79 79 79 80 81 82 83 83 84 84 84 83 83 84 84 84 84 82 82 81 80 80 79 79 79 79 79 79 79 79 79 80 80 80 80 80 80 79 79 79 79 78 79 79 79 79 79 79 78 78 78 78 78 78 78 77
79 79 79 79 79 79 79 79 78 79 80 80 81 81 82 83 83 83 83 84 84 84 84 84 82 81 81 80 79 79 79 79 80 79 79 79 79 78 78 79 79 79 79 79 79 79 80 80 80 79 78 79 79 79 79 79 79 79 79 78 77 78 78
79 79 79 80 79 80 79 80 79 79 79 79 80 81 82 82 82 83 83 84 84 84 84 84 82 81 81 80 79 80 80 79 79 79 79 78 78 78 78 78 79 79 78 79 79 79 79 79 80 80 79 79 79 79 79 79 79 75 69 70 78 78 78
79 79 80 80 79 80 80 80 79 79 78 79 80 81 82 82 83 84 84 85 85 84 85 84 82 81 81 80 80 80 79 79 78 79 78 78 78 78 78 78 78 78 78 78 78 78 79 79 79 79 80 80 79 79 79 79 79 70 66 66 68 76 78
79 79 80 80 81 81 80 79 78 78 79 80 81 81 82 82 83 83 84 85 85 85 85 84 83 81 80 81 80 80 79 79 78 78 78 78 78 78 78 78 78 77 78 78 78 78 79 79 78 79 80 80 80 79 80 80 72 68 66 65 65 67 78
80 80 80 80 80 79 80 80 79 79 80 81 82 82 83 83 83 83 84 84 85 86 85 84 83 82 80 81 81 80 79 79 79 78 78 78 78 78 78 78 77 77 77 78 78 79 78 78 78 78 79 79 79 79 80 80 71 67 65 65 64 64 69
80 81 81 81 81 81 80 80 80 80 81 81 82 84 85 84 84 84 86 86 85 85 84 83 83 82 81 81 80 80 80 79 79 78 78 78 78 78 78 77 77 78 79 79 78 78 78 78 78 78 78 79 79 79 80 80 72 66 64 63 63 63 65
70 73 74 75 75 77 76 76 76 77 78 80 82 81 82 83 84 83 84 85 84 84 83 83 82 81 81 80 81 80 80 79 79 79 78 79 78 78 78 78 78 78 78 79 79 78 78 78 78 78 78 79 79 79 79 81 71 66 63 62 61 62 63
72 73 73 74 74 73 74 76 77 78 77 79 80 81 83 84 85 85 85 86 85 84 83 82 82 82 81 81 81 81 81 80 79 79 79 79 78 78 78 78 78 78 78 79 79 79 79 79 79 79 79 79 79 79 79 81 70 65 63 61 60 61 68
73 73 74 74 75 74 75 76 77 77 78 78 80 80 82 83 85 85 85 85 85 82 82 82 81 81 81 81 81 82 81 81 80 79 79 79 78 78 78 78 78 78 79 78 79 79 79 79 79 80 79 79 79 78 79 80 73 64 62 60 60 61 70
76 75 75 75 75 76 76 76 77 78 78 76 76 76 77 82 84 82 81 82 83 82 82 82 82 82 81 82 82 82 82 82 81 80 80 79 78 78 79 79 80 80 80 79 79 79 80 80 80 80 81 80 79 80 79 80 75 64 60 59 59 63 71
74 74 75 75 76 75 75 75 76 76 76 76 75 74 75 77 81 81 80 81 81 82 81 82 83 83 82 83 83 83 83 83 82 81 81 79 79 80 79 80 80 80 80 80 80 80 81 80 80 80 81 81 81 76 78 80 76 63 61 58 58 63 72
71 73 74 74 75 75 75 76 76 75 74 74 73 74 75 76 77 78 76 76 78 81 81 82 83 84 85 84 84 84 84 83 82 82 81 80 80 81 81 81 81 80 80 80 81 80 80 80 80 80 81 81 81 81 80 80 80 74 59 58 57 58 72
72 73 73 74 74 76 74 74 74 73 73 72 73 74 75 76 76 75 75 74 75 75 77 76 76 78 80 81 83 83 83 83 83 82 82 82 81 82 82 82 81 81 80 80 81 80 79 80 80 80 80 81 81 81 81 82 80 77 59 57 56 56 61
70 71 73 74 75 74 73 74 73 73 73 73 74 74 74 75 75 74 74 74 74 75 77 76 76 75 76 78 81 83 83 83 83 83 83 83 82 81 80 81 82 81 81 81 80 78 78 79 79 79 79 80 81 80 80 80 75 82 61 57 55 55 55
67 68 68 70 71 73 73 71 71 71 71 72 73 74 74 75 74 74 73 73 73 74 74 76 75 74 74 75 78 80 81 82 82 82 82 82 82 81 80 81 80 80 80 79 78 78 78 78 78 78 78 78 78 78 78 79 77 69 72 57 55 55 54
67 68 69 70 71 71 72 70 70 70 70 71 71 71 72 72 73 74 72 71 72 73 74 74 74 74 72 73 75 77 80 81 82 82 83 83 82 81 80 79 80 79 79 79 78 77 77 77 77 76 76 77 76 76 76 77 78 69 65 67 55 55 54
65 66 67 67 68 70 70 69 69 70 69 69 70 70 70 71 72 72 71 71 72 73 73 73 74 74 74 72 73 75 78 79 80 81 82 82 82 80 80 79 79 78 78 77 77 77 76 76 76 76 76 76 76 75 74 75 75 77 69 62 59 55 54
65 66 67 68 68 69 69 69 69 69 68 68 69 69 70 70 70 70 69 70 72 72 71 73 73 75 74 72 71 73 75 77 78 79 80 80 81 81 80 80 79 78 77 77 77 77 76 75 75 75 75 75 75 74 75 75 74 75 70 66 64 59 54
64 64 65 66 68 69 67 68 68 68 68 67 68 69 70 70 70 70 70 72 71 72 72 73 75 75 74 73 70 72 74 76 76 76 77 78 78 79 79 79 79 78 76 77 77 76 75 75 74 73 73 74 74 74 74 75 74 71 67 66 66 67 65
63 64 65 66 67 69 67 67 67 67 67 67 67 68 69 69 69 70 70 71 71 71 71 74 74 73 72 72 71 73 74 74 80 77 75 75 76 76 76 77 78 77 76 77 77 76 75 75 74 73 74 74 74 74 74 73 71 68 69 66 65 64 64
63 63 64 65 66 68 66 65 67 66 67 66 66 68 68 68 69 70 70 70 71 70 71 73 75 73 71 71 72 73 74 75 77 75 71 64 59 54 53 56 63 72 72 64 65 72 79 78 75 76 75 76 76 74 73 70 70 70 58 60 58 64 65
63 63 64 65 67 67 67 67 66 67 67 66 67 68 68 68 69 70 71 70 71 71 71 71 72 71 71 71 70 72 74 75 74 72 70 68 63 62 59 55 48 50 63 64 60 53 52 62 76 76 75 70 60 62 71 74 69 49 46 45 44 44 46
62 62 63 64 65 66 67 67 68 68 67 66 68 68 68 68 68 69 70 70 71 71 71 70 70 70 70 71 71 70 74 74 73 71 69 67 66 65 64 64 59 47 46 51 52 47 44 44 48 57 64 71 65 55 48 50 46 44 42 43 43 44 44
62 62 63 64 64 65 66 66 66 65 65 66 67 67 67 68 68 68 70 70 71 71 71 71 70 69 69 70 71 72 72 74 73 70 69 67 67 67 66 65 63 62 50 45 47 47 44 44 45 46 48 53 56 57 55 47 43 43 43 42 43 43 43

ECMWFFLT1_sfc_temp_042.txt.gz
Temp
80 80 80 80 80 80 79 79 79 80 80 79 79 80 80 80 79 79 78 78 77 77 77 77 77 77 77 77 78 78 78 78 78 77 77 76 77 76 76 76 76 75 76 76 76 76 77 77 77 78 77 77 77 77 77 78 77 78 78 77 77 77 77
79 80 80 80 80 80 80 80 80 80 80 80 80 80 80 80 79 79 78 78 78 77 77 77 77 77 78 78 78 78 77 78 78 78 78 77 77 76 77 76 76 75 75 76 76 76 77 77 78 77 77 78 78 78 78 77 78 77 77 77 77 77 77
79 80 81 80 80 80 79 80 80 81 81 81 81 81 80 79 80 79 79 78 77 78 78 78 78 78 78 78 77 77 78 78 78 78 77 78 77 78 78 77 76 76 76 76 76 76 77 77 77 77 78 77 78 77 77 77 77 78 77 77 77 77 76
79 80 81 81 81 81 81 81 81 81 82 82 82 82 81 79 81 80 80 80 78 78 77 78 78 78 78 78 77 77 77 78 78 79 79 79 78 78 77 76 76 77 76 76 77 77 78 78 77 77 78 77 77 78 78 78 78 78 78 77 77 77 77
79 81 81 81 81 80 80 81 81 81 82 83 83 82 82 81 81 81 81 81 81 79 79 79 80 80 79 79 79 78 78 78 78 79 79 79 78 78 77 77 77 77 77 78 77 76 77 77 77 77 77 77 77 77 77 78 78 77 77 77 76 77 77
79 79 80 81 81 81 81 82 82 83 83 83 82 82 83 83 83 82 82 81 81 81 80 79 79 79 78 79 79 79 78 78 78 78 78 78 78 77 77 77 77 78 78 77 77 77 77 77 77 77 77 78 78 78 78 78 78 78 77 77 77 77 77
79 80 80 81 82 82 82 82 83 83 84 84 84 83 83 83 82 82 82 81 81 80 80 80 80 80 79 79 79 78 78 78 78 78 79 79 78 77 77 77 78 78 78 77 77 77 77 77 77 77 77 78 77 78 77 77 77 78 77 77 76 77 77
80 80 81 82 83 84 83 83 83 84 84 84 83 83 83 83 83 83 82 82 82 82 81 80 80 79 79 79 79 79 79 79 79 79 79 79 78 78 78 78 77 78 77 77 77 77 78 77 78 78 78 78 77 77 78 77 77 78 77 77 76 77 77
82 81 82 83 84 84 84 83 83 83 82 82 82 82 83 83 83 82 82 82 82 81 81 82 81 81 79 79 78 78 79 79 79 78 78 79 79 79 79 79 78 78 77 78 78 78 78 78 78 77 77 77 77 77 77 77 77 78 77 77 77 77 77
81 80 81 83 84 85 84 84 83 81 80 80 81 80 81 82 82 83 83 83 82 82 82 82 82 81 80 79 79 79 79 78 78 79 79 79 79 79 80 80 79 78 78 78 79 78 78 78 78 78 77 77 77 77 77 77 77 77 77 77 77 77 77
81 80 80 81 82 82 82 82 80 79 80 79 80 82 81 82 82 82 82 83 82 82 83 82 82 82 81 80 80 79 79 79 79 79 78 79 80 80 80 80 80 79 79 79 79 79 78 77 78 77 77 77 77 77 77 78 78 77 78 78 78 78 78
79 79 79 80 80 81 80 80 80 79 79 79 81 82 80 80 82 83 82 82 83 83 82 83 83 82 81 80 80 78 79 79 79 79 79 79 79 80 80 81 80 80 80 79 79 78 79 77 77 78 77 77 78 78 78 78 78 77 78 79 78 78 78
79 79 79 80 79 80 79 78 78 79 79 81 82 82 82 82 82 83 81 81 83 83 83 82 82 81 81 81 80 78 78 79 79 78 79 79 79 80 80 80 81 81 80 80 80 79 79 78 77 78 78 78 78 78 78 78 78 78 78 78 78 78 78
78 79 80 79 79 78 78 78 78 78 79 80 81 82 82 83 83 82 81 81 82 83 83 83 82 81 80 79 79 78 79 79 79 78 78 79 78 79 80 80 80 80 80 80 79 79 79 79 78 78 79 79 79 79 79 78 78 78 78 78 78 78 78
77 79 79 78 77 77 78 78 77 78 79 80 81 81 81 82 82 81 81 82 82 83 83 82 81 80 80 79 78 78 78 78 79 79 78 78 78 78 78 78 79 79 79 79 79 79 80 80 80 79 78 79 79 79 79 79 79 79 79 78 78 78 78
77 78 78 78 78 78 78 78 78 78 78 78 80 80 81 81 80 82 82 82 83 82 83 82 81 79 80 79 78 79 78 78 78 78 78 78 77 77 78 78 78 78 78 78 79 79 79 79 79 80 79 79 79 79 79 79 79 75 68 70 78 78 78
76 77 78 78 77 79 78 78 78 78 77 78 79 80 80 81 81 82 83 83 83 82 83 83 80 80 80 79 79 79 78 77 77 78 77 77 77 77 77 77 78 78 77 78 78 78 78 78 78 79 80 79 79 79 79 79 79 69 65 65 68 76 78
75 76 77 78 79 79 78 78 77 77 78 79 80 80 81 80 81 82 83 83 83 84 84 83 81 80 79 80 79 78 78 78 77 77 77 77 77 77 77 77 77 77 77 77 78 77 79 78 78 78 79 79 80 80 79 80 71 66 64 64 64 67 78
75 77 78 77 78 77 78 79 79 78 80 81 81 81 82 82 82 81 82 82 83 83 83 83 82 80 79 80 79 78 78 77 77 77 77 77 77 77 77 77 77 77 77 77 78 79 77 77 78 78 78 79 78 79 80 80 70 65 64 64 64 63 70
73 76 77 79 79 79 79 79 80 80 81 81 82 84 84 83 83 83 84 84 83 83 82 81 81 80 79 79 78 78 78 78 77 77 77 77 77 77 77 77 76 77 78 79 78 77 77 78 78 78 77 78 78 78 80 80 71 65 63 62 62 63 65
71 74 73 74 75 78 78 78 78 78 79 81 82 81 82 82 83 82 83 83 83 82 80 80 80 79 79 78 79 78 78 78 77 77 77 77 77 77 77 77 77 77 78 79 78 77 77 77 77 78 78 79 79 79 79 81 69 64 62 61 61 62 64
69 74 74 75 76 75 75 78 78 79 79 81 81 82 83 83 84 84 84 85 83 82 81 80 79 79 79 79 79 79 79 79 78 77 78 77 77 77 76 77 77 77 78 78 79 79 79 79 79 78 78 79 79 79 78 81 68 64 62 60 60 61 68
69 71 73 73 76 74 74 76 78 79 79 80 82 82 83 83 84 84 84 83 83 81 81 80 79 79 79 79 80 80 80 79 79 78 78 78 77 77 77 77 77 77 78 78 78 79 79 79 79 79 79 79 78 78 78 80 71 63 61 60 59 61 71
72 72 73 74 74 75 75 76 77 79 81 79 80 82 82 83 83 81 80 81 81 81 80 80 80 80 79 80 81 81 80 80 79 79 78 78 77 77 78 79 79 79 79 78 78 79 80 80 79 80 80 80 79 80 79 80 74 63 60 59 58 63 72
72 72 72 73 75 76 76 77 78 80 79 79 79 79 80 82 81 80 79 80 80 80 80 80 81 81 80 81 81 81 81 81 80 80 79 78 78 79 79 79 79 80 80 80 80 79 80 80 79 80 80 81 81 75 78 80 75 63 60 58 57 63 74
70 71 72 73 74 74 75 76 77 77 78 78 77 79 80 81 80 80 79 79 80 81 80 81 81 82 83 83 82 82 81 81 80 80 80 79 79 79 80 80 80 80 80 80 80 80 80 80 80 79 80 81 81 81 80 80 80 75 60 58 56 58 73
71 71 71 72 73 74 73 74 75 74 75 74 75 78 81 80 80 79 78 78 78 79 81 82 82 82 82 82 83 83 81 81 81 81 80 81 80 81 81 81 80 80 80 80 81 80 79 80 80 80 80 81 81 81 82 82 81 78 60 56 56 56 61
69 70 72 73 74 73 72 73 72 73 73 73 75 78 79 79 78 76 76 77 77 78 80 79 80 81 81 81 82 83 82 82 82 82 81 81 81 79 79 80 81 81 80 81 80 78 78 78 78 79 79 80 81 80 80 80 75 83 64 57 55 55 55
66 67 68 69 70 72 72 70 70 70 72 73 75 78 79 79 76 76 76 75 75 76 76 78 78 78 79 79 81 81 82 82 81 81 82 81 81 81 80 80 80 80 79 79 78 78 78 77 77 78 78 78 78 80 80 80 78 68 75 59 55 54 53
66 67 68 69 70 71 71 69 69 69 70 71 73 75 77 77 75 75 74 73 74 75 76 76 76 76 77 78 79 80 81 82 82 82 82 82 81 81 80 79 80 79 79 78 78 77 77 76 77 77 77 77 78 79 79 79 79 70 65 68 55 55 53
65 66 67 67 68 70 70 68 68 69 69 70 71 72 73 75 75 74 72 72 73 74 75 75 76 75 74 74 76 78 80 81 81 82 82 82 82 80 80 80 79 78 78 78 78 77 76 76 77 76 76 77 77 78 78 78 77 80 69 62 59 55 54
65 66 66 68 68 69 69 69 69 69 69 69 70 71 72 73 75 73 72 73 73 73 74 75 75 76 75 74 73 75 77 78 79 80 81 81 81 81 80 80 79 78 78 78 78 77 76 76 77 76 76 76 78 77 78 77 77 77 77 69 66 61 55
64 65 65 65 67 68 67 68 68 68 68 68 69 70 71 71 72 72 72 73 73 73 74 76 76 76 74 73 73 73 74 76 76 77 78 79 80 80 81 80 80 78 77 78 78 77 77 77 77 76 76 76 77 77 77 77 76 77 76 74 73 73 69
63 64 65 66 67 68 67 67 67 67 67 67 68 69 70 70 70 70 71 71 72 73 76 76 76 74 72 72 73 73 74 75 78 77 76 78 79 79 80 79 79 79 77 78 78 77 77 78 77 76 76 76 77 77 76 76 77 76 75 74 74 73 72
63 63 64 65 66 68 67 67 67 67 67 67 67 69 69 69 69 70 70 71 71 72 75 75 75 72 71 72 73 74 75 75 77 76 72 66 60 56 56 60 68 75 77 71 74 79 81 79 78 78 79 79 77 76 75 75 76 77 66 73 64 69 70
62 63 64 65 66 67 67 68 67 66 67 67 68 68 68 69 69 70 71 71 72 72 73 73 72 71 71 71 72 74 75 75 74 70 69 68 65 62 58 53 46 49 66 69 61 53 54 64 77 79 79 77 67 66 75 78 75 52 49 49 50 51 54
61 61 62 64 64 65 66 67 68 67 67 67 68 68 69 69 69 69 71 71 71 72 72 72 71 71 71 72 72 73 74 72 71 70 69 68 68 68 67 65 59 46 44 50 50 46 43 46 54 61 64 72 65 54 46 47 45 44 44 44 44 44 45
61 62 63 64 63 64 64 65 66 66 66 66 67 67 68 69 68 68 70 70 71 72 71 71 71 70 70 71 73 73 73 72 70 69 69 68 69 69 68 68 66 62 49 43 46 46 44 43 43 48 54 56 57 56 54 46 43 43 44 44 44 44 43

ECMWFFLT1_sfc_temp_045.txt.gz
Temp
87 87 86 86 85 85 85 84 84 84 84 84 84 85 85 85 84 84 83 82 81 81 81 81 81 81 81 81 82 82 83 83 83 83 83 83 84 83 83 84 84 83 85 85 85 85 85 85 85 85 85 85 85 84 84 84 84 85 84 84 84 84 84
87 87 87 87 86 86 85 85 84 85 85 85 85 84 86 85 84 84 83 82 82 81 81 82 81 81 82 82 82 82 82 82 83 83 83 83 83 83 84 83 84 83 83 85 85 85 85 86 86 85 85 85 85 85 85 84 84 84 85 84 84 83 84
87 88 88 87 87 86 85 86 85 86 85 86 86 86 85 84 84 83 83 83 82 82 83 82 82 82 82 82 82 82 82 83 83 83 83 84 84 86 85 84 84 84 85 85 85 86 86 86 85 85 85 85 86 85 85 85 84 84 84 84 84 84 83
87 88 88 88 87 87 87 86 86 87 88 88 87 87 86 84 85 85 85 85 83 82 81 83 83 83 83 82 82 82 82 83 83 84 85 85 85 85 84 84 84 85 84 85 86 86 87 86 85 85 84 85 85 86 85 85 86 85 84 84 84 85 84
87 89 89 88 88 87 87 87 87 86 88 89 88 87 87 86 87 87 86 87 87 84 85 85 86 85 84 84 84 84 83 83 83 85 85 85 85 85 84 85 85 85 85 86 85 84 84 84 86 85 84 84 85 85 85 85 85 84 84 84 84 84 85
88 87 87 88 88 88 88 88 89 89 89 89 89 88 89 88 89 88 88 87 87 87 86 85 85 84 84 85 85 85 84 84 84 84 84 85 84 84 85 85 85 85 86 85 86 86 85 85 85 85 85 86 86 86 86 85 86 86 85 84 84 85 85
88 87 87 88 89 89 89 89 90 90 90 91 91 90 90 90 89 89 89 88 88 86 87 86 86 86 84 85 84 84 83 84 84 84 85 85 85 84 84 85 85 86 86 85 85 86 85 84 85 85 85 86 85 86 85 84 85 85 84 83 83 84 84
88 87 88 89 90 91 90 89 90 91 90 90 91 90 90 90 90 90 89 89 89 89 88 88 87 85 84 85 85 85 84 85 86 85 85 85 85 84 85 85 84 85 85 85 85 85 86 85 86 85 85 86 85 84 85 84 84 86 85 84 83 84 85
89 88 89 90 90 91 91 90 90 90 89 88 88 88 89 90 90 89 89 90 89 89 88 89 89 88 85 85 84 84 85 85 85 85 85 85 86 86 87 86 85 85 85 86 87 86 86 86 86 85 84 85 84 84 84 84 84 85 84 84 83 83 85
88 87 87 90 91 92 91 91 90 88 86 86 86 86 88 89 89 90 90 90 90 89 89 90 90 89 86 85 85 86 85 84 85 86 86 86 87 87 88 88 87 86 86 86 88 86 85 86 86 85 84 84 84 84 84 84 84 84 85 84 84 84 83
88 86 86 88 89 89 89 90 87 85 85 84 85 88 88 88 88 90 89 90 90 90 91 90 90 89 87 87 87 86 85 86 86 86 86 87 88 88 88 89 89 87 87 87 87 87 86 84 85 84 83 84 84 84 84 84 84 84 85 85 85 85 85
85 86 84 86 87 88 88 87 86 85 84 84 87 88 86 86 88 90 89 89 91 90 90 90 90 89 88 88 87 85 86 85 86 86 86 87 88 88 89 89 88 88 87 88 87 86 87 85 85 84 83 84 84 84 84 84 84 84 84 86 86 85 85
86 84 84 86 86 87 86 85 85 84 84 87 89 89 88 88 88 89 87 88 90 91 90 89 89 87 88 88 88 85 85 86 86 85 87 86 87 88 88 89 89 89 88 88 87 87 87 86 84 84 84 84 84 85 84 84 85 84 84 84 85 85 85
82 86 87 86 86 85 84 84 84 84 84 86 88 89 89 89 89 88 87 88 89 91 91 90 88 87 86 86 86 84 86 86 85 85 85 86 85 86 87 88 88 87 87 87 86 87 87 87 85 85 85 85 85 85 85 85 85 84 84 84 85 85 85
83 86 87 87 84 83 84 84 83 84 85 86 88 87 88 89 89 88 87 88 89 91 90 88 87 86 86 85 84 83 84 85 85 85 85 85 84 84 85 85 85 86 86 85 85 86 88 88 87 86 85 86 85 85 85 85 85 85 85 84 84 85 85
82 85 88 88 86 86 84 85 84 83 84 84 86 86 88 87 87 88 87 88 89 88 90 88 86 85 85 85 84 84 84 84 84 83 83 83 82 82 83 84 84 85 84 84 85 85 85 86 86 87 86 85 85 85 85 85 86 79 71 74 84 85 85
79 82 85 88 86 86 85 85 85 84 83 83 85 85 86 86 87 88 90 89 90 88 89 89 85 86 86 84 85 84 84 83 83 83 82 82 82 82 83 83 84 83 83 83 84 84 83 84 85 86 87 86 86 86 85 86 85 71 66 67 69 81 84
76 78 82 85 88 88 86 86 85 84 84 86 87 86 87 85 88 89 89 89 89 90 91 89 87 86 84 86 84 83 83 83 83 82 82 82 82 82 82 83 83 82 82 83 83 83 85 84 84 84 86 86 87 87 86 86 75 67 65 65 65 69 83
76 78 80 82 84 86 88 88 87 85 87 88 88 88 89 88 89 87 88 88 89 89 90 89 89 86 84 85 84 83 83 82 82 82 82 81 82 82 82 82 82 82 83 83 84 84 82 82 84 83 84 85 84 86 87 88 73 65 64 64 64 64 72
76 78 80 85 87 89 88 87 88 88 88 87 89 91 91 90 89 89 90 90 89 89 87 86 87 86 84 84 83 83 83 82 82 82 82 82 82 82 81 81 81 83 84 84 83 82 83 83 83 83 83 84 84 84 86 87 74 64 63 63 62 63 67
75 77 78 82 85 89 87 86 87 87 87 89 90 90 90 90 91 90 90 89 88 88 85 85 85 84 84 83 83 83 83 82 82 82 82 82 82 81 81 81 82 82 83 85 84 83 82 83 83 83 83 85 85 85 86 88 71 63 62 61 61 62 65
76 77 78 82 86 86 85 88 87 88 87 89 90 91 91 90 91 91 90 91 89 88 86 85 84 84 84 83 84 83 83 83 82 82 82 82 81 81 81 81 81 81 83 84 86 85 85 85 85 85 84 84 85 85 84 88 69 63 61 60 60 61 73
76 79 80 82 88 88 87 88 88 90 88 89 91 90 91 92 92 91 91 90 89 86 87 86 84 84 83 83 84 85 84 84 83 82 82 82 81 81 82 81 81 82 83 83 84 85 85 85 86 85 85 85 84 84 84 87 73 62 61 59 59 63 78
77 80 81 83 87 87 86 87 89 88 90 89 90 91 91 92 91 89 87 88 88 87 86 85 85 85 84 84 86 85 85 84 84 82 82 82 81 82 82 84 84 84 84 83 84 85 87 86 86 86 86 86 85 86 85 86 75 60 60 59 57 65 78
75 78 81 82 84 87 88 86 87 89 89 88 89 90 90 90 90 88 86 87 87 86 86 85 85 86 85 85 86 85 85 85 84 84 83 82 83 84 83 83 83 85 85 86 86 85 86 86 86 86 86 88 88 79 83 87 78 59 60 58 57 66 79
72 75 78 81 84 86 86 85 85 86 87 88 87 89 89 90 88 87 86 86 88 87 86 86 86 87 87 87 87 86 85 86 84 84 84 83 83 84 84 85 86 85 85 86 86 86 87 87 86 86 86 88 87 88 86 86 87 75 58 58 56 59 78
73 75 76 79 79 80 85 86 87 88 89 88 86 89 90 88 88 86 85 85 85 86 88 88 88 87 87 86 88 87 86 86 85 85 85 85 84 86 86 86 86 86 85 86 87 86 85 86 86 86 86 88 88 88 88 88 87 82 57 56 55 56 63
72 74 78 79 78 79 82 86 86 88 90 86 87 88 88 87 85 84 84 85 85 86 90 89 88 87 86 86 87 88 87 86 86 86 86 86 85 84 84 85 86 86 86 87 86 84 83 83 84 85 86 87 88 87 87 85 77 89 62 56 54 55 55
68 70 72 75 78 80 81 81 82 85 86 88 89 89 89 89 84 84 84 83 85 88 89 88 88 87 86 86 86 86 86 86 85 85 86 86 86 85 84 85 85 85 84 83 84 83 82 82 82 83 84 84 85 86 86 86 83 70 77 57 55 53 53
68 70 71 74 77 78 81 79 79 80 83 87 88 88 88 87 83 83 83 83 86 88 88 88 87 86 86 85 85 86 86 87 87 86 86 86 85 85 84 84 84 84 83 83 83 82 81 82 82 82 82 84 84 86 87 86 86 72 67 69 54 55 53
65 67 69 70 73 76 79 79 78 79 80 82 83 85 86 86 84 83 82 83 84 85 86 86 86 85 85 85 86 85 86 86 86 86 86 86 86 84 84 84 84 82 82 82 82 82 81 82 83 82 83 83 83 85 85 86 85 87 73 63 59 54 53
64 66 68 69 71 73 75 79 79 79 78 78 81 82 83 85 85 82 81 82 83 85 85 85 84 84 84 85 85 85 86 86 87 86 86 86 86 85 85 84 84 83 83 83 82 82 82 83 83 83 83 84 85 84 85 85 85 85 85 72 68 62 55
62 64 65 66 69 71 72 74 75 76 77 76 78 80 82 82 82 81 81 81 83 84 84 84 84 83 84 84 84 85 85 85 85 86 86 85 86 86 86 85 85 84 83 84 83 83 84 83 83 83 84 84 84 85 84 85 85 85 85 85 82 81 74
61 63 65 66 68 71 72 72 72 72 74 75 76 77 78 79 79 80 81 82 83 84 83 83 84 84 84 84 84 84 85 85 84 84 86 86 87 87 87 87 86 86 84 84 84 84 84 85 84 83 85 84 84 84 84 84 85 85 85 85 85 84 84
61 61 63 65 67 69 70 72 73 74 74 75 76 77 77 77 78 79 80 81 82 83 83 81 81 82 84 85 86 86 84 85 84 85 86 86 84 77 74 78 85 87 87 88 89 89 89 86 85 85 86 87 85 83 82 84 83 85 73 84 72 79 83
62 61 61 64 66 68 70 71 72 74 74 75 76 76 77 77 78 78 80 81 82 83 82 81 80 80 80 83 84 85 84 84 86 85 85 84 79 73 65 52 45 53 75 84 64 56 55 63 84 86 89 87 84 78 83 85 83 64 61 60 58 59 63
62 62 62 63 65 65 66 69 71 73 74 75 76 77 77 77 78 78 80 80 80 80 81 81 80 81 81 81 82 81 83 83 82 80 80 79 77 75 71 69 62 47 42 48 51 48 45 48 52 56 65 81 80 60 47 47 45 47 49 50 52 52 51
63 63 64 63 64 64 65 66 68 70 71 74 75 77 77 79 79 77 81 80 80 80 80 81 82 81 82 83 80 77 80 81 79 78 77 77 77 76 75 74 71 65 48 43 45 46 43 41 41 48 57 62 66 66 63 48 42 43 44 44 45 45 45

ECMWFFLT1_sfc_temp_048.txt.gz
Temp
97 96 95 94 93 93 92 91 90 91 90 90 90 91 92 91 90 89 89 87 85 85 85 85 85 86 85 86 86 86 87 87 87 87 87 88 89 88 88 90 89 89 92 92 91 91 91 91 92 92 91 90 90 90 89 89 89 90 89 89 88 89 89
97 97 97 96 94 93 92 91 91 91 91 91 90 90 91 91 90 90 88 87 86 86 86 86 85 86 86 86 87 86 86 86 87 87 88 88 88 89 90 89 89 89 89 92 92 91 91 92 92 91 91 91 91 90 91 89 89 89 90 89 89 88 88
97 97 97 96 95 94 92 93 92 92 92 92 92 91 91 89 90 89 89 88 86 86 87 86 85 86 86 86 86 86 86 87 87 88 88 90 89 92 90 89 90 91 91 91 92 92 92 91 91 91 91 91 92 90 90 90 89 89 89 89 89 89 87
96 97 98 98 96 94 94 93 92 93 94 94 93 93 91 89 91 90 90 90 88 87 86 87 87 88 87 86 86 86 86 87 87 89 90 91 90 91 90 90 89 91 91 91 93 93 94 92 92 90 90 90 90 91 91 90 91 90 89 89 89 89 88
96 98 98 97 97 95 95 94 94 92 95 96 94 92 93 92 93 93 92 92 92 89 90 90 91 90 88 88 89 88 87 87 88 89 90 90 90 90 90 91 91 91 91 92 91 90 90 91 92 91 90 89 91 90 90 90 90 89 89 89 88 89 89
97 96 96 98 98 97 96 96 97 96 96 96 95 94 95 95 95 95 94 92 92 93 91 90 90 89 88 90 90 89 89 88 88 88 89 90 89 90 91 90 92 91 93 91 93 92 91 91 91 91 91 92 92 92 92 91 91 91 89 89 88 90 91
97 97 97 98 99 99 98 97 98 98 97 98 98 97 97 96 95 95 95 94 94 91 92 92 92 91 89 90 89 89 88 89 88 89 90 91 91 90 90 90 90 92 93 92 91 92 91 90 90 91 91 92 91 92 91 90 90 91 90 88 88 88 89
98 98 98 99 101 102 101 98 98 99 98 98 98 97 97 97 97 97 96 96 95 96 94 94 93 91 89 90 90 90 90 90 91 90 90 91 91 90 91 91 90 91 91 92 91 92 92 91 92 91 91 92 91 90 92 90 89 92 91 89 88 89 91
100 98 99 101 101 103 103 100 98 98 96 95 96 95 96 97 97 97 97 97 96 96 95 96 96 94 90 90 89 89 90 91 91 90 90 91 92 93 93 93 92 92 91 92 93 92 92 92 92 90 90 90 90 89 90 89 90 90 90 89 89 88 90
98 97 97 101 102 104 102 100 98 96 95 94 94 94 95 96 96 97 97 97 98 97 97 97 97 95 92 91 91 92 91 90 91 92 92 92 93 93 94 95 94 92 92 93 94 93 91 92 92 91 89 89 89 89 89 89 90 90 90 89 89 88 88
99 96 96 99 100 100 99 100 96 94 94 91 92 96 94 95 95 97 96 98 98 98 99 97 97 96 94 93 93 93 91 92 93 92 92 93 94 95 95 96 96 94 93 94 94 94 92 90 91 90 89 89 89 89 89 89 89 89 91 91 91 90 90
95 97 94 96 97 98 97 96 95 93 92 91 94 96 93 93 95 97 97 97 99 99 98 98 98 97 95 94 93 91 92 91 93 93 93 93 95 95 96 96 96 96 94 94 93 93 94 91 91 90 89 89 89 89 89 89 89 89 89 92 92 91 91
94 92 92 93 93 95 94 93 93 92 91 94 96 96 96 95 95 97 95 95 98 99 98 96 96 95 95 94 94 91 92 93 92 92 94 93 94 95 95 96 97 97 95 94 94 94 94 94 90 90 90 89 90 90 89 89 90 89 88 89 91 90 90
87 93 94 93 93 93 92 92 92 91 91 93 95 96 96 96 97 96 95 95 97 99 99 98 96 94 93 92 92 91 93 93 92 91 91 93 92 93 95 95 96 95 95 93 93 94 94 95 92 91 91 91 90 90 90 90 90 89 88 89 90 90 90
91 94 94 94 91 91 91 92 90 90 91 92 95 94 95 96 96 95 95 96 96 99 98 96 95 94 94 92 91 90 91 91 92 91 91 91 90 91 92 93 93 93 93 92 92 94 95 95 95 92 91 91 90 90 91 91 90 91 90 89 89 90 91
90 92 93 95 94 93 91 92 91 89 90 90 93 93 95 95 94 96 95 95 97 96 98 96 94 92 93 92 91 91 91 90 90 90 90 90 89 89 90 91 91 92 91 91 92 92 92 92 93 94 92 91 91 91 91 91 92 84 75 79 89 90 91
86 86 88 89 89 94 93 92 92 90 89 89 91 92 93 94 94 96 98 97 98 95 97 98 93 93 93 91 92 91 90 89 89 89 88 88 88 88 88 89 90 90 89 90 90 90 89 91 92 93 93 92 92 92 92 92 92 75 69 70 73 87 90
82 82 85 87 88 88 90 94 93 92 91 93 94 94 94 93 95 96 97 97 97 98 99 97 94 93 91 92 91 90 89 89 88 88 87 87 87 87 88 89 89 88 88 89 89 88 91 90 90 90 93 93 93 93 93 93 80 69 67 68 68 73 88
79 81 83 84 86 87 90 92 96 94 94 95 95 95 96 95 96 94 95 95 96 97 98 97 96 92 90 92 90 89 88 88 88 87 87 87 87 87 87 87 87 88 88 89 89 90 88 88 89 89 90 92 91 92 94 94 76 66 66 66 66 67 77
77 79 81 84 86 88 88 89 92 97 97 95 96 99 99 97 97 96 97 97 96 96 95 94 94 92 90 90 89 88 88 87 87 87 86 87 87 87 86 86 86 88 90 90 89 87 88 89 88 88 88 89 90 89 92 94 75 65 64 64 64 65 71
75 76 77 80 83 87 87 87 91 94 96 98 99 97 98 98 99 97 98 97 96 95 92 92 91 90 90 89 89 88 87 87 87 86 86 86 86 86 86 86 86 87 89 91 90 88 87 88 88 88 88 90 91 90 92 95 70 64 62 62 62 63 68
74 75 76 80 82 83 85 89 90 96 96 97 99 100 100 98 99 99 98 99 97 95 93 92 90 90 89 88 89 88 88 88 87 86 86 86 86 86 86 86 85 86 87 89 92 91 90 89 90 90 89 89 90 90 90 94 69 62 62 61 61 62 77
71 72 76 81 86 87 88 89 92 96 96 98 100 100 99 100 100 99 99 98 97 93 94 92 89 89 88 88 90 90 89 89 88 87 86 86 86 86 86 86 86 86 88 88 90 91 91 90 91 90 91 90 89 89 89 93 76 61 60 59 59 65 82
72 73 79 84 86 88 90 93 95 97 98 98 97 100 100 99 98 96 94 95 96 95 93 92 90 90 89 90 91 90 90 89 89 87 87 86 86 86 87 88 88 88 88 88 90 92 93 92 91 92 92 92 90 91 90 92 79 60 59 58 57 68 82
70 73 80 85 88 89 90 92 94 97 96 97 97 98 98 98 96 95 93 93 94 93 92 91 91 91 90 91 92 90 90 90 89 89 88 86 87 88 88 88 88 89 89 91 91 91 92 91 92 92 92 95 94 82 88 93 83 59 60 57 57 69 84
65 70 78 84 89 89 88 89 91 94 96 96 95 98 97 98 96 94 92 93 95 94 92 91 91 92 92 93 92 91 90 91 88 88 88 87 87 88 89 90 90 90 91 91 92 92 93 93 92 92 93 94 94 94 92 91 93 75 58 57 56 60 82
67 71 76 81 85 83 88 91 93 94 96 95 94 98 98 96 95 92 91 91 91 91 93 94 93 92 92 91 93 93 91 91 90 89 89 90 88 90 91 91 91 91 90 91 93 92 91 92 92 93 92 94 94 95 94 94 93 83 56 57 55 56 66
67 71 76 79 81 85 88 93 92 93 97 95 96 96 96 94 91 90 89 90 91 92 96 94 93 92 92 90 92 93 91 91 90 90 90 90 89 88 89 90 91 91 91 93 91 89 89 89 90 92 92 93 94 93 93 91 81 94 61 57 54 56 57
64 66 69 73 79 85 89 89 91 94 96 97 97 98 98 96 90 89 89 89 90 94 95 94 94 92 91 90 91 90 91 90 89 89 90 90 90 89 88 90 90 90 89 88 89 88 88 87 88 89 90 90 91 92 91 92 87 73 78 57 55 53 54
64 66 68 73 79 81 85 86 85 89 95 96 96 96 95 93 89 88 88 88 92 94 94 93 92 91 90 89 90 90 91 91 91 89 90 90 89 89 88 88 89 88 88 88 88 88 86 87 87 87 88 89 90 92 93 91 92 76 69 68 54 55 54
62 63 65 68 73 77 83 86 85 87 91 94 93 94 93 93 89 88 87 90 91 92 92 92 91 89 89 89 90 89 90 90 90 90 90 90 90 88 88 88 88 87 87 87 87 87 86 86 88 87 88 88 88 90 91 92 90 92 76 64 58 55 53
63 64 64 67 69 73 78 86 87 88 86 88 91 92 91 92 91 87 88 91 91 92 92 90 89 88 88 88 89 89 90 89 90 90 90 90 90 89 89 88 88 87 88 88 88 87 87 87 88 88 87 88 90 90 90 90 91 90 89 72 66 60 55
62 62 62 63 65 70 73 79 83 82 84 84 88 90 91 90 91 90 90 90 91 91 90 89 88 87 88 88 88 89 89 88 89 90 89 89 90 90 90 90 89 88 87 88 88 88 88 88 88 88 89 89 90 90 89 90 91 91 91 87 83 80 72
62 61 62 64 65 68 71 73 77 80 82 82 84 86 86 87 88 89 89 90 91 92 90 88 88 88 88 89 90 89 90 89 87 88 91 90 91 91 91 91 91 91 88 89 89 89 89 89 89 89 90 90 90 90 90 90 90 90 90 90 88 87 85
61 60 61 63 64 67 69 72 74 76 79 80 83 85 85 85 86 88 88 89 90 90 88 87 86 88 90 91 92 92 90 92 90 91 92 91 91 90 83 85 92 93 92 93 95 95 95 91 90 90 92 94 91 89 89 90 88 91 78 89 77 84 87
60 61 63 64 64 66 69 71 72 75 77 79 82 83 83 84 85 87 89 90 90 89 88 87 87 87 88 90 91 92 91 91 93 92 92 93 92 81 70 52 46 56 78 88 64 53 52 64 86 88 95 92 92 85 88 90 88 63 62 61 61 62 66
59 61 62 63 62 63 67 70 73 74 76 78 80 82 82 82 85 86 88 87 89 89 88 88 87 88 90 89 90 90 91 91 92 91 90 91 91 87 81 78 68 47 42 49 53 48 42 41 46 53 61 80 87 66 49 49 47 51 55 56 55 57 55
61 63 64 64 62 62 65 68 72 73 75 77 79 81 82 84 84 84 88 87 88 88 88 88 88 88 90 91 89 85 88 91 90 90 89 90 89 86 84 84 80 72 50 42 45 46 42 42 41 42 51 60 71 76 73 51 43 43 45 44 44 45 44

ECMWFFLT1_sfc_temp_051.txt.gz
Temp
96 98 92 91 92 92 92 91 93 95 94 93 93 94 95 95 93 92 91 89 87 86 87 87 87 88 87 88 88 88 89 89 89 89 89 90 91 90 90 91 91 90 93 93 92 92 92 92 93 93 92 91 92 91 90 90 90 91 90 90 89 89 90
97 100 100 94 94 94 95 93 93 95 95 94 93 93 95 94 93 93 91 89 88 87 87 88 87 88 88 88 89 88 88 89 89 89 90 89 90 90 92 90 91 90 91 93 94 93 93 94 93 92 92 92 92 91 92 90 90 90 90 90 89 89 89
99 99 100 97 94 95 92 94 95 96 95 95 95 95 94 92 93 92 91 90 88 88 88 88 87 88 88 88 88 88 89 89 89 90 90 91 91 94 92 91 91 92 93 93 93 95 94 94 92 92 92 92 92 91 91 91 90 90 90 89 89 89 88
98 100 102 100 94 94 95 94 95 97 98 97 96 96 95 93 94 93 93 92 89 89 87 89 89 90 89 88 88 88 88 89 89 91 92 93 92 93 92 92 91 93 93 93 95 96 97 93 93 92 91 91 91 92 92 91 92 90 90 89 90 90 89
100 101 101 101 99 94 93 94 94 96 98 99 97 95 96 96 96 96 95 94 94 90 91 91 93 92 90 90 91 90 89 90 90 91 92 93 92 92 92 93 93 93 93 94 93 93 93 92 93 92 92 91 92 91 91 91 91 90 89 89 89 90 90
100 99 100 101 100 98 98 97 97 98 99 99 98 97 98 98 98 97 96 95 94 94 92 91 92 91 90 92 92 92 90 90 89 90 91 92 91 92 92 93 93 93 95 94 95 94 94 93 93 92 92 93 93 93 93 92 92 92 90 89 89 90 91
99 100 100 101 101 98 95 94 95 97 101 101 101 99 99 99 98 98 98 97 96 93 94 93 94 93 91 92 91 91 90 91 90 91 92 93 93 92 91 92 92 94 94 94 93 94 94 93 92 92 93 93 92 94 91 90 90 91 90 88 88 89 89
100 100 101 101 103 102 100 98 98 98 97 99 101 99 99 100 99 99 98 98 97 97 95 95 94 92 91 92 92 92 91 92 92 92 92 93 93 92 93 93 92 93 93 95 93 94 94 92 94 94 93 94 92 92 93 91 90 93 91 89 88 89 92
102 101 101 103 104 103 100 98 95 95 95 96 99 98 99 99 99 99 99 99 98 97 96 97 97 96 92 92 91 91 92 93 92 92 93 94 94 95 95 94 94 94 93 95 96 94 94 93 94 92 92 92 92 91 92 91 91 92 91 90 89 89 90
101 100 100 103 103 105 102 99 97 95 97 96 97 97 98 99 99 99 100 100 99 98 98 98 98 97 94 93 93 94 93 92 93 94 94 95 95 95 96 96 95 94 94 95 97 95 93 94 93 93 91 92 91 91 91 91 92 91 92 91 90 89 89
102 99 100 102 101 101 100 100 98 94 94 94 96 99 98 98 98 100 99 100 100 100 100 99 99 98 96 95 95 95 93 94 95 94 94 95 97 97 97 97 97 95 95 95 96 96 94 92 93 91 91 91 91 91 91 91 91 91 92 92 92 91 91
99 100 97 99 100 100 100 99 96 94 95 95 98 100 96 96 99 100 100 100 101 101 100 100 101 99 96 96 96 93 94 94 95 95 95 96 97 98 98 98 98 97 96 96 95 96 96 93 93 92 91 91 91 91 91 91 91 90 91 93 94 92 92
98 99 98 100 99 99 98 97 94 95 95 98 100 100 100 99 99 100 98 98 102 102 101 99 99 97 97 96 97 94 95 95 95 94 96 95 97 98 98 98 99 98 97 96 96 96 97 96 92 92 92 91 92 92 91 91 91 90 90 91 92 92 91
92 100 101 100 100 99 99 98 96 95 95 98 99 100 100 100 100 99 98 99 100 102 102 101 99 97 96 95 94 93 95 95 95 94 94 95 94 95 97 98 98 97 97 95 95 96 97 97 94 93 94 92 92 92 92 91 91 90 90 90 92 92 92
97 99 97 97 95 94 96 97 96 94 96 97 99 98 99 100 99 98 98 99 99 103 102 100 99 97 97 94 93 92 93 93 95 94 94 94 93 93 95 95 95 96 96 94 95 96 97 97 97 94 93 93 92 92 93 93 92 92 91 90 90 92 93
91 91 94 95 95 97 96 96 96 95 95 94 97 97 100 99 97 99 99 99 101 100 102 100 98 96 96 95 93 93 93 92 92 92 92 92 91 91 93 95 94 95 94 94 95 94 94 94 95 96 94 93 93 93 93 93 93 86 78 81 90 91 93
87 87 89 88 89 90 93 96 97 96 94 94 95 96 97 98 98 99 102 101 101 100 101 102 96 97 96 94 94 93 92 91 91 91 91 91 91 91 91 92 94 93 93 93 93 92 92 94 95 97 96 94 94 93 94 95 95 77 71 73 77 89 91
84 84 85 86 86 88 90 94 95 96 95 97 97 97 98 96 98 100 100 101 101 102 104 101 98 97 94 95 93 92 91 92 91 90 90 90 90 90 91 92 93 92 92 93 93 91 94 94 94 93 96 96 95 95 95 95 83 70 70 71 71 77 90
83 83 84 84 85 86 91 91 93 96 98 98 98 98 100 100 100 97 99 99 100 101 102 101 100 96 94 95 93 91 91 90 91 90 90 90 90 90 90 90 91 91 92 93 93 93 91 91 93 93 94 95 93 94 95 96 77 67 68 69 69 70 80
81 82 83 84 84 86 86 88 89 91 94 96 99 102 102 101 101 99 101 101 100 100 98 98 97 96 94 93 92 91 90 90 90 90 89 90 90 90 89 90 90 92 94 94 92 90 91 92 91 92 91 93 93 92 95 97 75 67 66 67 67 68 73
78 79 80 81 81 83 83 84 87 90 91 95 99 100 100 101 102 101 102 102 101 100 96 96 95 94 93 92 92 91 90 90 90 89 89 89 89 89 89 89 89 91 92 94 93 91 89 91 91 91 92 93 94 94 95 99 69 65 64 64 64 66 71
77 78 79 80 79 80 81 85 87 91 91 93 96 102 103 101 103 103 102 104 101 100 98 96 94 94 93 92 92 91 91 91 89 89 89 88 88 88 88 88 88 89 91 92 95 93 92 92 93 92 92 92 93 94 92 96 63 65 63 63 63 64 79
77 77 78 79 81 81 82 85 88 93 93 95 97 99 104 104 105 103 103 102 102 97 98 97 94 93 91 91 93 92 92 91 90 89 89 88 88 88 88 88 88 89 91 91 93 94 93 92 93 92 93 92 91 92 91 95 69 62 61 62 61 67 84
76 76 78 78 79 81 82 86 90 93 94 95 97 99 103 104 103 101 98 99 101 99 97 97 95 94 92 93 93 93 92 91 90 89 89 88 88 88 89 90 90 91 91 92 93 95 95 94 93 94 93 93 92 93 93 95 76 59 60 60 59 71 84
75 75 76 77 78 79 82 83 84 88 91 92 96 99 101 104 102 101 98 97 99 98 96 95 95 95 93 93 94 92 92 92 91 90 90 88 89 90 90 90 90 91 92 93 94 94 95 93 93 94 94 97 95 84 90 96 82 58 60 58 57 71 85
70 72 73 76 79 79 78 79 82 87 92 94 95 100 101 103 101 98 97 97 100 98 96 95 95 95 95 95 94 93 92 92 90 90 90 89 89 90 90 91 92 92 92 93 94 95 96 96 94 94 95 96 96 95 94 94 92 71 59 57 57 63 84
71 71 71 73 74 72 77 80 85 91 95 95 96 100 103 102 100 97 95 96 96 96 97 97 96 95 94 93 95 95 92 92 92 91 91 91 90 92 92 93 93 93 92 93 95 95 94 95 95 95 95 97 96 97 96 96 95 79 56 56 56 58 69
70 71 73 71 70 72 75 78 81 86 96 96 99 100 101 99 96 94 93 95 95 96 99 97 96 95 94 92 93 95 93 93 92 92 92 92 91 90 90 92 93 92 93 95 93 91 91 92 93 95 95 96 97 95 95 92 84 90 58 57 55 57 60
65 67 66 67 68 71 74 76 79 84 91 99 101 101 100 102 95 94 93 93 94 98 98 97 96 94 93 92 93 93 93 92 92 91 92 92 92 91 90 91 92 91 90 90 91 90 90 90 91 92 94 93 94 95 94 94 87 75 71 57 55 54 57
65 65 66 67 68 69 72 74 78 82 91 94 98 99 99 98 93 92 92 92 95 98 97 96 95 93 92 91 92 93 93 93 93 91 92 91 91 90 89 90 90 90 90 90 90 89 88 89 89 90 91 93 93 96 96 94 94 77 69 65 54 55 55
64 64 63 62 63 66 69 72 75 82 89 93 95 97 97 97 93 91 91 93 94 94 95 94 93 92 91 92 92 92 93 92 91 91 92 92 92 90 90 90 90 89 89 89 89 89 88 88 89 88 89 90 91 93 94 95 93 93 74 62 56 55 54
62 62 62 62 63 65 67 71 75 85 90 88 94 96 94 96 95 91 91 94 93 94 94 93 91 90 90 90 91 91 92 91 92 92 92 91 91 90 90 89 89 89 89 89 89 88 89 88 89 89 88 89 92 92 93 92 93 93 87 70 64 60 56
60 60 59 59 62 64 64 66 72 81 87 86 91 95 96 95 95 92 92 92 94 94 93 92 90 89 89 89 90 91 91 89 90 91 91 91 92 91 91 91 91 90 88 89 89 89 89 89 88 89 89 90 90 92 91 92 93 93 92 85 80 77 70
60 58 59 60 62 63 63 64 69 77 83 83 84 88 92 93 92 91 92 93 94 95 93 90 89 89 90 91 91 91 91 91 87 88 91 91 93 92 92 92 93 92 89 90 90 90 90 90 89 89 90 91 91 90 91 91 92 92 92 90 86 84 80
59 58 58 60 61 62 61 63 67 76 81 84 84 86 86 88 91 92 91 92 93 93 91 89 88 89 91 92 92 93 91 93 90 92 92 92 92 92 85 88 94 93 92 94 96 95 95 92 91 91 93 93 90 88 88 90 89 91 79 88 73 82 84
59 59 59 61 61 61 61 63 65 73 79 80 83 84 84 86 88 90 92 93 93 92 89 88 88 89 90 91 92 93 92 92 93 92 93 93 92 80 71 53 45 58 83 91 63 54 53 65 87 88 93 92 92 87 89 90 89 67 65 61 61 62 65
58 59 59 60 60 60 60 62 64 75 79 80 82 83 83 84 87 87 91 92 92 91 89 89 88 89 91 91 92 91 91 92 93 91 92 92 90 86 81 79 71 48 42 50 54 49 44 42 43 50 60 81 88 68 50 55 53 52 54 55 57 57 57
60 60 59 61 60 60 60 60 62 72 75 77 78 82 84 86 86 86 90 90 92 92 89 89 89 90 92 93 93 90 89 92 92 91 91 91 89 86 85 86 81 74 50 43 47 46 42 42 42 42 47 61 74 76 74 56 48 48 49 50 50 51 52

ECMWFFLT1_sfc_temp_054.txt.gz
Temp
92 90 91 91 89 90 90 89 88 87 87 87 88 90 92 92 90 89 89 86 84 84 84 85 84 84 84 84 85 85 85 85 85 85 85 85 86 85 85 87 87 85 87 87 87 86 87 88 88 89 88 88 87 88 87 87 87 88 87 88 87 87 87
90 91 92 92 90 90 89 89 87 88 88 89 89 88 91 91 90 90 88 87 85 85 85 85 84 84 85 84 85 85 84 85 85 84 86 84 84 85 87 86 86 85 85 87 87 87 87 89 89 88 88 88 88 88 88 87 87 87 87 86 86 85 86
91 91 92 92 91 90 89 90 88 89 89 89 90 90 90 89 91 90 89 88 86 85 86 86 85 85 85 85 85 84 85 86 86 86 86 87 87 90 88 87 87 88 89 88 88 89 90 89 88 88 88 88 89 87 87 87 87 87 87 86 86 86 85
89 90 91 92 92 91 90 90 89 91 92 92 91 92 90 88 92 91 91 89 87 86 85 86 87 87 86 85 85 85 85 85 86 87 88 89 88 89 87 87 87 88 88 88 91 91 93 89 89 88 88 87 87 88 88 88 88 87 87 86 86 86 85
91 93 93 91 91 91 91 90 90 90 91 92 91 89 89 91 94 95 93 92 91 87 88 88 90 88 87 87 88 88 87 87 87 88 88 89 87 88 88 90 89 89 89 90 89 88 87 88 90 88 88 87 88 87 87 88 88 87 86 86 85 86 86
93 94 92 90 91 92 90 91 92 92 93 93 92 91 91 93 95 94 93 93 91 90 89 89 89 88 87 89 89 88 88 87 86 87 88 88 87 88 89 89 90 90 91 90 91 90 90 89 90 89 89 90 90 89 89 88 89 89 87 86 85 86 87
97 95 92 92 94 93 93 92 94 93 93 94 93 92 90 89 87 91 92 94 92 89 90 90 90 90 88 88 88 88 87 88 88 89 89 90 90 89 88 89 89 90 91 90 90 90 91 90 89 88 89 90 88 90 87 86 87 87 86 85 85 85 85
99 97 91 94 93 95 94 95 95 95 95 94 93 92 87 84 82 85 88 91 93 92 91 91 90 89 88 88 89 89 88 89 90 89 89 90 90 89 90 90 89 90 89 91 90 90 92 90 91 90 89 90 88 88 89 87 86 89 87 85 85 85 88
101 97 97 94 95 95 96 95 95 95 93 92 92 88 85 84 84 83 85 88 94 93 92 92 92 91 89 89 88 88 89 89 89 89 90 91 91 92 92 91 91 91 90 91 93 91 91 91 92 88 88 88 88 87 88 86 87 88 87 86 85 85 86
97 96 97 96 95 98 93 94 94 91 90 90 90 88 85 85 86 87 90 88 95 94 93 93 93 93 90 90 90 91 90 89 89 90 91 91 92 92 93 93 93 92 92 92 93 92 91 91 90 89 87 88 87 87 87 87 87 87 88 86 86 85 85
98 94 95 99 99 93 93 93 91 89 89 88 89 90 88 89 90 91 92 91 89 93 95 94 94 93 91 91 91 91 90 90 91 90 90 91 93 93 94 94 94 93 93 93 93 93 91 89 90 88 87 88 88 87 87 87 87 87 88 88 88 87 87
95 94 92 95 96 91 91 90 91 89 88 88 92 94 90 90 91 93 93 93 96 95 95 95 95 94 92 92 91 90 90 90 91 91 91 92 93 93 94 94 94 93 93 93 92 92 93 90 90 89 87 88 88 88 87 87 87 86 87 90 90 88 88
95 95 93 96 95 93 89 88 89 89 88 92 94 95 95 94 95 95 92 93 94 95 96 95 95 93 93 92 92 90 91 91 91 91 91 91 93 94 94 94 95 94 93 93 93 93 93 92 90 89 89 88 89 89 88 87 88 86 86 88 88 88 87
92 101 96 96 95 93 89 88 89 88 89 92 95 95 96 95 95 94 93 94 94 97 98 97 95 93 92 91 91 89 91 92 91 91 90 91 90 91 94 94 94 94 93 92 92 93 94 93 91 90 90 90 89 89 89 88 88 87 86 87 88 88 88
86 89 98 96 90 90 89 90 88 89 91 92 95 95 96 96 96 95 95 96 97 97 98 96 95 93 93 91 90 88 90 90 91 91 90 90 89 90 91 92 91 92 92 90 92 93 94 95 93 91 90 90 89 89 90 90 89 89 88 87 87 88 89
86 87 86 86 86 88 87 90 91 89 90 90 94 94 97 96 95 97 97 97 98 96 99 96 95 92 93 92 90 90 90 88 89 89 89 89 87 87 89 91 91 91 90 90 91 90 90 91 91 92 91 90 89 90 90 90 91 85 78 80 87 87 90
84 83 84 84 84 86 87 87 88 86 86 91 93 94 95 95 96 98 99 99 99 97 99 99 94 94 93 91 91 90 89 88 88 88 87 87 87 87 88 89 90 90 89 89 90 89 88 90 91 92 92 91 91 90 90 91 91 78 71 73 77 86 87
81 81 82 83 83 84 86 86 85 83 78 79 82 84 91 93 97 99 99 99 99 100 101 99 96 95 92 92 90 89 88 88 88 87 87 87 87 87 87 89 89 88 88 90 90 88 91 91 90 90 92 91 91 91 90 91 81 72 70 71 71 77 87
79 80 81 80 81 82 84 83 84 85 86 83 79 80 80 80 90 95 98 97 99 99 101 100 99 94 91 93 91 89 88 87 88 87 87 87 87 87 87 87 88 88 90 91 90 91 88 88 90 89 91 91 89 91 91 91 78 68 69 69 70 70 80
78 79 80 81 81 81 80 81 82 84 86 88 91 94 94 95 96 98 100 100 99 98 96 96 97 95 92 91 89 88 88 88 88 87 87 87 87 87 87 87 87 90 92 92 90 88 88 90 89 89 88 90 89 88 91 91 77 66 67 68 68 69 74
75 75 77 77 77 79 78 79 81 82 84 88 89 87 90 96 100 98 98 97 96 97 93 94 94 92 92 90 90 89 88 88 87 87 87 87 87 86 87 87 87 89 91 93 92 89 88 90 89 89 89 91 92 90 92 95 72 65 65 65 66 68 72
75 75 75 76 76 77 77 79 79 82 83 85 88 91 92 93 98 99 98 99 96 96 94 93 92 92 91 90 90 89 89 89 88 87 87 87 87 87 86 87 86 87 89 91 94 92 91 90 91 90 90 90 91 92 90 94 67 64 64 65 65 66 76
75 75 76 76 78 78 78 79 81 82 82 84 85 86 90 94 97 97 99 97 96 93 95 95 91 91 90 90 91 91 91 90 89 88 87 87 87 86 87 86 86 87 89 90 92 92 92 90 92 90 91 90 89 90 89 92 68 63 62 63 63 67 79
75 75 76 76 77 78 78 78 78 80 80 81 83 87 89 92 96 95 93 94 95 95 94 94 93 92 90 92 92 92 91 90 89 88 87 87 87 87 88 89 89 90 90 90 91 92 93 92 91 91 91 91 91 91 89 92 71 59 61 62 61 70 81
73 74 74 75 75 75 75 74 75 78 79 82 84 87 90 92 92 94 93 93 95 95 93 93 94 93 92 92 93 91 90 91 90 89 88 87 88 89 88 88 88 90 90 92 92 92 92 91 90 91 91 94 93 84 88 93 76 56 61 59 59 69 82
70 71 73 74 75 73 72 73 74 76 79 81 82 86 86 90 92 90 93 93 96 96 95 94 94 94 94 94 93 92 91 91 88 88 88 87 88 88 88 89 90 90 91 91 92 92 93 92 91 91 91 93 92 91 91 91 86 65 59 58 57 63 82
71 71 71 72 72 70 72 73 73 74 76 78 80 83 86 87 92 93 91 92 93 94 97 97 96 94 93 92 94 94 91 91 90 89 89 89 88 90 90 90 90 90 89 91 92 92 91 92 92 92 91 93 92 93 92 93 90 72 57 57 57 59 69
69 70 71 71 69 70 70 70 71 73 75 77 79 82 85 86 88 89 90 92 93 95 99 96 95 94 92 91 92 94 92 91 90 90 90 90 89 88 88 89 90 90 90 91 90 88 88 88 90 91 91 92 92 92 92 89 83 83 58 57 56 58 62
66 66 66 67 68 69 68 67 68 71 72 76 79 81 84 85 87 90 90 91 92 97 97 96 95 93 92 90 91 90 91 90 89 89 90 89 89 88 87 88 89 88 87 87 87 86 87 86 88 89 90 89 90 91 90 90 86 73 68 56 55 56 58
65 65 66 67 67 67 66 65 66 68 71 74 76 79 81 84 86 89 90 90 93 95 96 94 93 91 91 89 90 90 91 91 91 90 90 90 88 88 87 87 88 87 86 86 86 86 85 85 86 86 87 89 90 92 92 90 88 72 66 63 55 55 57
63 64 64 64 64 65 64 64 64 67 69 73 75 76 79 85 88 89 89 91 92 92 93 92 92 90 89 90 90 90 91 90 89 89 90 90 89 87 87 87 87 86 86 86 86 85 85 85 86 85 87 87 88 90 90 90 88 82 69 61 57 56 55
63 63 63 64 63 63 63 65 65 66 67 69 73 75 78 85 89 88 89 92 91 92 92 91 89 88 88 88 88 89 90 89 90 90 90 89 89 87 87 87 87 86 86 86 86 86 86 85 86 86 86 87 89 89 89 88 89 84 76 66 62 59 57
61 61 61 61 61 62 62 62 63 63 65 66 70 73 78 84 88 91 91 90 92 92 91 90 88 87 87 87 88 88 88 88 88 88 88 89 89 89 88 88 88 87 85 86 87 87 87 86 85 86 87 86 88 88 88 89 89 88 81 74 71 69 66
60 60 61 61 61 61 60 61 61 62 64 65 68 71 76 83 86 91 91 92 93 94 91 88 87 88 88 89 89 88 89 89 86 86 89 89 90 89 89 89 90 89 86 87 88 87 86 87 86 86 87 87 88 87 87 88 89 89 85 79 76 74 73
60 60 60 60 59 60 59 59 60 61 63 65 68 71 77 83 85 89 91 90 91 91 90 87 86 87 90 91 91 90 88 90 88 89 89 89 88 90 85 87 91 89 89 92 92 91 90 89 89 88 89 89 87 85 85 87 87 88 77 81 69 75 76
60 60 60 60 59 58 59 60 60 61 62 64 67 73 80 82 81 80 86 90 93 91 89 87 86 87 88 89 90 90 88 88 90 89 89 90 89 77 66 52 47 60 84 91 68 63 67 73 87 90 91 90 90 88 89 87 89 73 65 60 60 60 63
60 60 60 60 58 57 57 58 60 61 62 63 68 75 78 79 81 81 82 78 74 77 80 83 85 87 88 87 88 88 87 88 88 87 87 88 85 79 75 73 69 48 42 52 58 52 47 49 54 62 69 83 87 67 53 62 63 59 56 55 57 57 57
62 61 61 60 58 57 57 57 58 60 60 62 69 74 76 78 76 74 77 77 76 73 70 69 71 79 87 89 88 85 85 88 87 86 86 86 83 80 79 79 75 69 50 44 47 47 44 44 44 45 53 63 70 75 74 59 54 52 52 54 54 55 54

ECMWFFLT1_sfc_temp_057.txt.gz
Temp
83 83 84 84 84 85 85 85 86 86 86 86 86 87 87 87 85 84 83 81 81 80 80 80 80 81 80 81 81 81 82 80 80 80 79 80 80 79 78 78 79 79 79 79 80 80 81 82 82 82 82 82 82 81 81 81 81 83 81 79 80 80 79
82 83 84 85 85 85 85 86 86 86 86 87 87 87 87 87 85 84 83 82 81 81 81 81 80 81 81 81 81 80 80 81 80 81 79 78 79 80 80 79 79 78 78 80 79 80 81 82 82 81 81 82 82 82 82 81 81 81 80 79 79 79 80
82 84 84 85 85 85 84 86 86 87 87 87 87 87 87 86 86 85 83 82 81 81 82 81 81 81 81 81 80 80 81 81 80 80 80 80 79 82 82 80 80 80 80 80 80 81 82 82 81 82 82 82 83 82 81 81 81 81 80 80 80 80 78
83 83 85 85 86 85 86 86 86 87 88 88 88 88 88 86 87 86 85 84 82 82 81 82 82 82 81 81 81 80 80 81 81 82 82 82 81 81 81 81 81 82 80 80 82 84 85 82 82 81 83 81 82 82 82 82 82 81 81 80 80 80 79
83 85 85 85 85 85 86 86 86 87 88 89 88 88 88 88 88 88 86 85 85 83 83 83 84 83 83 82 82 82 82 82 82 82 83 83 82 82 81 81 82 82 82 83 81 82 82 82 82 81 81 81 81 81 81 81 82 81 81 80 79 79 79
84 84 85 86 86 86 86 86 87 87 88 88 88 87 88 89 89 89 88 86 85 85 84 84 84 83 82 83 83 83 82 82 82 82 82 82 82 82 82 81 82 82 83 83 84 82 82 83 83 82 82 82 82 82 82 82 82 82 81 80 80 80 80
85 85 86 86 87 87 87 87 87 88 88 89 89 89 89 89 89 89 89 87 86 84 84 84 85 84 83 83 83 83 82 82 82 82 83 83 83 83 83 82 82 83 84 83 83 84 82 81 83 83 83 83 83 83 82 81 81 81 81 80 79 79 79
87 86 87 87 87 88 88 87 87 88 89 89 89 88 88 88 89 89 89 89 87 86 85 85 85 84 84 84 84 83 83 83 83 83 83 83 83 83 83 83 83 83 83 83 83 84 85 83 83 84 84 84 83 83 82 81 81 82 81 80 79 80 82
88 88 88 88 89 89 89 88 87 87 87 87 88 88 88 88 89 89 90 89 88 86 86 86 86 86 85 84 84 83 84 84 84 83 83 84 84 84 84 84 84 84 84 84 85 84 85 85 84 82 83 84 83 82 82 81 82 82 81 80 80 80 81
87 87 88 89 90 90 89 88 88 87 86 87 87 87 87 88 89 90 90 90 89 87 87 87 87 87 86 85 84 85 84 84 84 84 84 84 85 85 86 86 86 85 85 85 86 85 85 85 85 83 82 83 82 82 82 81 82 82 82 81 80 80 80
87 87 87 88 88 88 88 88 86 85 86 85 86 87 87 87 88 88 89 90 89 88 88 88 88 87 87 86 85 85 85 84 85 85 84 85 86 86 87 87 87 87 86 86 86 86 85 84 85 83 82 83 83 82 82 82 82 82 83 82 82 81 81
83 87 86 87 88 87 86 86 86 85 85 85 87 87 85 86 87 88 88 89 89 88 88 88 88 88 87 86 85 84 85 85 85 85 85 86 86 87 88 88 88 88 87 87 87 87 87 85 85 84 82 83 83 83 83 83 82 82 83 83 83 81 81
81 81 82 87 87 87 86 85 85 85 85 86 87 87 86 86 86 87 87 87 88 88 88 88 89 88 88 87 86 85 85 85 85 85 86 86 87 87 88 88 89 89 88 88 88 87 87 86 85 85 84 83 84 84 83 83 83 82 82 83 83 81 81
80 81 81 81 80 83 85 84 85 85 85 86 87 87 87 87 87 87 86 87 88 88 88 89 89 88 87 87 86 85 85 86 86 85 85 86 86 86 88 88 88 88 88 87 87 88 87 87 86 85 85 84 84 84 84 83 83 82 82 82 83 82 81
77 78 78 78 78 78 78 80 83 84 85 86 87 86 86 86 87 87 87 88 88 89 89 89 89 88 88 87 85 84 85 85 86 86 85 85 85 85 86 87 87 87 87 86 87 88 88 88 87 86 85 85 84 84 85 84 84 84 83 82 82 83 82
75 75 75 76 76 77 78 78 78 78 79 81 86 86 87 86 86 87 87 88 89 89 90 89 88 87 88 87 86 86 85 85 85 85 85 84 84 84 85 86 87 87 86 86 87 87 87 87 87 87 85 85 84 85 85 84 85 81 75 77 83 82 84
72 72 74 74 74 75 75 76 78 78 78 76 76 78 82 84 88 88 89 90 91 90 91 91 88 88 88 87 87 86 85 84 84 85 84 84 84 84 84 85 86 86 85 85 86 86 86 86 86 87 87 86 85 85 85 86 86 75 70 72 75 82 82
70 70 72 72 73 73 73 73 75 76 76 79 78 77 76 74 78 85 89 90 91 92 93 91 90 89 88 88 87 85 85 84 84 84 83 83 83 84 84 85 85 85 85 85 85 85 86 86 85 85 87 86 86 85 85 86 79 70 69 70 70 76 83
69 70 70 71 71 72 73 72 73 75 77 78 77 75 75 76 76 75 74 74 74 74 74 79 88 91 88 88 87 85 85 84 84 84 83 83 83 84 84 84 84 85 85 85 86 86 85 85 85 84 86 86 85 85 86 86 76 68 68 69 69 70 79
68 69 70 71 71 71 72 73 68 71 74 75 77 81 78 75 75 78 80 78 77 77 77 76 73 73 83 88 86 85 85 84 84 84 83 83 83 83 83 84 84 85 87 86 85 84 85 85 85 84 83 85 85 84 86 85 76 67 66 66 67 68 73
66 67 68 68 69 70 71 71 71 69 69 70 74 77 79 81 81 81 80 80 78 78 76 77 77 76 74 83 87 86 85 84 84 83 83 83 83 83 83 83 84 85 86 87 86 84 84 85 85 85 84 85 86 85 86 88 73 66 64 64 65 66 70
66 67 67 68 68 69 69 69 69 71 71 71 72 73 76 76 82 84 79 82 82 81 80 79 79 79 80 84 87 86 86 85 84 84 84 83 83 83 83 83 83 83 85 87 87 86 86 86 87 86 85 84 85 85 85 88 69 65 64 64 64 66 74
67 67 68 68 69 69 69 69 70 71 72 73 73 77 78 79 77 80 86 86 83 82 82 82 81 82 83 86 88 87 87 86 85 84 84 83 83 83 83 83 83 84 85 86 87 86 85 85 87 86 86 85 84 84 84 86 71 64 63 63 63 66 77
68 68 68 68 68 67 68 69 69 70 71 72 74 75 77 78 76 78 80 83 85 83 84 85 85 85 86 87 89 88 87 87 86 85 84 84 83 83 84 85 85 86 86 86 87 87 87 87 87 87 87 86 86 85 84 87 73 61 62 62 61 67 77
66 67 67 67 66 66 66 67 68 69 70 70 71 73 75 75 74 75 78 80 82 86 86 87 88 89 88 88 89 89 88 88 87 86 85 84 84 85 84 85 85 86 86 87 88 88 88 87 87 87 87 88 88 82 85 87 75 59 62 61 60 67 78
60 65 66 67 67 67 66 67 67 66 66 67 68 71 72 74 75 75 77 78 81 82 86 89 90 91 91 90 90 89 88 88 86 86 86 85 85 85 85 86 86 86 86 87 88 88 88 87 87 87 87 87 87 87 87 87 82 65 60 60 59 62 78
62 65 65 65 65 66 66 65 65 65 65 66 67 70 71 73 73 74 75 76 78 79 83 88 91 90 88 88 90 90 88 88 87 87 86 86 85 87 87 87 86 86 86 87 88 88 87 87 87 87 87 87 87 87 87 88 86 71 57 57 58 58 67
62 63 65 65 65 65 64 64 63 64 65 66 68 69 70 71 70 71 72 74 75 78 83 86 89 90 88 85 88 90 88 88 87 88 87 87 86 85 85 86 87 86 86 87 86 85 84 85 85 86 86 86 86 87 87 85 80 81 58 57 56 57 58
59 59 61 62 62 64 64 62 62 63 64 66 67 68 69 69 68 69 71 71 74 78 81 84 88 89 89 87 88 88 88 87 86 86 86 86 86 86 85 85 86 86 85 84 84 83 83 83 83 84 84 84 85 86 86 86 83 73 69 56 55 55 56
61 62 62 63 63 63 63 62 62 62 64 65 66 67 67 67 66 67 68 70 74 77 81 84 87 88 88 87 87 88 88 87 87 87 87 87 86 85 84 84 85 84 84 84 83 83 82 83 82 82 83 83 84 85 86 85 86 72 66 64 55 55 55
61 60 61 60 61 62 62 61 61 62 63 64 65 66 66 67 66 66 67 70 74 76 79 83 86 88 88 88 87 87 88 87 87 87 87 87 86 84 84 84 84 83 84 83 83 83 82 82 82 82 82 83 82 84 85 85 84 82 69 63 58 56 55
60 61 60 61 61 61 62 62 62 62 61 62 64 65 65 66 66 65 67 70 73 76 79 82 84 85 86 87 87 87 87 86 86 86 87 86 86 85 85 84 84 83 83 83 83 83 82 82 82 82 82 82 83 84 84 84 84 82 77 67 63 58 56
58 59 59 58 60 62 61 60 60 60 61 60 62 64 65 65 66 67 68 70 74 79 81 82 83 84 85 85 85 86 86 85 85 85 85 85 85 85 85 85 84 83 81 82 83 83 82 82 81 81 82 82 83 84 83 84 84 82 79 74 70 68 65
58 59 59 60 60 61 61 60 59 59 60 60 62 63 64 65 65 67 68 72 78 79 79 81 83 85 85 86 85 85 86 86 83 83 84 85 85 84 85 85 85 84 82 83 83 83 82 82 82 82 82 82 83 83 82 83 83 82 79 75 73 71 70
58 59 59 59 59 60 59 58 59 59 59 60 62 63 64 64 66 68 72 77 78 75 76 80 82 84 86 87 86 86 85 86 84 85 84 84 84 85 85 85 84 83 84 87 87 86 85 84 83 84 85 85 84 83 81 81 81 82 71 77 67 72 72
58 59 58 59 60 59 58 59 58 58 59 60 62 63 63 65 69 72 76 77 76 75 74 74 80 83 84 85 86 86 84 84 85 85 84 85 84 84 78 65 58 70 84 86 78 73 71 70 84 85 86 85 85 85 84 83 85 70 61 59 58 58 60
57 58 58 59 58 57 57 57 58 58 59 60 62 63 65 67 69 72 75 76 75 74 74 72 72 76 79 82 84 83 84 84 84 84 84 84 84 83 78 75 67 48 44 52 67 67 59 59 64 68 71 82 84 79 70 74 65 54 56 55 54 54 54
58 58 59 58 57 56 57 56 57 57 58 60 62 63 64 66 68 70 73 75 74 74 72 72 72 72 72 75 72 70 70 72 73 74 76 79 83 81 77 75 71 66 52 45 47 57 59 58 59 58 60 65 73 74 71 62 57 52 53 54 53 53 53

ECMWFFLT1_sfc_temp_060.txt.gz
Temp
80 80 80 81 81 82 82 81 82 83 83 83 82 83 83 83 82 81 80 79 79 78 78 78 78 79 78 79 79 79 78 78 78 79 79 79 78 76 76 76 77 77 78 78 78 79 79 79 80 79 79 79 79 79 79 79 79 80 78 78 78 78 78
79 80 80 81 81 82 82 82 82 83 83 84 83 82 83 83 82 81 80 80 79 79 78 79 78 78 79 79 80 79 78 78 78 79 79 78 77 76 77 76 77 77 78 78 79 79 79 79 80 79 79 79 79 79 79 79 79 79 79 77 77 76 78
79 80 81 81 81 82 82 83 83 84 84 84 84 83 83 82 82 81 81 80 79 79 79 79 79 79 79 79 79 79 79 78 78 78 79 80 79 79 77 76 77 77 78 79 78 79 79 79 78 79 79 79 80 79 79 79 79 79 79 78 78 78 76
79 80 81 82 82 82 83 83 83 85 85 85 85 84 84 83 83 83 82 82 80 80 79 79 80 80 80 79 79 79 79 79 79 79 80 81 80 80 77 75 76 76 76 77 79 80 81 79 79 78 80 78 79 79 79 79 79 79 79 78 77 77 77
79 81 82 81 82 82 83 83 84 85 85 86 86 85 85 85 84 84 83 83 83 81 81 81 81 81 80 80 80 80 80 80 79 80 80 81 81 80 79 78 77 77 78 78 78 78 78 78 78 78 78 78 78 78 79 79 79 78 78 78 77 77 77
79 80 81 81 82 83 83 84 85 86 86 86 86 85 85 85 85 84 84 83 83 83 82 81 81 81 80 81 81 81 80 80 80 80 80 80 79 80 80 79 79 78 78 78 78 79 78 78 78 78 78 78 79 79 79 79 79 79 78 78 78 78 77
80 80 81 82 83 83 84 84 85 86 87 87 87 87 86 86 85 85 85 83 83 82 82 82 82 81 81 81 80 80 79 80 80 80 81 80 80 80 80 80 80 80 80 78 78 79 79 78 79 78 79 79 79 79 79 78 79 79 79 78 77 77 77
81 81 82 83 83 84 84 85 85 86 87 87 87 86 85 86 86 85 85 84 84 84 83 82 82 81 81 81 81 80 80 80 81 81 81 81 80 80 80 80 80 80 80 79 79 79 80 79 80 79 79 79 79 79 79 79 78 79 79 78 78 77 78
82 82 82 83 84 85 85 85 85 86 86 86 86 86 86 86 86 85 85 85 84 83 83 84 83 83 82 81 81 80 81 81 81 80 80 81 81 81 81 80 80 80 80 81 81 80 80 80 80 79 79 79 79 79 79 79 79 79 79 79 78 78 78
81 81 82 84 85 86 86 86 85 85 84 84 85 85 85 86 86 86 86 85 85 84 84 84 84 84 83 82 81 82 81 80 81 81 81 81 81 81 82 83 82 80 80 81 82 81 81 81 80 79 79 79 79 79 79 79 79 79 79 79 79 78 78
77 80 82 83 84 84 84 85 84 83 84 83 84 85 85 86 86 86 86 86 85 85 85 85 85 84 83 83 82 82 81 81 81 81 81 81 82 82 83 83 83 82 81 81 81 82 81 81 80 79 78 79 79 79 79 79 79 79 79 80 80 79 79
72 74 74 77 81 83 83 83 83 83 83 83 85 85 85 85 86 87 87 87 87 85 85 85 85 85 84 83 82 81 81 81 81 81 81 81 82 83 83 84 84 83 83 82 82 81 82 81 81 81 79 79 80 80 80 80 80 79 80 80 80 79 79
71 71 72 72 71 73 76 78 81 82 82 84 85 86 86 86 86 87 87 87 88 87 86 85 85 84 84 84 83 82 82 82 82 82 82 82 82 83 83 84 84 84 84 84 83 83 82 82 81 81 81 80 80 80 80 80 80 79 80 80 80 79 79
70 70 71 71 71 71 71 72 73 76 79 83 85 86 86 87 87 87 87 87 88 88 87 87 85 84 84 83 83 82 82 83 83 82 82 82 82 82 83 83 83 84 84 83 83 83 83 83 82 82 82 81 81 81 81 80 80 80 80 80 80 79 79
66 67 68 69 69 69 69 69 70 72 74 76 80 83 85 86 86 86 87 88 88 88 87 87 85 85 84 83 82 82 82 82 83 83 82 82 81 81 82 82 82 83 83 83 83 83 84 84 84 82 82 82 81 81 82 81 81 81 80 80 79 80 79
65 65 66 67 68 68 68 68 68 69 70 71 72 73 80 82 81 85 86 87 88 87 88 87 85 84 84 84 83 83 83 82 82 82 82 81 80 80 81 82 82 82 82 82 83 83 83 83 84 84 83 82 82 82 82 81 82 79 73 75 81 80 81
64 64 65 66 66 67 67 67 67 68 68 69 69 72 73 74 80 83 85 86 87 86 87 87 85 84 84 83 84 83 83 82 81 82 81 81 81 81 80 81 82 82 81 82 82 82 82 83 83 84 84 83 83 82 82 83 83 74 69 70 73 80 80
61 63 63 64 65 66 65 65 65 66 67 68 69 70 71 72 74 79 85 86 86 87 87 86 85 84 83 84 84 83 82 82 82 81 81 81 80 81 81 81 81 81 81 82 82 82 83 83 83 83 84 84 84 83 83 83 77 70 68 69 69 73 81
60 61 63 63 62 62 63 64 65 65 66 68 68 69 71 72 74 73 74 79 85 86 85 85 86 85 84 84 84 83 82 82 82 81 81 81 81 81 81 80 80 81 81 82 83 83 81 82 83 83 83 84 83 83 83 83 75 68 67 67 67 68 76
60 61 62 64 63 62 61 63 64 65 66 67 69 71 72 72 73 75 77 76 75 79 82 82 82 82 82 83 83 83 82 82 82 81 81 81 81 81 80 80 80 82 83 83 83 82 82 83 82 82 82 83 83 82 84 83 75 67 66 66 66 66 70
58 59 61 62 63 63 62 61 61 62 63 64 67 69 71 72 73 74 74 75 77 77 77 79 79 79 80 80 81 82 82 82 81 81 81 81 81 81 80 80 81 81 82 84 83 82 82 82 82 83 83 83 84 83 83 85 73 66 65 64 64 65 68
58 59 59 61 62 63 63 64 63 63 63 64 65 67 69 69 71 72 72 74 76 78 77 78 80 80 81 80 81 81 83 83 82 81 81 81 81 80 80 80 80 80 82 83 84 84 84 83 84 83 83 83 83 83 82 85 70 65 64 63 62 64 71
59 58 60 61 64 64 64 65 65 66 66 66 66 66 65 66 69 70 71 73 75 76 78 78 77 78 80 80 81 82 83 83 83 82 82 81 81 80 81 80 80 81 83 82 83 84 83 83 84 84 84 83 83 82 83 84 73 64 63 62 62 64 73
61 61 61 61 63 64 64 64 65 66 66 66 66 67 66 67 68 69 69 71 74 76 77 78 79 79 79 80 82 82 83 83 84 83 82 82 81 81 82 82 83 83 83 83 83 83 84 85 84 85 85 84 83 83 83 84 76 62 62 61 61 66 75
61 61 61 62 62 62 63 63 64 65 65 65 65 66 67 68 67 68 68 70 71 73 74 76 79 80 80 81 82 82 83 84 84 84 83 82 82 83 82 82 83 83 83 84 84 84 85 84 84 84 85 85 85 80 82 84 78 61 61 60 60 66 77
60 60 61 61 63 63 63 63 63 63 63 63 63 66 67 67 67 67 67 68 70 70 72 74 77 79 82 83 84 83 83 85 84 84 84 83 83 83 83 84 84 83 83 84 85 85 85 85 84 84 84 85 84 85 83 84 84 71 59 60 59 61 76
61 61 61 62 61 62 62 63 63 62 63 63 63 65 66 66 65 65 66 66 67 68 71 74 76 77 78 79 83 85 84 85 85 85 85 85 84 85 85 85 84 84 83 84 85 85 84 85 84 84 84 85 85 85 84 85 84 76 58 58 58 58 65
61 61 63 62 63 62 61 62 62 62 63 64 65 65 65 65 64 64 65 65 65 68 71 72 73 75 76 77 79 82 85 86 86 86 86 86 85 84 83 84 85 84 84 85 84 82 82 83 83 84 84 84 84 84 85 83 78 84 61 58 57 57 57
58 58 59 59 60 62 62 61 61 61 62 64 65 65 65 65 63 63 64 63 65 68 70 71 72 73 74 76 78 80 82 85 86 85 85 85 86 84 83 84 84 84 83 82 82 81 81 81 82 82 82 82 83 84 84 85 82 73 72 58 56 56 56
58 59 60 61 61 61 62 60 60 60 62 63 64 64 64 63 62 63 63 63 67 68 69 70 71 71 73 74 77 79 81 84 86 86 86 86 85 84 83 83 83 83 82 82 81 81 80 81 81 81 81 81 82 83 84 84 84 73 67 66 56 56 56
58 58 58 58 59 61 61 60 59 60 61 62 62 63 63 63 62 62 62 64 67 67 67 68 69 70 72 74 76 78 81 83 84 86 86 86 85 84 83 83 83 82 82 81 81 81 80 81 81 80 81 81 81 82 83 83 83 83 71 64 59 56 56
57 58 58 58 59 60 61 60 60 60 59 60 62 62 63 63 63 62 63 65 67 68 68 69 69 70 73 75 77 78 80 81 84 84 85 85 85 84 84 83 82 82 81 81 81 81 80 80 80 80 80 81 82 82 82 82 82 83 80 68 64 60 56
56 57 57 57 58 61 60 60 58 58 58 58 60 61 62 63 63 64 65 66 68 70 71 70 71 73 74 74 76 78 79 80 82 83 84 84 84 84 84 84 83 83 81 81 81 81 81 80 80 80 80 80 81 82 82 82 82 82 82 75 72 70 66
55 56 57 58 59 60 60 59 57 57 58 58 59 60 61 62 63 65 65 67 69 71 72 72 73 73 73 74 76 78 80 81 80 82 83 83 84 83 84 84 84 83 81 82 82 81 80 81 80 80 80 81 81 81 81 81 81 82 82 79 75 74 72
54 55 56 56 57 59 58 57 57 57 57 58 59 60 61 62 64 65 65 67 69 70 69 70 72 72 73 74 76 78 80 82 82 83 83 83 83 84 84 84 83 82 83 86 86 85 83 82 82 82 83 83 82 81 80 80 81 81 72 81 69 74 75
54 54 55 56 57 57 57 58 57 57 57 58 59 59 60 62 63 64 66 67 68 68 67 68 70 72 72 73 75 78 80 81 83 83 83 83 83 82 80 67 57 65 81 84 77 72 71 70 82 84 84 83 84 83 82 82 84 71 62 60 58 58 61
53 54 55 55 55 56 56 57 58 57 57 58 59 59 61 62 64 64 65 66 67 67 66 66 67 70 71 71 73 74 77 81 81 82 82 83 83 82 79 73 71 50 47 53 64 64 59 58 62 66 70 81 83 79 69 69 68 67 61 57 54 54 54
54 55 56 56 56 56 56 56 57 57 56 57 58 59 61 62 63 64 65 66 66 66 65 65 66 68 70 71 70 69 69 73 76 78 81 81 79 78 74 72 71 68 55 49 55 57 56 54 55 56 58 62 69 77 79 66 60 58 54 54 54 53 53

ECMWFFLT1_sfc_temp_063.txt.gz
Temp
79 79 79 80 80 81 81 81 82 81 81 81 81 81 81 81 79 79 78 77 76 76 76 76 77 77 77 77 77 77 77 76 75 75 75 74 75 75 74 75 75 75 76 75 76 76 77 77 77 77 77 77 77 77 77 77 77 78 76 76 76 76 76
78 79 79 80 80 81 81 82 81 82 82 81 81 81 82 81 79 79 78 77 77 77 77 77 77 77 77 77 78 77 76 76 76 76 76 74 75 74 75 75 75 75 75 76 76 76 76 76 77 77 77 77 77 77 77 77 77 76 76 75 75 75 75
78 79 80 80 80 80 81 82 81 82 82 82 82 81 81 80 80 79 78 78 77 77 77 77 77 77 77 77 77 77 77 77 76 76 76 76 75 76 75 75 75 76 76 76 76 76 77 76 76 76 77 76 77 76 77 77 76 76 75 75 75 76 74
77 79 80 80 81 81 82 82 82 82 83 83 82 82 82 81 81 80 80 79 78 77 76 77 78 78 77 77 77 77 77 77 77 77 78 78 77 77 75 74 74 75 75 75 77 77 78 77 76 76 78 76 76 76 76 77 77 76 76 75 75 75 75
77 79 80 79 80 81 81 82 82 82 83 84 84 83 83 83 82 81 81 80 80 78 79 78 79 79 78 78 78 78 78 77 77 78 78 78 78 77 76 75 74 75 76 76 76 76 76 76 76 75 76 76 76 76 76 76 77 77 76 75 75 75 74
77 77 78 79 80 81 82 82 82 83 83 83 83 83 83 83 83 82 82 81 80 80 80 79 79 79 78 79 79 79 78 78 77 77 77 78 77 77 77 76 75 75 75 76 77 76 76 76 76 76 76 76 76 76 76 76 77 77 76 76 76 76 76
77 77 78 79 80 81 82 83 83 83 84 85 85 84 83 83 83 83 83 82 81 79 79 79 79 79 79 79 78 78 77 78 77 77 78 78 77 77 78 77 77 76 77 76 76 76 76 76 76 76 76 76 76 76 76 76 76 76 76 76 75 75 75
72 78 78 80 81 82 83 83 83 84 84 84 84 83 82 83 83 83 82 83 82 81 81 80 80 79 79 79 79 79 78 79 78 78 78 78 78 78 78 78 77 76 75 75 76 76 77 76 77 76 76 76 76 76 76 76 76 76 76 76 75 75 76
68 73 77 79 80 82 83 83 83 83 83 83 83 83 83 83 83 83 83 83 82 82 81 81 81 81 80 79 79 78 79 79 79 78 78 78 78 78 79 79 78 77 76 76 77 76 77 77 77 76 76 76 76 75 76 76 76 76 76 76 76 76 76
66 67 68 73 78 81 80 81 81 82 81 82 82 82 83 83 83 84 84 83 83 82 82 82 82 82 80 80 79 79 79 78 79 79 79 78 79 79 79 80 80 78 77 78 78 76 76 77 77 76 75 75 75 75 75 75 76 76 76 76 76 76 76
66 65 67 68 67 69 73 77 78 79 81 81 82 83 83 83 83 84 84 84 83 83 83 83 83 82 81 80 80 80 79 79 79 79 79 79 80 79 80 80 80 80 79 79 78 78 77 76 76 75 75 76 76 75 75 76 76 76 76 77 77 77 77
64 64 64 65 65 66 67 67 68 70 73 77 81 83 83 83 84 84 84 84 84 84 83 83 84 83 82 81 80 79 79 79 79 79 79 79 80 80 81 81 80 80 80 79 79 78 78 77 76 76 75 76 76 76 76 76 76 76 77 77 77 77 77
64 64 63 63 64 64 65 64 65 67 68 71 77 81 83 83 84 84 84 84 85 85 84 84 83 82 82 81 80 79 79 79 79 80 80 80 80 81 81 81 81 81 80 80 80 79 79 78 77 77 76 76 76 77 76 76 76 76 76 77 77 77 77
65 64 63 63 63 62 62 63 64 65 66 69 70 72 77 82 84 84 83 84 85 85 84 84 83 82 81 81 80 79 80 80 80 80 80 80 80 80 80 81 80 80 80 79 79 79 79 79 78 77 77 77 77 77 77 76 76 76 76 77 77 77 77
62 62 62 62 61 62 62 62 63 64 65 66 68 69 71 72 77 82 84 84 85 85 85 84 83 82 82 81 80 79 80 80 80 80 80 80 79 79 79 80 80 80 80 79 79 79 80 80 80 78 77 77 77 77 77 77 77 77 77 77 76 77 77
59 60 61 61 61 62 62 63 63 63 64 64 66 67 69 70 72 73 80 84 85 85 85 84 83 82 81 81 80 80 80 79 79 79 79 79 78 78 79 79 79 79 79 79 79 79 79 78 79 79 79 78 78 77 78 78 79 76 71 73 78 77 78
58 58 60 61 61 61 62 63 63 63 63 64 65 66 67 69 70 73 74 80 86 84 85 85 83 82 82 81 81 81 80 79 79 79 78 78 78 78 78 78 79 79 78 78 78 78 78 78 78 80 80 79 79 78 78 80 80 72 68 68 71 77 77
57 57 58 59 60 61 61 61 62 62 62 64 65 65 67 67 69 70 71 72 77 86 86 85 83 82 81 82 81 81 80 79 79 78 78 78 78 78 78 78 78 78 78 78 78 78 79 79 79 78 80 80 80 80 80 80 75 69 67 67 67 71 78
57 58 58 58 59 60 61 60 62 62 63 64 64 65 66 68 68 67 68 69 71 74 83 84 84 83 81 82 82 80 80 79 79 78 78 78 78 78 78 77 77 78 78 78 79 79 77 78 79 79 79 80 79 80 81 80 74 68 66 66 66 66 73
57 58 58 59 60 60 59 60 60 62 63 64 65 66 67 68 67 68 69 70 70 71 74 77 81 82 81 81 81 80 80 80 79 79 79 79 78 78 78 77 77 79 80 80 79 78 78 79 79 79 78 79 79 79 81 80 74 67 65 65 65 65 68
56 57 57 59 59 61 60 59 59 60 60 62 64 65 66 66 67 68 69 69 71 72 73 73 74 77 80 80 81 81 80 80 79 79 79 79 79 78 78 78 78 78 79 80 80 79 78 79 79 79 79 80 80 80 80 83 72 66 64 63 63 64 66
56 57 57 59 59 60 59 61 61 61 61 63 63 63 65 65 66 67 68 70 71 72 73 74 74 75 76 79 81 81 81 81 80 80 80 79 79 78 78 78 78 78 79 80 81 81 80 80 80 80 79 80 80 80 80 83 71 66 63 62 62 63 69
57 58 59 60 61 60 61 63 63 63 64 63 62 63 63 63 64 65 67 69 70 70 71 71 72 73 74 76 78 81 82 82 81 80 80 80 79 79 79 78 78 79 80 79 80 80 80 80 81 81 81 80 80 79 80 81 74 65 63 61 61 63 70
59 59 60 60 61 62 62 63 63 65 64 63 63 63 63 64 63 64 65 67 68 68 69 70 71 73 74 75 77 78 79 80 81 80 80 80 79 79 80 80 80 80 80 80 80 80 81 82 81 82 82 81 80 81 80 81 76 64 61 60 60 65 72
58 59 59 60 60 60 62 62 63 64 64 63 62 62 63 63 64 64 64 66 66 67 67 68 70 71 72 74 75 76 78 79 80 80 80 80 80 81 80 80 80 81 81 81 81 81 82 82 82 82 82 83 82 79 80 82 78 64 61 59 59 64 73
56 57 59 60 61 62 62 63 63 63 62 62 62 63 62 62 62 64 64 65 66 66 66 68 69 70 72 72 73 75 76 78 79 80 80 80 80 81 81 81 81 81 81 81 82 81 82 82 82 81 82 82 82 82 81 82 82 75 60 59 58 60 73
57 58 59 60 60 62 61 61 62 62 63 63 63 64 63 62 61 62 63 64 64 64 66 68 69 69 70 70 72 73 74 76 78 79 81 82 81 82 82 82 81 81 81 81 82 81 81 81 82 82 82 82 82 83 82 83 82 79 60 58 57 57 64
56 58 59 61 61 61 61 61 61 62 63 63 64 64 63 62 60 60 62 62 63 65 67 68 68 69 69 69 70 71 73 74 76 79 80 82 82 81 81 82 82 82 82 82 81 79 79 80 80 81 81 82 82 82 82 81 76 83 63 58 56 56 57
53 54 55 57 58 60 61 59 60 61 61 63 64 64 63 63 60 60 61 61 63 65 66 67 67 68 69 69 70 70 72 73 75 77 79 81 82 82 81 81 81 81 81 80 79 79 79 78 79 80 80 80 81 82 82 82 80 70 74 58 56 55 55
54 55 55 57 59 59 60 59 59 59 61 63 63 63 63 61 59 60 60 61 64 65 66 66 67 68 69 70 70 71 72 73 75 77 79 80 81 82 81 81 81 81 80 80 79 79 78 78 78 78 78 79 80 81 82 82 82 72 67 67 55 56 54
53 53 54 54 56 59 59 59 58 59 59 61 62 63 62 61 59 59 59 62 64 64 65 66 67 68 70 70 71 72 73 74 76 77 79 80 81 81 81 81 81 79 80 79 79 79 78 78 78 78 78 78 79 80 81 81 81 82 71 64 59 56 55
53 54 53 54 55 57 58 59 59 59 59 60 61 62 62 61 60 58 59 62 64 64 65 65 67 68 69 71 72 72 74 74 75 76 78 79 81 81 82 81 81 80 79 79 79 79 78 78 78 78 78 78 79 80 80 80 81 81 79 68 65 60 56
51 52 52 53 54 57 56 57 56 57 58 58 60 61 61 61 61 61 61 62 63 64 65 65 66 67 68 69 71 73 74 74 73 74 76 78 80 81 82 82 81 80 79 80 80 79 79 78 78 77 78 78 79 79 80 80 80 80 81 76 72 70 65
50 51 52 53 54 56 56 55 55 55 57 58 60 61 61 61 61 61 62 62 64 64 64 64 65 65 66 68 70 72 74 74 74 74 75 77 79 80 81 82 82 81 80 80 80 79 79 79 78 78 78 78 79 79 79 79 80 80 80 80 75 74 71
50 51 52 52 53 55 54 54 54 55 56 58 60 60 60 61 61 62 62 63 64 64 63 63 64 65 65 66 68 71 73 73 73 74 75 77 78 80 81 81 81 81 82 84 84 83 82 81 80 80 81 81 80 79 78 79 79 80 71 80 68 73 74
50 51 51 52 53 53 54 55 54 54 56 58 59 60 60 61 61 62 63 64 65 64 63 63 64 64 65 66 67 70 72 73 73 73 74 76 78 79 78 76 71 77 83 83 76 72 70 70 81 83 83 82 82 82 81 80 82 71 64 61 59 59 62
50 50 51 52 52 52 52 53 55 56 56 58 59 59 60 60 61 62 63 64 64 64 63 63 62 63 64 65 67 68 71 72 72 72 73 75 77 78 78 77 73 58 59 65 69 66 60 58 62 66 70 80 82 78 69 70 67 64 57 56 55 54 55
51 51 52 53 52 52 52 53 54 55 57 58 58 58 58 59 61 62 63 63 64 64 63 63 62 62 63 64 65 67 69 71 71 71 71 73 76 77 75 74 73 72 59 55 58 61 57 55 56 57 58 62 69 76 78 65 58 57 53 54 53 53 52

ECMWFFLT1_sfc_temp_066.txt.gz
Temp
77 77 77 78 78 79 79 80 80 79 79 79 79 79 80 80 78 78 77 76 76 75 75 75 76 76 76 76 76 76 76 76 75 75 74 74 75 74 75 75 76 75 76 76 76 76 77 78 78 78 78 78 78 78 78 78 78 79 78 78 78 78 78
76 77 78 78 78 79 80 80 81 81 80 80 79 79 80 79 78 78 77 77 76 76 76 76 76 76 76 76 77 76 76 76 76 76 75 74 74 74 75 75 76 75 76 77 77 77 77 77 78 78 78 78 78 78 78 78 78 78 78 77 77 77 77
70 77 78 78 79 79 79 80 81 82 81 81 81 80 80 78 79 78 77 77 76 76 77 76 76 76 77 76 76 76 76 76 76 76 75 75 75 76 75 75 76 76 77 77 77 77 78 77 77 78 78 78 78 78 78 78 78 78 78 77 78 78 77
67 68 76 79 79 79 80 81 81 82 82 82 82 81 80 79 80 79 79 78 77 77 76 77 77 77 77 76 76 76 76 76 76 77 77 77 76 75 75 74 75 76 76 76 78 78 79 78 77 77 79 78 78 78 78 78 79 78 78 77 77 78 77
65 67 71 78 79 79 80 80 81 81 82 83 82 81 81 81 81 81 80 80 80 78 78 78 79 79 78 78 78 78 77 77 77 77 77 77 76 75 75 75 75 75 76 77 77 77 77 77 77 77 77 77 78 78 78 78 78 78 78 78 77 77 78
64 64 65 73 79 80 80 81 82 83 83 83 82 82 82 82 82 81 81 80 79 80 79 79 78 78 77 78 79 78 78 77 77 77 77 77 75 75 75 75 75 76 76 76 77 77 77 77 77 77 77 78 78 78 78 78 79 79 78 77 77 78 78
63 63 64 66 76 79 80 81 82 83 83 84 83 83 83 83 82 82 82 81 81 79 79 79 79 79 78 78 78 78 77 78 77 77 78 78 77 76 75 75 76 76 77 76 76 77 77 77 77 77 77 78 78 78 78 77 78 78 78 77 77 77 77
63 63 63 65 66 74 80 79 81 82 83 83 83 82 82 82 82 82 81 82 81 81 80 80 79 78 78 78 78 78 78 78 78 78 77 78 77 77 76 76 76 76 75 76 76 77 77 77 77 77 77 77 77 77 78 77 77 78 78 78 77 77 78
64 63 64 64 66 66 67 75 80 81 80 80 81 81 82 81 82 82 82 82 82 81 80 81 81 80 79 78 78 78 79 78 78 78 77 78 78 78 79 78 77 76 76 76 77 76 77 77 77 77 77 77 77 77 77 77 77 78 77 77 77 77 78
62 63 63 65 65 65 67 67 67 69 75 78 79 79 81 82 81 82 82 83 82 81 82 81 81 81 79 79 79 79 79 78 78 79 78 78 79 79 79 80 79 77 77 77 78 77 77 77 77 77 76 76 76 76 77 77 77 77 77 77 77 77 77
63 62 63 63 63 64 65 65 65 66 67 68 73 80 80 81 79 79 81 83 83 82 83 82 82 81 81 80 79 79 78 79 79 78 78 78 79 79 80 80 80 78 78 78 77 77 77 76 77 76 76 76 77 76 76 77 77 77 77 78 78 78 78
62 63 62 62 62 64 63 64 65 65 65 67 69 71 75 79 82 78 75 78 81 82 82 83 83 82 81 80 80 78 79 79 79 79 79 79 79 80 80 81 80 80 79 79 78 77 77 76 76 76 75 76 77 77 77 77 77 77 78 78 78 78 78
61 61 62 62 62 63 63 63 63 64 65 67 68 69 71 71 76 82 78 81 83 83 83 82 82 81 81 81 80 79 79 79 79 79 79 79 80 80 80 80 81 81 80 79 79 78 77 77 76 76 77 76 77 77 77 77 77 77 77 77 78 78 78
61 60 60 62 61 61 61 63 63 63 65 65 67 68 69 71 72 72 76 81 83 84 84 83 82 81 80 80 79 78 79 80 80 79 79 79 78 79 80 80 80 80 80 79 78 79 79 78 77 77 77 77 77 77 77 76 77 76 77 77 77 78 78
58 59 59 60 60 60 60 61 62 63 64 65 66 66 67 69 69 70 72 73 77 85 84 83 82 81 81 80 79 78 79 79 80 79 79 79 78 78 78 79 78 79 79 78 79 80 80 80 79 77 76 77 77 77 77 77 77 77 77 77 77 78 78
57 58 59 59 60 60 60 60 61 62 63 63 64 65 66 66 67 69 69 71 72 74 82 83 81 80 80 80 79 79 79 78 78 78 78 78 77 77 78 78 78 78 78 78 78 78 78 78 78 79 78 77 77 77 77 77 78 75 71 72 78 77 78
56 57 58 59 59 60 60 60 60 61 61 63 63 64 65 65 67 68 69 70 71 72 72 78 81 81 81 80 80 80 79 78 78 78 77 77 77 77 77 77 78 77 77 77 77 77 76 77 78 79 80 79 79 78 78 79 79 72 67 67 70 77 78
56 57 57 58 59 60 60 60 60 60 60 62 63 64 64 65 65 66 67 68 70 71 74 73 77 82 80 81 80 79 78 78 78 77 77 77 76 77 77 77 77 76 76 77 77 76 78 78 77 77 79 80 80 79 79 80 74 68 66 66 66 70 78
55 56 57 58 59 59 60 60 61 61 61 62 62 63 64 65 65 64 65 67 68 70 71 72 73 77 80 81 80 79 78 78 78 77 77 77 77 77 77 76 76 77 77 78 78 78 76 75 77 77 78 79 78 79 80 81 72 67 66 66 66 65 72
54 56 57 59 59 59 60 60 61 62 62 63 64 65 65 66 65 65 67 67 68 69 69 69 71 72 77 80 79 79 79 78 78 77 77 77 77 77 76 76 76 78 79 79 78 77 77 78 77 77 76 77 77 77 80 80 73 66 65 64 64 65 67
53 55 56 57 58 60 60 60 60 61 61 62 64 65 65 65 65 65 66 67 67 69 68 69 69 71 74 77 79 79 79 78 78 77 77 77 77 76 76 76 76 77 78 80 79 77 77 78 78 77 78 79 79 79 80 82 71 65 63 63 63 64 66
52 55 55 57 58 59 59 61 61 61 61 63 63 63 64 64 65 65 64 67 67 66 67 68 69 71 72 74 77 79 79 79 78 78 78 77 77 77 76 76 76 76 78 79 80 80 80 79 79 79 79 79 79 79 79 82 70 65 63 62 62 63 70
54 54 56 58 59 59 60 62 62 63 63 63 63 63 63 63 64 64 64 65 67 65 65 67 68 69 70 71 73 75 79 80 79 78 78 78 77 77 77 77 76 77 78 78 79 80 80 80 80 79 80 79 79 78 79 81 73 64 62 61 61 63 72
56 56 56 58 59 60 61 62 63 64 64 63 63 64 63 63 63 63 63 64 66 66 64 66 67 69 69 69 71 72 72 74 78 79 78 78 77 78 78 79 79 79 79 79 79 80 81 81 81 81 81 81 80 81 79 81 75 64 61 60 60 65 73
56 56 57 57 58 59 60 61 61 63 63 63 62 63 64 63 63 62 62 63 64 65 65 66 67 67 68 69 70 71 72 73 74 77 80 78 79 80 79 79 79 80 80 81 81 80 81 81 81 81 81 83 82 77 79 81 77 65 61 60 58 64 74
54 55 56 58 59 60 60 61 60 61 61 61 62 63 64 63 62 62 62 62 63 64 64 65 66 66 68 69 70 70 71 72 72 73 76 79 79 80 80 81 81 81 81 81 81 81 82 82 81 81 82 83 82 83 81 81 81 76 61 59 57 60 74
55 56 56 57 57 59 59 59 60 60 61 61 62 64 64 63 61 61 61 62 62 62 63 65 66 66 66 67 69 70 71 72 72 73 75 77 79 81 82 82 81 81 81 81 82 81 80 81 81 81 81 83 83 83 83 83 82 79 62 58 57 57 64
55 56 57 58 58 58 58 59 59 59 60 61 62 63 64 63 61 60 61 61 61 63 65 65 65 65 66 66 67 69 70 72 72 73 74 76 78 78 79 81 82 82 81 82 81 79 79 79 79 81 81 82 82 82 82 81 75 84 66 58 56 55 58
52 53 54 54 55 57 58 57 57 58 59 61 62 62 63 63 61 60 60 59 61 64 64 65 65 66 65 65 66 68 69 70 71 72 73 74 76 78 78 80 81 81 80 79 79 78 78 78 78 79 79 79 80 81 81 82 80 69 77 61 55 54 55
53 53 54 55 56 56 57 56 56 57 58 60 61 61 62 61 60 60 60 60 62 63 64 64 65 65 65 66 67 68 70 71 72 73 74 75 76 77 77 78 79 79 79 79 79 78 77 78 78 78 78 79 80 82 82 82 81 72 66 70 57 55 54
52 52 53 53 54 56 56 55 55 56 57 59 59 61 61 61 60 60 60 61 63 62 62 63 64 64 64 65 67 68 70 72 73 74 75 76 77 76 77 78 78 78 79 79 78 78 78 78 78 77 78 78 78 80 81 81 81 82 72 64 61 56 55
51 52 52 53 53 54 55 55 56 56 55 57 59 59 60 61 61 59 60 62 63 63 63 62 63 63 64 65 66 67 69 69 72 75 75 76 77 77 77 77 78 78 78 79 79 78 78 78 78 78 78 78 79 79 80 80 81 81 81 70 66 61 56
50 51 51 51 52 54 54 53 53 54 55 55 57 59 60 60 61 61 62 62 63 63 63 63 62 62 63 64 65 66 67 67 69 72 75 75 76 76 76 77 78 78 78 79 79 79 79 78 78 78 78 78 79 79 80 80 80 81 81 79 75 73 67
49 50 51 51 52 53 52 52 52 52 53 54 56 57 58 59 60 61 62 63 63 64 63 63 63 63 63 64 65 66 67 67 69 71 73 75 75 75 76 77 78 79 78 79 79 79 79 79 79 78 79 79 79 79 79 79 80 81 81 81 78 76 74
49 49 50 50 51 53 51 52 52 53 53 54 56 57 57 58 60 61 62 63 63 63 63 62 63 63 63 64 65 66 67 68 69 71 72 73 74 75 76 76 78 79 80 83 83 83 82 81 81 81 81 81 80 78 78 78 79 80 70 79 68 74 76
49 49 50 51 52 52 52 52 52 52 53 54 56 56 57 58 60 61 63 64 64 64 62 63 63 62 63 64 64 65 66 67 69 70 72 73 73 73 74 71 64 70 80 81 73 69 68 67 80 83 83 82 82 81 80 80 81 70 62 60 59 58 61
48 49 49 50 50 50 50 51 52 53 53 54 56 56 57 58 60 61 62 62 63 63 63 62 61 61 61 63 63 65 66 67 68 69 71 72 72 72 72 73 73 57 56 64 70 65 59 56 60 63 67 78 82 78 69 69 66 61 57 55 55 54 55
49 49 50 51 50 50 50 51 52 52 53 55 56 56 57 58 59 60 61 62 62 63 62 62 60 59 60 61 62 63 64 65 66 68 69 70 71 71 71 71 70 73 60 55 57 59 55 53 53 54 56 59 67 75 79 66 58 56 54 53 54 53 53

ECMWFFLT1_sfc_temp_069.txt.gz
Temp
81 85 86 85 84 85 84 83 83 84 85 85 85 86 86 86 85 84 83 82 81 81 81 81 81 81 81 82 82 82 83 83 83 83 82 83 84 84 84 85 85 84 86 86 86 85 86 86 86 86 86 85 86 85 85 85 85 86 86 85 85 86 86
75 77 79 85 86 85 85 84 84 85 85 86 85 85 86 86 84 84 83 82 82 81 81 81 81 81 82 82 83 82 82 82 83 83 83 82 83 83 85 84 84 84 84 86 86 86 86 86 86 85 85 85 86 86 86 86 85 86 87 86 86 85 86
73 74 77 78 81 86 85 86 85 86 86 87 87 86 86 84 84 84 83 83 82 82 83 82 81 82 82 82 82 82 83 83 83 83 83 84 84 86 85 85 85 86 86 86 85 86 87 86 85 85 86 86 87 85 85 86 85 86 86 85 86 87 85
70 72 74 76 79 82 86 87 86 87 88 88 87 88 87 84 86 85 85 85 83 82 81 83 83 83 83 82 82 82 82 83 83 85 85 86 85 85 84 84 84 86 85 86 87 87 88 86 86 85 85 85 86 86 86 86 87 86 86 85 86 86 85
70 72 73 74 76 81 85 87 86 87 89 89 88 87 87 87 87 87 87 87 87 84 85 85 86 85 84 84 84 84 83 84 84 85 85 86 85 85 84 86 85 86 86 87 86 85 84 85 86 85 85 85 86 86 85 86 86 86 85 85 85 86 86
69 70 71 72 75 79 85 86 87 89 89 89 88 87 88 89 89 89 88 87 87 88 86 85 86 85 84 85 85 85 84 84 84 84 84 85 84 85 85 85 86 86 87 86 87 87 86 86 86 86 86 87 87 88 88 87 87 87 86 85 85 87 88
67 69 70 72 73 76 80 85 89 89 90 91 91 89 89 89 89 89 89 88 88 86 87 87 87 86 84 85 84 84 83 85 84 84 85 86 85 84 84 85 85 86 87 86 86 87 86 85 85 85 86 87 87 88 86 85 86 87 86 85 84 85 85
66 67 69 71 73 74 76 77 78 82 89 91 91 89 88 88 89 89 89 90 88 89 88 88 87 85 84 85 85 85 85 86 86 85 85 86 86 84 85 85 85 85 85 86 86 86 87 86 87 86 86 87 86 86 87 85 85 87 87 85 85 85 88
66 66 67 70 72 73 74 74 75 77 77 78 84 89 88 89 87 85 83 80 85 86 88 90 89 88 85 85 84 84 86 86 86 85 85 86 86 87 87 87 86 86 85 86 88 86 87 87 87 85 85 86 85 85 86 85 86 86 86 85 85 85 87
63 64 65 68 70 72 72 73 74 73 73 75 77 79 85 88 84 81 77 76 76 84 78 79 86 88 86 85 86 86 86 85 86 87 87 86 87 87 88 89 88 86 86 87 88 87 86 87 87 85 84 85 84 85 85 85 86 86 86 85 85 85 85
64 63 63 65 66 68 69 70 70 69 71 72 74 78 78 83 83 80 76 77 78 82 80 83 85 86 87 87 87 87 85 86 87 86 86 87 88 88 89 89 89 87 87 87 88 88 87 85 86 84 84 85 85 85 84 85 85 85 87 87 87 86 87
64 63 62 63 64 65 65 66 68 68 69 71 73 74 74 76 81 82 77 78 80 81 79 82 86 87 86 87 87 86 86 86 87 87 87 87 88 89 89 90 89 89 88 88 87 87 88 86 86 85 84 84 85 85 85 85 85 85 86 88 88 87 87
65 63 63 63 62 62 63 63 64 66 67 70 71 71 73 75 76 78 78 79 81 82 82 83 84 84 86 87 88 86 86 87 87 86 87 87 88 89 89 89 90 90 89 88 88 87 87 87 85 85 85 85 85 86 85 85 86 84 85 86 86 86 86
65 65 64 64 63 62 60 61 62 64 65 67 68 69 71 73 75 75 76 77 79 83 84 83 83 84 85 85 85 85 86 87 87 86 86 87 85 86 88 89 89 88 88 87 87 87 88 88 87 86 87 86 86 86 86 85 86 85 85 85 86 86 86
63 63 62 62 62 62 61 61 61 61 63 64 65 66 68 70 71 73 75 77 78 80 81 83 84 84 86 85 84 84 85 85 86 86 85 85 84 84 85 86 86 86 87 86 86 88 88 89 89 87 86 87 86 86 87 87 87 87 86 85 85 86 87
63 62 61 61 61 62 62 62 62 61 62 62 63 64 65 67 68 70 73 75 78 77 79 79 82 84 86 86 85 85 85 84 84 84 84 84 83 82 84 85 85 85 85 85 86 86 85 86 86 88 87 86 86 86 87 87 88 81 74 76 86 86 88
62 62 63 62 62 62 63 62 63 63 62 62 62 63 64 64 66 68 71 73 75 76 78 80 79 82 86 85 86 85 84 83 83 83 82 82 83 83 82 83 84 84 83 84 84 84 83 84 85 87 88 87 87 86 87 88 88 74 68 68 71 83 86
61 61 62 63 62 62 62 62 62 62 62 63 64 64 65 63 65 66 67 70 72 74 78 78 79 80 79 84 86 85 84 84 83 82 82 82 82 82 82 83 83 82 83 83 84 83 85 85 84 84 87 87 88 88 88 88 78 69 67 67 66 71 84
61 61 62 62 62 62 62 62 62 62 63 64 64 65 66 66 65 64 65 66 69 71 73 73 77 78 79 81 84 84 84 84 83 83 82 82 82 82 82 82 82 82 83 84 84 85 83 82 84 84 85 86 85 87 88 89 76 68 66 66 66 65 74
60 62 63 63 63 63 62 62 62 63 64 64 66 67 68 67 67 67 67 67 68 69 70 71 73 75 77 79 80 83 84 83 83 83 82 82 82 82 82 82 81 84 85 86 84 83 83 84 83 84 83 84 84 84 87 88 77 67 65 64 64 65 68
59 61 61 62 62 64 62 61 61 62 63 64 65 67 67 67 68 69 68 68 68 69 68 69 71 74 76 76 77 79 83 84 83 83 83 83 83 82 82 82 82 83 84 87 86 83 82 84 84 84 84 85 86 86 87 89 73 66 64 63 62 63 66
59 60 61 62 62 62 62 63 62 62 62 65 66 66 67 66 68 68 67 69 69 67 68 69 71 73 73 74 76 77 78 81 83 83 83 83 82 82 82 82 81 81 83 85 87 87 86 85 86 85 85 85 86 86 85 89 71 65 63 62 62 63 74
61 60 62 63 64 64 64 65 65 65 64 65 65 65 65 65 66 67 67 68 69 67 66 68 69 70 70 71 73 75 77 77 77 79 83 83 82 82 82 82 82 82 84 84 85 87 86 86 87 85 86 86 85 84 85 88 76 64 62 61 60 65 77
64 63 63 63 64 65 65 66 66 67 66 65 66 66 66 66 66 66 66 67 69 69 68 70 70 71 70 69 69 71 73 75 77 77 78 81 82 82 83 85 85 85 85 84 85 86 88 88 87 87 87 87 86 87 86 87 78 63 62 60 59 67 78
63 64 64 64 64 64 65 65 64 66 66 66 65 66 66 66 65 65 66 66 67 68 69 70 70 70 70 70 70 69 70 73 75 76 77 77 81 85 84 84 85 86 86 86 86 86 87 87 87 88 87 90 89 80 84 88 81 63 62 59 59 66 79
62 63 63 64 66 66 64 64 64 65 66 66 65 66 66 66 65 64 64 65 67 67 69 70 69 69 70 70 71 71 71 71 71 73 75 76 77 80 84 86 87 86 86 86 87 87 88 88 87 87 88 89 89 90 88 87 88 78 60 60 58 60 77
63 63 63 64 64 62 63 64 65 64 65 65 65 66 66 66 65 63 64 64 65 66 69 70 71 70 69 70 71 71 71 71 71 72 73 75 76 78 80 84 85 87 86 87 88 87 86 87 87 88 87 89 89 90 90 90 88 84 60 58 57 57 64
62 63 64 64 63 62 63 64 64 64 66 66 66 67 67 65 63 62 63 64 64 67 70 70 70 70 70 70 70 71 71 71 71 72 71 72 72 73 75 76 77 82 86 88 86 84 84 84 85 87 87 88 89 88 89 86 78 90 66 58 56 56 56
59 60 60 61 62 64 64 62 62 63 64 66 67 67 66 65 62 62 62 62 64 68 69 70 70 69 69 69 70 69 69 70 71 71 72 71 72 73 74 76 79 80 82 83 84 83 83 83 83 84 85 85 86 88 87 87 85 71 80 60 56 55 55
59 60 61 62 63 63 63 61 61 61 63 65 65 65 65 63 61 62 62 62 65 67 68 68 69 69 69 69 70 70 71 71 72 73 74 74 74 74 74 76 79 81 80 81 82 83 82 82 83 83 83 85 86 88 88 87 87 74 68 71 55 56 54
58 58 59 59 60 61 61 61 60 61 62 64 64 64 63 63 61 61 61 63 65 65 66 67 68 68 68 69 70 70 71 71 71 72 73 73 74 74 74 76 78 79 81 81 81 81 82 82 84 83 84 83 84 86 87 88 87 89 75 64 62 55 55
58 58 58 59 59 60 60 60 61 61 60 61 63 63 63 63 63 60 61 64 64 65 65 65 65 66 66 68 68 69 70 71 71 72 72 72 72 73 74 75 77 78 80 82 82 83 82 82 83 84 83 84 86 85 86 86 87 86 87 73 67 62 56
56 56 56 56 57 58 58 58 58 58 59 59 62 63 64 63 63 62 63 63 64 64 65 65 64 65 66 66 68 68 69 69 70 71 72 71 72 73 75 76 76 77 77 80 82 83 83 83 83 83 84 84 86 86 86 87 87 87 88 87 83 80 73
55 55 56 57 57 57 57 56 56 57 58 58 60 61 62 62 62 63 63 64 64 65 64 64 64 65 66 67 69 69 70 70 69 70 71 72 73 73 75 77 78 77 76 78 81 82 83 85 84 84 84 85 86 85 85 86 86 87 87 88 87 85 82
55 55 55 55 56 57 56 56 56 56 57 58 60 61 61 61 62 63 63 64 64 64 63 63 64 65 66 68 68 68 69 70 71 71 71 71 72 73 73 74 76 77 78 81 83 85 85 84 86 85 87 88 86 84 84 84 85 86 73 85 72 81 83
55 55 56 57 57 57 56 57 56 56 56 57 59 60 60 61 62 63 65 65 66 65 63 63 63 64 65 65 66 68 69 69 71 71 71 71 71 72 73 71 63 68 76 78 72 65 60 59 77 85 88 88 88 88 86 86 87 71 63 60 59 59 62
54 55 56 57 56 55 55 56 56 57 56 57 59 60 61 61 62 63 64 65 65 65 63 62 62 63 64 64 65 66 67 67 66 67 69 70 69 70 70 72 74 56 55 60 64 62 58 57 56 54 56 69 82 83 69 68 65 60 60 55 54 55 54
55 55 55 55 54 54 54 54 55 56 56 58 59 59 60 62 63 62 64 65 64 65 63 63 61 60 61 63 64 64 64 65 65 66 66 67 68 68 68 69 70 74 60 54 55 56 54 54 53 54 55 55 59 71 84 69 57 56 56 52 53 53 52

ECMWFFLT1_sfc_temp_072.txt.gz
Temp
87 89 90 88 87 86 89 89 88 87 87 91 91 92 93 93 91 91 90 88 87 86 86 86 86 87 86 87 87 88 88 88 89 89 89 89 90 89 89 91 90 89 92 93 92 92 92 92 92 92 92 91 91 90 89 89 89 90 89 88 89 89 88
84 85 87 88 88 89 87 86 88 89 89 89 91 91 93 93 92 91 90 89 88 87 87 87 86 87 87 87 88 88 87 88 88 88 90 89 89 89 91 90 90 89 89 92 93 92 92 93 92 91 91 91 91 91 91 90 89 89 91 89 89 89 89
81 83 85 85 86 88 87 88 90 89 87 90 92 92 92 91 92 90 90 90 88 88 89 88 87 88 88 87 88 87 88 89 89 89 89 91 90 93 91 90 91 91 92 92 92 93 93 92 92 91 92 91 93 91 90 90 90 90 90 89 89 90 88
78 80 82 84 86 87 89 90 88 91 93 90 89 92 91 90 93 92 91 91 89 89 88 89 89 89 89 88 87 87 88 88 89 91 91 92 92 92 91 91 90 92 92 92 94 93 96 93 92 91 90 91 91 92 91 91 92 91 90 89 90 90 89
77 79 81 82 85 87 89 91 92 89 87 93 94 92 91 93 93 93 93 93 94 91 92 92 94 92 90 90 91 91 89 89 89 91 91 92 92 91 91 92 92 92 92 93 92 91 91 91 92 91 91 90 91 91 90 91 91 90 90 90 89 90 91
73 76 78 81 83 85 88 91 94 94 91 91 94 95 93 94 95 95 94 93 92 93 91 88 87 91 90 92 92 92 91 90 89 89 91 91 91 91 92 91 93 92 94 92 94 93 92 92 92 92 92 93 93 93 93 92 92 92 91 90 90 91 93
70 72 75 78 81 83 85 85 88 90 92 94 95 96 96 96 94 94 94 93 92 89 89 90 90 91 88 91 91 90 90 91 90 91 92 92 92 91 91 91 91 94 94 93 92 93 93 92 91 92 92 93 93 94 92 90 91 92 91 89 89 89 90
68 70 72 75 79 81 81 82 84 85 86 86 88 93 95 95 95 91 94 95 95 95 92 92 89 89 90 88 89 91 91 92 93 92 92 93 93 91 92 92 92 92 92 93 92 93 94 92 94 93 92 93 93 92 93 91 89 93 92 90 89 90 93
69 70 71 74 77 79 79 79 80 82 81 81 81 84 88 92 95 93 92 91 93 93 94 94 94 92 89 90 88 89 91 92 93 92 92 93 94 95 95 94 93 93 92 93 95 93 93 94 94 92 92 92 92 91 92 90 91 92 92 91 90 89 92
69 69 70 73 74 76 77 78 78 77 78 77 77 79 83 89 88 87 88 89 91 93 91 93 95 94 90 90 91 92 92 91 92 94 94 94 95 95 96 97 96 93 93 94 96 95 93 93 93 92 90 91 90 91 90 91 91 92 92 91 91 90 89
70 69 70 71 71 71 73 74 73 72 74 73 75 77 79 84 85 81 80 85 89 91 91 94 93 95 94 92 92 93 92 93 94 94 94 94 96 97 97 97 98 95 94 95 95 96 95 92 92 91 90 91 91 90 90 91 91 91 93 93 93 92 92
71 70 69 69 69 68 68 69 71 71 71 73 74 75 75 78 86 86 78 81 87 89 90 92 93 94 93 94 93 92 93 93 94 94 94 95 96 97 97 98 98 98 96 96 95 94 96 94 93 92 90 90 91 91 91 90 91 91 91 94 94 93 93
73 72 71 70 69 68 67 66 67 69 70 73 73 73 73 74 77 83 83 81 82 87 89 89 90 91 93 94 95 93 93 95 94 93 95 94 95 96 97 97 98 98 97 96 95 95 96 96 93 92 92 90 91 92 91 91 92 90 90 92 93 93 92
73 74 72 71 69 67 67 66 65 66 68 70 71 72 71 73 74 77 81 83 83 83 86 89 88 89 89 90 91 91 93 94 94 93 92 94 92 93 96 97 97 96 97 95 94 95 96 96 95 94 93 93 93 92 92 91 91 90 90 91 92 93 93
74 74 73 71 69 68 67 67 66 65 66 67 69 69 70 71 71 73 76 80 83 85 83 83 87 86 87 88 88 89 90 91 93 93 92 92 91 91 92 93 94 94 94 94 94 96 96 96 97 94 93 94 93 93 94 94 93 93 92 91 91 92 93
73 73 73 71 69 69 68 68 67 66 66 66 68 68 69 68 69 71 74 77 80 79 83 83 82 84 86 87 87 89 90 89 89 90 90 90 89 89 90 92 92 93 92 93 93 92 92 93 94 96 95 93 93 93 95 94 96 88 79 81 92 92 94
71 71 72 72 70 70 69 69 68 67 67 67 67 68 68 68 69 71 73 75 77 77 81 83 80 81 85 86 88 89 89 88 88 88 88 88 88 88 88 89 91 90 90 90 91 90 90 91 92 94 95 95 94 94 95 96 96 79 71 72 74 89 92
69 69 70 71 71 71 70 70 68 68 67 68 69 69 69 68 69 70 71 72 73 75 78 80 81 83 82 85 86 87 88 88 88 87 87 88 87 87 87 88 88 88 89 89 90 89 91 91 90 90 93 95 95 95 95 96 83 72 69 70 70 75 90
69 69 70 70 70 69 71 70 70 68 68 69 69 70 70 70 70 68 69 70 71 73 74 75 79 81 81 79 80 83 85 87 87 87 85 86 87 87 87 87 87 88 89 90 90 91 88 88 90 90 91 92 92 94 95 96 81 70 68 68 68 68 78
69 70 71 71 70 70 68 70 70 70 69 69 71 73 72 71 71 71 72 73 72 72 71 72 74 78 79 80 79 81 82 82 84 86 85 87 87 87 86 86 86 89 91 91 90 88 88 90 89 89 88 90 90 90 94 94 82 69 66 66 66 66 71
66 68 68 69 69 71 69 69 69 69 69 69 70 71 72 73 74 73 74 74 74 75 73 72 73 75 77 77 79 80 82 83 82 83 85 86 86 85 86 86 87 88 89 92 91 89 87 89 89 89 90 91 91 91 93 96 77 68 64 64 63 64 68
66 68 68 70 69 69 69 71 70 70 69 70 70 71 72 72 73 74 74 76 75 74 74 73 73 75 74 75 77 77 77 81 82 83 83 84 85 85 85 86 86 86 88 89 93 93 92 91 91 91 90 91 91 92 91 95 74 67 64 62 62 63 78
68 68 70 71 72 72 71 72 72 72 72 73 72 71 70 70 71 73 73 74 75 73 73 74 73 73 73 75 76 76 77 77 79 81 83 83 82 83 84 85 86 87 89 89 90 93 93 92 93 91 92 91 90 90 90 93 79 66 63 61 61 66 82
72 71 71 71 72 73 73 73 73 74 74 74 75 74 72 71 71 71 71 72 74 75 73 75 74 74 73 74 77 76 76 74 75 78 80 82 83 83 83 84 87 88 90 89 90 92 94 94 94 93 93 93 92 93 91 92 82 64 62 60 60 69 83
71 72 71 72 72 72 73 71 70 72 73 74 74 74 73 74 72 71 72 72 73 74 75 75 75 74 73 74 76 77 78 78 75 75 77 78 82 84 82 80 78 79 81 86 88 86 91 93 94 94 94 96 95 85 89 93 86 64 62 60 59 68 83
69 70 71 72 74 73 71 70 71 72 74 74 73 74 74 74 73 71 70 72 74 74 75 75 75 75 75 76 76 77 79 80 77 75 75 76 79 80 78 77 74 74 76 74 77 81 83 83 91 93 95 96 95 96 94 93 93 82 60 60 57 61 81
71 71 70 72 72 68 70 72 72 72 73 73 72 74 75 73 72 71 70 70 72 72 75 76 76 75 75 75 76 78 78 79 79 79 79 79 78 77 75 75 74 73 73 75 79 81 81 82 91 94 94 95 96 96 96 97 94 89 60 58 57 57 66
70 71 72 71 69 69 71 72 71 72 74 73 75 75 75 73 70 69 69 70 71 73 76 75 75 75 75 74 75 76 78 78 77 78 79 78 78 76 74 74 76 76 76 79 79 79 80 82 82 86 88 92 95 94 94 92 84 97 66 58 56 56 57
66 67 67 67 69 71 71 70 69 71 71 73 75 75 74 73 69 68 68 68 70 73 74 75 75 74 74 74 74 74 75 76 76 77 77 78 78 78 77 76 76 76 76 77 77 78 80 80 81 84 87 89 89 93 93 93 90 74 84 60 56 55 55
66 67 68 70 70 70 70 67 67 68 70 72 72 72 72 70 68 67 67 67 70 72 72 73 73 73 73 74 74 75 76 77 78 78 79 80 80 79 79 78 77 76 76 77 77 78 79 80 82 82 83 85 87 91 94 93 94 78 70 73 55 56 54
65 65 66 66 68 68 68 67 66 67 68 70 71 71 70 70 68 67 66 68 70 70 70 71 71 71 72 73 74 74 75 76 76 78 79 80 80 79 80 79 78 76 76 76 76 77 79 80 82 82 83 83 85 87 88 92 93 95 79 66 61 56 55
64 65 66 66 66 67 66 67 67 67 67 67 69 70 69 70 70 67 67 70 70 70 70 70 69 69 70 71 72 73 75 75 77 78 79 78 79 78 78 78 78 77 77 77 78 78 78 80 81 81 82 83 84 85 87 88 87 90 93 76 69 63 57
63 63 63 63 64 64 64 64 64 64 64 64 67 69 70 69 69 69 69 68 70 70 69 69 69 68 69 70 71 73 74 74 75 77 77 77 79 80 80 81 80 79 77 77 78 79 79 81 81 81 81 83 84 84 83 84 81 82 85 91 88 84 76
62 62 63 63 63 63 63 62 62 63 63 63 65 66 67 67 68 68 69 69 70 71 69 68 69 69 70 72 73 74 75 76 75 75 77 79 81 81 82 83 83 83 80 80 80 80 79 79 79 78 79 76 78 79 80 84 85 84 85 84 87 91 88
62 62 62 62 63 62 62 62 62 62 63 63 65 65 65 65 66 68 68 69 69 68 68 67 68 69 70 73 73 74 74 76 77 78 78 79 78 80 80 80 81 81 82 84 83 83 83 82 80 78 77 76 76 75 76 79 82 86 70 77 68 79 88
62 63 62 63 63 63 62 62 62 61 62 63 64 64 64 65 66 67 70 71 71 70 68 68 68 69 69 71 72 74 75 75 77 78 77 78 77 77 77 74 64 70 79 80 73 65 59 58 73 78 79 78 80 81 79 81 85 63 54 57 56 58 60
61 61 62 62 62 62 61 62 62 62 61 62 64 64 65 65 66 67 69 70 70 70 68 67 67 68 70 70 71 71 72 73 73 74 74 75 75 75 74 76 77 57 53 60 64 62 58 55 54 54 56 67 75 75 65 63 59 56 56 54 54 52 53
63 63 63 63 61 60 60 60 60 60 60 62 63 64 65 66 67 67 69 69 70 70 68 67 67 66 68 70 71 71 71 72 71 72 72 73 74 73 71 72 72 76 62 53 56 57 53 52 52 52 53 53 57 65 76 67 58 54 53 53 52 52 50

ECMWFFLT1_sfc_temp_075.txt.gz
Temp
86 85 85 85 85 87 87 84 87 85 87 87 90 92 94 93 91 87 86 87 86 87 88 88 88 89 88 89 89 89 90 90 90 90 90 90 91 90 91 92 92 90 93 93 92 92 92 93 93 93 92 91 92 91 90 90 89 91 90 89 90 89 89
90 86 87 86 86 85 85 87 85 86 86 85 88 90 93 92 90 86 86 88 86 87 88 87 88 89 89 89 90 89 89 90 90 90 91 90 90 91 92 91 92 90 91 92 93 93 92 94 93 92 92 92 92 92 92 90 90 89 91 89 89 88 89
86 89 84 86 85 87 83 82 83 85 86 87 87 89 91 90 91 88 85 86 87 86 87 87 88 89 90 89 89 90 90 91 90 91 91 92 92 94 93 92 92 93 93 93 93 95 94 93 92 92 93 92 94 91 91 91 90 91 90 89 89 89 88
81 83 87 88 86 85 85 81 79 78 81 87 86 88 87 89 91 90 89 90 88 86 86 87 88 89 88 89 90 89 89 90 91 92 93 94 93 93 93 92 92 93 93 94 95 95 97 93 93 92 92 92 92 93 92 92 93 91 91 89 89 89 89
81 84 86 87 89 88 86 86 84 80 81 86 86 81 89 87 91 89 91 90 89 85 83 88 90 89 88 90 93 92 91 91 92 93 93 94 93 93 93 94 93 93 94 95 94 93 92 93 93 92 92 91 92 92 92 92 92 91 91 90 89 90 90
78 80 83 87 84 87 88 87 90 88 83 80 81 77 77 81 86 84 84 81 80 80 81 80 86 89 88 91 91 93 92 91 91 92 93 93 93 94 94 93 94 94 96 94 96 95 94 93 94 94 93 94 94 94 94 93 93 93 92 90 90 91 93
75 77 80 82 86 86 86 87 88 87 84 79 80 82 83 79 79 81 84 83 82 82 83 83 89 86 85 88 92 93 92 93 92 93 94 95 94 94 93 94 93 95 95 95 94 95 95 93 92 93 93 94 93 94 93 91 92 93 92 90 89 90 90
73 75 77 80 82 83 82 84 87 87 85 85 85 81 77 79 78 78 80 81 85 90 84 85 90 86 92 92 93 93 93 94 95 94 94 95 95 93 94 95 94 94 94 95 94 95 96 94 95 93 94 94 93 93 94 92 91 94 93 91 90 90 94
75 74 74 78 80 82 83 83 84 84 84 84 81 79 78 77 78 79 78 81 88 85 88 94 91 89 89 90 91 92 92 93 93 93 94 95 96 96 97 96 95 95 94 96 97 95 95 95 95 93 93 93 92 92 93 92 93 93 93 92 91 90 92
72 73 73 75 76 80 81 81 81 81 80 80 80 77 74 75 76 79 78 79 80 83 85 88 92 93 91 91 92 93 90 86 90 94 95 95 96 96 98 98 97 96 96 96 98 97 94 95 95 94 92 92 91 92 92 92 93 92 93 92 92 91 90
72 72 73 74 73 74 76 78 77 77 79 78 78 77 75 77 79 77 78 79 81 79 79 87 89 92 92 92 92 92 91 92 90 94 93 93 97 98 99 99 99 97 96 97 97 98 96 94 94 93 92 93 92 91 91 92 92 91 93 93 93 92 93
73 73 72 72 72 71 71 73 75 76 77 78 80 80 79 79 77 82 79 79 81 80 78 84 91 93 89 91 93 91 92 93 94 95 93 92 95 99 99 99 100 99 98 98 96 96 98 95 94 94 92 92 92 92 92 91 92 91 92 94 95 94 93
76 74 73 74 73 73 70 70 72 74 76 80 80 80 81 81 82 80 80 83 81 82 85 87 88 88 88 90 90 90 92 94 94 93 94 93 93 97 99 99 101 100 99 98 97 97 97 98 95 94 93 92 93 93 92 92 93 91 91 92 93 94 93
75 77 76 75 74 73 72 70 71 72 74 76 79 80 79 80 80 81 81 80 83 86 87 87 86 88 89 90 89 87 90 94 93 93 92 91 90 93 98 99 99 98 98 97 96 97 98 98 97 96 95 94 94 93 93 92 93 91 91 92 93 94 94
77 77 76 76 74 72 73 72 70 71 72 74 76 76 78 78 79 80 80 80 81 83 84 84 85 83 86 89 87 87 87 86 90 90 90 90 90 93 94 95 96 97 97 96 97 99 98 99 99 97 95 95 94 93 95 96 95 95 93 92 92 93 94
78 77 77 76 75 75 74 73 73 72 71 71 74 74 76 76 76 79 80 80 81 79 80 82 83 83 83 84 87 88 88 87 85 85 86 90 91 90 92 94 94 95 95 96 97 95 95 95 96 98 97 95 95 95 96 96 97 89 82 84 92 92 95
76 76 76 75 74 76 75 74 74 73 72 73 73 74 75 74 76 78 79 79 81 80 81 82 81 84 84 83 84 87 88 87 87 87 86 85 89 91 90 90 93 92 92 93 94 94 92 94 95 97 98 98 96 96 97 99 98 82 74 74 78 91 93
74 74 75 75 75 75 75 76 74 74 74 75 75 75 75 74 76 77 77 78 78 79 81 80 81 83 82 84 84 83 83 83 85 85 85 86 84 86 85 85 90 91 91 92 93 91 94 94 93 93 96 98 98 98 98 98 87 74 71 73 72 78 92
74 74 75 74 73 73 75 75 75 74 75 76 75 74 76 77 77 74 75 75 77 77 76 76 79 79 80 81 82 81 80 80 81 81 82 83 83 83 82 79 77 81 87 92 92 94 91 90 93 92 93 95 94 97 98 99 84 71 70 71 71 71 81
75 75 75 75 75 73 72 74 74 75 75 76 77 79 78 77 78 78 79 78 78 77 75 74 75 78 78 78 79 80 81 80 78 79 81 82 81 79 78 78 78 78 77 81 89 90 91 93 91 91 90 92 92 92 96 97 85 69 68 68 68 69 74
71 73 73 74 74 75 73 73 73 73 73 76 77 77 78 78 80 80 80 80 80 79 76 76 76 76 77 77 79 80 80 80 79 78 78 78 79 78 77 77 78 78 79 79 78 84 90 91 90 91 92 93 93 93 95 98 80 68 65 65 66 67 72
71 73 73 74 74 73 73 76 74 74 73 76 76 77 78 77 79 80 79 81 80 78 78 78 77 77 76 75 76 77 78 80 80 79 79 77 77 78 78 77 78 78 77 76 77 77 78 81 85 87 91 92 93 93 92 97 77 69 63 63 64 66 79
73 72 74 75 77 76 76 76 76 76 76 78 78 77 76 76 76 78 79 79 80 76 76 78 78 77 74 73 74 76 75 77 78 78 78 77 77 78 77 77 77 77 78 76 77 77 78 79 80 80 86 91 92 92 92 95 82 67 63 62 62 68 84
77 75 75 76 76 78 77 76 76 78 78 78 79 79 77 77 77 77 77 77 79 79 77 79 79 79 77 75 74 76 79 77 78 78 77 76 76 77 76 75 77 77 77 77 77 77 80 80 79 82 85 89 92 95 93 94 85 66 62 60 60 71 84
77 77 76 77 77 77 76 75 75 77 78 79 79 78 78 79 77 77 77 76 77 78 78 78 78 77 77 78 78 77 77 80 80 79 77 75 75 76 76 76 77 78 77 77 78 76 78 81 82 83 86 90 91 87 92 95 88 66 62 60 59 70 85
74 75 76 77 78 76 75 74 75 77 78 79 77 78 79 80 77 76 74 75 78 78 78 78 77 77 78 78 78 78 76 75 76 78 76 75 76 76 75 75 76 77 77 78 79 80 81 82 84 85 87 90 90 92 94 95 95 83 60 60 58 62 84
75 75 75 76 75 72 75 76 77 76 77 77 76 79 80 79 77 75 74 74 74 75 77 79 78 78 77 77 78 79 79 79 77 75 77 78 76 76 76 75 74 74 75 76 79 80 81 82 84 88 88 90 92 93 93 95 95 90 59 59 57 58 68
74 75 76 75 72 73 75 76 75 75 77 77 78 79 79 77 74 73 73 73 73 75 78 78 77 77 76 76 77 78 79 79 78 79 79 78 78 77 75 76 77 76 78 79 79 79 79 80 82 85 88 90 92 92 92 91 86 97 65 58 56 57 58
70 71 71 71 73 75 75 73 73 74 74 77 78 78 77 77 73 72 72 71 72 75 76 77 77 76 75 75 76 76 77 77 78 78 79 79 79 79 77 78 79 78 77 77 77 77 78 79 81 82 84 86 89 91 91 90 89 74 83 59 56 55 56
70 71 72 74 75 74 74 71 71 71 74 75 75 75 75 74 71 71 70 70 73 75 75 75 75 74 74 74 75 76 78 79 80 80 81 81 81 80 78 78 79 79 79 78 77 76 76 78 79 80 81 84 85 89 92 91 92 81 75 70 55 56 55
69 69 70 70 71 71 71 71 69 70 72 74 73 73 72 73 71 70 70 72 73 73 73 73 73 73 73 74 75 75 76 77 78 79 80 81 82 80 80 80 80 79 80 79 78 77 77 78 80 80 82 82 83 86 83 86 84 86 80 67 59 56 55
69 69 69 70 69 69 69 70 70 70 70 70 72 72 72 73 73 69 70 72 72 73 73 72 71 70 71 72 72 73 75 76 79 80 80 80 81 80 80 79 80 79 79 80 80 79 78 78 80 80 81 81 78 74 75 75 74 74 81 81 70 62 56
67 67 67 66 67 67 67 67 67 67 67 67 70 71 72 71 72 71 71 71 73 73 72 72 71 70 70 70 72 73 74 74 75 77 79 80 82 82 82 83 82 81 80 80 81 81 81 81 81 81 81 77 74 73 72 74 74 75 80 83 84 80 74
66 66 67 67 67 67 66 66 65 65 66 66 67 69 70 70 70 70 71 71 72 73 71 70 70 71 71 72 74 75 77 77 77 77 79 81 83 84 85 86 87 86 84 84 85 83 83 83 81 77 77 77 75 73 72 72 74 76 79 83 83 82 79
66 66 66 66 66 66 65 65 65 65 65 66 67 68 68 68 69 70 70 71 72 71 70 70 70 70 72 73 74 75 75 78 78 79 79 80 80 83 83 83 83 83 84 86 86 85 83 80 77 76 78 79 76 74 74 75 76 79 67 67 59 66 75
66 66 66 67 67 66 66 65 65 65 65 65 67 67 67 67 68 70 72 72 73 72 70 69 70 70 71 72 73 75 76 76 79 79 79 80 80 81 82 77 67 72 81 81 75 67 61 60 75 79 79 77 78 78 76 76 78 65 55 55 54 52 55
65 66 66 67 66 65 64 65 65 65 65 66 66 67 67 67 68 69 71 71 72 72 70 70 69 70 71 71 72 72 73 74 75 75 75 76 77 77 77 79 79 58 55 61 65 62 58 56 56 56 58 67 73 73 65 63 59 56 53 52 53 52 51
68 67 67 66 65 64 64 64 64 64 64 65 66 67 67 68 69 69 71 71 71 71 70 69 69 68 70 71 72 71 71 73 73 74 74 74 74 74 74 76 75 78 63 53 55 56 53 52 53 52 53 53 56 63 71 63 55 51 51 51 50 50 49

ECMWFFLT1_sfc_temp_078.txt.gz
Temp
82 82 84 84 82 82 81 82 85 86 85 87 87 89 90 90 87 87 86 85 85 84 85 86 86 86 86 86 87 87 87 87 87 87 86 86 87 86 87 88 88 87 88 87 88 88 87 88 88 88 88 88 88 87 86 86 85 87 87 86 83 81 84
78 82 82 81 81 80 80 82 83 83 82 84 87 86 89 88 87 87 86 84 84 84 86 86 85 86 86 86 87 87 86 87 87 86 87 86 87 87 88 88 87 86 87 88 88 88 88 89 89 88 88 88 89 88 88 87 87 87 86 86 85 84 84
79 78 79 80 79 79 79 81 83 81 82 82 82 78 77 77 79 82 84 82 81 83 83 86 86 86 87 87 86 86 87 88 88 88 88 89 89 91 90 88 89 89 90 90 89 90 91 90 88 88 89 88 90 88 87 87 87 87 87 86 85 85 84
77 73 76 77 76 76 79 79 81 83 84 84 82 79 78 75 76 75 76 79 80 78 78 84 86 87 88 87 87 86 87 87 88 89 90 90 90 90 89 89 88 90 89 90 92 92 93 90 90 88 88 88 88 88 89 88 88 88 87 85 84 85 83
81 76 75 73 74 76 80 80 81 83 83 84 83 77 78 77 76 77 78 80 76 74 80 87 88 88 88 87 89 90 88 89 89 90 90 90 89 89 90 90 90 90 90 91 90 89 89 88 90 89 88 88 89 88 88 89 89 87 87 86 84 85 84
80 79 77 76 75 75 79 83 84 82 81 80 78 77 77 76 78 79 80 80 78 80 83 84 84 85 81 85 88 90 89 88 88 88 89 90 89 90 90 90 91 90 92 91 92 91 90 90 90 90 90 91 91 91 91 89 90 90 87 87 86 87 87
78 81 78 78 80 77 79 82 82 82 83 82 81 79 76 76 79 81 81 80 81 81 82 84 86 85 82 84 87 86 84 86 88 90 91 92 91 90 90 90 90 92 92 91 90 91 91 90 89 89 89 91 89 91 88 87 88 88 87 86 86 86 86
76 79 82 82 82 81 80 80 78 77 79 81 83 80 77 77 79 81 80 81 82 83 80 80 79 78 83 84 83 82 80 78 77 86 91 92 92 91 91 91 90 91 91 92 91 91 92 90 92 91 90 91 90 88 90 88 87 90 89 87 86 86 90
77 78 80 82 80 80 80 80 80 80 79 78 80 79 77 78 78 79 79 80 81 82 81 83 84 83 82 82 83 83 82 79 79 80 87 92 93 93 94 93 93 92 91 93 94 92 92 92 92 89 89 89 89 88 89 87 89 89 88 87 86 86 88
74 74 75 76 78 79 79 79 80 79 79 78 78 78 76 77 79 78 78 78 77 78 79 79 80 80 80 82 84 86 84 82 83 85 87 91 93 93 94 95 94 93 93 94 95 93 91 91 91 90 87 88 88 88 88 88 89 89 89 88 87 87 86
72 72 73 75 76 75 76 77 76 76 76 76 78 78 79 79 78 78 77 78 77 78 79 78 78 78 78 80 84 83 83 86 83 85 88 89 92 95 95 96 96 94 93 94 94 95 93 90 91 89 88 90 88 88 88 89 89 88 90 90 90 88 89
71 71 71 72 73 73 73 74 76 76 75 74 78 79 78 77 78 78 77 78 78 78 77 78 82 81 77 78 78 79 80 81 84 82 86 89 88 91 96 96 96 96 94 94 93 93 95 91 91 91 88 88 89 89 88 88 88 88 88 91 91 90 90
73 72 72 72 71 71 71 71 72 74 76 77 77 80 79 80 78 76 74 75 77 79 81 80 80 80 79 78 77 77 79 80 80 82 87 89 89 91 93 96 97 97 96 95 94 94 95 94 90 90 90 89 90 90 89 88 89 87 87 89 89 89 88
74 75 73 73 72 71 70 71 72 73 74 77 75 75 78 80 79 77 76 74 76 79 78 80 81 81 80 78 77 77 77 78 78 78 79 87 89 90 92 94 95 95 95 94 93 94 94 95 93 91 92 91 90 90 89 89 89 88 88 88 89 90 89
75 75 74 73 72 71 71 71 71 72 74 75 76 75 72 74 78 78 76 76 77 78 77 77 80 81 82 79 77 76 78 78 78 82 80 81 84 87 89 91 90 90 91 91 93 96 95 96 96 93 91 92 90 90 91 92 91 91 90 88 88 89 90
75 75 75 74 74 73 72 73 72 72 73 73 74 74 75 75 75 77 77 78 79 78 78 79 77 78 80 77 78 77 77 76 77 77 78 76 75 75 77 82 81 82 82 87 92 91 90 91 91 95 93 91 91 91 93 92 93 87 81 83 89 88 91
75 74 74 75 74 74 74 74 74 73 73 73 74 74 74 75 76 77 78 78 78 78 79 81 77 78 80 77 78 78 76 76 76 77 77 79 79 78 79 79 80 80 81 81 85 89 89 90 91 94 95 94 93 92 93 94 94 81 73 74 78 88 88
73 73 73 74 74 75 74 74 74 74 74 75 76 76 76 74 77 78 77 78 78 78 79 79 81 81 78 79 78 77 75 73 74 77 77 75 74 75 78 79 78 78 77 77 81 80 82 85 88 89 92 94 95 94 94 94 85 75 71 72 72 78 88
74 74 74 72 72 73 74 74 74 74 76 76 75 76 77 78 78 75 76 76 78 77 77 77 79 78 77 77 77 77 76 76 76 76 75 73 74 75 77 78 77 77 79 79 78 80 80 80 80 80 84 89 90 92 95 95 82 73 69 71 71 72 81
75 75 75 75 74 72 72 73 73 74 76 76 78 79 79 78 79 79 80 79 77 76 75 75 75 76 76 75 76 75 76 76 76 75 75 74 75 75 76 76 77 78 80 80 79 79 79 80 80 80 80 81 83 86 91 93 85 73 68 68 69 70 75
73 74 73 73 73 74 73 72 72 72 74 76 77 77 78 78 81 81 81 80 79 79 76 77 75 74 75 74 75 75 75 75 76 76 76 76 75 75 75 75 76 78 80 80 79 78 78 78 78 79 80 83 84 86 90 94 80 73 65 66 67 69 73
72 74 73 74 74 73 73 74 73 74 74 77 77 76 77 77 80 81 80 82 79 78 78 79 76 75 74 73 73 72 74 75 75 76 76 75 75 74 74 74 74 75 78 79 79 78 78 77 78 78 79 81 83 84 86 91 76 72 64 63 64 67 76
73 73 75 76 77 75 75 75 76 76 77 78 78 75 75 76 77 79 80 80 80 76 76 78 76 75 74 73 73 73 73 72 73 75 76 76 75 73 74 75 75 76 77 77 78 78 78 78 79 79 80 81 82 83 84 87 80 71 65 61 62 67 77
77 75 76 77 77 77 76 76 77 78 79 79 78 77 77 78 76 77 76 77 79 80 77 77 76 76 75 75 74 74 74 74 74 75 76 76 75 74 74 75 76 76 77 76 77 78 79 80 80 81 82 82 82 85 85 87 82 71 66 60 60 69 79
77 77 77 77 75 75 76 75 76 78 79 79 77 77 78 79 77 77 75 75 76 78 78 77 75 76 75 76 77 77 78 77 76 75 75 74 74 75 75 75 75 76 77 77 77 78 79 80 80 81 82 85 86 83 85 87 84 72 66 59 58 67 79
74 75 76 77 76 76 75 75 76 76 77 77 74 78 79 79 77 75 73 74 76 76 76 76 75 76 77 76 77 77 77 78 76 75 74 74 75 75 73 75 75 76 76 76 77 77 79 80 81 82 83 84 85 87 88 88 88 84 69 59 57 60 79
75 75 75 75 74 74 75 76 75 75 76 75 75 78 78 76 76 73 72 73 73 73 75 76 76 76 75 75 76 77 77 78 78 76 77 77 75 74 73 73 74 74 75 75 78 79 78 79 81 82 82 84 85 87 88 89 86 82 64 58 55 56 64
74 75 76 75 74 74 74 74 73 74 75 75 77 77 76 75 72 70 71 72 72 73 76 75 75 75 75 74 75 76 77 77 77 78 78 77 77 76 74 74 74 74 75 77 76 76 76 77 77 79 80 81 83 84 84 76 70 73 67 62 55 53 53
70 71 71 72 73 74 73 71 71 72 73 75 76 75 75 74 70 70 70 70 71 74 75 75 75 74 73 73 73 74 74 75 76 76 77 77 77 77 77 77 77 77 76 75 75 75 75 76 77 78 78 79 81 83 79 73 76 69 73 65 56 54 52
70 70 72 73 73 72 72 70 69 70 72 73 73 73 73 71 69 69 69 69 71 73 73 73 73 73 72 72 73 74 74 75 76 76 78 78 78 77 77 77 77 77 77 77 76 75 75 76 76 77 77 79 80 83 76 75 75 72 69 70 57 52 53
69 69 70 69 70 70 70 69 68 69 70 71 71 71 71 71 69 68 68 69 71 70 71 72 72 72 71 72 72 72 73 74 74 75 76 78 79 77 77 77 77 76 77 77 76 76 75 76 77 77 78 78 79 80 77 75 74 75 72 66 64 58 54
69 69 69 69 69 68 68 69 69 68 68 68 70 70 70 70 70 66 67 70 70 70 70 70 69 69 69 70 70 71 72 72 75 76 76 76 77 76 76 76 77 76 76 77 77 76 75 76 77 77 77 78 78 78 78 77 76 75 76 75 74 70 60
67 67 67 66 67 67 67 67 66 66 66 66 68 69 70 69 69 68 68 68 70 70 70 69 69 69 69 69 70 71 71 71 72 74 76 76 77 78 78 78 78 77 76 77 78 79 78 78 78 78 78 74 74 75 75 76 76 75 76 76 77 76 72
66 66 67 67 67 67 66 65 65 65 65 64 66 67 67 67 67 68 68 69 70 71 70 69 69 69 69 70 71 72 73 74 75 74 75 77 79 79 80 81 82 82 81 81 82 81 80 80 77 74 74 74 74 75 75 76 77 77 76 76 77 78 77
66 66 66 66 66 66 65 65 65 64 65 65 66 66 66 66 67 68 68 69 70 70 68 68 68 68 69 71 71 72 72 74 74 75 76 76 77 79 78 77 80 80 80 84 82 80 80 78 77 77 77 77 75 74 74 74 75 74 62 65 58 63 68
66 66 66 67 67 67 66 65 64 64 64 64 66 66 66 67 68 69 71 71 71 70 67 67 67 68 68 69 70 71 72 72 74 74 74 75 75 75 76 76 66 67 74 76 73 69 63 61 73 77 78 77 76 76 74 74 76 64 55 53 52 51 52
66 66 66 67 66 65 65 64 65 64 64 64 65 66 66 66 67 68 70 70 70 70 68 67 66 66 67 67 68 68 69 70 70 71 70 71 71 72 72 73 75 62 60 62 65 62 58 56 56 56 59 67 72 72 65 63 59 54 52 51 52 51 51
68 67 67 67 65 64 64 64 64 64 64 64 65 65 65 67 67 67 69 69 69 69 67 67 66 65 66 67 68 67 68 68 68 69 69 70 70 71 70 71 70 72 62 57 57 57 54 53 53 53 54 54 58 65 71 63 55 51 51 50 50 50 50

ECMWFFLT1_sfc_temp_081.txt.gz
Temp
79 77 76 74 75 77 77 78 80 80 79 80 83 83 76 74 74 79 82 81 80 79 80 79 80 80 79 80 79 79 80 79 80 80 79 80 81 80 80 81 80 80 81 80 81 81 82 83 82 83 82 82 81 80 80 79 79 82 80 79 78 78 79
78 79 79 78 77 78 77 76 78 79 78 78 78 73 74 75 75 75 79 81 81 81 81 80 80 80 80 80 80 80 79 80 80 81 81 80 81 80 81 81 80 79 80 81 81 81 82 83 82 83 82 82 82 81 81 80 80 80 81 79 79 78 79
77 78 79 79 78 77 75 73 76 78 79 79 78 76 75 75 76 76 77 79 80 80 80 81 81 81 81 80 80 80 80 80 80 80 80 81 82 83 83 82 81 81 82 83 82 83 84 83 82 82 83 83 82 82 81 81 81 81 80 80 79 79 78
73 73 74 75 75 76 77 76 77 76 79 78 78 76 75 75 76 76 77 78 79 80 80 80 82 82 82 81 81 80 81 80 81 82 82 82 82 83 82 82 81 82 82 82 84 86 87 83 83 82 84 82 81 82 82 82 82 81 81 80 79 79 79
73 73 73 72 73 73 75 76 76 76 75 72 74 74 74 75 76 76 77 77 78 79 80 79 83 82 83 83 84 84 82 82 82 82 83 83 82 83 82 83 82 83 83 85 82 83 82 83 84 82 82 82 81 82 82 82 82 81 80 80 79 79 78
72 71 70 71 72 73 75 78 73 71 72 73 73 75 75 75 77 77 77 77 76 77 78 78 79 79 79 82 84 85 83 82 82 81 82 82 81 84 83 82 83 83 83 84 84 84 82 84 84 83 83 83 83 83 83 82 83 83 81 80 80 81 80
70 70 70 70 72 74 74 74 70 72 73 73 74 76 76 75 76 78 78 77 77 76 77 79 80 79 79 78 78 79 81 83 83 83 83 84 83 83 83 83 83 84 84 83 84 85 83 83 83 83 83 84 83 83 82 81 81 82 81 80 79 79 79
69 68 69 74 77 77 75 73 71 71 72 74 74 74 74 74 75 76 77 78 78 78 78 80 79 79 78 79 79 78 79 78 79 82 81 84 84 82 83 83 82 83 84 83 84 85 85 83 84 84 84 84 83 82 82 82 81 83 81 80 79 80 84
71 71 71 75 76 77 77 76 73 72 72 72 73 73 73 75 76 76 76 77 78 79 79 80 79 77 77 78 79 79 80 80 78 79 80 82 83 85 86 85 84 82 84 84 85 84 85 85 85 82 83 84 82 83 82 81 82 82 81 80 80 80 82
71 71 71 72 73 74 75 76 75 73 72 71 71 72 74 75 76 76 76 76 76 77 77 75 75 75 74 75 78 80 80 79 79 80 81 82 83 85 87 87 86 84 84 85 85 85 83 84 86 83 81 83 82 82 82 81 82 82 82 81 81 81 80
71 69 69 69 69 70 72 73 73 72 72 70 71 73 73 74 75 75 75 75 76 76 77 75 74 76 76 76 75 75 75 76 76 77 76 76 74 72 73 81 87 87 86 86 86 86 85 82 84 83 82 83 82 81 81 81 82 82 83 82 82 81 82
68 68 66 67 68 68 69 70 73 72 72 72 73 74 74 74 74 74 74 75 76 76 75 75 76 75 74 74 73 73 73 72 73 73 74 75 75 75 77 77 76 82 88 88 87 84 86 85 84 84 82 83 83 82 81 81 81 81 82 84 83 81 82
69 68 67 68 67 68 68 69 71 71 71 72 74 76 76 75 74 73 73 73 74 75 77 76 75 76 74 74 74 73 73 75 74 75 74 75 75 75 75 76 78 78 82 88 88 88 85 87 85 83 83 83 84 84 82 81 82 80 81 83 83 82 81
69 69 68 68 69 69 69 69 70 68 68 70 70 70 74 76 75 74 73 73 75 76 76 77 77 77 76 76 74 74 74 74 75 74 74 74 74 74 74 75 78 79 80 82 87 88 88 86 86 84 84 84 84 84 84 82 83 81 81 82 83 83 81
68 68 68 68 67 67 69 69 67 68 67 67 68 68 68 71 74 75 75 75 75 77 77 75 76 77 76 74 73 73 73 73 74 74 75 74 74 74 74 75 77 79 80 80 82 86 88 88 87 86 85 84 84 84 85 85 84 84 83 82 82 83 82
69 68 68 68 68 69 69 69 69 68 68 66 67 67 68 69 71 73 76 76 77 76 74 75 76 75 74 73 73 73 73 72 74 75 74 73 73 73 74 76 77 78 78 78 79 78 79 81 83 87 86 85 84 84 86 85 87 83 79 80 83 82 86
70 70 69 69 69 71 71 71 71 70 69 68 68 70 69 70 71 72 74 75 75 72 74 77 74 75 74 73 73 73 73 73 74 74 73 74 75 75 76 76 77 76 76 76 77 77 77 79 79 82 85 86 86 85 86 88 89 79 72 73 76 84 82
68 69 70 71 70 71 71 72 72 71 71 73 73 72 71 70 69 70 71 73 73 74 77 76 76 74 74 74 73 73 73 72 73 73 73 72 73 73 73 75 75 74 74 75 77 76 78 78 78 77 79 83 84 85 87 87 82 74 70 71 71 77 83
67 68 69 69 69 70 71 72 73 73 74 73 72 73 74 73 71 69 70 70 73 74 74 74 74 73 73 73 73 72 72 73 73 73 73 72 73 73 74 74 74 74 75 76 77 77 76 76 77 77 77 79 78 79 81 84 79 71 69 69 70 70 78
69 69 69 69 69 68 69 70 70 72 74 74 75 76 76 74 76 75 75 73 71 72 72 71 71 71 71 71 71 72 72 72 72 73 73 73 73 72 72 73 73 74 75 76 76 75 75 76 76 76 75 76 77 77 79 80 79 71 67 66 67 68 72
67 68 68 68 68 69 67 66 68 69 70 72 73 73 74 75 76 75 73 72 73 73 71 71 71 71 72 71 71 72 72 72 71 72 73 73 73 73 72 72 72 73 74 75 76 75 75 75 74 75 76 77 78 79 80 84 75 70 68 63 63 65 69
66 68 67 68 66 65 65 69 68 69 67 69 68 69 71 71 74 74 73 74 72 72 72 71 70 70 70 70 71 70 72 72 71 70 71 72 72 72 72 73 73 73 74 75 75 76 75 75 75 75 75 76 77 78 78 82 71 67 68 64 61 64 70
67 67 69 69 70 68 67 68 70 71 71 69 68 68 69 69 70 73 73 73 72 69 69 70 68 68 68 69 69 70 72 71 70 70 71 72 72 71 71 72 73 73 74 74 74 75 75 75 76 76 76 77 76 77 77 79 74 68 62 62 62 64 71
70 68 69 69 69 69 68 68 70 73 72 71 72 71 69 69 69 70 69 71 72 71 69 70 70 70 69 68 69 70 69 70 71 71 71 70 70 70 70 71 72 72 74 73 73 73 75 76 76 78 78 78 77 79 78 79 76 59 61 61 60 66 72
71 70 69 68 68 68 69 68 69 72 70 69 69 69 70 71 69 69 68 68 69 70 70 70 70 70 70 71 71 71 71 72 71 70 70 69 69 70 70 70 70 71 72 73 73 73 74 75 76 77 78 80 80 80 80 81 74 60 63 65 60 63 70
67 68 68 69 69 69 68 68 68 69 69 69 67 70 70 69 67 67 66 67 69 69 69 69 68 68 69 69 70 70 70 71 70 70 70 69 70 70 70 70 70 70 71 72 73 73 74 75 75 76 78 80 80 82 79 75 75 72 60 61 59 60 71
69 69 68 69 67 70 67 68 68 67 68 65 66 69 68 67 66 64 64 65 65 66 67 68 68 68 67 67 68 70 69 70 69 69 70 71 70 71 71 69 69 69 70 71 73 74 73 74 75 77 77 78 79 80 75 75 76 75 64 59 56 55 62
68 69 70 69 69 68 66 67 66 66 68 67 69 69 68 65 63 63 62 63 64 66 68 67 67 66 66 65 66 68 69 69 69 70 71 71 71 69 68 69 71 71 71 73 72 72 72 72 73 74 75 76 77 79 77 75 76 75 68 60 56 52 55
64 64 64 64 65 67 67 63 64 64 65 68 68 68 68 67 63 63 63 62 63 66 67 67 67 66 66 65 66 66 66 66 67 68 69 69 70 69 68 69 71 71 71 71 71 71 71 71 72 73 73 74 75 77 78 75 76 70 73 65 57 53 51
63 64 65 67 66 65 65 62 61 62 64 65 65 65 65 64 62 63 62 61 63 65 66 65 65 65 65 66 65 66 66 67 68 69 69 70 69 69 68 68 69 69 70 70 70 70 70 70 71 72 72 73 74 76 75 75 74 73 69 70 61 54 51
62 62 63 62 63 63 63 61 60 61 62 63 63 63 62 63 61 61 60 61 63 63 63 64 64 64 64 64 65 65 66 66 66 67 68 69 69 68 68 68 68 67 68 69 69 69 69 70 71 72 73 73 74 75 74 75 74 74 73 68 63 58 53
61 61 62 62 61 61 61 61 61 61 60 60 62 62 62 61 61 59 60 62 63 62 62 63 63 62 63 63 64 64 65 66 67 68 68 69 69 69 68 68 68 68 68 68 68 69 70 70 71 72 72 73 73 73 73 74 74 74 75 74 73 68 61
59 59 58 58 59 60 59 59 59 58 59 58 60 60 62 61 62 61 61 61 62 62 62 62 62 63 62 62 62 64 64 64 64 65 66 67 68 69 70 69 68 69 68 69 69 70 70 71 71 71 72 71 71 72 72 73 73 73 73 73 73 73 72
58 58 58 59 59 60 59 57 56 57 57 57 58 59 60 60 60 61 61 61 62 63 62 62 62 61 61 63 64 64 65 65 71 70 67 67 69 68 69 70 71 70 69 69 69 69 69 70 69 68 68 68 69 69 69 71 72 72 72 72 71 71 71
57 57 58 58 59 59 56 57 56 57 58 58 58 58 58 59 59 60 60 61 62 61 61 61 62 61 61 63 63 64 66 66 66 66 66 66 67 68 67 66 68 68 69 71 71 69 70 67 67 69 69 69 67 66 67 69 69 72 64 66 61 64 68
57 58 59 59 59 57 58 58 58 58 58 58 58 58 58 58 59 60 62 62 62 62 60 61 60 59 59 60 61 63 63 63 64 64 65 65 65 66 67 70 63 62 66 68 69 65 59 56 63 67 68 68 69 68 69 69 72 65 56 51 49 50 51
58 58 57 57 56 57 57 58 59 58 57 56 58 58 59 58 60 60 62 61 61 61 59 58 59 59 58 60 60 61 63 62 61 62 61 62 63 63 64 65 66 57 55 57 61 58 55 54 54 55 57 62 64 66 62 61 57 53 52 51 51 50 49
59 58 59 58 57 58 57 57 56 56 56 56 57 57 57 58 59 58 61 61 61 60 58 58 58 57 58 58 59 61 61 59 60 61 61 61 62 62 62 62 62 64 59 56 56 56 54 53 52 51 51 52 55 60 64 60 55 52 51 51 50 49 48

ECMWFFLT1_sfc_temp_084.txt.gz
Temp
74 73 74 74 74 75 76 79 81 81 81 81 81 82 80 80 79 80 79 78 78 77 77 77 77 77 77 77 77 77 77 77 77 77 77 77 78 77 77 77 78 77 78 78 78 78 79 79 79 80 79 79 79 78 77 77 77 79 78 77 77 77 76
73 74 74 74 73 73 74 72 75 79 80 78 78 78 78 79 78 78 79 79 79 78 78 78 78 78 78 78 78 77 76 77 77 78 78 78 78 77 78 78 78 77 77 78 78 79 80 80 80 79 79 79 79 78 78 77 77 77 77 77 76 76 77
73 74 74 71 70 71 71 69 71 71 72 74 78 78 78 77 78 78 78 78 78 78 78 79 79 79 79 78 78 77 78 77 77 77 77 78 78 80 79 78 78 78 78 79 79 79 81 81 79 80 80 79 79 78 78 77 77 77 77 77 77 77 75
71 70 69 70 70 71 70 71 71 73 73 74 75 78 78 76 78 79 79 78 78 78 77 78 79 79 79 78 78 77 78 78 78 78 79 79 79 79 79 78 78 78 78 78 81 81 83 81 80 79 81 79 79 79 78 78 78 78 77 77 77 76 76
69 68 68 68 69 70 71 71 71 73 73 74 74 75 76 77 78 77 78 78 78 78 79 79 80 80 80 80 80 80 79 79 78 78 78 78 78 79 79 80 79 79 79 80 79 79 79 79 80 79 80 79 78 78 78 78 79 78 77 78 77 77 77
66 65 66 68 69 70 71 72 73 74 73 73 73 74 75 76 78 77 78 79 77 78 79 79 79 78 78 79 81 81 79 78 78 78 79 78 78 79 78 79 80 80 80 80 80 80 80 80 80 80 80 80 80 80 79 79 79 79 78 78 78 78 78
68 68 67 68 69 70 71 72 73 73 74 74 74 74 74 75 75 76 76 77 79 78 78 79 80 79 78 78 78 78 78 79 78 79 79 80 79 79 79 79 80 80 81 80 80 80 80 80 80 80 80 81 80 80 79 78 79 79 78 77 77 77 77
69 69 70 70 70 71 71 71 72 72 72 73 73 73 72 74 73 74 74 75 76 76 76 78 77 76 74 72 70 70 71 72 74 77 78 80 80 79 80 80 79 80 80 80 81 80 81 80 81 80 81 81 80 79 80 79 78 79 78 78 77 77 80
69 69 69 71 72 72 71 71 71 71 71 71 72 72 72 73 73 73 73 73 73 73 73 73 71 72 72 73 74 73 72 72 72 72 73 76 77 78 80 81 81 80 80 81 82 81 81 81 81 80 80 81 80 79 79 79 79 79 79 78 78 77 78
67 67 68 69 70 71 72 72 71 71 70 70 70 71 72 73 73 74 73 73 73 73 73 73 73 73 73 73 73 74 73 72 73 73 74 74 73 74 74 76 79 79 81 82 82 82 81 81 81 80 79 80 79 79 79 79 79 79 79 79 78 78 77
66 66 67 68 68 69 70 70 69 69 70 69 70 72 72 72 72 73 73 73 72 72 74 73 73 73 73 72 72 73 73 73 73 73 73 74 74 75 76 76 76 77 78 80 82 83 82 80 81 80 80 80 80 79 79 79 79 79 80 79 79 79 79
66 67 66 66 66 67 67 67 69 69 69 69 71 71 70 70 71 71 71 72 73 73 73 72 73 74 73 72 72 71 72 72 73 73 74 74 75 75 76 77 77 77 78 80 80 80 82 81 81 81 79 80 80 80 80 79 79 79 80 81 80 79 80
65 66 66 65 65 65 65 65 66 67 68 69 69 70 70 70 70 70 70 71 72 73 73 72 72 73 73 72 72 72 71 72 73 74 74 74 74 74 74 76 78 79 79 79 80 80 81 82 81 81 81 80 80 81 80 80 79 78 79 80 80 79 79
66 67 66 65 65 64 64 63 64 65 66 66 68 69 70 71 71 71 71 70 71 72 73 75 74 73 73 73 71 72 72 73 74 74 73 74 74 73 74 75 76 77 79 79 78 79 80 82 82 81 82 82 81 81 81 80 79 78 78 79 80 79 78
65 66 66 65 64 64 65 64 63 64 64 65 66 67 68 69 71 71 70 71 71 74 75 75 74 73 73 72 72 72 73 73 73 74 74 74 73 73 73 74 75 76 76 77 78 79 78 81 84 82 81 82 81 82 82 82 81 81 79 79 79 80 79
65 66 66 66 67 66 65 65 65 64 65 63 65 66 67 67 68 68 69 70 72 74 74 74 73 72 72 72 71 72 72 72 73 73 73 72 72 71 72 73 74 76 75 76 76 77 77 75 80 83 82 81 81 81 83 83 84 82 77 78 80 79 81
65 66 66 67 66 66 66 66 66 65 65 64 64 65 65 66 67 67 69 71 73 74 74 74 72 72 72 71 72 72 72 72 72 72 72 72 72 73 73 74 75 75 74 74 75 75 74 77 76 78 80 82 81 81 82 84 85 78 71 71 75 81 79
65 65 66 67 67 67 68 69 69 68 66 66 67 67 67 68 68 69 69 72 73 74 74 72 73 72 71 71 71 71 71 71 71 71 71 72 71 71 71 73 73 72 72 73 75 74 76 76 76 75 78 78 78 81 82 82 80 73 69 69 69 74 81
64 65 66 67 67 68 69 69 70 69 68 67 65 66 68 68 68 67 69 70 72 72 72 72 72 70 70 70 70 70 70 71 72 72 71 71 71 71 72 72 72 72 73 74 74 75 74 74 75 75 75 76 75 76 76 78 74 70 68 67 67 67 74
65 67 68 68 68 67 67 68 68 69 69 70 71 71 67 68 69 69 69 71 71 69 69 69 69 69 68 68 68 69 70 70 71 71 70 71 72 72 71 72 71 72 73 74 74 74 73 74 73 73 73 74 74 74 76 75 76 69 66 64 64 65 66
64 67 67 68 68 69 67 66 66 67 68 70 71 70 69 68 69 69 68 70 70 70 69 69 68 68 69 68 68 69 69 69 69 70 70 71 71 71 71 71 71 72 73 74 74 73 73 73 72 73 73 74 74 74 76 81 71 67 68 65 61 62 66
64 67 66 67 66 66 67 69 68 69 68 68 67 67 69 70 72 72 70 71 69 69 69 69 68 69 69 68 68 67 69 69 69 69 70 71 71 71 70 71 71 71 72 72 73 74 74 73 74 73 73 73 74 74 74 79 68 66 67 65 63 63 68
65 66 67 68 69 68 67 69 70 70 70 69 68 68 67 67 69 70 70 70 69 66 66 66 66 66 66 66 66 68 68 69 69 69 69 69 69 69 69 69 69 69 71 70 71 72 72 73 74 74 74 74 74 74 74 76 70 63 62 61 62 65 70
65 65 66 65 65 66 67 67 69 70 69 69 69 68 68 68 68 68 66 67 69 68 66 66 65 66 66 65 65 65 66 67 67 68 70 69 68 68 69 70 70 69 71 70 70 69 71 72 72 73 75 75 75 76 75 76 74 62 58 58 59 66 70
66 65 64 64 65 64 64 64 66 68 66 65 65 66 67 68 67 66 66 66 66 66 66 66 66 66 66 67 67 67 66 67 67 67 68 68 68 68 69 68 69 70 70 70 71 71 70 72 71 72 73 76 77 78 77 77 75 64 59 60 56 63 70
63 64 64 64 64 64 63 64 65 64 64 63 62 64 65 64 64 64 62 63 65 65 65 65 65 65 66 66 67 67 67 67 66 66 66 65 67 68 68 69 69 68 69 70 71 71 71 71 71 71 71 75 76 78 78 75 75 71 61 59 59 59 69
64 64 63 63 63 66 63 63 63 63 62 60 61 64 63 63 63 61 61 62 62 62 63 64 65 65 65 65 67 67 67 67 66 66 66 66 66 67 67 67 67 68 68 69 71 71 71 71 71 71 71 74 75 76 75 76 75 74 64 60 58 57 61
64 64 65 65 66 64 62 62 61 62 63 62 63 64 63 62 61 60 60 60 60 61 64 64 63 63 64 63 64 65 66 65 66 67 67 66 66 64 64 65 66 68 69 69 69 69 69 70 70 70 71 73 74 75 74 75 76 75 67 61 58 56 54
60 60 60 61 62 64 63 60 60 60 61 62 63 63 63 62 60 59 59 58 59 61 62 63 62 62 62 62 63 63 64 64 65 66 66 66 66 64 64 65 65 66 66 66 67 67 68 68 69 69 70 72 73 74 75 74 75 71 72 66 60 57 53
60 60 61 62 63 62 61 58 58 58 60 60 60 60 60 60 59 59 58 57 58 60 62 61 60 60 61 62 62 62 63 64 65 65 65 65 65 65 64 64 65 65 66 65 65 66 66 66 68 68 69 70 72 74 73 74 73 72 70 70 63 57 53
58 58 59 59 60 61 60 59 57 58 58 59 59 58 58 58 58 58 57 57 59 59 59 59 60 60 60 60 60 61 62 62 62 63 64 64 64 63 64 64 64 64 64 64 64 64 64 65 66 67 68 68 70 71 72 73 73 73 72 69 65 60 55
57 57 57 58 58 59 58 58 58 57 57 57 58 58 58 57 57 57 58 58 59 59 58 58 59 60 59 59 60 60 61 61 62 63 63 64 63 63 63 63 64 63 64 64 64 64 64 64 67 66 67 68 68 68 69 70 69 69 71 73 73 69 62
56 56 56 56 57 58 56 56 56 56 56 55 56 56 58 56 57 57 57 58 59 59 58 59 60 59 58 58 58 59 60 60 61 62 62 62 63 63 64 63 62 64 63 62 62 63 64 65 66 65 65 64 65 66 66 67 67 68 67 67 68 69 69
54 55 55 55 55 55 54 54 53 54 54 55 56 56 56 56 56 56 56 57 58 58 58 59 60 58 56 58 59 60 60 60 66 64 61 62 62 62 63 64 64 63 63 63 63 62 62 64 64 62 62 62 63 65 65 66 66 66 67 67 67 68 67
55 54 54 54 54 55 53 53 53 53 55 55 56 54 54 54 55 56 57 57 57 56 57 58 58 58 56 57 57 58 61 61 60 60 60 60 61 61 61 61 62 62 63 64 65 64 64 62 61 63 63 63 62 62 63 64 65 66 63 65 58 61 65
54 54 53 54 56 53 54 54 52 53 54 53 53 54 54 54 55 55 57 57 58 57 57 57 58 56 56 56 56 58 59 59 59 58 59 59 59 59 61 65 59 58 61 62 65 62 56 54 58 61 62 60 62 63 63 64 67 62 56 51 50 49 49
53 53 54 54 53 51 51 52 55 54 53 52 54 54 55 55 55 55 56 56 56 56 55 54 56 57 55 57 56 58 60 59 57 58 57 57 57 58 58 59 60 54 53 55 58 55 51 50 50 52 54 58 58 60 58 57 55 51 49 48 48 48 48
55 56 55 52 52 52 54 53 53 52 53 52 53 53 54 56 55 54 56 56 55 55 54 54 55 53 53 54 55 58 58 57 57 58 57 57 56 57 57 57 57 59 55 53 52 52 51 50 49 49 51 52 54 57 59 57 53 50 49 49 48 48 47

ECMWFFLT1_sfc_temp_087.txt.gz
Temp
71 71 71 71 72 74 76 76 78 78 78 78 78 79 78 78 77 77 76 75 75 74 74 75 75 75 75 75 74 74 74 75 75 75 75 74 75 74 74 75 76 75 76 76 76 76 77 77 77 78 77 77 77 76 76 76 76 78 76 76 75 75 74
71 71 69 69 68 68 71 75 77 78 78 78 78 78 78 77 77 76 76 76 76 76 75 75 75 75 76 75 75 74 74 74 75 77 76 75 76 74 75 75 76 75 75 77 76 77 77 77 77 77 77 77 77 77 76 76 76 76 76 75 75 74 75
67 66 68 69 69 70 70 71 74 76 77 78 79 78 78 77 77 77 76 76 76 75 76 76 76 76 76 75 74 74 74 74 74 75 74 76 75 76 76 75 76 76 77 77 77 77 78 78 77 77 77 77 77 76 76 76 76 76 76 75 75 75 74
67 67 68 70 70 71 71 72 73 73 75 76 78 79 78 77 77 78 78 77 76 76 75 76 76 77 76 75 75 74 74 74 75 75 75 75 75 76 76 75 75 76 76 76 78 79 80 78 78 77 79 77 77 77 76 76 76 76 76 76 75 75 75
67 68 68 69 69 70 70 71 72 72 73 75 75 76 77 78 78 77 78 78 78 77 77 77 78 78 77 77 77 77 76 75 75 75 75 75 75 76 76 77 76 76 77 78 77 77 77 77 77 77 77 77 77 76 76 76 76 76 76 76 76 75 75
66 67 68 69 69 70 71 72 72 72 72 73 73 73 74 75 76 78 78 78 77 78 76 75 76 75 76 76 78 77 76 75 75 75 76 76 76 76 76 77 77 77 77 77 78 78 77 77 78 77 77 78 78 78 77 76 76 76 76 76 76 76 76
66 67 68 68 69 70 71 72 72 73 73 73 73 74 73 73 73 74 74 74 74 72 73 73 74 74 74 75 75 76 76 77 76 76 76 76 76 77 77 77 78 78 79 77 77 78 77 77 77 78 78 78 78 78 77 76 76 76 76 76 75 75 76
65 66 67 68 70 71 71 72 71 71 72 72 72 72 72 73 73 72 72 72 73 74 74 74 74 75 74 74 74 75 74 73 73 74 74 76 76 76 76 76 77 78 77 78 78 77 78 78 79 78 78 78 78 77 78 77 76 77 76 76 75 75 77
67 67 69 71 70 71 70 70 70 71 71 71 71 71 72 71 71 72 72 72 72 72 73 74 74 75 74 73 73 73 72 73 73 73 74 76 75 76 77 77 77 76 77 78 79 78 78 79 79 78 78 78 78 77 77 77 77 76 76 76 76 75 76
65 66 67 69 70 70 69 69 69 69 69 70 70 71 71 70 71 72 72 72 72 72 73 73 73 73 74 73 73 73 72 72 73 73 73 74 73 75 75 76 77 76 77 78 79 79 78 78 78 78 77 77 77 77 77 77 77 77 76 76 76 75 75
65 64 65 66 66 68 68 68 68 68 69 69 70 70 71 71 71 72 72 72 72 72 73 73 73 73 73 74 73 72 72 72 72 73 73 73 73 73 73 74 75 75 78 78 78 79 78 77 77 77 76 77 77 77 77 77 77 76 77 77 77 76 76
63 63 63 64 65 66 66 66 67 66 66 66 67 69 69 71 71 71 71 71 72 72 72 73 73 73 73 73 73 72 72 72 72 72 73 74 73 74 74 74 74 74 75 77 79 78 78 78 77 78 77 77 78 78 78 77 77 77 77 78 78 77 77
63 63 63 64 64 65 65 65 65 65 65 66 67 68 69 69 70 71 71 71 72 73 73 72 72 73 72 72 72 72 72 72 72 72 73 73 73 74 74 75 75 75 76 76 76 77 78 78 77 77 77 77 78 78 78 78 78 77 77 77 77 77 77
64 62 62 62 63 63 63 64 64 65 65 65 65 66 67 69 70 70 70 70 71 72 72 72 72 72 72 71 71 71 71 72 72 73 73 73 73 73 74 74 74 75 76 76 75 76 76 76 77 78 78 78 78 78 79 78 78 77 77 77 77 77 77
61 61 61 61 60 61 63 63 64 64 65 65 65 66 66 67 68 69 70 71 71 71 72 72 72 72 71 71 70 71 71 71 72 73 73 73 73 73 73 73 73 74 74 74 75 77 76 75 77 78 77 78 78 78 79 79 79 79 78 77 77 77 77
62 62 62 61 61 62 62 63 64 64 64 64 65 65 66 66 67 69 70 70 71 71 72 71 71 72 72 71 71 71 72 71 72 72 72 72 71 71 71 71 72 73 73 74 75 74 74 74 73 76 78 78 78 78 79 79 80 79 75 77 79 77 78
62 62 62 62 62 63 63 63 64 64 64 64 64 65 66 66 67 68 69 71 71 70 71 72 71 71 71 71 71 71 72 71 72 72 71 72 72 71 72 72 72 72 73 73 73 73 73 74 73 74 77 79 79 79 80 81 82 76 70 70 73 79 76
62 63 63 64 64 64 64 65 65 66 66 66 67 66 66 67 68 68 68 70 70 70 71 71 71 70 70 71 71 71 71 71 71 71 71 71 71 71 72 73 73 72 71 71 72 72 74 74 73 72 73 76 78 79 80 81 78 72 69 68 68 72 77
62 63 64 64 64 64 65 65 66 67 67 66 66 66 66 67 67 67 67 68 69 69 68 68 69 69 69 69 70 69 70 71 70 70 70 70 71 71 72 72 72 71 72 72 73 73 71 71 72 73 72 73 72 76 78 79 75 70 69 67 67 67 72
64 64 65 65 65 64 64 64 65 68 68 68 68 69 68 67 67 68 69 69 69 68 67 66 66 67 67 68 68 69 69 69 70 70 70 70 70 70 70 71 71 72 72 73 73 73 72 72 71 71 71 72 72 72 73 73 74 69 67 66 65 65 68
62 65 65 65 66 66 64 63 63 64 67 68 68 68 68 67 68 67 68 69 69 69 67 67 67 66 67 67 68 68 69 70 69 69 69 70 70 70 69 70 70 70 71 72 71 71 72 72 72 72 73 73 73 72 74 78 70 66 65 63 61 62 65
61 63 64 65 65 64 66 66 65 65 64 66 66 67 68 67 68 68 67 67 66 67 67 67 66 66 66 66 67 66 67 68 67 67 67 68 68 69 68 69 69 69 70 71 70 70 70 71 72 72 72 73 73 72 72 75 67 64 63 63 62 62 67
62 62 65 66 67 66 66 67 67 66 66 65 64 64 65 66 67 68 67 66 65 63 63 64 64 64 64 64 65 65 65 65 66 66 67 67 67 67 68 68 69 68 70 70 70 69 69 69 70 71 71 72 72 72 72 73 70 65 62 61 60 64 68
62 62 64 64 66 66 66 66 67 68 68 66 65 64 64 66 66 65 64 64 65 64 63 63 63 64 63 63 64 64 64 65 65 65 65 65 65 65 66 68 69 68 71 70 69 69 69 70 70 70 70 71 71 73 72 72 71 62 61 59 60 63 69
63 62 62 63 63 64 65 65 65 66 66 65 64 63 64 65 63 63 62 63 63 63 62 62 62 62 63 63 64 64 64 65 65 65 64 64 64 65 65 66 67 69 69 68 68 69 68 70 69 69 69 71 71 73 72 72 71 64 61 59 58 63 69
60 60 61 61 62 62 63 63 64 64 63 62 61 63 63 63 63 62 61 61 62 61 61 61 61 61 62 63 64 64 64 64 64 64 64 63 64 64 65 65 65 65 67 68 68 68 68 69 69 68 69 70 71 71 72 71 72 71 63 60 59 58 66
61 61 61 62 62 63 61 61 61 60 61 60 61 63 63 62 61 59 60 60 59 59 59 60 61 61 61 62 63 64 63 63 63 63 63 62 62 63 64 63 62 63 64 66 68 68 68 68 69 69 69 71 71 72 71 72 73 72 63 61 58 56 58
60 61 62 62 63 61 59 59 59 59 59 59 61 61 61 59 58 57 57 58 58 57 59 60 60 60 61 61 61 62 63 63 64 64 63 63 63 61 61 62 62 63 63 65 65 65 66 67 68 69 70 71 71 71 71 73 74 72 66 62 58 55 53
58 58 58 58 59 61 60 58 57 57 58 59 59 60 60 60 58 57 57 56 56 58 58 59 59 59 60 60 60 61 61 61 62 62 63 63 63 61 61 61 62 62 63 62 63 63 64 65 66 67 68 69 70 71 72 72 74 70 71 66 60 59 55
57 57 58 59 59 59 59 56 56 56 57 57 58 58 58 59 58 58 57 55 56 57 59 58 58 59 60 60 59 60 60 61 61 62 62 63 62 62 61 61 62 62 62 62 61 61 62 63 64 65 66 66 67 68 67 69 69 70 69 68 61 58 56
58 57 57 57 58 58 58 56 55 56 56 56 56 56 55 56 58 58 56 55 57 57 56 57 58 59 58 57 58 58 58 59 59 60 61 61 61 61 61 61 61 60 60 61 61 60 60 61 63 63 63 64 64 64 64 65 65 68 70 68 65 60 58
56 56 56 56 56 57 56 56 56 56 56 55 55 56 56 55 56 55 54 55 57 56 56 58 58 58 57 57 57 57 57 58 59 59 59 60 60 60 59 59 59 60 59 59 59 59 59 60 62 62 62 62 61 61 62 63 63 65 68 70 70 68 62
55 56 56 55 55 56 55 55 54 54 54 54 53 54 55 54 55 54 54 55 56 56 56 58 58 57 56 55 55 56 56 56 57 57 57 57 58 59 60 59 58 59 59 58 57 58 60 61 61 60 60 59 59 60 61 62 62 63 64 64 64 64 65
53 53 54 54 55 54 53 53 52 53 53 53 52 53 54 54 53 53 54 54 55 55 56 57 58 55 53 55 55 57 57 57 63 60 56 57 58 57 57 58 59 58 58 58 58 58 58 59 59 57 58 57 58 59 60 60 62 62 63 63 63 61 59
53 53 52 52 53 54 52 52 52 52 54 52 51 52 52 52 53 53 53 54 54 54 56 56 56 55 54 54 54 55 59 58 57 57 56 55 56 57 56 56 58 57 57 58 60 60 59 57 57 59 58 57 57 57 58 59 60 63 59 59 55 54 55
53 52 52 53 54 52 52 52 51 52 52 50 50 51 51 52 53 53 54 54 54 53 55 56 55 53 52 53 53 55 56 57 56 55 56 55 54 55 56 61 56 55 56 57 62 59 53 52 56 58 58 56 58 58 57 58 62 58 51 48 47 47 47
52 52 52 52 50 48 50 51 53 53 52 51 52 53 53 53 53 52 53 53 52 53 52 53 55 53 52 54 53 56 58 56 55 55 54 54 54 54 55 55 55 52 51 52 55 52 48 47 47 48 50 55 55 58 56 54 51 47 47 47 47 47 46
53 54 53 50 50 51 52 52 52 52 52 50 52 51 51 53 52 50 52 52 52 51 50 52 53 51 51 52 52 56 55 53 54 55 54 54 52 53 53 53 53 54 52 51 51 51 49 47 46 46 47 48 50 53 55 54 51 49 47 47 47 47 46

ECMWFFLT1_sfc_temp_090.txt.gz
Temp
70 69 69 70 71 73 74 75 75 75 76 76 76 77 76 76 76 75 75 74 74 74 74 74 75 75 75 75 75 75 75 75 75 75 75 75 76 75 75 76 76 76 77 77 77 77 78 78 78 79 79 79 79 78 78 78 78 79 78 78 78 78 78
68 69 69 69 70 71 74 75 76 76 75 76 76 76 76 76 75 75 75 75 75 75 74 74 75 75 75 75 75 74 74 75 76 77 76 75 76 75 76 76 76 76 76 77 77 78 78 79 79 78 78 79 79 79 79 78 78 78 79 78 78 77 78
67 68 70 70 70 71 72 73 75 76 76 76 76 76 76 75 76 75 75 75 74 74 75 75 75 75 75 75 74 74 75 75 75 76 76 76 76 77 76 77 77 77 78 78 77 78 79 79 78 78 79 78 79 78 78 78 78 78 78 78 78 78 77
67 68 70 71 71 71 72 72 74 75 75 75 76 77 76 76 76 76 76 76 75 75 74 75 75 76 75 75 75 74 74 75 76 77 77 77 77 77 76 76 76 77 77 77 79 79 81 79 79 78 80 78 78 79 78 78 79 78 78 78 78 78 78
68 69 69 70 70 70 71 72 72 73 75 75 75 76 76 77 77 76 76 77 76 75 76 76 77 77 76 76 77 76 76 76 75 76 77 77 77 76 76 77 77 77 77 78 78 78 78 79 79 78 78 78 79 78 78 78 78 78 78 78 78 78 78
68 69 69 70 70 69 70 71 72 73 73 73 73 74 75 75 76 76 75 75 75 75 75 76 76 76 75 76 77 77 76 76 76 76 76 76 76 76 77 77 77 78 78 78 79 79 78 79 79 79 79 79 79 79 79 79 79 79 78 78 78 78 78
68 69 69 69 70 70 71 71 72 72 72 72 73 74 74 75 74 74 74 74 75 74 76 75 75 75 75 76 75 76 75 76 75 76 77 77 77 77 77 77 78 78 79 79 78 79 78 78 78 79 79 79 79 79 79 78 78 78 78 78 77 77 78
67 68 69 69 70 70 71 71 71 71 72 72 72 72 73 73 73 73 73 75 75 77 75 75 74 75 75 75 76 76 76 76 76 77 76 77 77 77 77 77 78 78 78 79 79 78 79 78 79 79 79 79 79 79 79 78 78 79 78 78 77 78 79
67 67 68 70 70 71 70 70 71 71 71 71 71 71 72 73 73 73 73 74 74 75 74 75 75 75 75 75 75 75 75 76 75 76 76 77 77 78 78 78 78 78 78 79 80 79 79 79 79 79 78 79 79 78 79 78 79 79 78 78 78 78 79
66 67 68 70 70 70 69 69 70 70 70 70 70 70 71 72 72 72 72 73 73 73 73 75 75 74 75 74 74 75 75 75 75 75 76 76 77 77 78 79 79 78 78 79 80 80 79 79 79 79 78 78 78 78 78 78 78 78 79 78 78 78 78
66 66 67 68 68 68 68 68 68 68 70 70 70 71 71 71 71 71 71 72 73 74 74 74 74 74 74 74 74 74 74 74 74 74 74 75 75 76 78 78 79 78 79 79 79 80 79 78 79 78 78 78 78 78 78 79 79 78 79 79 79 79 79
65 65 65 66 66 66 65 66 67 67 68 69 71 70 70 70 70 71 71 72 73 74 73 74 74 74 74 74 74 73 73 73 74 74 74 75 75 75 76 77 78 78 78 79 79 79 80 79 79 79 78 78 79 79 79 79 79 79 79 80 79 79 79
64 64 64 64 64 64 65 65 66 66 68 69 69 70 70 70 71 71 72 72 73 74 73 73 73 73 73 73 73 73 73 73 73 73 73 74 74 75 75 76 77 77 77 78 78 79 79 80 79 78 79 78 79 79 79 79 79 78 78 79 79 79 79
63 64 64 64 64 64 63 64 65 64 65 66 67 69 70 71 71 72 72 72 72 73 73 73 73 72 72 72 72 72 72 72 72 71 70 71 72 73 74 75 76 76 77 77 77 78 78 79 79 79 79 79 79 79 79 79 79 78 78 79 79 79 79
62 62 63 63 63 63 65 65 64 64 64 65 66 67 68 70 70 71 71 72 72 72 72 72 72 72 72 71 70 71 71 71 71 71 71 72 71 71 73 74 75 75 76 76 77 78 79 79 79 78 78 79 78 79 80 80 80 80 79 79 78 79 79
61 62 62 62 63 64 64 65 64 64 64 64 65 66 67 68 69 69 70 70 71 72 73 72 71 71 70 70 70 71 72 71 72 72 71 71 71 71 72 73 73 75 75 75 76 76 77 77 77 78 78 78 78 79 80 80 81 79 74 76 80 79 80
59 60 62 63 63 64 64 64 65 65 64 65 65 66 66 67 68 69 70 70 71 71 71 71 71 71 71 71 71 72 72 71 71 71 71 71 71 71 71 72 72 73 74 74 75 75 75 76 76 77 78 78 79 79 80 81 82 75 69 69 71 79 79
59 60 62 63 64 64 65 65 65 65 66 66 66 67 67 66 67 68 68 69 69 70 70 70 70 69 70 71 71 71 71 71 71 71 71 71 71 71 72 72 72 72 72 73 74 74 75 75 75 75 76 77 78 79 80 81 77 70 68 68 68 72 79
60 62 63 63 64 65 66 66 66 65 65 65 65 66 66 66 65 65 66 66 67 67 68 68 68 68 68 69 69 70 70 70 70 70 71 71 71 71 72 72 72 72 72 73 74 74 73 73 74 75 75 76 75 76 77 78 72 67 67 66 66 66 73
61 63 64 65 65 64 65 66 66 67 67 66 67 68 68 67 66 66 68 68 67 66 65 65 65 65 66 66 67 68 69 70 70 70 70 70 70 70 70 70 70 71 72 73 73 73 73 74 73 74 74 75 75 75 77 77 69 64 64 64 64 64 67
61 64 64 65 65 66 64 64 64 65 65 67 68 69 69 69 69 68 68 69 68 66 63 64 64 64 66 66 66 66 67 68 68 68 69 69 69 69 68 69 69 70 71 71 71 71 70 71 72 73 73 74 75 75 76 76 65 64 63 61 61 61 66
62 64 65 65 65 64 65 66 65 65 64 66 66 67 68 68 69 68 66 66 66 67 66 65 64 65 65 66 66 65 66 67 66 66 66 66 66 66 67 68 69 69 71 71 70 71 71 71 72 72 72 73 73 73 73 75 64 62 62 61 60 63 72
62 62 65 66 67 65 66 66 66 66 66 66 66 65 65 66 66 66 66 66 65 64 64 65 64 64 65 65 65 65 66 65 65 65 65 65 65 65 65 66 67 68 71 70 70 70 70 70 71 71 71 72 72 72 72 73 67 61 60 59 60 66 72
62 62 63 64 65 66 66 66 67 67 67 66 65 65 65 66 65 65 63 63 64 64 63 63 63 64 64 64 64 64 65 65 65 65 65 65 64 64 65 66 67 67 69 69 69 69 70 70 70 71 71 71 71 72 72 72 70 61 59 59 59 64 71
62 62 62 63 64 64 65 65 66 66 66 65 64 64 66 65 64 63 63 63 63 63 62 62 62 63 63 64 64 64 64 65 65 64 64 64 64 64 64 65 66 67 67 68 69 70 70 70 70 70 71 72 71 74 73 72 71 64 61 60 59 64 70
60 60 61 62 63 64 64 65 64 64 63 63 63 65 65 65 64 62 61 62 63 62 61 61 61 62 63 64 64 64 64 64 64 64 63 63 64 64 64 65 65 65 66 67 68 69 69 70 70 70 70 71 71 71 72 72 71 71 63 60 59 59 66
60 61 61 61 62 64 62 61 61 60 60 60 61 64 64 64 62 61 61 61 60 60 60 61 62 62 62 62 63 64 64 64 64 63 64 64 63 64 64 63 64 64 65 66 67 68 67 68 69 70 70 71 71 71 70 71 71 69 60 57 56 56 61
60 60 61 62 63 62 61 61 60 59 59 59 61 62 62 62 60 59 60 59 58 59 60 60 61 61 61 61 62 63 63 63 64 64 64 64 63 62 62 63 64 64 64 65 65 64 65 66 68 68 69 69 69 67 66 69 70 66 63 57 54 54 57
58 58 58 58 59 62 62 60 59 59 59 60 60 60 61 62 60 59 59 58 57 59 60 60 60 61 61 60 61 61 62 61 62 62 63 63 63 62 61 62 63 63 63 62 62 62 63 64 65 66 66 67 67 68 67 66 68 66 67 62 53 53 54
57 57 58 59 60 60 61 58 59 59 60 60 60 60 61 61 59 58 58 56 58 59 60 60 59 59 60 60 60 60 61 61 62 61 62 62 62 62 61 61 62 62 62 61 61 61 62 62 63 63 64 65 65 66 65 66 66 67 67 66 56 53 52
57 57 57 57 58 59 59 58 57 58 58 58 58 59 58 60 59 59 56 57 58 58 59 59 59 59 58 58 58 59 59 60 60 60 61 61 61 61 61 61 61 60 60 61 61 61 61 61 63 62 63 63 63 63 63 64 64 66 67 66 63 58 54
56 56 56 57 57 58 57 57 57 57 55 55 57 58 58 58 59 57 56 57 58 58 59 59 58 58 57 57 58 58 59 60 60 60 60 60 60 60 60 60 60 60 60 60 60 60 60 61 62 62 62 61 61 61 62 63 63 64 66 67 66 64 59
55 56 56 55 56 57 56 56 56 55 55 54 55 56 56 56 57 57 57 57 58 59 59 58 57 57 56 56 57 58 58 59 59 58 59 59 59 60 60 60 59 59 60 59 59 60 60 61 61 60 61 59 59 60 61 61 62 63 64 64 63 62 62
54 54 55 56 56 56 55 55 54 54 54 54 53 54 55 55 55 55 56 57 58 58 59 58 58 55 55 56 57 59 59 59 61 59 57 58 59 58 59 60 60 59 58 59 59 59 59 59 59 58 59 58 59 59 60 61 62 63 62 62 61 59 59
53 54 53 54 55 56 54 55 54 54 55 53 53 53 54 54 54 54 55 56 56 57 58 58 57 56 55 56 56 58 60 58 58 58 57 57 57 58 58 58 58 58 58 60 62 61 60 59 58 60 59 59 58 57 58 60 60 63 58 57 52 53 55
54 54 54 55 56 55 55 55 54 54 54 52 52 53 54 54 54 54 56 56 56 57 59 58 57 55 55 56 56 58 58 57 57 57 57 57 56 56 58 60 54 54 58 59 61 57 51 51 58 59 58 57 59 60 59 60 62 55 48 45 45 45 46
53 53 54 54 53 53 54 53 55 54 54 52 53 55 55 54 53 53 55 54 55 56 56 56 57 56 55 56 56 58 58 56 56 56 55 55 55 55 56 56 57 50 48 51 54 52 48 45 45 46 49 55 58 59 55 54 50 47 46 45 45 44 44
55 56 55 53 53 53 53 54 54 54 54 52 54 54 53 53 52 52 54 54 54 54 54 56 56 54 54 54 55 58 58 56 56 56 55 55 54 54 55 54 54 55 51 49 50 50 47 45 45 44 45 46 50 55 59 55 51 47 45 45 45 45 44

ECMWFFLT1_sfc_temp_093.txt.gz
Temp
80 79 79 79 80 81 82 83 83 83 83 83 84 85 84 85 83 83 83 81 81 81 81 82 82 83 83 83 83 84 85 85 85 85 85 85 86 85 85 87 87 85 87 87 87 87 88 88 87 88 87 87 87 86 86 86 86 87 86 86 86 86 86
77 79 79 80 80 81 82 83 83 83 83 83 84 84 84 84 83 83 82 82 82 82 82 82 82 82 83 83 84 83 83 84 84 85 86 84 84 84 86 86 86 85 85 87 87 87 87 88 87 87 87 87 87 87 87 86 86 86 87 86 86 86 86
77 78 78 79 79 80 81 82 83 83 83 84 85 84 83 83 83 82 82 82 81 82 83 83 82 83 83 83 83 83 84 85 84 85 85 87 86 88 87 86 86 87 88 88 86 88 88 88 86 87 87 87 88 87 86 86 86 86 86 85 86 87 85
73 76 77 78 79 80 81 81 82 82 83 83 84 85 83 82 83 83 83 82 82 82 81 83 84 84 84 83 83 83 83 84 85 87 88 88 88 88 86 86 85 87 87 87 89 88 90 88 87 86 86 86 86 87 87 87 88 87 86 85 86 86 85
70 73 76 77 78 79 79 80 81 81 82 83 83 84 84 83 83 83 83 84 83 82 83 84 86 86 85 85 86 85 84 85 85 86 87 88 87 87 86 88 88 88 88 89 88 86 86 86 88 87 86 86 87 87 86 87 87 86 86 86 86 86 87
68 69 70 72 75 77 78 80 81 81 81 80 81 82 83 82 85 84 83 83 82 83 83 83 84 84 84 85 86 85 84 84 84 84 85 85 85 87 87 87 88 88 89 88 89 89 87 87 88 88 88 89 89 89 89 88 89 89 87 86 86 87 88
68 68 68 69 70 71 73 75 78 80 81 81 81 82 82 82 83 83 83 83 82 81 83 83 84 83 83 85 84 84 83 85 84 85 86 86 86 86 87 88 88 89 90 89 88 88 88 87 87 87 88 89 88 89 88 86 87 88 87 86 85 86 86
71 68 68 70 70 71 71 72 75 78 80 81 81 80 79 82 82 82 82 84 83 85 83 82 82 82 82 83 83 83 84 84 84 86 86 87 86 86 87 88 88 88 88 88 88 88 89 88 89 88 88 88 88 87 88 87 86 88 88 86 86 86 89
74 72 70 71 71 71 72 73 73 75 77 79 80 79 79 80 81 81 81 81 82 82 81 82 82 82 82 82 82 82 83 83 83 84 85 87 88 88 90 90 89 88 88 89 90 89 89 89 90 87 87 87 87 86 87 86 87 88 87 87 86 86 88
73 72 72 72 73 72 72 72 73 74 73 75 77 77 79 79 79 80 80 80 80 81 81 81 81 81 80 81 81 82 82 82 82 82 83 84 86 88 89 91 90 89 89 90 91 90 88 88 88 87 86 86 86 86 86 86 87 87 88 87 87 87 86
73 73 73 72 71 71 72 72 72 72 72 74 76 77 78 77 77 78 79 79 79 80 81 81 81 79 78 77 77 79 80 81 82 82 81 80 82 85 88 89 90 89 89 90 90 90 90 87 87 86 86 87 87 86 86 87 87 86 88 88 88 88 88
72 72 71 71 71 71 71 71 71 71 71 72 74 76 76 76 75 75 76 78 80 80 80 80 80 80 79 77 75 77 79 81 82 82 82 82 82 83 86 89 89 89 89 90 89 89 90 89 89 88 86 86 87 88 87 87 87 86 87 89 89 88 88
68 67 68 69 69 70 70 71 71 71 71 71 73 75 75 75 75 75 76 77 79 80 79 77 76 77 76 75 75 75 76 79 81 82 82 81 81 82 83 86 88 89 89 89 88 88 89 90 88 88 88 87 88 88 87 87 88 86 86 87 88 88 87
67 68 67 67 68 69 68 67 68 70 71 71 73 74 74 75 75 75 76 76 77 78 80 78 77 77 76 75 75 75 75 76 77 78 79 79 80 81 81 82 85 84 86 86 87 88 89 90 89 89 89 89 88 88 88 87 87 87 86 87 88 88 88
67 67 67 68 68 68 67 67 67 66 68 69 70 71 72 73 75 75 76 77 78 79 79 79 77 76 77 75 74 74 75 74 74 73 72 73 76 78 79 80 81 82 84 84 86 89 89 89 89 88 88 88 88 87 89 89 89 90 88 87 87 88 88
67 67 68 68 69 70 69 69 69 68 68 69 69 69 70 72 74 74 73 73 75 76 75 75 75 75 74 74 73 73 72 72 72 72 73 73 73 73 75 79 81 82 82 83 84 84 84 85 85 87 87 87 87 88 89 89 90 86 78 80 87 88 89
67 67 68 69 69 70 70 70 70 70 69 69 70 70 70 71 73 72 71 72 73 74 74 74 71 71 71 71 72 72 72 72 72 72 72 73 72 73 74 76 78 78 79 80 81 82 82 83 84 86 88 87 88 88 90 91 90 75 72 70 70 82 86
66 67 68 69 70 71 71 70 69 69 69 70 70 70 70 69 69 70 70 72 73 73 73 74 74 73 73 74 73 73 72 72 72 71 71 72 72 73 75 76 76 77 77 78 79 79 83 84 83 83 85 87 87 88 89 89 71 65 67 68 67 73 83
68 68 69 69 70 71 73 72 70 68 68 68 69 69 69 69 68 67 68 69 71 73 73 73 73 74 73 74 75 75 74 73 72 72 72 72 73 73 75 75 76 76 77 77 78 79 80 81 82 83 84 85 84 85 86 84 68 63 64 66 66 67 76
71 72 72 72 71 70 70 71 71 69 68 68 68 69 69 68 67 66 67 68 68 68 68 68 69 70 70 71 71 72 72 72 73 72 72 73 73 73 74 74 74 75 76 77 78 77 76 78 79 80 81 82 83 83 85 81 68 63 62 63 64 65 72
70 71 71 71 71 71 69 68 68 69 69 69 68 68 69 69 69 68 68 69 69 68 66 67 67 67 69 69 69 68 67 67 67 68 69 70 71 72 73 72 73 74 75 76 76 75 74 74 73 75 80 82 84 84 84 80 63 62 61 61 63 63 73
70 72 72 72 70 69 69 70 69 70 69 70 69 69 71 70 70 68 68 70 70 70 68 67 66 67 67 67 68 67 67 67 66 66 67 68 68 69 70 71 72 72 72 74 75 76 75 73 74 75 79 81 82 83 82 80 62 61 61 61 63 67 82
72 72 72 72 72 71 71 71 71 71 71 70 68 67 67 67 68 68 67 66 68 67 68 68 66 65 65 66 67 68 69 67 67 66 65 66 65 65 66 67 69 71 73 73 75 75 76 75 75 75 77 78 79 79 79 81 67 60 59 59 60 73 82
73 72 72 72 71 71 71 71 72 72 71 68 66 66 66 66 65 64 63 64 64 65 64 66 66 66 65 65 67 68 68 69 68 67 67 66 66 66 67 69 70 71 73 73 74 75 76 77 77 76 75 75 75 77 77 78 67 58 58 58 57 70 80
73 73 73 73 73 72 73 72 73 73 71 70 66 65 67 68 67 65 64 64 64 65 64 63 65 66 66 67 68 67 68 69 69 69 68 68 68 68 68 69 70 72 73 74 76 75 76 76 77 77 77 77 76 75 77 74 67 58 57 57 57 69 78
70 72 72 73 73 73 71 71 71 71 71 70 69 71 70 71 69 66 65 66 69 68 67 66 64 66 67 68 68 69 69 69 68 69 69 69 70 70 69 70 71 72 73 75 76 76 75 75 76 76 75 74 72 72 71 69 69 62 55 56 57 60 73
69 72 72 72 70 70 71 71 71 71 70 68 68 70 70 68 67 65 65 66 66 66 67 67 67 66 66 67 70 70 69 67 67 69 69 70 69 70 69 69 70 71 72 74 76 76 73 71 74 74 74 75 74 74 72 72 71 64 54 54 54 56 64
70 70 72 70 69 69 70 70 69 70 70 70 70 70 68 66 63 63 63 63 63 65 67 67 67 68 67 67 67 68 69 69 68 68 69 69 69 68 68 69 70 71 73 75 73 72 72 73 73 74 74 75 74 73 73 72 70 71 58 54 53 52 56
67 68 68 68 69 70 70 68 69 69 70 72 72 72 71 69 65 64 63 62 62 64 66 67 67 67 66 66 66 66 66 66 67 67 68 69 69 69 69 70 70 70 70 69 70 70 71 71 73 74 74 73 74 74 72 72 72 67 67 57 53 52 53
66 67 68 70 71 70 70 67 66 66 67 68 69 70 70 69 65 64 63 62 65 67 66 66 65 66 66 66 66 66 67 67 68 68 70 70 69 69 68 68 69 69 69 69 70 70 70 70 71 72 73 74 73 73 72 71 72 68 65 64 55 53 52
65 66 68 68 68 68 69 67 65 66 65 66 66 67 68 68 65 63 62 63 65 65 66 66 67 66 66 66 67 67 67 67 67 68 69 69 69 68 68 68 69 68 68 69 69 69 69 69 71 70 71 71 71 70 69 70 71 72 68 64 62 56 54
63 64 65 66 66 67 67 67 66 65 64 63 65 65 66 67 67 63 63 65 65 65 64 65 65 65 65 66 66 66 68 67 68 68 68 67 68 67 67 67 68 67 68 69 69 68 68 68 70 70 70 70 69 68 68 69 70 71 72 69 68 66 60
62 63 64 64 64 65 67 67 66 65 65 64 66 67 67 66 66 65 65 65 67 66 65 64 63 63 64 64 65 65 66 65 66 67 67 67 68 69 68 68 68 67 67 68 68 68 68 68 68 69 68 67 67 67 68 69 70 70 70 69 69 69 68
62 62 63 63 63 64 65 65 65 64 64 62 64 65 65 65 65 66 66 67 68 68 66 65 65 65 65 66 66 66 67 66 64 65 66 67 67 67 68 68 69 68 67 67 67 67 67 68 67 65 66 66 67 67 68 69 70 69 67 67 66 66 67
62 62 62 62 62 63 64 64 64 64 64 63 64 64 64 64 65 66 65 66 67 66 65 63 63 64 65 66 67 66 65 67 66 66 65 65 66 66 64 65 66 66 67 67 67 66 67 66 67 67 67 68 66 65 66 67 67 66 57 58 52 57 62
63 62 62 63 62 62 62 62 62 62 62 62 63 64 64 64 64 66 68 68 67 66 64 63 63 63 63 64 65 66 65 65 65 64 64 65 65 65 65 60 54 57 64 66 62 57 50 52 63 64 66 67 68 67 65 66 66 54 45 44 45 45 45
63 63 62 62 61 61 61 61 61 62 62 62 63 64 64 63 64 65 66 66 66 66 64 64 63 63 63 63 63 63 63 63 63 63 62 62 63 63 63 65 63 51 48 51 55 51 45 44 44 45 49 59 65 64 58 55 51 46 44 43 43 43 44
65 65 64 63 62 61 60 60 60 62 62 63 63 64 64 65 65 65 67 65 66 65 64 63 63 62 62 63 63 62 62 63 62 62 62 61 62 62 62 62 62 62 54 50 49 48 46 45 44 44 44 45 51 59 66 58 51 44 43 44 44 44 43

ECMWFFLT1_sfc_temp_096.txt.gz
Temp
85 87 88 88 88 88 89 89 89 90 90 90 91 92 91 92 91 91 90 89 88 87 88 88 88 88 88 88 89 89 90 90 90 90 90 91 91 91 91 93 92 90 93 93 92 91 92 92 91 92 91 90 91 90 89 89 89 91 90 89 89 89 89
82 86 88 88 87 88 89 89 89 90 90 90 91 91 91 91 91 90 89 89 88 88 88 88 88 88 88 88 90 89 88 89 89 89 91 90 90 90 92 92 92 90 90 92 93 92 92 93 92 91 91 91 91 90 91 90 89 89 91 90 90 89 90
77 83 86 87 86 88 88 89 90 90 91 91 92 92 91 90 90 88 88 89 88 88 89 89 88 89 89 89 89 88 89 90 90 90 91 93 92 94 93 92 92 93 94 93 92 94 94 93 92 92 92 92 93 90 89 90 89 90 90 89 90 91 88
73 78 83 85 86 87 88 89 89 90 91 91 92 93 91 89 90 89 89 89 88 89 87 90 90 91 90 88 88 88 89 89 90 92 93 93 94 94 93 92 92 94 93 93 95 94 97 94 93 91 91 91 90 92 92 91 92 91 90 89 90 90 89
77 78 81 83 84 86 87 88 89 89 90 91 91 91 91 90 90 90 90 91 90 89 91 92 94 93 92 91 92 92 90 90 90 91 92 93 93 93 93 94 94 94 94 95 94 92 91 92 93 92 92 90 91 91 90 91 92 90 89 89 89 90 91
77 78 79 82 84 85 86 88 89 89 89 89 89 90 91 90 92 92 91 90 89 90 90 91 93 92 91 93 93 93 91 90 90 89 90 91 92 93 93 93 94 94 96 94 95 95 93 93 93 93 93 94 94 94 93 93 93 93 91 90 90 91 94
76 75 76 79 83 85 87 88 89 89 89 89 90 91 91 90 90 90 91 90 88 88 91 91 93 91 91 92 91 91 91 92 91 91 91 92 92 92 92 93 93 95 96 95 94 94 94 93 92 92 93 94 93 94 92 90 90 91 91 89 89 89 89
78 74 72 74 80 84 87 87 89 89 88 90 90 88 87 88 89 89 89 90 89 93 89 90 90 89 89 90 91 91 91 91 92 92 92 93 93 92 93 93 93 94 94 94 94 94 95 93 95 94 93 94 93 92 93 91 89 93 92 90 89 90 94
80 78 74 72 73 75 78 80 83 86 88 88 89 87 87 88 87 87 87 87 87 88 88 89 89 89 88 89 89 89 91 91 91 92 92 93 94 95 95 95 94 94 93 94 96 95 95 95 95 92 92 92 91 90 91 89 91 92 91 90 89 89 92
80 78 77 74 71 71 74 77 74 75 80 84 86 86 87 87 86 86 86 86 86 86 87 87 88 88 87 88 88 89 89 89 90 91 93 94 94 94 95 97 97 96 95 95 97 97 95 94 94 92 90 91 90 90 90 90 91 92 93 91 91 90 89
82 79 77 73 71 72 73 73 72 73 76 78 80 83 84 85 85 85 85 86 86 86 87 86 86 85 85 86 86 87 88 88 88 89 88 88 90 93 96 96 97 97 96 96 96 97 96 93 93 91 90 92 91 91 90 91 91 90 93 93 93 92 92
80 80 77 76 72 71 71 71 72 73 74 75 75 75 78 80 82 83 84 85 86 86 86 85 85 84 84 84 85 85 86 88 89 88 88 87 88 88 92 95 96 96 96 96 95 95 96 94 94 93 91 91 92 92 91 91 91 90 91 94 95 94 93
79 79 78 79 75 74 72 72 72 73 74 75 76 76 76 77 77 78 79 81 83 85 84 84 84 84 83 83 84 83 84 86 87 89 88 87 87 88 90 93 95 96 96 96 95 95 96 96 94 93 93 92 92 93 92 91 92 90 90 92 93 93 92
74 75 75 76 75 73 72 72 72 72 72 72 73 75 76 75 75 75 76 78 81 83 84 84 83 82 82 82 82 82 81 82 84 85 86 86 86 86 87 89 92 92 93 93 93 94 95 96 96 95 94 94 93 93 93 92 92 91 91 91 93 93 93
72 72 72 72 71 70 69 69 71 72 73 73 73 73 73 74 75 76 76 78 80 83 83 82 81 81 82 81 79 78 78 78 79 80 81 81 82 82 84 86 89 89 90 90 91 95 95 96 96 95 94 95 94 93 95 96 95 96 93 92 91 92 93
72 72 71 68 69 69 71 71 71 72 73 73 74 73 72 72 73 74 75 76 79 81 81 80 79 78 78 77 77 77 78 77 78 78 77 77 77 78 80 83 85 87 87 88 90 90 91 92 93 95 94 93 93 93 96 95 97 91 83 84 91 93 95
72 69 67 70 71 74 74 74 73 72 73 73 73 70 71 73 74 74 74 75 78 79 80 80 79 79 79 77 77 77 76 76 76 77 76 76 76 76 77 79 81 82 83 85 87 88 88 89 90 92 94 94 94 94 96 98 91 72 74 74 75 87 91
71 68 69 70 75 74 73 73 73 72 73 73 72 72 72 72 72 72 72 74 75 75 76 77 77 77 77 77 78 77 76 75 76 77 78 78 77 77 77 77 77 78 81 83 85 85 88 89 89 89 92 94 95 95 95 94 68 67 66 71 71 76 87
71 70 74 75 74 73 75 74 74 73 72 72 71 72 73 74 73 71 72 73 74 75 75 76 76 76 76 77 79 79 78 78 78 78 79 79 79 79 79 78 76 77 77 80 84 85 84 85 88 89 89 91 90 92 94 91 67 65 66 67 67 68 78
76 76 77 77 77 75 72 72 72 72 72 72 73 72 71 72 72 72 73 72 72 71 71 72 71 72 73 74 75 77 78 79 79 79 79 79 79 78 78 78 77 76 77 79 81 82 83 86 86 86 86 87 88 87 91 86 69 64 64 65 65 66 72
76 76 76 77 77 75 71 70 70 70 70 72 72 72 72 72 72 72 72 72 71 71 69 70 69 69 70 69 70 71 72 72 73 75 76 77 77 77 77 76 77 76 75 77 78 79 81 82 82 84 85 86 87 85 87 81 63 63 63 63 64 65 72
76 78 77 77 76 74 73 74 72 70 68 70 71 71 72 71 72 72 70 71 70 70 70 69 68 68 68 68 69 69 70 71 71 72 72 73 76 76 74 74 75 75 76 76 77 80 81 80 82 82 84 86 86 82 77 75 60 62 61 61 63 65 82
78 74 76 77 78 76 76 75 74 71 70 69 68 69 69 70 70 67 66 67 69 68 68 68 66 66 67 67 68 69 69 70 69 69 70 70 70 70 71 72 72 73 74 76 77 77 78 80 82 83 84 83 84 83 77 76 63 58 58 60 60 72 87
80 79 78 77 78 78 76 75 75 75 74 71 70 69 69 68 68 67 66 66 66 67 66 67 67 67 67 67 69 70 72 73 75 73 71 69 68 68 69 70 70 71 73 74 75 76 78 79 79 80 80 81 80 81 76 75 64 56 57 57 58 70 83
76 76 76 76 77 78 79 76 75 74 73 71 68 70 71 71 69 69 66 66 66 67 67 66 67 68 67 67 68 69 71 72 73 73 73 73 72 72 71 71 70 71 72 72 73 73 75 77 78 78 78 78 77 76 77 76 69 57 56 56 56 68 83
75 76 77 78 79 79 77 75 75 74 72 71 70 73 73 73 71 69 67 68 70 70 68 66 67 67 68 68 69 69 70 73 71 72 73 72 72 72 72 74 73 72 71 73 73 74 73 73 75 75 77 79 80 78 77 74 72 64 55 55 57 58 76
75 77 77 77 75 76 77 78 78 77 76 74 74 74 73 73 72 71 71 72 71 70 69 68 70 70 70 73 75 75 73 72 72 72 73 73 72 73 72 73 74 73 71 73 77 73 71 71 74 77 79 81 81 81 78 76 73 65 54 54 54 55 65
72 74 75 75 74 75 76 77 75 75 76 76 77 75 74 73 71 70 70 70 70 71 73 71 70 71 72 72 74 74 74 73 72 73 72 73 74 73 72 73 74 75 76 76 76 73 73 72 75 77 79 81 81 79 76 74 71 72 59 54 53 52 55
72 72 71 72 73 75 76 76 76 77 76 77 77 76 75 74 70 69 69 69 70 73 74 74 73 71 70 71 71 71 72 71 71 71 73 72 73 74 72 74 74 73 74 74 74 74 73 73 76 77 79 79 80 80 77 74 72 67 68 57 53 52 53
75 76 75 76 75 74 76 74 75 75 76 77 76 76 75 72 69 68 67 67 71 73 73 73 73 72 72 71 71 71 72 73 73 71 72 73 74 74 73 73 73 73 74 75 76 75 74 75 76 77 77 79 80 80 77 76 73 68 66 65 56 54 52
75 76 77 76 77 75 75 74 73 74 73 74 74 75 74 74 70 68 67 69 71 71 72 72 73 72 72 72 72 72 72 72 73 74 74 72 72 72 74 73 73 71 72 75 76 76 75 75 76 76 77 77 77 77 76 77 78 76 69 65 61 58 57
74 75 76 75 74 74 74 74 74 74 72 72 73 72 72 72 72 68 68 71 71 72 72 72 71 70 70 71 71 72 73 73 74 73 72 73 73 71 70 71 72 72 72 75 75 75 75 75 76 76 76 76 75 74 74 74 75 76 76 73 73 68 61
72 73 73 73 73 73 75 74 73 71 72 71 73 74 74 71 71 70 70 70 72 72 71 71 70 69 70 70 70 71 71 71 72 73 73 73 74 75 75 74 74 74 73 75 75 75 76 76 75 76 76 74 74 74 74 75 75 75 74 74 74 75 74
71 72 73 73 73 73 73 72 71 70 69 68 70 71 72 71 71 71 72 73 74 73 71 70 70 71 71 72 72 73 73 72 68 71 74 73 75 75 76 76 77 77 74 75 75 75 75 76 74 72 73 73 74 74 75 76 76 71 69 69 69 70 72
71 71 71 71 71 72 71 71 71 69 69 68 69 69 70 70 70 71 71 72 72 71 70 69 69 70 72 73 74 73 72 74 73 74 73 72 71 71 69 70 73 73 74 71 70 68 71 72 74 73 74 75 73 72 72 74 70 65 55 58 52 58 64
71 71 71 72 72 72 71 71 70 70 69 69 69 69 69 69 70 72 74 74 73 71 69 68 69 69 70 72 73 73 72 72 73 71 71 73 73 72 68 60 54 60 69 69 61 53 46 51 65 65 70 73 74 71 70 68 64 49 43 43 44 44 44
71 71 71 71 70 69 69 68 68 68 67 68 69 70 70 69 71 71 73 72 71 71 69 69 69 70 70 69 69 68 69 71 70 69 68 69 69 70 70 70 62 46 48 56 58 51 44 43 43 45 49 60 69 66 52 52 46 42 43 43 44 43 44
73 74 73 72 70 69 68 67 67 66 66 68 69 71 70 71 71 70 72 71 71 70 69 68 68 68 70 71 69 66 68 70 68 68 68 68 68 69 68 69 69 65 51 48 52 52 47 44 43 42 43 46 52 61 67 56 48 42 44 44 44 44 43

ECMWFFLT1_sfc_temp_099.txt.gz
Temp
87 87 89 90 91 91 92 92 92 93 93 92 93 95 94 95 93 92 92 90 89 88 89 89 90 90 89 90 90 91 91 88 89 91 91 91 92 91 92 93 93 91 94 93 92 91 91 93 92 94 88 91 91 90 90 90 90 93 91 90 90 90 90
85 87 88 89 89 91 91 92 92 93 92 92 93 93 93 94 92 92 91 90 90 89 89 90 89 90 90 90 91 91 90 91 91 89 92 91 91 91 93 92 92 91 91 94 92 93 93 94 93 92 92 92 92 90 91 90 90 91 92 90 91 90 91
83 84 86 87 87 90 90 91 93 92 92 94 94 93 93 91 91 91 90 91 90 90 91 91 89 91 90 90 90 90 91 92 91 92 92 92 93 94 93 92 93 93 94 94 93 94 95 94 92 92 93 92 94 90 90 90 90 91 91 90 91 92 89
82 82 83 84 86 89 91 91 91 92 93 93 93 93 91 91 92 92 92 91 91 91 89 92 92 92 91 90 90 90 90 91 92 94 94 93 90 95 93 93 92 95 93 94 96 95 97 94 93 93 92 92 92 92 91 91 90 91 91 90 91 91 89
81 81 81 79 86 88 89 90 91 90 91 92 92 90 93 93 93 92 93 93 92 92 93 95 96 95 93 92 94 94 92 92 92 93 94 95 94 94 94 95 95 95 94 95 94 93 93 93 94 93 92 91 92 91 91 91 90 90 90 91 90 91 90
79 81 81 79 85 87 89 91 91 91 91 91 89 91 93 92 94 94 93 92 92 93 92 94 95 94 93 95 95 94 93 92 91 91 92 93 92 95 95 94 96 95 97 95 96 95 94 94 95 94 94 95 94 94 94 93 94 93 92 90 91 92 93
81 81 78 75 83 86 88 89 93 91 91 91 92 93 93 92 92 92 91 93 92 91 93 94 95 93 93 94 92 92 92 93 92 93 93 94 94 94 94 95 94 96 97 96 95 96 95 94 93 93 94 95 93 95 93 91 92 93 91 90 89 90 90
82 81 80 80 83 87 82 86 92 91 92 94 93 91 90 91 90 92 91 94 93 96 92 93 92 92 91 92 92 92 92 92 93 94 93 94 94 93 94 95 95 95 95 96 95 96 96 94 96 95 94 95 94 93 94 92 90 94 93 90 89 91 94
84 83 81 81 81 84 87 84 81 82 84 91 90 90 89 86 84 83 90 91 91 91 90 92 92 91 91 91 91 91 92 92 93 94 94 94 95 95 96 96 96 95 95 96 97 96 95 96 96 93 93 93 93 92 93 91 92 93 92 91 90 90 92
82 81 80 80 80 79 79 79 79 77 75 81 88 87 85 83 79 83 90 90 90 90 90 91 91 91 90 90 91 92 92 92 92 94 95 95 95 96 97 98 97 96 96 97 98 97 96 96 96 94 91 92 92 91 92 91 92 93 93 91 91 90 90
82 81 80 80 79 77 76 76 73 75 78 82 86 85 85 85 88 88 88 88 89 89 90 90 90 89 89 89 89 91 91 91 92 93 91 91 93 96 98 99 99 98 97 98 97 98 98 94 94 92 91 93 92 91 91 92 92 92 93 94 94 92 92
81 80 79 79 78 77 77 75 73 74 73 74 81 85 85 85 86 86 86 87 87 87 87 88 89 88 87 88 89 88 89 91 92 91 92 91 91 92 97 99 99 99 99 98 97 96 98 96 95 94 91 91 92 92 91 92 92 91 92 94 95 94 93
81 80 79 79 78 78 76 75 75 74 73 76 80 82 83 84 85 85 85 85 86 86 87 86 87 87 86 87 88 88 89 90 91 92 92 90 90 90 92 96 99 99 99 99 97 97 97 98 95 94 94 92 93 94 92 91 93 91 91 92 93 93 93
80 81 81 80 79 77 77 76 76 75 75 77 77 79 81 82 84 83 84 85 85 86 87 88 88 86 86 86 86 87 88 89 90 90 90 90 90 90 90 92 96 96 97 97 96 97 97 98 97 96 95 95 94 94 93 92 92 92 91 92 93 94 94
81 81 79 80 78 77 76 76 75 73 73 74 76 76 76 76 78 80 81 84 85 86 87 87 86 86 86 84 84 85 86 88 89 89 88 88 88 87 88 89 92 93 94 94 95 98 98 98 99 96 96 96 95 94 95 95 95 96 93 91 92 92 92
79 80 80 78 75 74 75 76 74 73 73 73 74 75 76 76 75 75 76 78 80 82 84 84 84 84 84 84 83 84 85 85 85 85 85 85 85 85 85 87 87 89 89 91 93 92 93 94 95 97 97 96 95 95 97 97 98 92 86 88 92 92 93
76 74 73 73 75 77 77 77 77 76 76 75 74 74 74 75 75 75 75 75 75 76 78 80 80 82 83 82 83 82 82 82 83 84 83 83 83 84 83 83 83 84 84 86 88 89 89 91 93 95 96 97 96 95 97 99 93 76 76 76 81 91 92
74 71 69 68 72 76 76 76 76 76 76 76 75 75 76 77 78 78 76 76 75 75 77 77 77 78 79 81 81 79 79 79 80 81 82 82 81 81 81 82 82 83 84 85 87 86 89 90 90 91 94 96 96 96 97 94 67 67 68 71 71 78 89
71 70 72 72 73 74 75 75 74 74 76 76 75 76 76 76 76 76 77 76 77 76 76 76 76 77 77 76 77 78 78 79 79 79 80 80 80 80 81 81 82 82 83 83 84 85 85 85 88 90 92 93 92 94 92 83 67 65 66 66 69 68 79
71 77 77 75 74 73 71 72 74 76 76 75 75 76 75 74 73 72 74 75 76 76 75 75 74 73 73 73 75 76 77 77 78 78 78 79 79 79 79 81 81 82 84 84 83 82 83 84 84 88 88 89 90 85 82 83 66 64 63 66 65 67 72
69 75 74 75 73 73 72 72 73 73 74 75 75 75 76 75 75 73 72 73 74 75 73 71 71 71 72 72 72 74 75 76 76 76 75 75 76 77 79 80 80 80 81 82 80 79 78 80 78 79 83 89 86 81 84 76 62 62 62 62 63 63 72
68 70 75 76 75 72 72 73 72 72 71 73 73 74 74 73 73 71 69 69 67 68 70 70 70 69 70 70 71 71 71 72 72 74 74 73 75 75 76 77 77 79 78 78 76 74 75 78 77 76 76 76 76 75 77 75 58 60 60 61 61 65 80
71 74 76 76 75 74 75 75 73 72 72 72 71 70 69 69 69 68 67 67 67 67 67 69 68 69 69 70 71 72 72 72 72 72 72 73 75 74 73 72 72 72 74 76 76 76 74 73 75 76 74 73 74 73 75 76 63 57 58 59 58 71 84
76 77 77 77 76 77 77 77 76 74 73 70 70 70 71 71 71 70 68 67 66 66 65 65 66 66 66 67 71 71 72 72 72 72 72 71 71 72 72 73 72 72 72 72 73 74 74 74 75 75 73 74 72 74 73 75 65 56 56 58 56 68 80
70 72 74 77 78 78 78 76 75 75 74 72 71 72 74 74 72 70 67 66 65 65 64 63 64 66 68 69 70 72 74 74 75 74 74 74 73 73 71 71 72 72 73 73 72 72 73 74 74 78 77 77 76 76 75 75 69 57 56 56 57 68 80
73 72 72 74 75 77 76 75 75 76 75 74 74 76 76 75 73 71 69 69 71 69 67 66 65 66 68 68 69 70 73 76 75 75 75 76 76 75 74 74 72 73 73 73 73 72 72 73 74 76 76 78 78 76 77 75 72 63 55 55 57 57 74
77 77 75 76 75 75 78 79 79 78 78 75 75 76 75 76 75 73 72 73 72 71 70 70 70 68 68 68 70 72 74 75 75 75 76 77 75 76 76 77 76 75 75 73 71 71 70 71 73 75 76 77 77 76 74 75 73 65 54 54 54 55 65
76 76 76 76 77 77 75 77 77 78 79 77 76 75 75 74 71 71 72 72 72 72 73 73 73 72 72 71 70 70 71 73 73 74 75 75 76 75 75 76 77 78 79 77 73 72 72 73 75 78 78 78 77 75 72 73 72 73 60 54 54 53 56
78 77 76 77 78 79 79 77 76 76 77 78 79 78 77 75 71 71 71 70 72 75 75 75 74 73 73 73 72 71 71 72 72 72 75 75 76 77 76 78 78 77 77 76 75 73 72 73 75 78 80 79 78 77 76 74 73 69 70 59 54 53 56
78 79 78 80 81 80 81 78 78 78 79 79 78 77 75 72 70 71 71 70 74 75 75 75 74 74 74 73 73 73 74 74 73 70 71 74 75 76 76 76 77 77 77 77 75 75 74 74 75 76 78 80 82 81 76 76 75 70 68 67 58 57 55
77 79 79 78 80 79 79 77 75 76 76 77 75 75 73 73 70 70 69 71 73 73 74 74 75 75 75 75 75 74 75 75 75 75 74 75 75 72 71 73 75 75 76 77 75 75 74 74 77 77 79 79 80 80 78 76 75 75 70 67 64 59 60
78 80 80 80 78 78 78 78 77 77 76 75 75 74 73 73 72 69 70 73 73 74 73 73 72 71 72 73 73 74 76 76 77 77 76 76 75 72 71 69 67 68 71 74 77 76 75 75 77 77 77 77 77 75 76 77 78 79 77 74 74 70 63
77 80 77 77 77 77 78 78 77 75 75 74 76 76 76 74 73 72 72 73 74 74 73 72 71 71 72 72 72 73 73 74 75 77 77 77 78 76 75 74 73 71 69 70 71 75 77 77 77 77 78 76 76 75 74 75 75 75 73 73 74 75 75
75 76 77 77 76 77 77 76 75 74 73 72 73 74 74 73 73 74 74 76 77 76 74 72 73 74 74 74 75 75 76 75 73 75 79 78 80 81 81 80 80 78 75 73 71 69 72 78 78 76 75 76 76 75 75 75 68 67 67 65 66 67 69
75 75 75 75 76 75 75 74 74 73 73 73 73 73 73 73 73 74 74 74 75 74 73 72 72 73 76 78 78 77 76 79 77 78 77 77 76 75 72 71 75 75 74 70 68 66 67 70 75 76 77 79 76 74 75 69 64 62 54 57 51 55 61
75 76 75 76 76 75 74 74 73 73 72 72 73 73 72 73 73 74 77 76 75 74 72 71 72 73 74 76 77 78 77 77 77 75 75 78 77 74 70 60 53 60 72 69 59 50 48 52 64 65 71 74 72 69 70 66 63 49 44 44 45 44 44
75 74 74 75 75 74 73 73 73 72 71 72 72 73 72 72 73 75 76 75 74 74 72 72 72 73 74 73 72 70 72 74 74 73 72 72 73 73 72 71 64 48 51 58 59 51 43 42 43 46 50 62 69 60 51 51 45 42 44 44 45 43 43
77 76 76 76 74 72 72 72 72 71 71 72 72 73 72 73 74 73 75 74 74 74 72 72 72 72 74 74 72 70 71 73 72 72 72 71 71 72 71 71 67 64 52 48 50 47 45 44 42 41 42 44 52 63 64 51 45 43 45 45 43 45 43

ECMWFFLT1_sfc_temp_102.txt.gz
Temp
85 87 88 88 88 89 90 90 90 90 90 90 91 92 92 92 87 88 87 86 85 85 86 86 86 86 86 86 86 85 84 84 82 83 82 83 86 86 87 87 86 85 87 87 86 85 85 86 88 88 88 88 87 87 86 87 87 89 88 87 87 85 86
83 85 87 88 88 89 89 90 90 91 89 90 91 90 90 92 88 88 87 87 86 86 86 86 86 86 86 86 87 86 85 86 85 85 85 85 85 86 88 88 87 85 84 83 84 86 87 87 88 86 87 88 88 86 88 88 87 87 87 86 87 86 85
82 83 84 86 86 88 88 89 90 90 90 91 92 92 91 88 88 87 86 87 86 86 87 87 87 87 87 87 86 86 87 87 87 87 86 88 88 89 90 88 87 88 88 85 84 88 89 89 88 87 88 88 90 86 87 88 87 88 87 86 87 87 85
80 83 84 85 86 87 88 88 89 89 90 90 91 92 90 87 89 88 88 87 87 87 86 88 89 89 88 87 87 87 87 87 87 89 90 90 89 91 89 89 89 90 88 85 87 90 91 89 89 87 88 87 87 88 89 89 89 88 88 87 87 86 86
82 84 84 80 80 83 86 87 88 87 89 90 90 90 91 90 90 90 90 90 89 88 89 90 91 91 89 89 90 90 89 90 89 90 90 90 89 89 89 90 90 90 89 91 89 87 85 85 88 88 88 87 88 87 87 88 89 87 86 87 86 87 86
80 79 74 75 77 77 84 87 89 88 88 87 89 89 90 89 92 92 91 90 90 89 89 90 91 90 89 90 91 91 90 89 88 88 90 89 88 89 89 89 91 91 91 90 90 90 88 88 88 89 90 91 91 89 90 88 90 88 87 87 87 87 88
80 77 75 76 79 80 81 88 89 88 87 87 90 90 90 90 90 90 90 90 89 88 90 91 92 90 89 90 89 89 89 90 90 91 91 93 91 90 90 89 90 92 94 91 90 91 91 90 89 89 90 90 89 90 87 86 87 88 87 86 86 86 86
80 79 78 79 78 77 74 77 88 88 87 87 88 88 87 89 89 89 89 90 90 93 90 90 89 87 87 88 88 88 88 89 91 91 91 92 92 91 91 92 92 92 92 94 92 93 92 90 93 92 90 91 89 89 88 86 87 89 87 86 85 87 90
77 77 76 75 75 73 74 74 75 75 73 77 85 84 86 87 84 86 86 85 87 88 88 89 89 88 87 88 87 88 89 90 90 91 92 92 92 93 94 94 94 93 93 94 94 93 92 91 92 90 90 90 89 87 88 86 89 89 87 87 87 86 88
73 73 70 70 72 73 74 77 78 77 77 78 76 75 73 72 78 82 82 83 80 80 86 88 88 88 87 88 89 89 89 89 90 91 91 92 93 93 94 95 94 94 94 95 95 95 92 93 93 91 89 90 90 89 89 88 88 88 89 88 87 86 85
73 71 70 71 72 74 75 75 74 74 75 75 75 75 76 75 73 78 80 80 80 77 76 84 88 87 87 88 88 88 88 89 89 90 88 87 90 93 95 95 96 94 94 95 94 95 94 90 90 89 89 91 89 89 88 89 89 88 90 89 89 88 88
71 71 71 72 71 71 71 71 74 75 75 76 76 76 77 79 79 80 80 82 81 81 81 79 87 87 87 87 87 87 89 90 90 90 90 89 89 90 93 95 96 96 96 95 94 93 95 92 92 92 89 89 89 90 89 88 89 88 89 91 90 88 89
72 70 69 71 70 70 72 71 72 74 76 76 77 77 79 80 81 81 81 83 84 85 82 81 83 86 86 86 86 86 87 89 90 90 90 88 88 89 90 93 96 97 97 96 94 95 95 96 92 91 91 89 90 91 90 89 90 87 88 90 90 89 87
72 71 71 72 73 72 72 71 71 72 74 77 79 80 81 81 81 80 81 83 84 86 86 83 81 82 86 85 85 85 86 87 88 87 88 88 87 88 88 90 91 92 93 94 93 94 95 95 95 93 93 91 90 90 89 89 89 88 88 89 89 89 89
75 75 72 72 74 74 73 73 74 73 72 76 78 79 80 79 80 79 82 83 84 86 87 87 86 85 86 84 84 84 84 84 86 87 87 87 87 86 86 87 89 89 90 90 92 97 95 96 96 94 92 92 91 89 90 91 90 90 89 88 88 89 90
76 78 77 76 75 75 75 76 76 76 76 77 77 77 77 77 79 78 80 82 83 84 85 85 84 83 83 83 83 84 85 86 86 86 87 86 86 86 86 87 87 88 87 87 88 89 89 90 91 93 94 93 91 91 92 92 94 90 87 85 88 88 90
75 75 76 76 76 78 77 77 77 76 76 76 76 77 77 78 77 77 78 80 81 82 82 83 83 83 84 83 83 84 84 84 84 84 83 84 84 84 83 84 84 84 84 85 86 85 84 86 88 90 91 93 94 92 91 86 76 66 71 77 83 90 87
67 69 72 74 76 77 77 76 76 76 76 76 77 77 76 76 77 78 78 78 79 79 80 80 79 80 80 80 83 83 83 83 83 83 83 83 82 83 83 83 83 83 83 84 85 85 85 85 86 86 88 89 87 86 83 77 66 64 66 67 67 74 85
66 67 71 71 74 74 76 75 75 76 76 76 74 74 74 74 72 70 72 75 78 79 79 78 77 78 78 77 75 76 77 80 80 80 81 82 82 82 82 82 82 82 81 82 84 83 80 79 82 85 81 78 77 80 82 77 64 64 64 64 65 68 79
65 70 73 72 72 73 73 73 73 74 75 75 75 75 74 73 72 71 72 73 73 72 72 73 73 73 73 73 74 75 76 77 77 78 79 80 80 80 80 80 80 80 81 82 82 82 81 82 82 81 77 76 77 76 76 75 65 63 63 63 65 66 74
69 70 72 73 72 73 72 71 71 72 73 74 75 75 75 74 75 74 73 72 72 72 71 71 71 71 71 71 72 73 73 74 75 74 74 76 78 78 77 76 76 76 76 77 77 77 78 80 79 77 76 75 76 75 76 70 60 61 62 62 64 66 75
70 72 72 73 73 72 72 72 72 71 71 72 72 72 74 73 74 73 71 71 69 68 69 69 68 68 71 71 71 71 71 71 71 72 73 74 75 75 74 74 74 75 74 74 74 75 76 77 78 76 76 75 75 73 74 66 58 59 60 61 62 68 82
72 71 72 73 74 73 73 74 73 73 72 72 71 71 71 71 72 70 69 68 68 67 67 67 67 67 67 68 70 70 71 72 71 71 71 72 72 72 72 72 72 73 73 72 73 74 74 74 73 74 74 74 74 73 70 68 60 58 58 59 60 73 81
74 74 74 74 74 73 72 72 73 72 72 71 72 72 72 71 70 69 68 67 67 67 66 66 66 66 67 66 68 69 70 71 72 71 71 70 70 70 71 71 71 72 73 71 70 71 74 73 72 73 72 73 72 72 68 65 61 56 57 58 58 69 79
74 74 73 73 72 71 71 71 71 72 73 73 71 73 73 73 71 70 68 68 67 67 66 65 65 65 65 66 67 68 70 71 72 72 71 71 70 70 69 70 71 72 72 72 72 72 73 74 72 73 73 73 72 73 69 66 64 57 56 57 57 67 78
72 72 73 74 74 74 72 71 72 73 73 73 73 76 75 74 72 70 70 70 71 69 67 66 67 68 68 67 67 67 67 70 71 72 72 71 71 72 70 71 71 72 72 73 72 71 71 72 72 71 71 71 71 70 69 66 66 61 55 56 58 59 73
75 75 74 74 73 73 73 73 73 72 73 74 75 77 77 76 74 71 70 70 69 68 69 69 70 69 68 67 66 66 67 66 67 69 70 72 72 73 74 74 74 73 73 72 71 70 69 70 71 71 70 69 69 69 69 69 67 62 55 55 56 58 67
76 76 77 75 75 75 76 76 74 74 75 75 76 76 76 74 71 70 70 70 69 70 72 72 72 72 71 69 67 67 66 66 67 69 68 69 72 73 74 74 75 75 76 74 70 69 70 70 71 71 70 70 69 68 69 71 70 68 60 56 55 55 60
76 76 74 74 75 77 77 75 75 76 76 78 78 77 76 74 71 71 71 70 70 73 73 73 73 73 72 70 69 68 68 68 69 68 69 68 69 71 73 76 76 75 75 73 71 70 71 70 70 71 71 71 71 72 70 69 69 68 67 59 55 55 56
77 77 77 79 79 78 79 76 76 76 77 77 76 76 75 73 71 70 69 69 72 73 73 72 72 72 72 72 72 72 71 71 71 70 68 72 73 72 71 71 74 74 73 75 74 73 72 71 71 70 70 72 73 73 70 69 68 68 68 66 59 58 57
77 78 78 78 79 78 78 77 75 76 75 75 74 74 73 73 70 69 68 70 73 72 72 73 73 72 72 72 73 72 73 73 71 71 70 73 73 70 70 70 71 70 68 70 73 73 72 72 75 73 75 74 72 72 71 70 71 70 68 67 65 60 60
77 78 79 79 78 77 77 77 77 76 74 74 74 73 73 73 72 69 69 72 73 73 72 71 71 70 70 71 72 73 75 75 76 75 74 74 72 70 69 68 67 66 68 68 67 67 69 71 73 73 73 75 72 72 72 72 72 71 72 72 73 70 65
75 75 75 76 77 77 77 77 76 74 74 73 75 75 75 73 73 72 72 72 73 73 72 72 71 70 71 70 71 72 71 71 73 73 74 73 72 72 72 72 70 70 68 69 68 67 67 68 70 69 67 68 73 72 72 68 66 65 66 66 67 68 68
75 76 76 77 76 76 76 75 74 73 73 72 73 73 73 73 73 73 74 75 76 75 73 72 73 72 71 73 73 73 74 74 75 74 76 76 74 73 73 74 75 74 70 68 68 67 65 67 67 65 65 64 66 71 70 65 63 61 61 61 62 63 65
75 75 74 75 76 75 74 74 73 72 72 72 73 73 72 72 73 74 74 74 74 73 73 72 73 74 76 76 76 75 75 77 75 75 74 74 71 67 65 65 69 69 67 65 65 65 66 66 64 64 65 66 60 63 66 64 61 59 54 55 51 55 59
75 75 75 76 76 75 74 74 72 72 71 71 72 72 72 72 73 74 76 76 75 74 71 72 73 74 74 74 74 74 74 74 74 72 71 73 73 69 63 58 52 57 68 65 56 51 51 55 60 60 63 62 58 61 62 61 59 51 44 45 44 43 44
74 73 74 75 74 73 73 73 73 72 71 71 72 72 72 72 73 74 76 75 74 74 72 72 71 72 73 72 70 69 70 71 70 70 69 70 69 70 70 67 61 47 48 56 57 49 41 42 43 47 52 62 61 55 53 52 46 42 45 45 45 44 43
75 76 76 76 74 72 72 72 72 71 71 71 72 72 72 74 74 74 75 74 74 74 72 72 71 71 73 72 71 69 71 71 70 70 70 68 69 69 68 68 65 62 49 44 49 47 42 40 39 39 42 46 54 62 57 48 43 44 44 45 43 44 44

ECMWFFLT1_sfc_temp_105.txt.gz
Temp
79 79 80 82 82 82 82 83 83 84 85 83 85 87 85 85 83 83 82 81 81 79 80 81 80 80 79 80 80 79 79 78 78 78 78 78 80 79 79 80 80 80 80 79 80 79 81 82 82 82 81 82 81 81 80 81 82 84 82 81 80 80 80
78 79 81 82 81 81 82 83 83 84 84 83 85 85 84 84 83 82 82 82 81 80 81 81 80 80 80 80 80 79 79 79 79 80 79 79 81 80 81 81 80 79 79 80 80 81 81 82 81 81 82 82 82 80 82 81 81 81 81 81 81 80 81
78 79 80 81 80 80 81 82 83 83 85 84 85 85 82 82 82 82 81 81 81 80 81 81 81 81 80 80 79 79 80 80 79 80 79 80 80 83 83 82 81 81 82 80 80 83 83 82 81 81 82 82 83 81 81 81 81 82 80 81 80 81 79
77 78 78 81 82 81 82 81 82 82 83 84 84 85 82 81 83 82 82 82 82 81 80 82 82 82 82 80 80 80 80 80 81 82 82 82 82 83 82 82 82 82 81 81 83 84 86 83 83 81 84 81 81 82 82 82 83 82 81 80 81 80 80
77 79 78 76 78 80 81 81 81 81 83 84 83 84 82 83 83 82 83 84 83 82 83 83 85 84 83 83 84 83 82 82 82 83 83 83 83 84 84 84 83 84 82 83 82 82 81 82 83 82 82 81 81 82 82 82 82 82 80 81 80 80 80
77 77 76 76 74 74 77 81 82 83 83 83 82 82 82 83 84 84 83 83 83 83 83 84 84 83 82 84 85 85 83 83 82 82 83 83 82 83 83 82 84 85 84 83 83 83 82 83 82 82 83 83 83 83 83 82 83 83 81 80 81 81 81
76 75 71 71 72 71 70 71 73 75 78 81 81 82 83 83 83 83 83 83 83 82 84 84 85 83 82 84 82 83 83 84 83 84 84 85 84 83 82 83 83 85 86 84 84 85 83 83 83 83 84 85 84 84 82 82 82 82 81 80 80 79 80
75 68 68 70 72 71 70 72 73 73 74 75 76 75 76 81 83 83 83 83 84 85 84 84 83 82 82 83 82 82 84 83 84 85 84 85 85 84 84 84 83 85 84 86 84 85 85 84 86 84 84 85 83 83 83 81 80 83 82 81 80 81 85
68 70 71 71 71 71 70 70 70 73 74 74 74 75 75 74 76 78 82 82 83 83 83 83 82 82 82 81 81 80 83 83 83 84 84 85 85 86 86 86 86 86 85 87 87 86 86 85 86 84 84 85 82 82 83 81 82 82 81 81 81 80 83
70 69 71 70 70 71 71 71 71 72 72 72 73 74 74 74 75 77 79 81 80 81 82 82 81 82 82 81 82 82 82 82 82 85 85 86 85 86 87 88 88 87 87 87 88 87 86 87 87 84 82 83 82 81 82 81 82 82 83 81 81 81 80
70 70 69 69 69 70 70 71 71 71 72 72 73 74 75 75 75 75 77 78 79 78 77 79 82 82 81 81 82 82 81 82 82 83 82 82 83 86 88 88 88 87 88 87 87 87 86 84 85 83 82 86 82 82 82 82 83 82 83 83 83 82 83
69 70 68 69 69 70 70 70 71 72 72 73 73 74 75 75 75 75 76 77 78 78 78 77 79 81 82 81 81 81 82 83 83 82 82 82 81 82 86 88 88 87 88 88 87 86 87 86 87 85 82 83 83 82 82 82 82 82 83 84 84 83 83
67 68 69 69 69 70 70 70 71 71 72 73 73 74 74 74 74 75 76 77 78 78 78 77 78 79 80 80 81 80 81 82 82 82 82 81 81 81 83 84 86 87 87 87 88 88 87 87 85 84 83 83 84 84 82 82 84 81 81 83 83 83 82
69 68 68 68 69 69 70 70 71 71 71 71 71 73 74 74 74 76 76 77 78 78 78 79 77 76 79 80 79 79 80 81 81 81 80 80 80 80 81 83 83 82 83 83 84 86 87 87 86 85 85 84 84 84 83 82 83 81 81 83 84 83 82
67 67 66 68 68 68 69 69 70 70 70 70 72 73 75 76 76 76 77 78 78 79 78 77 76 76 77 77 78 78 78 78 79 79 79 79 79 79 79 81 83 82 81 80 82 84 84 85 86 85 86 86 85 84 86 85 81 78 77 80 82 83 83
66 66 67 68 68 68 69 69 69 69 71 72 72 73 73 74 74 74 74 73 73 72 74 76 75 76 76 74 73 73 73 73 73 74 77 77 78 78 78 79 79 79 78 79 80 80 80 80 82 85 85 84 84 84 84 80 79 75 73 73 80 82 85
66 66 67 67 68 68 69 70 70 70 69 70 70 70 71 71 71 72 72 73 73 74 75 76 73 74 73 71 72 72 73 72 72 72 71 72 73 76 77 77 78 77 77 78 79 77 78 79 80 82 82 82 82 80 78 76 70 66 66 68 73 82 81
66 67 67 67 68 68 69 69 69 69 69 70 70 70 70 69 70 71 71 73 73 73 73 74 73 72 72 72 72 73 70 71 73 72 72 73 73 73 75 76 77 76 76 77 78 77 78 78 78 78 80 81 81 79 76 72 65 63 65 66 67 73 78
65 65 66 67 67 68 68 68 68 68 69 69 69 70 70 70 69 68 69 70 71 72 72 72 72 71 71 72 72 72 71 72 72 72 72 73 75 76 77 76 77 76 77 77 78 77 76 76 77 76 78 79 79 78 75 71 64 63 65 65 66 68 78
66 67 67 68 68 67 68 68 68 69 69 69 70 71 71 70 68 68 69 70 70 69 69 69 69 70 70 71 71 72 72 73 73 72 73 74 75 75 76 75 75 75 75 76 76 76 77 76 77 75 75 76 76 73 71 69 63 63 64 64 65 66 72
66 66 67 67 68 68 68 68 68 68 69 70 71 71 71 70 70 69 68 69 69 69 68 68 69 69 69 69 69 70 70 71 71 71 71 72 73 73 72 72 72 72 72 72 73 72 73 74 76 74 74 75 74 70 69 66 61 61 63 62 64 65 73
67 67 66 66 66 67 68 68 67 67 67 69 69 69 70 69 70 68 67 68 67 67 68 68 67 68 68 68 69 69 69 70 69 69 70 70 71 71 71 71 70 70 71 72 72 72 72 74 74 73 73 74 73 69 65 63 59 60 60 61 62 67 78
68 68 68 68 68 67 68 69 69 68 69 68 68 67 67 68 68 67 66 66 66 65 65 65 64 65 66 66 67 68 69 70 70 70 69 69 69 69 70 70 70 70 71 70 70 71 72 72 73 73 72 73 72 67 64 63 59 58 58 59 60 71 77
68 68 68 70 70 70 70 70 70 70 69 68 68 67 67 67 66 66 65 64 64 64 64 64 63 64 65 65 66 66 68 69 70 69 69 69 69 69 69 70 70 70 71 69 69 69 70 71 72 72 71 71 69 66 63 62 60 57 57 57 58 69 75
67 67 68 69 68 68 68 68 69 70 69 68 66 66 66 67 66 65 65 65 64 64 63 63 63 63 64 64 65 65 66 68 69 69 69 68 68 69 69 69 70 71 70 70 70 69 69 72 72 71 70 71 69 70 64 63 62 57 56 57 58 67 73
67 68 69 69 69 69 69 69 69 69 68 68 67 69 69 69 67 66 65 65 66 65 64 64 64 63 64 64 64 65 65 66 66 66 67 68 69 69 68 69 70 70 70 68 68 68 68 69 69 69 70 69 66 65 64 62 61 60 56 56 58 64 72
69 70 69 70 69 70 68 69 69 69 69 68 69 70 69 68 67 65 65 66 65 65 65 65 65 64 63 64 65 65 66 66 66 67 67 68 68 70 70 70 70 69 68 67 68 68 68 68 67 67 66 66 66 64 63 63 62 61 55 55 56 59 66
71 71 71 71 71 70 68 68 67 69 70 70 71 71 69 67 65 65 65 65 64 65 67 67 66 65 65 64 64 65 64 65 66 67 67 69 68 67 68 69 70 70 70 69 68 68 68 68 68 66 65 65 66 66 65 67 68 64 59 55 55 56 60
69 69 69 68 70 71 71 68 68 69 69 71 72 71 70 69 65 65 65 64 64 67 67 68 68 67 65 65 65 65 65 65 66 66 67 68 68 67 66 67 68 68 69 68 68 68 68 68 67 66 65 65 64 65 65 65 66 68 65 59 56 55 56
70 70 71 72 73 72 72 68 68 68 69 70 69 69 68 67 65 65 64 63 65 67 67 67 66 67 67 67 66 66 66 67 67 66 66 69 68 67 66 65 67 66 66 68 68 67 68 67 68 66 66 64 64 65 64 64 66 67 67 65 60 57 57
70 70 71 71 72 71 71 69 67 67 67 67 67 66 66 65 64 63 62 64 66 65 65 66 67 67 66 66 66 66 66 68 66 66 67 67 66 65 66 66 66 65 66 66 66 66 66 67 69 69 69 67 66 65 64 65 65 65 66 68 67 61 58
71 70 71 71 70 70 70 70 69 68 66 65 66 65 65 65 64 63 63 65 66 65 65 66 65 66 65 65 65 66 67 67 67 67 66 67 67 66 65 65 65 64 64 65 65 65 65 66 66 66 67 68 67 66 64 63 62 61 61 65 66 65 62
68 69 70 69 69 69 69 69 67 66 66 65 66 66 66 65 64 63 64 65 66 66 65 66 66 67 65 63 65 65 64 64 65 65 66 65 65 68 68 66 65 66 65 64 62 63 64 64 64 63 63 64 63 62 61 60 59 58 59 59 60 61 62
68 68 69 68 67 68 67 66 65 65 64 63 64 64 65 64 65 66 65 65 66 67 66 67 67 65 65 66 66 65 66 67 73 69 65 65 66 65 67 67 67 64 63 62 62 61 61 62 61 60 60 60 61 61 61 58 57 56 56 57 57 58 59
66 67 67 67 67 67 66 65 65 65 65 65 64 64 64 64 65 66 65 65 66 65 65 67 69 69 67 68 68 67 69 68 66 66 64 62 61 59 58 59 64 63 60 61 59 62 63 61 60 61 60 60 59 60 59 59 57 57 55 55 51 53 55
67 67 67 67 67 66 65 65 64 64 63 62 63 63 64 64 65 66 68 67 66 66 65 66 66 65 63 63 64 66 66 65 64 63 64 64 61 60 59 56 50 54 61 58 58 53 52 55 58 59 60 56 56 57 60 57 56 52 46 45 45 44 46
67 66 66 67 66 65 64 64 64 63 62 62 63 64 64 64 65 66 66 65 66 66 64 63 64 64 62 62 62 65 65 64 62 61 60 61 61 62 60 58 57 46 49 55 55 47 41 41 43 49 56 60 58 55 52 53 49 46 47 47 45 43 43
68 68 68 66 65 64 64 64 64 63 63 62 63 64 64 65 66 64 67 66 65 64 64 64 64 63 63 62 62 65 64 62 64 64 62 62 61 60 60 58 56 56 46 44 47 45 41 40 40 42 48 53 56 57 53 50 45 43 44 43 42 42 42

ECMWFFLT1_sfc_temp_108.txt.gz
Temp
75 75 75 77 77 78 79 80 80 81 81 81 82 82 81 81 80 80 80 78 78 77 77 78 78 77 77 77 77 77 77 77 77 77 76 77 78 77 77 77 78 77 77 77 77 77 78 79 79 80 79 79 78 79 78 79 78 80 79 79 78 79 78
74 75 76 77 76 78 79 80 81 82 81 81 82 81 81 81 80 80 79 79 78 78 78 78 78 77 77 77 78 77 77 77 77 78 78 77 79 77 78 78 78 77 77 77 77 78 78 80 79 79 79 79 79 78 79 78 78 78 78 78 77 77 77
75 75 76 75 76 76 78 80 81 82 81 81 82 81 80 80 80 80 79 79 78 78 79 79 79 78 77 77 77 77 77 77 77 77 77 78 78 79 79 79 78 78 79 79 78 80 80 80 79 79 79 79 80 78 78 78 78 78 78 77 78 77 76
75 75 76 76 77 77 79 79 80 81 81 81 82 81 80 80 80 80 80 80 78 78 77 79 79 79 77 77 77 76 77 77 78 78 79 79 79 79 78 78 78 79 78 78 80 81 83 80 80 78 81 79 79 79 79 79 79 78 78 77 77 77 76
75 77 76 75 75 75 77 78 80 80 80 81 82 81 81 81 81 80 80 81 80 79 80 80 81 80 79 78 79 79 78 78 78 79 79 79 79 79 79 80 79 79 80 80 79 79 79 79 80 79 79 78 79 78 79 79 79 78 77 77 77 77 77
74 74 75 74 73 73 76 79 80 80 80 79 80 80 80 80 81 81 81 81 80 80 80 80 81 80 79 79 80 80 78 78 78 78 79 79 79 79 79 80 80 80 81 80 80 80 80 80 80 79 80 80 80 79 80 79 79 79 78 78 78 78 78
73 73 69 68 70 71 73 74 77 79 80 80 80 81 81 80 80 81 81 80 80 79 80 80 81 80 79 80 79 79 78 79 79 80 80 80 80 80 80 80 81 81 82 80 80 81 80 80 80 80 80 81 79 80 79 79 78 79 78 77 77 77 77
72 69 68 71 72 71 71 72 73 74 75 77 79 79 79 80 80 80 80 80 81 81 80 80 80 79 79 80 79 79 79 79 80 81 80 81 81 80 80 80 80 81 81 81 81 81 81 80 82 81 81 81 80 80 80 79 78 80 79 78 77 77 81
67 68 69 71 71 70 70 71 72 74 75 76 77 77 78 79 79 79 79 80 80 80 80 80 80 79 79 79 79 79 80 80 80 80 81 81 81 82 82 82 82 81 81 82 82 82 82 81 82 81 80 81 80 79 80 79 79 79 79 78 78 78 79
68 69 68 69 69 69 70 70 71 72 72 73 75 76 77 78 78 79 79 79 80 79 80 80 80 79 79 79 79 79 80 80 80 81 81 81 82 82 83 83 83 83 82 83 83 83 82 82 82 81 79 80 80 79 80 79 79 79 79 79 79 78 78
68 68 68 68 68 68 68 69 69 71 72 73 74 75 77 77 77 78 78 79 79 79 79 80 80 80 79 79 80 79 79 80 80 80 80 79 80 82 84 84 84 83 83 83 84 84 83 81 81 80 80 82 80 79 79 80 80 79 80 80 80 79 80
67 67 67 67 68 68 67 68 69 70 71 73 74 74 75 76 77 78 78 79 80 80 79 79 79 80 79 79 79 78 79 80 80 80 80 80 79 80 83 84 84 84 84 84 83 83 84 83 82 82 80 80 81 81 80 80 79 79 80 81 81 80 80
67 67 67 68 68 68 68 68 68 69 69 72 73 74 73 74 75 77 77 78 79 80 79 78 78 79 79 79 79 77 78 79 80 80 80 79 79 79 79 81 83 83 83 83 83 83 83 84 83 82 82 81 81 81 81 80 81 80 80 81 81 80 79
68 67 67 68 68 68 68 68 68 68 69 69 70 71 71 72 72 73 74 73 73 75 73 72 73 74 77 78 77 75 76 76 78 79 79 79 78 78 78 78 80 80 79 79 79 81 81 82 83 83 82 82 81 82 81 80 80 79 79 80 80 80 80
66 66 67 67 67 67 68 68 68 69 69 69 70 69 69 69 69 70 71 71 72 72 72 73 74 73 73 74 73 72 72 72 72 72 73 76 76 77 77 77 78 77 77 78 79 81 79 81 83 83 82 82 81 82 81 81 80 79 78 79 78 79 80
65 66 67 67 67 67 68 68 68 69 69 69 69 69 69 70 70 71 70 71 71 72 72 72 72 72 71 70 70 71 71 71 72 71 72 72 72 73 74 76 77 77 76 77 77 77 77 76 79 81 82 81 79 79 80 79 78 76 76 77 78 77 79
65 65 66 66 67 67 68 69 69 69 68 68 69 69 69 69 70 70 70 70 71 71 72 72 71 71 70 71 71 70 71 71 71 70 70 70 71 71 73 74 75 75 75 75 75 75 75 76 77 78 79 80 80 78 78 77 75 69 66 68 74 79 77
65 65 66 67 67 68 68 68 68 68 68 69 69 69 69 69 69 70 70 71 70 71 71 71 70 70 70 70 70 71 70 70 70 70 70 71 72 71 71 73 74 74 75 75 75 74 75 75 76 76 77 78 77 77 75 72 67 63 65 67 69 75 77
65 66 66 67 67 66 67 67 67 67 67 67 68 68 68 69 69 68 69 70 70 71 71 70 70 70 70 70 70 71 70 71 70 70 70 71 72 72 73 73 74 74 74 74 75 74 72 73 74 75 75 75 74 74 73 70 64 63 66 67 67 68 78
66 66 66 66 66 66 66 66 66 66 67 67 67 68 68 68 68 68 69 69 70 69 69 69 69 70 70 71 71 71 71 70 70 70 71 72 72 72 73 73 72 72 72 72 72 72 72 73 73 73 73 73 72 70 70 69 64 61 63 64 67 68 72
65 65 65 65 65 66 66 66 66 66 66 67 67 68 68 68 68 68 68 68 68 69 68 68 68 68 69 69 69 69 70 71 71 71 71 71 71 70 70 70 70 71 71 71 71 70 71 72 72 73 73 72 70 69 68 68 61 60 62 61 63 66 75
63 64 64 64 64 64 64 65 65 65 65 67 66 66 66 66 67 67 66 68 67 67 68 68 67 67 68 68 68 68 69 69 69 69 69 69 69 69 69 69 69 69 71 71 70 70 70 71 72 71 71 71 70 67 66 64 59 59 60 60 61 64 76
64 64 65 65 66 65 66 66 66 66 66 66 65 65 64 65 66 65 65 65 65 65 65 65 64 64 65 66 66 68 68 69 69 68 68 68 68 68 68 68 68 69 70 68 68 68 70 70 72 72 71 72 70 66 64 64 60 57 58 58 59 66 76
66 65 66 65 66 66 66 66 67 67 66 65 65 65 65 65 65 65 64 63 64 64 63 63 62 63 64 64 65 66 67 68 68 68 68 68 68 68 68 69 69 69 70 68 68 68 68 70 71 71 71 71 68 67 64 62 60 56 56 56 57 64 72
65 65 65 65 65 64 65 65 66 66 66 65 64 65 65 65 65 64 63 63 63 63 62 62 62 63 63 64 65 65 65 66 67 67 68 68 68 68 68 68 69 70 69 69 69 68 68 70 71 70 69 71 69 70 64 62 62 57 56 56 57 65 71
63 64 64 66 66 66 66 66 66 66 66 66 65 67 67 67 66 65 64 64 64 63 63 62 63 64 65 65 65 65 66 67 67 66 66 67 68 68 68 69 69 68 67 67 67 67 67 68 70 69 68 66 64 63 63 61 61 60 55 56 57 61 69
65 67 67 67 67 68 66 67 67 66 66 65 66 67 66 65 63 62 63 64 63 63 63 64 65 64 64 65 66 66 66 66 66 66 66 67 67 68 69 69 67 67 67 67 68 67 66 65 65 64 64 64 63 63 63 63 62 60 55 54 55 57 62
67 68 68 69 69 68 67 67 66 66 67 66 67 67 66 65 64 63 63 63 63 63 65 64 63 64 64 63 64 64 64 65 66 66 66 66 67 66 66 67 67 68 68 68 68 67 66 66 65 64 63 64 64 65 64 67 66 62 58 55 55 54 57
66 66 66 66 66 68 68 66 66 66 66 67 67 67 66 65 63 63 62 62 62 64 64 65 64 63 63 64 64 64 64 64 66 66 67 66 66 65 64 65 65 66 67 67 67 67 66 65 64 63 61 61 62 63 64 65 66 65 62 57 54 55 55
65 66 66 68 68 67 67 64 64 64 66 66 65 64 64 63 62 62 61 61 62 64 65 63 62 62 64 65 65 64 65 66 66 65 66 68 67 65 63 63 64 65 65 65 66 67 66 65 64 63 62 61 61 63 63 63 63 65 65 62 57 55 55
65 66 66 66 67 67 66 64 62 63 63 63 63 63 62 61 62 61 60 61 63 63 63 63 63 63 63 63 64 64 63 63 62 64 64 65 65 64 64 64 64 63 63 64 64 64 65 66 66 65 64 62 62 61 62 62 60 60 63 65 63 58 56
64 64 64 65 65 65 65 64 63 63 62 61 62 62 61 60 60 61 60 62 63 61 61 62 63 63 62 62 63 63 63 64 63 63 63 63 64 64 63 63 64 62 61 62 62 63 63 64 66 66 64 63 63 61 60 60 59 59 60 62 64 63 60
63 64 65 64 64 65 64 63 62 61 61 60 61 61 62 60 59 60 61 62 62 62 63 64 65 65 64 62 61 61 62 61 61 62 63 62 63 64 64 62 61 62 62 61 60 61 62 63 64 63 63 62 60 60 59 57 57 57 57 57 58 59 60
63 63 64 64 64 64 62 61 60 60 60 59 59 60 61 60 61 60 61 62 63 62 63 66 66 64 62 61 61 62 62 62 70 64 60 61 60 60 61 62 63 61 60 59 60 60 59 61 61 60 61 59 59 59 59 57 55 56 56 57 57 57 58
63 62 62 63 63 63 61 61 61 60 61 60 59 58 59 60 61 60 60 61 61 60 62 65 67 63 60 61 61 63 65 63 62 60 59 58 57 55 53 53 57 59 57 57 55 57 61 60 59 60 60 60 60 59 57 58 57 58 57 55 52 52 53
62 62 62 62 62 62 62 62 61 61 60 58 58 59 59 60 60 61 62 62 61 60 62 63 61 59 59 59 60 61 62 62 61 60 59 58 56 56 56 55 49 50 57 57 57 50 45 50 57 58 58 55 55 56 58 57 58 56 47 45 43 43 44
62 62 62 62 61 60 60 60 61 60 60 58 59 60 60 60 61 61 62 62 61 60 59 59 62 60 59 61 60 62 63 61 58 57 56 57 55 57 56 55 55 45 45 50 52 45 40 41 42 49 56 58 55 54 51 51 47 44 44 42 42 42 42
63 63 63 62 62 60 60 59 60 60 60 57 59 60 60 62 61 59 62 60 60 59 58 58 59 58 59 58 60 64 61 57 60 60 59 56 56 55 54 53 52 53 47 43 44 44 41 39 39 39 42 47 52 57 54 50 46 44 43 43 42 41 41

ECMWFFLT1_sfc_temp_111.txt.gz
Temp
70 72 74 75 76 76 77 77 77 78 78 78 79 79 79 79 78 78 77 76 76 75 75 76 76 76 76 75 75 75 75 76 75 75 75 75 76 76 75 75 76 76 76 76 76 76 77 77 77 77 77 77 77 77 76 77 77 79 77 77 76 77 75
70 72 74 74 75 76 77 77 78 78 78 79 79 79 79 78 78 77 77 77 77 76 76 76 76 76 76 76 76 75 75 75 76 77 76 76 77 76 76 76 76 76 75 76 75 76 76 77 77 77 77 77 77 77 77 76 76 76 76 75 76 75 76
71 71 72 73 74 75 76 77 78 78 79 79 79 79 78 78 78 78 77 77 77 76 76 77 77 77 77 76 75 75 75 76 76 76 75 76 76 77 77 76 76 76 77 76 75 77 78 77 76 77 77 77 78 77 77 76 76 76 75 75 75 76 74
71 71 72 73 74 75 77 77 77 78 79 79 79 79 79 78 78 79 78 78 77 77 75 77 77 77 77 76 76 75 75 76 76 77 77 77 77 77 76 76 76 76 76 76 78 78 80 78 78 76 79 77 77 77 77 77 77 76 76 75 75 75 75
72 73 72 71 72 74 75 76 77 77 78 79 79 80 80 79 79 79 79 79 79 77 78 78 79 78 77 77 78 77 76 76 76 76 77 77 76 76 76 77 76 76 77 78 77 77 77 77 77 77 77 77 77 76 77 77 77 76 76 75 75 75 76
71 71 71 71 71 73 75 77 78 78 78 78 78 79 79 79 79 79 79 79 78 79 78 78 78 78 77 77 78 78 77 76 76 76 77 76 76 76 77 77 77 77 78 77 78 78 78 77 77 77 77 77 77 77 77 77 78 77 76 75 76 76 76
70 70 71 70 70 72 75 76 78 78 78 79 79 80 79 79 79 79 79 78 78 77 78 78 78 78 77 77 77 77 76 76 76 77 77 77 77 77 77 77 78 78 79 78 77 78 77 77 77 77 78 78 78 78 77 77 77 77 76 75 76 75 75
69 69 68 70 71 72 74 76 77 78 78 79 78 78 78 78 78 78 78 79 78 79 78 78 78 77 77 77 77 77 76 76 77 77 77 77 77 77 77 77 77 78 78 78 79 78 79 78 79 78 78 78 77 77 78 77 77 77 76 76 76 76 78
70 71 70 70 69 68 68 68 69 72 76 76 77 77 78 78 78 78 78 78 78 78 77 78 78 78 77 77 76 76 77 77 76 77 77 77 78 78 79 79 79 79 79 79 80 79 79 79 79 78 77 78 78 77 78 77 77 77 77 76 76 76 77
68 68 68 68 67 68 69 70 69 69 68 69 71 75 77 77 77 77 77 77 78 77 78 78 78 77 77 76 76 76 76 76 76 77 77 78 78 78 79 80 80 79 79 80 80 79 79 79 79 78 77 77 77 77 77 77 77 77 77 77 77 76 76
68 67 67 67 68 68 69 70 70 68 68 68 69 70 72 75 76 77 77 77 77 77 78 78 78 77 77 76 76 76 76 76 76 77 76 76 77 78 80 80 81 80 80 80 80 81 80 79 78 77 77 78 78 78 77 78 78 77 78 78 78 77 78
67 67 66 67 67 68 69 70 70 69 69 70 69 68 68 69 73 76 77 77 77 77 76 77 77 77 76 76 76 75 76 76 77 77 77 77 77 78 80 81 81 81 80 80 80 80 81 80 79 79 78 78 78 78 78 78 77 77 78 79 78 77 77
67 67 67 67 67 68 69 69 69 70 70 70 69 69 69 69 68 68 69 70 71 73 73 73 75 75 75 76 76 75 76 77 77 78 78 77 77 77 78 79 81 81 81 80 80 80 80 80 79 79 79 79 79 79 79 78 78 77 77 78 78 77 77
67 66 66 66 66 66 67 68 69 69 69 69 69 69 70 70 70 71 72 73 73 73 73 73 72 72 73 74 74 74 75 76 77 77 77 77 77 77 77 78 79 79 79 78 79 80 80 80 80 80 79 80 79 79 79 78 78 77 77 77 78 78 77
64 65 65 66 66 66 66 67 68 68 69 69 69 69 69 70 71 72 73 73 73 73 73 72 73 72 71 70 70 69 70 71 73 73 75 76 75 75 76 76 76 76 76 77 78 80 79 80 81 80 79 80 79 79 79 79 78 78 77 77 77 77 77
65 65 66 66 66 66 66 67 68 68 69 68 69 69 69 70 71 72 71 71 72 72 72 72 72 71 71 71 71 70 70 69 71 71 72 74 75 74 74 74 74 75 75 75 76 76 75 74 76 79 80 79 79 78 79 79 79 81 80 80 78 76 78
66 66 66 66 66 67 67 68 68 68 68 68 69 69 69 69 70 70 71 71 71 71 71 72 71 71 71 71 71 71 70 70 70 70 70 69 70 71 72 73 74 74 74 74 74 74 75 75 75 75 76 78 78 78 79 79 80 77 73 74 78 79 76
65 65 66 67 67 67 67 67 67 67 68 67 68 69 68 68 69 70 70 71 71 71 71 71 71 71 71 71 71 70 70 69 70 70 70 70 70 70 70 71 72 73 72 73 73 73 74 75 75 72 73 75 76 76 76 74 68 64 65 67 68 74 77
65 66 66 67 67 67 67 67 66 66 67 67 68 68 69 69 69 69 69 70 70 71 71 71 71 70 70 70 70 70 69 69 70 70 70 70 70 70 71 71 71 71 71 71 73 72 71 72 74 73 71 72 72 73 71 69 64 63 65 65 66 67 73
65 65 65 65 65 65 65 65 65 65 66 66 67 68 69 69 69 69 70 70 70 69 70 70 70 70 70 70 70 70 70 69 69 70 70 70 69 70 70 70 71 71 71 71 70 70 71 72 71 70 71 71 70 68 68 67 63 62 63 64 65 67 70
64 64 63 63 63 63 64 64 64 64 65 65 66 67 68 68 69 69 69 69 69 69 68 69 69 69 69 69 69 69 69 70 69 70 70 70 69 69 70 69 70 70 71 70 70 70 70 71 70 71 71 70 68 68 67 68 61 60 62 61 63 65 71
63 64 62 62 62 63 63 63 63 63 63 65 65 66 67 67 68 67 66 68 68 68 68 68 67 67 68 68 68 68 68 69 68 68 68 68 68 68 68 68 68 69 70 70 69 70 70 71 71 71 70 69 68 67 66 64 58 59 60 60 60 65 71
64 63 64 64 64 63 64 64 64 64 65 64 64 64 64 65 66 65 65 65 65 65 65 65 64 65 65 66 67 68 68 68 68 68 68 67 67 67 67 68 68 68 69 67 67 68 68 69 70 70 70 70 69 66 65 64 61 58 58 58 59 64 70
64 64 64 63 64 64 64 64 65 65 65 64 64 64 64 65 65 64 64 63 64 64 63 63 63 64 64 64 65 66 66 67 68 67 67 67 67 67 68 68 68 68 69 67 68 68 69 70 71 71 71 71 68 68 65 62 61 57 55 56 57 62 66
64 64 64 63 63 62 63 63 64 65 65 64 63 63 64 65 65 64 62 62 62 63 62 62 62 63 63 64 64 65 65 66 66 66 66 66 67 67 67 68 68 68 68 68 68 68 68 70 69 70 69 69 68 70 64 62 62 57 55 55 56 62 65
62 62 63 63 64 64 64 64 64 64 63 63 63 65 65 66 65 64 63 63 64 63 62 62 62 63 64 64 65 65 65 66 67 66 66 67 68 68 68 68 68 67 67 67 67 67 67 68 68 64 62 63 63 63 63 62 61 59 54 54 55 58 64
64 64 64 64 65 66 64 64 64 63 63 62 63 65 65 64 63 62 63 63 62 62 62 63 64 63 63 64 65 65 65 65 65 66 66 67 67 68 67 67 66 66 67 66 66 66 65 65 64 63 63 63 63 63 63 64 61 60 54 53 53 55 61
63 64 65 66 67 65 64 64 64 64 64 64 64 65 65 64 63 62 62 62 61 62 63 63 63 63 64 64 64 64 64 64 65 65 65 66 67 65 65 65 66 67 67 67 66 65 64 64 64 63 63 63 64 64 64 65 65 61 58 54 53 53 56
62 62 62 63 64 66 66 64 64 64 64 65 65 65 64 64 63 62 62 61 61 62 62 63 63 63 64 64 64 65 64 63 64 64 65 65 65 65 64 65 65 66 67 67 65 64 63 62 61 61 61 62 62 62 63 63 64 65 62 58 53 54 55
62 63 64 66 66 65 65 63 62 62 63 63 63 62 62 62 62 62 61 59 60 62 63 62 61 62 65 65 64 64 64 64 64 63 64 65 65 65 64 64 64 65 65 66 66 64 63 62 62 62 61 61 61 61 60 60 60 63 65 62 57 54 54
62 62 63 63 64 64 64 62 61 61 61 61 62 61 61 61 62 62 60 59 62 61 61 62 63 63 61 61 62 63 63 63 62 62 62 62 63 63 63 62 63 62 62 64 64 63 62 61 63 62 62 62 61 60 60 60 59 58 62 65 64 58 55
60 60 61 62 62 63 62 62 62 61 60 60 61 61 61 61 62 61 59 60 62 60 61 62 62 63 61 61 61 59 60 61 61 61 60 60 61 62 61 61 62 61 60 61 61 61 62 62 63 62 61 60 59 58 58 58 57 57 57 61 62 62 60
59 59 60 59 60 62 61 61 60 60 60 59 59 60 60 59 59 59 61 61 60 61 61 63 63 63 60 58 60 59 58 57 57 58 59 59 59 60 60 60 59 61 61 60 59 60 64 66 65 63 61 60 58 58 58 57 56 55 55 55 55 57 59
59 59 59 59 59 59 58 58 58 58 58 58 57 58 59 59 58 58 58 59 60 61 62 63 65 59 58 59 60 62 61 62 68 61 57 58 57 57 59 59 59 57 56 56 56 58 60 63 63 62 61 58 57 58 59 57 56 56 54 53 53 53 53
59 59 58 59 58 59 58 57 57 57 58 57 56 57 58 58 58 57 59 59 59 60 62 63 63 60 57 58 59 62 63 60 59 57 56 55 55 53 53 53 55 56 55 54 53 54 57 59 59 60 59 59 58 58 58 57 56 55 53 53 51 50 51
58 59 58 58 59 58 58 58 57 57 57 56 55 56 57 57 58 58 60 59 59 60 62 62 60 57 57 57 58 59 60 60 58 57 56 55 54 54 55 54 47 49 53 53 55 48 44 49 55 56 56 54 53 54 55 55 55 50 46 45 43 43 44
59 59 58 58 58 57 57 56 58 57 57 56 56 58 58 57 57 58 60 58 58 59 59 59 60 59 57 59 58 60 60 58 55 53 53 53 53 55 55 55 53 43 43 48 51 44 40 41 42 46 50 56 55 53 50 50 46 44 44 42 42 42 41
60 60 59 58 58 57 58 57 57 57 58 55 57 57 56 58 58 57 60 57 56 57 57 58 59 58 58 56 56 62 60 55 57 57 55 52 52 53 54 52 51 54 47 41 43 43 39 39 39 39 41 43 49 56 57 52 47 43 41 41 41 40 39

ECMWFFLT1_sfc_temp_114.txt.gz
Temp
69 70 72 73 73 74 74 75 75 76 76 76 76 77 77 77 76 76 76 75 75 74 75 75 75 75 75 75 75 75 76 76 76 76 76 76 76 76 76 77 77 77 77 77 77 78 78 79 79 79 79 79 79 79 78 79 79 80 79 78 77 78 77
68 70 72 73 73 73 74 75 76 76 76 76 77 77 77 77 76 76 76 75 76 75 75 75 76 76 76 76 76 75 75 76 76 77 77 76 78 77 77 77 77 77 77 77 78 78 78 79 79 79 79 79 80 79 79 79 79 79 80 79 79 78 78
69 70 71 72 72 73 74 75 76 76 76 77 77 77 76 76 76 76 76 76 75 75 76 76 76 76 76 76 76 75 76 76 76 77 76 77 77 78 78 77 77 78 78 78 77 78 79 79 78 78 79 79 80 79 79 79 79 79 79 78 79 80 78
68 69 71 73 74 74 75 75 75 76 77 77 77 78 77 76 77 77 77 76 76 76 75 76 77 77 77 76 76 76 75 76 77 77 78 77 77 78 77 77 77 78 77 78 79 79 80 79 79 78 80 79 79 79 79 79 80 79 79 78 78 78 78
69 70 71 70 72 73 74 74 75 75 76 77 77 78 78 78 77 77 77 78 77 76 77 77 78 78 78 77 78 77 77 77 76 77 78 78 78 78 77 78 77 78 78 79 78 78 78 79 79 78 78 78 79 79 79 79 79 79 78 78 78 78 79
69 68 69 70 71 72 74 75 76 76 76 76 76 77 78 77 78 78 78 78 77 78 77 77 78 78 77 77 78 78 77 77 77 77 77 77 77 78 78 78 78 78 79 78 79 79 79 78 79 79 79 80 80 80 80 79 80 80 79 78 78 79 79
69 69 69 70 70 72 73 75 77 77 77 77 78 78 78 77 77 78 78 77 77 77 77 77 78 77 77 77 77 78 77 77 77 77 78 78 78 78 78 78 79 79 80 79 79 79 79 78 79 79 79 80 79 80 79 79 79 79 79 78 78 78 78
71 70 70 71 72 72 73 74 76 77 77 78 77 77 76 77 77 77 77 78 78 79 77 77 77 77 77 77 77 77 77 77 77 78 77 78 78 78 78 78 78 79 79 79 80 79 80 79 80 80 79 80 79 79 80 79 79 80 79 78 78 78 80
72 71 70 70 71 72 72 73 74 75 76 75 76 76 76 77 77 77 77 77 77 77 77 78 78 77 77 77 76 77 77 77 77 77 77 78 78 78 79 79 79 79 79 80 81 80 80 80 80 79 79 79 79 78 79 79 79 79 79 79 78 78 79
68 69 69 70 70 70 71 71 72 72 73 73 73 74 74 75 75 76 76 76 77 77 77 77 77 77 77 76 77 77 76 76 77 77 78 78 78 78 79 80 80 80 80 81 81 81 80 80 80 79 78 79 79 78 79 79 79 79 79 79 79 79 78
68 68 68 68 68 68 69 69 69 70 71 72 73 74 74 75 75 75 75 76 76 77 77 77 78 77 76 76 76 76 76 76 76 77 76 77 78 79 80 80 81 81 81 81 81 81 81 80 79 79 78 79 79 79 78 79 79 79 79 80 80 79 80
66 67 67 67 67 67 68 69 70 70 70 71 71 72 73 74 74 75 75 75 76 76 76 76 77 77 76 76 76 76 76 77 77 77 77 77 77 78 79 81 81 81 81 81 81 81 81 81 80 80 78 79 79 80 79 79 79 79 79 80 80 80 80
67 66 66 67 67 67 69 69 69 70 70 71 71 71 72 72 73 74 74 74 75 76 75 75 76 76 76 76 76 75 76 77 77 77 77 77 77 77 78 79 81 81 81 81 81 81 82 82 80 80 80 79 80 80 80 79 80 79 79 79 80 80 79
67 66 66 66 67 67 68 68 69 69 69 70 70 70 71 72 73 73 73 74 74 75 75 76 76 75 75 75 75 75 75 76 77 77 77 77 77 77 77 78 79 80 81 81 80 81 81 82 82 81 81 81 80 80 80 79 79 79 79 79 80 80 80
65 65 66 66 66 66 67 67 67 68 69 69 69 69 70 70 71 73 74 74 74 75 75 75 75 75 75 75 75 74 75 75 76 76 76 77 76 76 76 77 78 78 79 79 80 82 82 82 83 82 81 81 80 80 81 81 80 80 79 79 79 79 80
65 65 66 66 66 66 66 67 67 68 68 68 69 69 69 70 71 72 73 73 73 74 75 74 75 75 75 74 74 74 75 75 75 75 75 75 76 76 76 77 77 78 77 78 79 79 79 79 80 81 81 81 80 80 81 81 81 81 79 80 81 79 80
65 65 66 66 66 66 67 67 67 68 68 68 68 69 69 70 71 72 73 73 73 74 74 74 73 74 74 74 74 73 73 73 73 73 74 74 75 75 75 76 76 76 76 77 77 77 78 78 78 79 80 81 81 80 81 81 82 76 72 72 76 81 79
65 66 67 67 66 67 67 67 67 67 68 68 69 69 70 70 71 71 72 72 73 73 73 73 73 73 72 72 72 72 72 72 72 72 73 73 73 74 74 75 75 75 76 76 77 76 77 77 77 75 77 78 79 79 80 80 69 66 66 69 69 75 79
65 66 67 67 67 67 67 67 67 68 68 68 68 69 69 70 70 70 71 71 71 71 71 71 72 71 70 71 71 72 71 71 72 72 72 72 72 72 73 74 74 75 75 76 76 75 73 74 75 75 75 76 76 77 76 75 65 64 65 65 66 67 74
64 64 65 66 66 65 65 66 66 67 68 68 69 69 69 70 70 69 70 70 70 70 70 70 69 70 70 70 71 70 71 70 71 71 71 70 71 71 71 73 73 73 72 71 70 70 70 71 72 73 73 74 74 72 72 71 63 62 62 62 64 65 69
63 63 62 63 63 64 64 64 65 65 66 67 68 68 69 69 69 69 69 70 69 69 69 69 69 69 69 69 69 70 70 70 70 70 70 70 70 71 71 71 70 70 70 70 69 69 69 70 71 73 72 72 71 72 71 68 61 61 61 61 62 64 71
62 62 62 62 63 63 63 64 64 64 65 67 68 68 69 68 69 68 68 69 68 68 68 68 68 67 68 68 68 68 69 69 69 70 70 70 70 69 69 68 68 68 69 70 69 70 70 70 70 70 71 72 71 70 69 65 59 59 60 60 61 67 71
63 62 63 63 63 63 64 64 64 65 65 65 65 65 66 67 67 67 67 67 67 67 66 66 66 66 67 67 67 68 68 68 68 68 68 68 68 68 68 68 68 68 69 68 68 69 70 70 71 71 71 71 71 70 67 65 60 57 58 58 60 67 69
63 63 63 63 64 64 64 64 65 65 65 65 65 65 66 66 66 65 65 65 65 65 65 65 65 65 65 65 66 66 67 68 68 68 68 68 67 67 68 68 68 68 70 68 68 68 69 70 70 71 71 71 70 69 65 63 61 55 55 56 58 67 68
62 62 62 62 62 61 62 63 64 65 65 65 64 64 65 65 65 64 63 63 64 64 64 63 63 64 64 64 65 66 66 66 67 67 67 67 67 68 68 68 69 69 69 68 68 68 68 70 70 68 66 67 67 69 64 63 61 56 55 55 56 64 68
61 62 62 63 63 63 63 64 63 63 62 62 63 65 65 66 65 64 62 62 63 62 62 62 63 64 64 64 65 65 66 67 67 67 67 67 68 68 67 68 68 68 68 67 67 67 66 66 65 63 63 64 64 64 63 61 61 59 54 54 56 59 67
63 63 63 63 64 65 62 62 62 62 62 63 64 65 65 64 63 62 63 62 61 61 61 62 63 63 63 63 63 65 65 65 66 66 66 67 66 67 67 67 67 67 67 66 66 66 65 64 64 63 64 64 64 64 64 64 61 60 54 53 53 55 61
63 63 63 65 66 65 62 63 63 64 64 64 65 66 65 64 62 61 61 60 59 60 62 63 63 63 63 63 63 64 64 65 65 65 65 66 66 65 65 67 68 68 67 66 65 64 64 64 64 63 63 64 64 64 63 66 66 63 58 54 53 52 55
61 61 61 62 63 65 64 62 62 63 63 64 64 65 66 65 62 61 61 59 60 62 63 64 64 63 63 63 63 63 63 63 64 64 65 65 65 65 65 66 67 67 67 65 64 64 63 62 63 63 61 61 61 61 62 62 64 65 64 58 53 53 53
61 62 63 64 64 64 64 61 62 62 63 63 64 64 64 64 63 62 61 60 61 63 63 63 63 64 64 64 63 63 63 64 64 64 64 66 65 65 64 64 65 66 67 66 65 64 63 63 63 63 62 61 61 61 61 61 60 62 63 63 57 54 53
61 61 62 61 62 63 63 61 60 61 61 62 62 62 62 64 63 63 61 61 63 62 63 64 64 64 63 62 62 62 61 61 62 62 63 63 64 63 64 64 64 64 64 65 65 64 63 63 64 64 63 62 62 61 61 61 60 60 62 63 63 57 55
60 60 61 61 61 62 62 61 61 61 61 61 62 62 62 61 63 61 60 61 63 62 63 64 63 63 62 62 62 62 63 62 62 62 61 60 61 61 61 62 63 63 62 64 65 65 64 64 64 64 63 61 61 60 60 60 59 59 59 60 60 61 58
59 59 60 60 61 62 61 61 60 60 60 59 60 61 62 61 61 61 62 62 63 63 64 64 63 63 62 61 61 60 60 60 60 60 60 60 60 61 61 61 60 61 62 60 61 63 66 66 66 64 63 62 61 61 60 60 59 58 57 57 57 58 58
58 58 58 59 59 60 59 59 59 59 60 59 59 60 61 61 60 60 61 62 63 63 65 65 64 61 61 62 63 63 63 64 66 60 58 58 59 59 59 60 60 59 58 58 57 60 62 63 64 63 63 61 61 60 61 60 59 58 57 57 57 56 55
58 57 57 58 58 59 58 58 58 59 59 58 58 59 59 60 60 60 60 61 62 63 63 64 64 61 60 61 62 63 63 60 59 58 57 57 56 55 54 54 56 57 56 55 55 56 59 61 61 61 61 62 59 60 60 60 58 60 54 54 51 51 51
58 58 57 58 58 58 59 58 58 59 59 57 57 59 59 59 60 60 61 61 62 63 63 63 62 60 60 61 61 61 61 60 60 59 58 57 57 56 56 53 47 50 56 55 53 46 44 49 58 58 60 57 56 57 59 58 58 51 45 43 43 43 44
59 59 58 59 59 58 58 58 59 59 59 58 59 59 60 60 59 59 60 59 61 62 61 61 61 61 60 61 61 63 62 59 57 56 55 56 56 58 59 59 55 42 43 51 51 44 39 39 40 44 49 57 58 55 51 53 48 42 41 41 41 40 40
59 59 59 59 58 58 58 58 59 59 58 57 58 58 59 60 59 58 60 59 59 60 60 61 61 60 60 58 60 64 61 58 61 59 58 55 55 56 56 56 56 58 47 41 44 43 40 39 38 39 41 42 48 57 59 51 43 39 39 38 39 39 38

ECMWFFLT1_sfc_temp_117.txt.gz
Temp
80 79 80 81 81 82 82 82 82 83 83 83 84 85 85 85 84 84 84 82 82 82 82 82 82 83 83 83 84 84 85 84 85 85 85 85 86 86 86 87 87 86 88 88 88 87 87 88 88 88 88 87 88 87 87 87 87 89 87 86 86 86 87
78 80 80 80 80 81 82 82 83 83 83 83 84 84 85 85 84 83 83 83 82 83 83 83 82 82 83 83 85 84 83 84 84 84 86 84 84 85 86 86 86 86 85 87 87 87 87 88 88 87 87 88 88 87 88 88 87 87 88 87 87 86 86
78 78 79 80 80 81 81 82 83 83 83 84 85 85 84 83 83 82 82 83 82 82 84 83 82 83 84 84 84 83 84 85 85 85 85 87 86 88 87 86 86 87 89 88 87 89 88 88 87 87 87 87 89 88 87 87 87 88 87 86 87 88 86
75 76 77 79 80 81 82 82 82 83 84 84 85 85 84 83 84 83 83 83 83 83 82 84 84 85 85 83 84 84 84 84 85 87 88 88 88 88 86 86 86 87 87 87 89 88 90 88 88 87 86 87 87 88 88 88 89 88 88 86 87 87 86
76 78 78 78 79 80 81 81 81 82 82 84 84 84 85 84 84 84 84 85 85 84 85 86 87 87 85 86 86 86 85 86 86 87 88 88 87 87 87 88 88 88 88 89 88 86 86 86 88 87 87 86 87 87 87 87 88 87 87 87 86 87 87
76 77 77 77 79 80 81 82 83 82 83 82 82 84 85 84 86 86 85 85 84 85 85 86 86 86 85 87 87 87 86 85 85 85 86 86 86 87 88 87 89 88 89 88 89 89 88 88 88 88 88 90 89 89 90 89 89 89 88 87 86 88 89
76 77 77 77 78 79 81 82 84 83 83 84 84 85 85 84 85 85 86 85 84 83 85 86 87 86 85 86 85 85 85 87 86 86 87 88 87 87 87 88 88 89 90 89 88 89 89 88 87 87 88 89 88 89 88 86 87 88 87 86 86 86 86
78 77 78 79 80 81 81 81 83 83 83 85 85 84 83 84 84 84 85 86 85 87 85 85 85 84 84 85 85 85 86 86 87 87 87 88 88 87 88 88 88 88 88 88 88 88 89 88 89 89 88 88 88 87 88 87 86 89 88 87 86 86 89
78 78 78 78 80 80 81 81 82 82 82 83 83 83 84 84 83 83 83 84 84 84 84 85 85 84 84 84 83 84 86 86 86 87 87 88 88 89 90 90 89 88 88 89 90 89 89 89 90 88 87 87 87 87 87 86 88 88 87 87 86 86 88
77 77 78 79 79 79 80 81 81 81 81 81 81 81 82 82 82 82 82 82 83 83 83 83 84 84 83 83 84 85 85 85 86 87 88 88 89 89 90 91 90 89 89 90 91 90 89 89 89 88 86 86 86 87 87 87 88 88 88 87 87 86 86
75 76 77 77 77 78 79 79 79 79 79 79 80 81 82 82 81 82 82 82 83 82 83 84 84 83 83 83 83 84 84 84 85 86 85 85 87 89 90 90 91 90 89 90 90 91 91 89 88 87 86 88 87 87 87 88 88 87 89 89 89 88 88
71 73 75 76 76 76 76 77 78 79 79 79 80 80 81 81 82 82 81 82 83 83 83 83 84 83 83 83 83 83 84 85 86 85 85 85 85 87 90 91 90 90 90 90 89 89 90 90 90 89 87 87 88 88 88 88 88 87 88 90 90 89 89
69 70 71 74 75 75 75 75 76 78 79 79 80 80 80 81 81 81 81 82 83 84 83 83 83 82 82 82 83 82 83 85 85 86 86 85 85 85 87 89 91 91 90 90 90 90 90 91 89 89 89 88 89 89 88 88 89 87 87 88 89 88 88
68 69 70 72 73 74 75 75 75 76 77 78 79 80 81 81 81 81 81 81 82 83 83 84 83 82 82 82 82 82 83 84 85 84 84 84 84 84 85 87 89 89 90 90 89 90 90 91 91 91 90 90 90 90 89 88 88 87 87 88 89 89 89
66 66 68 70 71 73 74 75 75 76 76 77 78 78 79 80 80 81 81 82 82 82 82 83 82 82 83 81 81 81 82 83 83 84 84 83 83 83 84 85 87 87 88 87 89 91 91 91 92 91 90 91 90 90 90 91 90 90 89 88 88 88 89
66 66 67 67 68 70 71 74 76 76 76 76 77 77 77 78 78 80 80 81 81 81 82 82 81 81 81 81 81 82 82 82 82 83 83 82 82 83 83 85 86 87 86 87 87 88 87 88 89 90 90 90 90 90 91 91 92 87 82 81 87 88 89
65 66 67 67 68 69 70 72 74 75 75 76 76 76 76 76 77 78 79 80 80 80 81 81 80 80 81 81 81 82 82 81 82 82 81 82 82 83 82 82 84 84 84 85 85 85 85 86 88 89 91 91 91 91 91 92 83 67 68 70 72 82 86
66 67 68 68 68 68 69 70 70 72 74 75 75 76 75 75 76 76 76 78 78 79 79 80 80 80 80 80 80 79 80 80 81 81 81 81 81 82 82 82 82 82 83 84 84 83 86 85 84 84 87 89 89 90 90 85 66 65 65 67 67 72 81
67 68 69 70 69 69 69 70 70 71 72 73 74 74 75 75 75 74 76 77 77 78 78 78 78 78 76 75 74 74 74 75 78 79 79 80 81 81 81 81 81 81 80 79 80 80 79 79 83 84 85 85 85 85 85 83 64 64 65 65 66 67 76
65 66 67 68 69 69 68 69 70 71 72 72 73 74 74 75 76 76 76 76 75 76 77 76 75 75 75 75 73 71 71 73 74 72 72 73 71 74 78 77 77 77 78 78 77 77 77 79 81 81 81 81 82 81 82 78 65 62 63 64 64 66 73
64 65 65 66 66 66 67 68 69 70 71 72 73 73 73 74 75 75 74 73 73 74 75 75 75 72 72 73 71 70 71 71 72 71 71 70 71 72 71 72 74 74 74 76 77 77 78 78 80 80 80 80 81 81 80 74 59 61 61 62 63 65 74
63 63 62 63 63 63 64 65 65 66 66 68 71 72 72 72 74 74 73 74 73 73 73 73 73 72 71 70 70 70 71 71 70 71 71 70 69 69 69 71 72 72 72 74 75 76 77 77 79 79 79 80 80 79 77 72 57 58 59 59 61 66 80
62 63 63 64 65 64 66 66 66 67 67 66 66 67 67 70 72 71 71 71 72 73 72 70 69 69 70 69 69 70 71 71 70 70 70 70 70 70 69 70 71 73 74 72 72 73 75 77 78 79 78 78 78 77 74 70 60 56 57 58 58 69 80
63 63 64 64 65 65 65 66 67 68 68 66 66 66 67 67 68 67 67 67 68 68 67 67 68 68 67 67 69 69 69 70 70 70 70 69 69 70 69 70 71 72 73 72 72 72 74 75 75 74 74 74 73 74 70 69 62 55 56 57 56 67 75
64 64 64 64 64 64 64 65 66 67 68 67 65 66 67 67 67 67 65 65 65 65 64 64 64 65 65 66 67 69 69 69 69 69 69 69 70 70 69 70 71 72 71 71 71 70 71 72 70 69 70 71 70 69 68 66 63 56 55 55 56 64 73
64 64 65 65 65 65 64 65 65 65 64 64 65 68 69 69 67 66 64 63 63 63 62 62 63 64 65 65 66 67 67 68 69 69 69 69 69 69 69 70 70 70 69 69 68 67 67 67 67 66 66 67 68 68 67 65 64 61 54 54 56 58 69
66 68 68 68 67 67 65 64 63 63 63 65 66 67 67 67 65 63 63 62 61 61 61 62 63 63 63 63 64 65 66 66 67 67 67 68 68 69 69 68 68 69 69 68 68 67 66 66 66 66 66 67 69 68 68 68 67 63 54 54 54 55 62
67 68 69 69 68 67 65 64 63 63 64 66 68 68 67 66 64 63 62 61 60 62 63 63 62 62 63 63 63 64 65 65 65 66 66 67 68 68 68 68 68 68 68 68 68 67 66 66 66 66 66 67 67 68 67 69 67 68 59 54 53 52 55
67 67 67 68 69 69 68 64 62 62 63 64 66 68 68 67 64 64 63 62 62 64 64 64 63 63 63 63 63 63 64 64 65 66 67 67 69 70 69 69 69 69 69 68 67 67 66 66 66 66 66 66 66 67 67 67 68 64 66 59 53 53 54
67 69 70 71 71 70 70 67 65 64 64 64 66 66 68 67 64 64 64 63 65 65 65 64 64 64 64 63 64 64 64 65 65 66 67 69 70 70 69 69 70 70 70 69 69 68 67 67 67 67 68 68 69 69 69 68 67 66 63 64 58 55 53
66 68 69 69 70 70 71 69 67 66 66 68 67 68 69 69 66 65 63 64 67 67 67 67 66 66 66 65 65 65 65 66 66 66 67 67 68 68 69 71 71 70 70 71 71 70 70 70 71 71 71 71 72 72 71 70 69 69 67 64 64 59 55
66 67 68 69 69 70 70 70 69 68 68 68 69 68 68 69 69 66 66 69 70 69 69 68 68 67 66 66 65 66 68 68 68 68 68 67 68 67 68 70 71 70 71 72 72 71 70 70 71 71 70 69 70 70 70 69 69 70 70 69 68 67 61
66 66 66 66 68 69 70 70 69 68 68 67 70 71 71 69 70 69 69 69 72 71 70 69 69 68 68 67 67 67 68 68 68 68 68 68 69 69 69 69 70 70 70 72 73 73 72 71 71 70 69 69 70 70 69 69 70 70 69 70 69 70 68
66 65 65 65 66 68 69 68 68 67 67 66 68 69 69 69 70 71 71 72 74 74 72 70 69 69 69 70 70 70 70 70 68 68 69 68 68 68 69 69 70 69 66 67 68 70 70 69 68 67 67 69 69 69 71 70 70 70 67 67 66 66 66
66 66 66 66 66 66 67 67 68 67 67 67 68 69 68 68 69 71 72 72 73 72 71 70 70 69 70 71 71 70 69 70 69 69 68 67 65 63 61 63 67 66 64 63 63 64 68 69 67 68 69 70 68 68 68 68 68 67 55 57 51 54 59
66 67 66 67 67 66 66 67 67 67 67 67 68 69 68 68 68 70 73 73 74 73 71 70 71 71 71 72 72 72 71 70 70 68 68 70 69 66 61 52 47 54 65 64 54 47 43 49 64 64 69 69 67 66 66 67 65 50 42 41 40 41 42
67 67 66 67 67 66 66 66 67 67 67 68 70 70 70 69 70 70 71 70 71 72 71 71 70 71 72 71 70 69 69 69 68 67 66 67 68 69 68 66 58 43 44 53 51 46 40 38 40 44 48 60 68 63 52 52 46 39 39 38 39 39 38
70 69 69 69 68 67 67 67 66 66 66 68 70 70 71 71 71 70 73 72 72 72 70 70 70 69 71 72 72 70 70 70 69 68 68 67 68 68 68 69 68 62 45 41 47 42 40 40 39 39 41 42 50 61 66 53 45 40 38 39 40 41 41